<?xml version="1.0" encoding="UTF-8" standalone="no" ?>
<gpx xmlns="http://www.topografix.com/GPX/1/1" xmlns:xsi="http://www.w3.org/2001/XMLSchema-instance" xsi:schemaLocation="http://www.topografix.com/GPX/1/1 http://www.topografix.com/GPX/1/1/gpx.xsd" version="1.1" creator="VisuGPX - https://www.visugpx.com">
  <metadata>
    <name>Pays Bigouden Les rivières</name>
    <desc><![CDATA[<p>Heure de départ: 09:35 9 mai 2024<br/>Heure d'arrivée: 17:39 9 mai 2024<br/>Distance: 44,1 km (08:04)<br/>Temps déplacement: 04:03<br/>Vitesse moyenne: 5,46 km/h<br/>Vitesse moyenne mouv.: 10,86 km/h<br/>Vitesse Max.: 33,92 km/h<br/>Altitude minimale: -5 m<br/>Altitude maximale: 40 m<br/>Vitesse de montée: 108,1 m/h<br/>Vitesse de descente: -225,2 m/h<br/>Gain d'altitude: 571 m<br/>Perte d'altitude: -591 m<br/>Temps de montée: 05:17<br/>Temps de descente: 02:37<br/></p><hr align="center" width="480" style="height: 2px; width: 517px"/>]]></desc>
  </metadata>
  <trk>
    <name><![CDATA[2024-05-09 09:35]]></name>
    <desc><![CDATA[<p>Heure de départ: 09:35 9 mai 2024<br/>Heure d'arrivée: 17:39 9 mai 2024<br/>Distance: 44,1 km (08:04)<br/>Temps déplacement: 04:03<br/>Vitesse moyenne: 5,46 km/h<br/>Vitesse moyenne mouv.: 10,86 km/h<br/>Vitesse Max.: 33,92 km/h<br/>Altitude minimale: -5 m<br/>Altitude maximale: 40 m<br/>Vitesse de montée: 108,1 m/h<br/>Vitesse de descente: -225,2 m/h<br/>Gain d'altitude: 571 m<br/>Perte d'altitude: -591 m<br/>Temps de montée: 05:17<br/>Temps de descente: 02:37<br/></p><hr align="center" width="480" style="height: 2px; width: 517px"/>]]></desc>
    <trkseg>
      <trkpt lat="47.88683" lon="-4.2154">
        <ele>31</ele>
        <time>2024-05-09T07:35:36Z</time>
      </trkpt>
      <trkpt lat="47.88679" lon="-4.21552">
        <ele>31</ele>
        <time>2024-05-09T07:39:11Z</time>
      </trkpt>
      <trkpt lat="47.88688" lon="-4.21555">
        <ele>31</ele>
        <time>2024-05-09T07:41:20Z</time>
      </trkpt>
      <trkpt lat="47.88697" lon="-4.21558">
        <ele>30.8</ele>
        <time>2024-05-09T07:41:29Z</time>
      </trkpt>
      <trkpt lat="47.88707" lon="-4.21556">
        <ele>30.5</ele>
        <time>2024-05-09T07:41:33Z</time>
      </trkpt>
      <trkpt lat="47.88716" lon="-4.2155">
        <ele>30.2</ele>
        <time>2024-05-09T07:41:36Z</time>
      </trkpt>
      <trkpt lat="47.88725" lon="-4.21539">
        <ele>30</ele>
        <time>2024-05-09T07:41:40Z</time>
      </trkpt>
      <trkpt lat="47.88729" lon="-4.21524">
        <ele>30.1</ele>
        <time>2024-05-09T07:41:44Z</time>
      </trkpt>
      <trkpt lat="47.88732" lon="-4.21511">
        <ele>30.6</ele>
        <time>2024-05-09T07:41:48Z</time>
      </trkpt>
      <trkpt lat="47.88734" lon="-4.21497">
        <ele>31</ele>
        <time>2024-05-09T07:41:52Z</time>
      </trkpt>
      <trkpt lat="47.88736" lon="-4.21483">
        <ele>31</ele>
        <time>2024-05-09T07:41:56Z</time>
      </trkpt>
      <trkpt lat="47.8874" lon="-4.21467">
        <ele>31.2</ele>
        <time>2024-05-09T07:42:00Z</time>
      </trkpt>
      <trkpt lat="47.88744" lon="-4.21452">
        <ele>31.7</ele>
        <time>2024-05-09T07:42:04Z</time>
      </trkpt>
      <trkpt lat="47.8875" lon="-4.21439">
        <ele>32</ele>
        <time>2024-05-09T07:42:08Z</time>
      </trkpt>
      <trkpt lat="47.88755" lon="-4.21425">
        <ele>32</ele>
        <time>2024-05-09T07:42:12Z</time>
      </trkpt>
      <trkpt lat="47.88758" lon="-4.21411">
        <ele>32.2</ele>
        <time>2024-05-09T07:42:18Z</time>
      </trkpt>
      <trkpt lat="47.88757" lon="-4.21397">
        <ele>32.7</ele>
        <time>2024-05-09T07:42:29Z</time>
      </trkpt>
      <trkpt lat="47.88754" lon="-4.21384">
        <ele>33</ele>
        <time>2024-05-09T07:42:35Z</time>
      </trkpt>
      <trkpt lat="47.88752" lon="-4.2137">
        <ele>33</ele>
        <time>2024-05-09T07:44:30Z</time>
      </trkpt>
      <trkpt lat="47.8875" lon="-4.21356">
        <ele>33.2</ele>
        <time>2024-05-09T07:46:04Z</time>
      </trkpt>
      <trkpt lat="47.88748" lon="-4.2134">
        <ele>33.7</ele>
        <time>2024-05-09T07:46:09Z</time>
      </trkpt>
      <trkpt lat="47.88747" lon="-4.21326">
        <ele>33.9</ele>
        <time>2024-05-09T07:46:13Z</time>
      </trkpt>
      <trkpt lat="47.88747" lon="-4.21309">
        <ele>34</ele>
        <time>2024-05-09T07:46:17Z</time>
      </trkpt>
      <trkpt lat="47.88744" lon="-4.21295">
        <ele>34</ele>
        <time>2024-05-09T07:46:21Z</time>
      </trkpt>
      <trkpt lat="47.88742" lon="-4.2128">
        <ele>34</ele>
        <time>2024-05-09T07:46:27Z</time>
      </trkpt>
      <trkpt lat="47.88743" lon="-4.21263">
        <ele>33</ele>
        <time>2024-05-09T07:46:32Z</time>
      </trkpt>
      <trkpt lat="47.88744" lon="-4.21249">
        <ele>32</ele>
        <time>2024-05-09T07:46:36Z</time>
      </trkpt>
      <trkpt lat="47.88737" lon="-4.21242">
        <ele>31.7</ele>
        <time>2024-05-09T07:46:57Z</time>
      </trkpt>
      <trkpt lat="47.88744" lon="-4.21233">
        <ele>31.4</ele>
        <time>2024-05-09T07:47:12Z</time>
      </trkpt>
      <trkpt lat="47.88755" lon="-4.2123">
        <ele>31.4</ele>
        <time>2024-05-09T07:47:16Z</time>
      </trkpt>
      <trkpt lat="47.88765" lon="-4.21229">
        <ele>31.7</ele>
        <time>2024-05-09T07:47:19Z</time>
      </trkpt>
      <trkpt lat="47.88776" lon="-4.21229">
        <ele>31.9</ele>
        <time>2024-05-09T07:47:22Z</time>
      </trkpt>
      <trkpt lat="47.88787" lon="-4.21228">
        <ele>31.7</ele>
        <time>2024-05-09T07:47:25Z</time>
      </trkpt>
      <trkpt lat="47.888" lon="-4.21226">
        <ele>31.3</ele>
        <time>2024-05-09T07:47:28Z</time>
      </trkpt>
      <trkpt lat="47.88811" lon="-4.21225">
        <ele>30.9</ele>
        <time>2024-05-09T07:47:31Z</time>
      </trkpt>
      <trkpt lat="47.88822" lon="-4.21221">
        <ele>30.4</ele>
        <time>2024-05-09T07:47:34Z</time>
      </trkpt>
      <trkpt lat="47.88833" lon="-4.21218">
        <ele>30.2</ele>
        <time>2024-05-09T07:47:37Z</time>
      </trkpt>
      <trkpt lat="47.88845" lon="-4.21215">
        <ele>29.9</ele>
        <time>2024-05-09T07:47:40Z</time>
      </trkpt>
      <trkpt lat="47.88856" lon="-4.21211">
        <ele>29.6</ele>
        <time>2024-05-09T07:47:43Z</time>
      </trkpt>
      <trkpt lat="47.88869" lon="-4.21208">
        <ele>29.2</ele>
        <time>2024-05-09T07:47:46Z</time>
      </trkpt>
      <trkpt lat="47.88881" lon="-4.21205">
        <ele>28.9</ele>
        <time>2024-05-09T07:47:49Z</time>
      </trkpt>
      <trkpt lat="47.88894" lon="-4.21202">
        <ele>28.7</ele>
        <time>2024-05-09T07:47:52Z</time>
      </trkpt>
      <trkpt lat="47.88903" lon="-4.21201">
        <ele>28.7</ele>
        <time>2024-05-09T07:47:54Z</time>
      </trkpt>
      <trkpt lat="47.88913" lon="-4.21201">
        <ele>28.8</ele>
        <time>2024-05-09T07:47:56Z</time>
      </trkpt>
      <trkpt lat="47.88923" lon="-4.21201">
        <ele>28.5</ele>
        <time>2024-05-09T07:47:58Z</time>
      </trkpt>
      <trkpt lat="47.88933" lon="-4.21203">
        <ele>28.1</ele>
        <time>2024-05-09T07:48:00Z</time>
      </trkpt>
      <trkpt lat="47.88943" lon="-4.21205">
        <ele>27.7</ele>
        <time>2024-05-09T07:48:02Z</time>
      </trkpt>
      <trkpt lat="47.88952" lon="-4.21207">
        <ele>27.3</ele>
        <time>2024-05-09T07:48:04Z</time>
      </trkpt>
      <trkpt lat="47.88962" lon="-4.21208">
        <ele>26.9</ele>
        <time>2024-05-09T07:48:06Z</time>
      </trkpt>
      <trkpt lat="47.88971" lon="-4.21211">
        <ele>26.4</ele>
        <time>2024-05-09T07:48:08Z</time>
      </trkpt>
      <trkpt lat="47.88983" lon="-4.21215">
        <ele>26.3</ele>
        <time>2024-05-09T07:48:10Z</time>
      </trkpt>
      <trkpt lat="47.88993" lon="-4.21219">
        <ele>26.1</ele>
        <time>2024-05-09T07:48:12Z</time>
      </trkpt>
      <trkpt lat="47.89004" lon="-4.21224">
        <ele>25.9</ele>
        <time>2024-05-09T07:48:14Z</time>
      </trkpt>
      <trkpt lat="47.89014" lon="-4.2123">
        <ele>25.7</ele>
        <time>2024-05-09T07:48:16Z</time>
      </trkpt>
      <trkpt lat="47.89024" lon="-4.21236">
        <ele>25.5</ele>
        <time>2024-05-09T07:48:18Z</time>
      </trkpt>
      <trkpt lat="47.89034" lon="-4.21242">
        <ele>25.2</ele>
        <time>2024-05-09T07:48:20Z</time>
      </trkpt>
      <trkpt lat="47.89043" lon="-4.21249">
        <ele>25</ele>
        <time>2024-05-09T07:48:22Z</time>
      </trkpt>
      <trkpt lat="47.89053" lon="-4.21257">
        <ele>25</ele>
        <time>2024-05-09T07:48:24Z</time>
      </trkpt>
      <trkpt lat="47.89061" lon="-4.21264">
        <ele>24.9</ele>
        <time>2024-05-09T07:48:26Z</time>
      </trkpt>
      <trkpt lat="47.89071" lon="-4.21273">
        <ele>24.9</ele>
        <time>2024-05-09T07:48:29Z</time>
      </trkpt>
      <trkpt lat="47.89077" lon="-4.21284">
        <ele>25</ele>
        <time>2024-05-09T07:48:34Z</time>
      </trkpt>
      <trkpt lat="47.89073" lon="-4.213">
        <ele>24.7</ele>
        <time>2024-05-09T07:48:39Z</time>
      </trkpt>
      <trkpt lat="47.89064" lon="-4.21315">
        <ele>24.3</ele>
        <time>2024-05-09T07:48:42Z</time>
      </trkpt>
      <trkpt lat="47.89058" lon="-4.21327">
        <ele>24.1</ele>
        <time>2024-05-09T07:48:44Z</time>
      </trkpt>
      <trkpt lat="47.89053" lon="-4.2134">
        <ele>24</ele>
        <time>2024-05-09T07:48:46Z</time>
      </trkpt>
      <trkpt lat="47.89046" lon="-4.21355">
        <ele>23.7</ele>
        <time>2024-05-09T07:48:49Z</time>
      </trkpt>
      <trkpt lat="47.89041" lon="-4.21371">
        <ele>23.5</ele>
        <time>2024-05-09T07:48:52Z</time>
      </trkpt>
      <trkpt lat="47.89037" lon="-4.21385">
        <ele>23.3</ele>
        <time>2024-05-09T07:48:56Z</time>
      </trkpt>
      <trkpt lat="47.89032" lon="-4.21402">
        <ele>23.2</ele>
        <time>2024-05-09T07:49:00Z</time>
      </trkpt>
      <trkpt lat="47.89028" lon="-4.21414">
        <ele>23</ele>
        <time>2024-05-09T07:49:02Z</time>
      </trkpt>
      <trkpt lat="47.89024" lon="-4.21429">
        <ele>23.1</ele>
        <time>2024-05-09T07:49:05Z</time>
      </trkpt>
      <trkpt lat="47.8902" lon="-4.21446">
        <ele>23.2</ele>
        <time>2024-05-09T07:49:08Z</time>
      </trkpt>
      <trkpt lat="47.89017" lon="-4.21462">
        <ele>22.7</ele>
        <time>2024-05-09T07:49:11Z</time>
      </trkpt>
      <trkpt lat="47.89013" lon="-4.21481">
        <ele>22.5</ele>
        <time>2024-05-09T07:49:14Z</time>
      </trkpt>
      <trkpt lat="47.89009" lon="-4.21497">
        <ele>22.7</ele>
        <time>2024-05-09T07:49:16Z</time>
      </trkpt>
      <trkpt lat="47.89005" lon="-4.2151">
        <ele>22.5</ele>
        <time>2024-05-09T07:49:17Z</time>
      </trkpt>
      <trkpt lat="47.89001" lon="-4.21525">
        <ele>22.1</ele>
        <time>2024-05-09T07:49:19Z</time>
      </trkpt>
      <trkpt lat="47.88999" lon="-4.21543">
        <ele>22</ele>
        <time>2024-05-09T07:49:21Z</time>
      </trkpt>
      <trkpt lat="47.88997" lon="-4.21557">
        <ele>22.1</ele>
        <time>2024-05-09T07:49:23Z</time>
      </trkpt>
      <trkpt lat="47.88994" lon="-4.21572">
        <ele>21.6</ele>
        <time>2024-05-09T07:49:25Z</time>
      </trkpt>
      <trkpt lat="47.88993" lon="-4.21588">
        <ele>21.2</ele>
        <time>2024-05-09T07:49:28Z</time>
      </trkpt>
      <trkpt lat="47.88993" lon="-4.21603">
        <ele>21.2</ele>
        <time>2024-05-09T07:49:30Z</time>
      </trkpt>
      <trkpt lat="47.88992" lon="-4.21618">
        <ele>21.1</ele>
        <time>2024-05-09T07:49:32Z</time>
      </trkpt>
      <trkpt lat="47.88991" lon="-4.21638">
        <ele>20.4</ele>
        <time>2024-05-09T07:49:34Z</time>
      </trkpt>
      <trkpt lat="47.88987" lon="-4.2166">
        <ele>20.1</ele>
        <time>2024-05-09T07:49:36Z</time>
      </trkpt>
      <trkpt lat="47.88987" lon="-4.21676">
        <ele>19.8</ele>
        <time>2024-05-09T07:49:38Z</time>
      </trkpt>
      <trkpt lat="47.88985" lon="-4.21691">
        <ele>19.6</ele>
        <time>2024-05-09T07:49:40Z</time>
      </trkpt>
      <trkpt lat="47.88985" lon="-4.21707">
        <ele>19.3</ele>
        <time>2024-05-09T07:49:42Z</time>
      </trkpt>
      <trkpt lat="47.88983" lon="-4.21721">
        <ele>19</ele>
        <time>2024-05-09T07:49:44Z</time>
      </trkpt>
      <trkpt lat="47.88982" lon="-4.21736">
        <ele>19</ele>
        <time>2024-05-09T07:49:46Z</time>
      </trkpt>
      <trkpt lat="47.88978" lon="-4.2175">
        <ele>19</ele>
        <time>2024-05-09T07:49:48Z</time>
      </trkpt>
      <trkpt lat="47.88977" lon="-4.21766">
        <ele>18.4</ele>
        <time>2024-05-09T07:49:50Z</time>
      </trkpt>
      <trkpt lat="47.88973" lon="-4.21784">
        <ele>17.8</ele>
        <time>2024-05-09T07:49:53Z</time>
      </trkpt>
      <trkpt lat="47.88971" lon="-4.21802">
        <ele>17.2</ele>
        <time>2024-05-09T07:49:56Z</time>
      </trkpt>
      <trkpt lat="47.88968" lon="-4.2182">
        <ele>17.2</ele>
        <time>2024-05-09T07:49:58Z</time>
      </trkpt>
      <trkpt lat="47.88965" lon="-4.21835">
        <ele>17.3</ele>
        <time>2024-05-09T07:50:00Z</time>
      </trkpt>
      <trkpt lat="47.88963" lon="-4.21849">
        <ele>17.5</ele>
        <time>2024-05-09T07:50:02Z</time>
      </trkpt>
      <trkpt lat="47.88959" lon="-4.21863">
        <ele>17.5</ele>
        <time>2024-05-09T07:50:04Z</time>
      </trkpt>
      <trkpt lat="47.88954" lon="-4.21876">
        <ele>17</ele>
        <time>2024-05-09T07:50:06Z</time>
      </trkpt>
      <trkpt lat="47.8895" lon="-4.21888">
        <ele>16.4</ele>
        <time>2024-05-09T07:50:08Z</time>
      </trkpt>
      <trkpt lat="47.88947" lon="-4.21902">
        <ele>16.2</ele>
        <time>2024-05-09T07:50:10Z</time>
      </trkpt>
      <trkpt lat="47.88944" lon="-4.21915">
        <ele>16</ele>
        <time>2024-05-09T07:50:12Z</time>
      </trkpt>
      <trkpt lat="47.88939" lon="-4.21928">
        <ele>15.9</ele>
        <time>2024-05-09T07:50:14Z</time>
      </trkpt>
      <trkpt lat="47.88933" lon="-4.21945">
        <ele>15.6</ele>
        <time>2024-05-09T07:50:17Z</time>
      </trkpt>
      <trkpt lat="47.88927" lon="-4.21958">
        <ele>15.6</ele>
        <time>2024-05-09T07:50:19Z</time>
      </trkpt>
      <trkpt lat="47.88921" lon="-4.2197">
        <ele>15.3</ele>
        <time>2024-05-09T07:50:21Z</time>
      </trkpt>
      <trkpt lat="47.88916" lon="-4.21981">
        <ele>15.3</ele>
        <time>2024-05-09T07:50:23Z</time>
      </trkpt>
      <trkpt lat="47.88911" lon="-4.21994">
        <ele>15.6</ele>
        <time>2024-05-09T07:50:25Z</time>
      </trkpt>
      <trkpt lat="47.88905" lon="-4.22006">
        <ele>15.6</ele>
        <time>2024-05-09T07:50:27Z</time>
      </trkpt>
      <trkpt lat="47.88899" lon="-4.22019">
        <ele>15.4</ele>
        <time>2024-05-09T07:50:29Z</time>
      </trkpt>
      <trkpt lat="47.88894" lon="-4.2203">
        <ele>15.3</ele>
        <time>2024-05-09T07:50:32Z</time>
      </trkpt>
      <trkpt lat="47.88886" lon="-4.22039">
        <ele>15.3</ele>
        <time>2024-05-09T07:50:34Z</time>
      </trkpt>
      <trkpt lat="47.88879" lon="-4.22052">
        <ele>15.5</ele>
        <time>2024-05-09T07:50:36Z</time>
      </trkpt>
      <trkpt lat="47.88871" lon="-4.22062">
        <ele>15.6</ele>
        <time>2024-05-09T07:50:38Z</time>
      </trkpt>
      <trkpt lat="47.88866" lon="-4.22074">
        <ele>15.8</ele>
        <time>2024-05-09T07:50:40Z</time>
      </trkpt>
      <trkpt lat="47.88857" lon="-4.22091">
        <ele>16</ele>
        <time>2024-05-09T07:50:43Z</time>
      </trkpt>
      <trkpt lat="47.88851" lon="-4.22109">
        <ele>16</ele>
        <time>2024-05-09T07:50:46Z</time>
      </trkpt>
      <trkpt lat="47.88839" lon="-4.22118">
        <ele>16</ele>
        <time>2024-05-09T07:50:48Z</time>
      </trkpt>
      <trkpt lat="47.88829" lon="-4.2213">
        <ele>16.6</ele>
        <time>2024-05-09T07:50:50Z</time>
      </trkpt>
      <trkpt lat="47.88818" lon="-4.22139">
        <ele>17.6</ele>
        <time>2024-05-09T07:50:52Z</time>
      </trkpt>
      <trkpt lat="47.88813" lon="-4.22154">
        <ele>17.8</ele>
        <time>2024-05-09T07:50:54Z</time>
      </trkpt>
      <trkpt lat="47.88807" lon="-4.22166">
        <ele>17.9</ele>
        <time>2024-05-09T07:50:56Z</time>
      </trkpt>
      <trkpt lat="47.88799" lon="-4.22179">
        <ele>17.5</ele>
        <time>2024-05-09T07:50:59Z</time>
      </trkpt>
      <trkpt lat="47.88791" lon="-4.22192">
        <ele>17.1</ele>
        <time>2024-05-09T07:51:01Z</time>
      </trkpt>
      <trkpt lat="47.88782" lon="-4.22206">
        <ele>16.9</ele>
        <time>2024-05-09T07:51:04Z</time>
      </trkpt>
      <trkpt lat="47.88775" lon="-4.22216">
        <ele>16.4</ele>
        <time>2024-05-09T07:51:06Z</time>
      </trkpt>
      <trkpt lat="47.8877" lon="-4.2223">
        <ele>15.7</ele>
        <time>2024-05-09T07:51:09Z</time>
      </trkpt>
      <trkpt lat="47.88762" lon="-4.22243">
        <ele>15.2</ele>
        <time>2024-05-09T07:51:12Z</time>
      </trkpt>
      <trkpt lat="47.88753" lon="-4.22257">
        <ele>14.7</ele>
        <time>2024-05-09T07:51:15Z</time>
      </trkpt>
      <trkpt lat="47.88748" lon="-4.22274">
        <ele>14.1</ele>
        <time>2024-05-09T07:51:18Z</time>
      </trkpt>
      <trkpt lat="47.88739" lon="-4.22286">
        <ele>13.5</ele>
        <time>2024-05-09T07:51:20Z</time>
      </trkpt>
      <trkpt lat="47.8873" lon="-4.22297">
        <ele>13.6</ele>
        <time>2024-05-09T07:51:22Z</time>
      </trkpt>
      <trkpt lat="47.88722" lon="-4.22312">
        <ele>14</ele>
        <time>2024-05-09T07:51:25Z</time>
      </trkpt>
      <trkpt lat="47.88712" lon="-4.22323">
        <ele>13.9</ele>
        <time>2024-05-09T07:51:27Z</time>
      </trkpt>
      <trkpt lat="47.88705" lon="-4.22333">
        <ele>14</ele>
        <time>2024-05-09T07:51:29Z</time>
      </trkpt>
      <trkpt lat="47.88695" lon="-4.22347">
        <ele>14</ele>
        <time>2024-05-09T07:51:32Z</time>
      </trkpt>
      <trkpt lat="47.88688" lon="-4.22359">
        <ele>14</ele>
        <time>2024-05-09T07:51:34Z</time>
      </trkpt>
      <trkpt lat="47.88677" lon="-4.22372">
        <ele>14.2</ele>
        <time>2024-05-09T07:51:37Z</time>
      </trkpt>
      <trkpt lat="47.8867" lon="-4.22382">
        <ele>14.1</ele>
        <time>2024-05-09T07:51:39Z</time>
      </trkpt>
      <trkpt lat="47.88662" lon="-4.22391">
        <ele>14.1</ele>
        <time>2024-05-09T07:51:41Z</time>
      </trkpt>
      <trkpt lat="47.88654" lon="-4.224">
        <ele>14.2</ele>
        <time>2024-05-09T07:51:43Z</time>
      </trkpt>
      <trkpt lat="47.88646" lon="-4.22408">
        <ele>14.2</ele>
        <time>2024-05-09T07:51:45Z</time>
      </trkpt>
      <trkpt lat="47.88639" lon="-4.22417">
        <ele>14</ele>
        <time>2024-05-09T07:51:47Z</time>
      </trkpt>
      <trkpt lat="47.88631" lon="-4.22426">
        <ele>13.9</ele>
        <time>2024-05-09T07:51:49Z</time>
      </trkpt>
      <trkpt lat="47.88624" lon="-4.22434">
        <ele>13.7</ele>
        <time>2024-05-09T07:51:51Z</time>
      </trkpt>
      <trkpt lat="47.88615" lon="-4.22444">
        <ele>13.2</ele>
        <time>2024-05-09T07:51:53Z</time>
      </trkpt>
      <trkpt lat="47.88608" lon="-4.22452">
        <ele>13</ele>
        <time>2024-05-09T07:51:55Z</time>
      </trkpt>
      <trkpt lat="47.886" lon="-4.2246">
        <ele>13</ele>
        <time>2024-05-09T07:51:57Z</time>
      </trkpt>
      <trkpt lat="47.88592" lon="-4.22469">
        <ele>13</ele>
        <time>2024-05-09T07:51:59Z</time>
      </trkpt>
      <trkpt lat="47.88582" lon="-4.2248">
        <ele>13</ele>
        <time>2024-05-09T07:52:02Z</time>
      </trkpt>
      <trkpt lat="47.88574" lon="-4.22488">
        <ele>12.7</ele>
        <time>2024-05-09T07:52:04Z</time>
      </trkpt>
      <trkpt lat="47.88567" lon="-4.22498">
        <ele>12.4</ele>
        <time>2024-05-09T07:52:06Z</time>
      </trkpt>
      <trkpt lat="47.88559" lon="-4.22506">
        <ele>12.1</ele>
        <time>2024-05-09T07:52:08Z</time>
      </trkpt>
      <trkpt lat="47.88551" lon="-4.22513">
        <ele>11.9</ele>
        <time>2024-05-09T07:52:10Z</time>
      </trkpt>
      <trkpt lat="47.88541" lon="-4.2252">
        <ele>11.9</ele>
        <time>2024-05-09T07:52:12Z</time>
      </trkpt>
      <trkpt lat="47.88534" lon="-4.22528">
        <ele>12</ele>
        <time>2024-05-09T07:52:14Z</time>
      </trkpt>
      <trkpt lat="47.88525" lon="-4.22536">
        <ele>11.6</ele>
        <time>2024-05-09T07:52:16Z</time>
      </trkpt>
      <trkpt lat="47.88511" lon="-4.22545">
        <ele>10.9</ele>
        <time>2024-05-09T07:52:19Z</time>
      </trkpt>
      <trkpt lat="47.88501" lon="-4.22554">
        <ele>10.9</ele>
        <time>2024-05-09T07:52:21Z</time>
      </trkpt>
      <trkpt lat="47.88492" lon="-4.22562">
        <ele>10.8</ele>
        <time>2024-05-09T07:52:23Z</time>
      </trkpt>
      <trkpt lat="47.88484" lon="-4.22572">
        <ele>10.8</ele>
        <time>2024-05-09T07:52:25Z</time>
      </trkpt>
      <trkpt lat="47.88472" lon="-4.22579">
        <ele>10.8</ele>
        <time>2024-05-09T07:52:27Z</time>
      </trkpt>
      <trkpt lat="47.88462" lon="-4.22584">
        <ele>10.6</ele>
        <time>2024-05-09T07:52:29Z</time>
      </trkpt>
      <trkpt lat="47.8845" lon="-4.22596">
        <ele>10.1</ele>
        <time>2024-05-09T07:52:32Z</time>
      </trkpt>
      <trkpt lat="47.88439" lon="-4.22602">
        <ele>9.9</ele>
        <time>2024-05-09T07:52:34Z</time>
      </trkpt>
      <trkpt lat="47.8843" lon="-4.22608">
        <ele>10</ele>
        <time>2024-05-09T07:52:36Z</time>
      </trkpt>
      <trkpt lat="47.88422" lon="-4.22616">
        <ele>10</ele>
        <time>2024-05-09T07:52:38Z</time>
      </trkpt>
      <trkpt lat="47.88413" lon="-4.22627">
        <ele>9.9</ele>
        <time>2024-05-09T07:52:41Z</time>
      </trkpt>
      <trkpt lat="47.88404" lon="-4.22632">
        <ele>9.9</ele>
        <time>2024-05-09T07:52:43Z</time>
      </trkpt>
      <trkpt lat="47.88396" lon="-4.22637">
        <ele>9.9</ele>
        <time>2024-05-09T07:52:45Z</time>
      </trkpt>
      <trkpt lat="47.88385" lon="-4.22644">
        <ele>10</ele>
        <time>2024-05-09T07:52:47Z</time>
      </trkpt>
      <trkpt lat="47.88378" lon="-4.22652">
        <ele>10</ele>
        <time>2024-05-09T07:52:49Z</time>
      </trkpt>
      <trkpt lat="47.88368" lon="-4.22658">
        <ele>10</ele>
        <time>2024-05-09T07:52:51Z</time>
      </trkpt>
      <trkpt lat="47.88356" lon="-4.22667">
        <ele>10</ele>
        <time>2024-05-09T07:52:54Z</time>
      </trkpt>
      <trkpt lat="47.88346" lon="-4.22672">
        <ele>10</ele>
        <time>2024-05-09T07:52:56Z</time>
      </trkpt>
      <trkpt lat="47.88338" lon="-4.22678">
        <ele>10</ele>
        <time>2024-05-09T07:52:58Z</time>
      </trkpt>
      <trkpt lat="47.88327" lon="-4.22685">
        <ele>9.9</ele>
        <time>2024-05-09T07:53:00Z</time>
      </trkpt>
      <trkpt lat="47.88316" lon="-4.2269">
        <ele>9.9</ele>
        <time>2024-05-09T07:53:02Z</time>
      </trkpt>
      <trkpt lat="47.88308" lon="-4.22698">
        <ele>10</ele>
        <time>2024-05-09T07:53:05Z</time>
      </trkpt>
      <trkpt lat="47.88299" lon="-4.22703">
        <ele>9.8</ele>
        <time>2024-05-09T07:53:07Z</time>
      </trkpt>
      <trkpt lat="47.88289" lon="-4.22709">
        <ele>9.4</ele>
        <time>2024-05-09T07:53:10Z</time>
      </trkpt>
      <trkpt lat="47.88281" lon="-4.22713">
        <ele>9.1</ele>
        <time>2024-05-09T07:53:12Z</time>
      </trkpt>
      <trkpt lat="47.88272" lon="-4.22718">
        <ele>9</ele>
        <time>2024-05-09T07:53:14Z</time>
      </trkpt>
      <trkpt lat="47.88262" lon="-4.22723">
        <ele>9</ele>
        <time>2024-05-09T07:53:16Z</time>
      </trkpt>
      <trkpt lat="47.88252" lon="-4.22731">
        <ele>9.3</ele>
        <time>2024-05-09T07:53:19Z</time>
      </trkpt>
      <trkpt lat="47.88243" lon="-4.22736">
        <ele>9.4</ele>
        <time>2024-05-09T07:53:21Z</time>
      </trkpt>
      <trkpt lat="47.8823" lon="-4.22742">
        <ele>9.2</ele>
        <time>2024-05-09T07:53:24Z</time>
      </trkpt>
      <trkpt lat="47.88221" lon="-4.22747">
        <ele>8.9</ele>
        <time>2024-05-09T07:53:26Z</time>
      </trkpt>
      <trkpt lat="47.8821" lon="-4.22752">
        <ele>8.6</ele>
        <time>2024-05-09T07:53:28Z</time>
      </trkpt>
      <trkpt lat="47.88202" lon="-4.22757">
        <ele>8.4</ele>
        <time>2024-05-09T07:53:30Z</time>
      </trkpt>
      <trkpt lat="47.88193" lon="-4.22763">
        <ele>8.5</ele>
        <time>2024-05-09T07:53:32Z</time>
      </trkpt>
      <trkpt lat="47.88181" lon="-4.22771">
        <ele>8.4</ele>
        <time>2024-05-09T07:53:35Z</time>
      </trkpt>
      <trkpt lat="47.88169" lon="-4.22777">
        <ele>8.1</ele>
        <time>2024-05-09T07:53:38Z</time>
      </trkpt>
      <trkpt lat="47.88157" lon="-4.22785">
        <ele>8.2</ele>
        <time>2024-05-09T07:53:41Z</time>
      </trkpt>
      <trkpt lat="47.88145" lon="-4.22792">
        <ele>8.1</ele>
        <time>2024-05-09T07:53:44Z</time>
      </trkpt>
      <trkpt lat="47.88135" lon="-4.22798">
        <ele>8</ele>
        <time>2024-05-09T07:53:47Z</time>
      </trkpt>
      <trkpt lat="47.88126" lon="-4.22804">
        <ele>8</ele>
        <time>2024-05-09T07:53:50Z</time>
      </trkpt>
      <trkpt lat="47.88118" lon="-4.22812">
        <ele>8</ele>
        <time>2024-05-09T07:53:58Z</time>
      </trkpt>
      <trkpt lat="47.8811" lon="-4.22817">
        <ele>8</ele>
        <time>2024-05-09T07:54:04Z</time>
      </trkpt>
      <trkpt lat="47.88101" lon="-4.22819">
        <ele>7.6</ele>
        <time>2024-05-09T07:54:07Z</time>
      </trkpt>
      <trkpt lat="47.8809" lon="-4.22825">
        <ele>7.3</ele>
        <time>2024-05-09T07:54:10Z</time>
      </trkpt>
      <trkpt lat="47.8808" lon="-4.22832">
        <ele>7</ele>
        <time>2024-05-09T07:54:13Z</time>
      </trkpt>
      <trkpt lat="47.88071" lon="-4.22837">
        <ele>7.1</ele>
        <time>2024-05-09T07:54:16Z</time>
      </trkpt>
      <trkpt lat="47.88062" lon="-4.22842">
        <ele>7.1</ele>
        <time>2024-05-09T07:54:20Z</time>
      </trkpt>
      <trkpt lat="47.88054" lon="-4.22846">
        <ele>7</ele>
        <time>2024-05-09T07:54:25Z</time>
      </trkpt>
      <trkpt lat="47.88041" lon="-4.22851">
        <ele>7.3</ele>
        <time>2024-05-09T07:54:29Z</time>
      </trkpt>
      <trkpt lat="47.88032" lon="-4.22854">
        <ele>7.6</ele>
        <time>2024-05-09T07:54:32Z</time>
      </trkpt>
      <trkpt lat="47.88022" lon="-4.22857">
        <ele>7.7</ele>
        <time>2024-05-09T07:54:35Z</time>
      </trkpt>
      <trkpt lat="47.88011" lon="-4.22862">
        <ele>7.4</ele>
        <time>2024-05-09T07:54:39Z</time>
      </trkpt>
      <trkpt lat="47.88002" lon="-4.22864">
        <ele>7</ele>
        <time>2024-05-09T07:54:42Z</time>
      </trkpt>
      <trkpt lat="47.8799" lon="-4.22866">
        <ele>6.8</ele>
        <time>2024-05-09T07:54:45Z</time>
      </trkpt>
      <trkpt lat="47.87978" lon="-4.22868">
        <ele>6.7</ele>
        <time>2024-05-09T07:54:48Z</time>
      </trkpt>
      <trkpt lat="47.87966" lon="-4.22869">
        <ele>7.2</ele>
        <time>2024-05-09T07:54:51Z</time>
      </trkpt>
      <trkpt lat="47.87953" lon="-4.22869">
        <ele>8.4</ele>
        <time>2024-05-09T07:54:54Z</time>
      </trkpt>
      <trkpt lat="47.87942" lon="-4.2287">
        <ele>8.9</ele>
        <time>2024-05-09T07:54:56Z</time>
      </trkpt>
      <trkpt lat="47.87932" lon="-4.2287">
        <ele>8.4</ele>
        <time>2024-05-09T07:54:58Z</time>
      </trkpt>
      <trkpt lat="47.87923" lon="-4.22871">
        <ele>7.9</ele>
        <time>2024-05-09T07:55:00Z</time>
      </trkpt>
      <trkpt lat="47.87914" lon="-4.22871">
        <ele>7.6</ele>
        <time>2024-05-09T07:55:02Z</time>
      </trkpt>
      <trkpt lat="47.87901" lon="-4.22871">
        <ele>7.3</ele>
        <time>2024-05-09T07:55:05Z</time>
      </trkpt>
      <trkpt lat="47.87889" lon="-4.22871">
        <ele>7</ele>
        <time>2024-05-09T07:55:08Z</time>
      </trkpt>
      <trkpt lat="47.87881" lon="-4.22869">
        <ele>6.8</ele>
        <time>2024-05-09T07:55:10Z</time>
      </trkpt>
      <trkpt lat="47.87869" lon="-4.22866">
        <ele>6.4</ele>
        <time>2024-05-09T07:55:13Z</time>
      </trkpt>
      <trkpt lat="47.87859" lon="-4.22863">
        <ele>6.2</ele>
        <time>2024-05-09T07:55:16Z</time>
      </trkpt>
      <trkpt lat="47.87847" lon="-4.22857">
        <ele>6.4</ele>
        <time>2024-05-09T07:55:19Z</time>
      </trkpt>
      <trkpt lat="47.87838" lon="-4.22852">
        <ele>6.6</ele>
        <time>2024-05-09T07:55:21Z</time>
      </trkpt>
      <trkpt lat="47.87827" lon="-4.22844">
        <ele>6.7</ele>
        <time>2024-05-09T07:55:23Z</time>
      </trkpt>
      <trkpt lat="47.87817" lon="-4.22836">
        <ele>6.3</ele>
        <time>2024-05-09T07:55:26Z</time>
      </trkpt>
      <trkpt lat="47.87806" lon="-4.22832">
        <ele>6.1</ele>
        <time>2024-05-09T07:55:29Z</time>
      </trkpt>
      <trkpt lat="47.87798" lon="-4.22826">
        <ele>6.6</ele>
        <time>2024-05-09T07:55:32Z</time>
      </trkpt>
      <trkpt lat="47.8779" lon="-4.22819">
        <ele>7</ele>
        <time>2024-05-09T07:55:35Z</time>
      </trkpt>
      <trkpt lat="47.87782" lon="-4.22813">
        <ele>7.1</ele>
        <time>2024-05-09T07:55:37Z</time>
      </trkpt>
      <trkpt lat="47.87773" lon="-4.22805">
        <ele>7.1</ele>
        <time>2024-05-09T07:55:39Z</time>
      </trkpt>
      <trkpt lat="47.87765" lon="-4.22798">
        <ele>7.3</ele>
        <time>2024-05-09T07:55:40Z</time>
      </trkpt>
      <trkpt lat="47.87754" lon="-4.22791">
        <ele>6.8</ele>
        <time>2024-05-09T07:55:42Z</time>
      </trkpt>
      <trkpt lat="47.87746" lon="-4.22782">
        <ele>6.4</ele>
        <time>2024-05-09T07:55:44Z</time>
      </trkpt>
      <trkpt lat="47.87735" lon="-4.2277">
        <ele>6.9</ele>
        <time>2024-05-09T07:55:46Z</time>
      </trkpt>
      <trkpt lat="47.87728" lon="-4.22762">
        <ele>7.2</ele>
        <time>2024-05-09T07:55:48Z</time>
      </trkpt>
      <trkpt lat="47.87719" lon="-4.22752">
        <ele>6.9</ele>
        <time>2024-05-09T07:55:50Z</time>
      </trkpt>
      <trkpt lat="47.87711" lon="-4.22742">
        <ele>6.8</ele>
        <time>2024-05-09T07:55:52Z</time>
      </trkpt>
      <trkpt lat="47.87701" lon="-4.22727">
        <ele>6.4</ele>
        <time>2024-05-09T07:55:55Z</time>
      </trkpt>
      <trkpt lat="47.87693" lon="-4.22717">
        <ele>6.3</ele>
        <time>2024-05-09T07:55:57Z</time>
      </trkpt>
      <trkpt lat="47.87687" lon="-4.22706">
        <ele>6.7</ele>
        <time>2024-05-09T07:55:59Z</time>
      </trkpt>
      <trkpt lat="47.8768" lon="-4.22694">
        <ele>6.9</ele>
        <time>2024-05-09T07:56:01Z</time>
      </trkpt>
      <trkpt lat="47.87672" lon="-4.22684">
        <ele>6.6</ele>
        <time>2024-05-09T07:56:03Z</time>
      </trkpt>
      <trkpt lat="47.87666" lon="-4.22671">
        <ele>6.8</ele>
        <time>2024-05-09T07:56:05Z</time>
      </trkpt>
      <trkpt lat="47.8766" lon="-4.22661">
        <ele>7.8</ele>
        <time>2024-05-09T07:56:07Z</time>
      </trkpt>
      <trkpt lat="47.87652" lon="-4.22646">
        <ele>8.9</ele>
        <time>2024-05-09T07:56:10Z</time>
      </trkpt>
      <trkpt lat="47.87645" lon="-4.22637">
        <ele>8</ele>
        <time>2024-05-09T07:56:12Z</time>
      </trkpt>
      <trkpt lat="47.87636" lon="-4.22623">
        <ele>6.9</ele>
        <time>2024-05-09T07:56:15Z</time>
      </trkpt>
      <trkpt lat="47.87626" lon="-4.2261">
        <ele>7.1</ele>
        <time>2024-05-09T07:56:18Z</time>
      </trkpt>
      <trkpt lat="47.87618" lon="-4.22595">
        <ele>6.6</ele>
        <time>2024-05-09T07:56:21Z</time>
      </trkpt>
      <trkpt lat="47.87608" lon="-4.22584">
        <ele>5.9</ele>
        <time>2024-05-09T07:56:24Z</time>
      </trkpt>
      <trkpt lat="47.87603" lon="-4.2257">
        <ele>6.2</ele>
        <time>2024-05-09T07:56:27Z</time>
      </trkpt>
      <trkpt lat="47.87594" lon="-4.22561">
        <ele>6.2</ele>
        <time>2024-05-09T07:56:29Z</time>
      </trkpt>
      <trkpt lat="47.87584" lon="-4.22549">
        <ele>6</ele>
        <time>2024-05-09T07:56:32Z</time>
      </trkpt>
      <trkpt lat="47.87576" lon="-4.2254">
        <ele>6</ele>
        <time>2024-05-09T07:56:34Z</time>
      </trkpt>
      <trkpt lat="47.87569" lon="-4.22532">
        <ele>6</ele>
        <time>2024-05-09T07:56:37Z</time>
      </trkpt>
      <trkpt lat="47.8756" lon="-4.22523">
        <ele>5.9</ele>
        <time>2024-05-09T07:56:40Z</time>
      </trkpt>
      <trkpt lat="47.87548" lon="-4.22517">
        <ele>5.3</ele>
        <time>2024-05-09T07:56:43Z</time>
      </trkpt>
      <trkpt lat="47.87538" lon="-4.22512">
        <ele>4.9</ele>
        <time>2024-05-09T07:56:44Z</time>
      </trkpt>
      <trkpt lat="47.8753" lon="-4.22505">
        <ele>4.8</ele>
        <time>2024-05-09T07:56:46Z</time>
      </trkpt>
      <trkpt lat="47.8752" lon="-4.22499">
        <ele>5</ele>
        <time>2024-05-09T07:56:48Z</time>
      </trkpt>
      <trkpt lat="47.87511" lon="-4.22496">
        <ele>5</ele>
        <time>2024-05-09T07:56:50Z</time>
      </trkpt>
      <trkpt lat="47.875" lon="-4.2249">
        <ele>5</ele>
        <time>2024-05-09T07:56:52Z</time>
      </trkpt>
      <trkpt lat="47.87492" lon="-4.22486">
        <ele>4.9</ele>
        <time>2024-05-09T07:56:54Z</time>
      </trkpt>
      <trkpt lat="47.87483" lon="-4.2248">
        <ele>4.8</ele>
        <time>2024-05-09T07:56:56Z</time>
      </trkpt>
      <trkpt lat="47.87473" lon="-4.22477">
        <ele>4.8</ele>
        <time>2024-05-09T07:56:58Z</time>
      </trkpt>
      <trkpt lat="47.87463" lon="-4.22473">
        <ele>4.6</ele>
        <time>2024-05-09T07:57:00Z</time>
      </trkpt>
      <trkpt lat="47.87449" lon="-4.22473">
        <ele>4.2</ele>
        <time>2024-05-09T07:57:03Z</time>
      </trkpt>
      <trkpt lat="47.87439" lon="-4.22472">
        <ele>4.2</ele>
        <time>2024-05-09T07:57:05Z</time>
      </trkpt>
      <trkpt lat="47.87427" lon="-4.2247">
        <ele>4.6</ele>
        <time>2024-05-09T07:57:08Z</time>
      </trkpt>
      <trkpt lat="47.87417" lon="-4.22468">
        <ele>4.8</ele>
        <time>2024-05-09T07:57:14Z</time>
      </trkpt>
      <trkpt lat="47.87407" lon="-4.22459">
        <ele>4.5</ele>
        <time>2024-05-09T07:57:18Z</time>
      </trkpt>
      <trkpt lat="47.87398" lon="-4.22453">
        <ele>4.3</ele>
        <time>2024-05-09T07:57:42Z</time>
      </trkpt>
      <trkpt lat="47.8739" lon="-4.22443">
        <ele>4</ele>
        <time>2024-05-09T07:57:51Z</time>
      </trkpt>
      <trkpt lat="47.8738" lon="-4.22448">
        <ele>4.8</ele>
        <time>2024-05-09T07:57:57Z</time>
      </trkpt>
      <trkpt lat="47.8737" lon="-4.22455">
        <ele>5.5</ele>
        <time>2024-05-09T07:58:01Z</time>
      </trkpt>
      <trkpt lat="47.8736" lon="-4.22457">
        <ele>6</ele>
        <time>2024-05-09T07:58:05Z</time>
      </trkpt>
      <trkpt lat="47.87348" lon="-4.22457">
        <ele>5.8</ele>
        <time>2024-05-09T07:58:09Z</time>
      </trkpt>
      <trkpt lat="47.87339" lon="-4.22456">
        <ele>5.8</ele>
        <time>2024-05-09T07:58:12Z</time>
      </trkpt>
      <trkpt lat="47.87329" lon="-4.22454">
        <ele>5.8</ele>
        <time>2024-05-09T07:58:15Z</time>
      </trkpt>
      <trkpt lat="47.8732" lon="-4.22448">
        <ele>5.8</ele>
        <time>2024-05-09T07:58:18Z</time>
      </trkpt>
      <trkpt lat="47.87311" lon="-4.22444">
        <ele>5.4</ele>
        <time>2024-05-09T07:58:21Z</time>
      </trkpt>
      <trkpt lat="47.87301" lon="-4.22439">
        <ele>5.1</ele>
        <time>2024-05-09T07:58:24Z</time>
      </trkpt>
      <trkpt lat="47.8729" lon="-4.22433">
        <ele>5.1</ele>
        <time>2024-05-09T07:58:27Z</time>
      </trkpt>
      <trkpt lat="47.87279" lon="-4.22429">
        <ele>5.2</ele>
        <time>2024-05-09T07:58:30Z</time>
      </trkpt>
      <trkpt lat="47.87268" lon="-4.22425">
        <ele>5.1</ele>
        <time>2024-05-09T07:58:33Z</time>
      </trkpt>
      <trkpt lat="47.87257" lon="-4.22422">
        <ele>5</ele>
        <time>2024-05-09T07:58:36Z</time>
      </trkpt>
      <trkpt lat="47.87246" lon="-4.2242">
        <ele>4.9</ele>
        <time>2024-05-09T07:58:39Z</time>
      </trkpt>
      <trkpt lat="47.87233" lon="-4.22418">
        <ele>5</ele>
        <time>2024-05-09T07:58:42Z</time>
      </trkpt>
      <trkpt lat="47.87224" lon="-4.22417">
        <ele>5</ele>
        <time>2024-05-09T07:58:44Z</time>
      </trkpt>
      <trkpt lat="47.87214" lon="-4.22416">
        <ele>4.7</ele>
        <time>2024-05-09T07:58:46Z</time>
      </trkpt>
      <trkpt lat="47.87204" lon="-4.22416">
        <ele>4.4</ele>
        <time>2024-05-09T07:58:48Z</time>
      </trkpt>
      <trkpt lat="47.87194" lon="-4.22417">
        <ele>4</ele>
        <time>2024-05-09T07:58:50Z</time>
      </trkpt>
      <trkpt lat="47.87183" lon="-4.22417">
        <ele>4</ele>
        <time>2024-05-09T07:58:52Z</time>
      </trkpt>
      <trkpt lat="47.87175" lon="-4.2242">
        <ele>4</ele>
        <time>2024-05-09T07:58:54Z</time>
      </trkpt>
      <trkpt lat="47.87165" lon="-4.22423">
        <ele>4</ele>
        <time>2024-05-09T07:58:56Z</time>
      </trkpt>
      <trkpt lat="47.87156" lon="-4.22425">
        <ele>4</ele>
        <time>2024-05-09T07:58:58Z</time>
      </trkpt>
      <trkpt lat="47.87146" lon="-4.22429">
        <ele>4</ele>
        <time>2024-05-09T07:59:00Z</time>
      </trkpt>
      <trkpt lat="47.87136" lon="-4.22431">
        <ele>4</ele>
        <time>2024-05-09T07:59:02Z</time>
      </trkpt>
      <trkpt lat="47.87123" lon="-4.22437">
        <ele>4</ele>
        <time>2024-05-09T07:59:05Z</time>
      </trkpt>
      <trkpt lat="47.87113" lon="-4.22439">
        <ele>4</ele>
        <time>2024-05-09T07:59:07Z</time>
      </trkpt>
      <trkpt lat="47.87104" lon="-4.22442">
        <ele>4</ele>
        <time>2024-05-09T07:59:09Z</time>
      </trkpt>
      <trkpt lat="47.87091" lon="-4.22445">
        <ele>4</ele>
        <time>2024-05-09T07:59:12Z</time>
      </trkpt>
      <trkpt lat="47.87082" lon="-4.22449">
        <ele>4</ele>
        <time>2024-05-09T07:59:15Z</time>
      </trkpt>
      <trkpt lat="47.87073" lon="-4.22457">
        <ele>4</ele>
        <time>2024-05-09T07:59:21Z</time>
      </trkpt>
      <trkpt lat="47.87064" lon="-4.22459">
        <ele>4</ele>
        <time>2024-05-09T08:00:17Z</time>
      </trkpt>
      <trkpt lat="47.87054" lon="-4.22457">
        <ele>4</ele>
        <time>2024-05-09T08:00:24Z</time>
      </trkpt>
      <trkpt lat="47.87043" lon="-4.2246">
        <ele>4</ele>
        <time>2024-05-09T08:00:28Z</time>
      </trkpt>
      <trkpt lat="47.87032" lon="-4.22464">
        <ele>4</ele>
        <time>2024-05-09T08:00:31Z</time>
      </trkpt>
      <trkpt lat="47.87021" lon="-4.22468">
        <ele>4</ele>
        <time>2024-05-09T08:00:34Z</time>
      </trkpt>
      <trkpt lat="47.87012" lon="-4.22469">
        <ele>4</ele>
        <time>2024-05-09T08:00:37Z</time>
      </trkpt>
      <trkpt lat="47.87002" lon="-4.22467">
        <ele>4</ele>
        <time>2024-05-09T08:00:41Z</time>
      </trkpt>
      <trkpt lat="47.8699" lon="-4.22466">
        <ele>4</ele>
        <time>2024-05-09T08:00:45Z</time>
      </trkpt>
      <trkpt lat="47.8698" lon="-4.22465">
        <ele>4</ele>
        <time>2024-05-09T08:00:48Z</time>
      </trkpt>
      <trkpt lat="47.8697" lon="-4.22463">
        <ele>4</ele>
        <time>2024-05-09T08:00:51Z</time>
      </trkpt>
      <trkpt lat="47.86959" lon="-4.22467">
        <ele>4</ele>
        <time>2024-05-09T08:00:54Z</time>
      </trkpt>
      <trkpt lat="47.86948" lon="-4.22472">
        <ele>4</ele>
        <time>2024-05-09T08:00:57Z</time>
      </trkpt>
      <trkpt lat="47.86939" lon="-4.22476">
        <ele>3.8</ele>
        <time>2024-05-09T08:01:00Z</time>
      </trkpt>
      <trkpt lat="47.8693" lon="-4.22481">
        <ele>3.6</ele>
        <time>2024-05-09T08:01:03Z</time>
      </trkpt>
      <trkpt lat="47.8692" lon="-4.22486">
        <ele>3.6</ele>
        <time>2024-05-09T08:01:07Z</time>
      </trkpt>
      <trkpt lat="47.8691" lon="-4.22492">
        <ele>3.4</ele>
        <time>2024-05-09T08:01:11Z</time>
      </trkpt>
      <trkpt lat="47.86902" lon="-4.22498">
        <ele>3.3</ele>
        <time>2024-05-09T08:01:14Z</time>
      </trkpt>
      <trkpt lat="47.86893" lon="-4.22503">
        <ele>3.3</ele>
        <time>2024-05-09T08:01:17Z</time>
      </trkpt>
      <trkpt lat="47.86884" lon="-4.22509">
        <ele>3.1</ele>
        <time>2024-05-09T08:01:20Z</time>
      </trkpt>
      <trkpt lat="47.86874" lon="-4.22515">
        <ele>3.1</ele>
        <time>2024-05-09T08:01:24Z</time>
      </trkpt>
      <trkpt lat="47.86867" lon="-4.22526">
        <ele>3.8</ele>
        <time>2024-05-09T08:01:31Z</time>
      </trkpt>
      <trkpt lat="47.86858" lon="-4.22531">
        <ele>3.9</ele>
        <time>2024-05-09T08:01:51Z</time>
      </trkpt>
      <trkpt lat="47.86849" lon="-4.22534">
        <ele>3.7</ele>
        <time>2024-05-09T08:01:58Z</time>
      </trkpt>
      <trkpt lat="47.86839" lon="-4.2254">
        <ele>3.6</ele>
        <time>2024-05-09T08:02:03Z</time>
      </trkpt>
      <trkpt lat="47.8683" lon="-4.22544">
        <ele>3.5</ele>
        <time>2024-05-09T08:02:36Z</time>
      </trkpt>
      <trkpt lat="47.86821" lon="-4.22551">
        <ele>3.7</ele>
        <time>2024-05-09T08:02:41Z</time>
      </trkpt>
      <trkpt lat="47.86812" lon="-4.22556">
        <ele>4</ele>
        <time>2024-05-09T08:02:45Z</time>
      </trkpt>
      <trkpt lat="47.86804" lon="-4.22561">
        <ele>3.7</ele>
        <time>2024-05-09T08:02:48Z</time>
      </trkpt>
      <trkpt lat="47.86795" lon="-4.22565">
        <ele>3.1</ele>
        <time>2024-05-09T08:02:51Z</time>
      </trkpt>
      <trkpt lat="47.86785" lon="-4.22571">
        <ele>2.8</ele>
        <time>2024-05-09T08:02:55Z</time>
      </trkpt>
      <trkpt lat="47.86776" lon="-4.22575">
        <ele>2.8</ele>
        <time>2024-05-09T08:02:58Z</time>
      </trkpt>
      <trkpt lat="47.86766" lon="-4.22577">
        <ele>3.3</ele>
        <time>2024-05-09T08:03:01Z</time>
      </trkpt>
      <trkpt lat="47.86756" lon="-4.22569">
        <ele>3.7</ele>
        <time>2024-05-09T08:03:04Z</time>
      </trkpt>
      <trkpt lat="47.86748" lon="-4.22559">
        <ele>4</ele>
        <time>2024-05-09T08:03:07Z</time>
      </trkpt>
      <trkpt lat="47.86739" lon="-4.22548">
        <ele>3.5</ele>
        <time>2024-05-09T08:03:11Z</time>
      </trkpt>
      <trkpt lat="47.86733" lon="-4.22537">
        <ele>3.2</ele>
        <time>2024-05-09T08:03:14Z</time>
      </trkpt>
      <trkpt lat="47.86726" lon="-4.22527">
        <ele>3.6</ele>
        <time>2024-05-09T08:03:17Z</time>
      </trkpt>
      <trkpt lat="47.86725" lon="-4.22513">
        <ele>3.7</ele>
        <time>2024-05-09T08:03:20Z</time>
      </trkpt>
      <trkpt lat="47.86727" lon="-4.22498">
        <ele>3.4</ele>
        <time>2024-05-09T08:03:23Z</time>
      </trkpt>
      <trkpt lat="47.86729" lon="-4.22483">
        <ele>3.3</ele>
        <time>2024-05-09T08:03:26Z</time>
      </trkpt>
      <trkpt lat="47.8673" lon="-4.22468">
        <ele>3.3</ele>
        <time>2024-05-09T08:03:29Z</time>
      </trkpt>
      <trkpt lat="47.8673" lon="-4.22453">
        <ele>3.7</ele>
        <time>2024-05-09T08:03:32Z</time>
      </trkpt>
      <trkpt lat="47.8673" lon="-4.22439">
        <ele>3.9</ele>
        <time>2024-05-09T08:03:35Z</time>
      </trkpt>
      <trkpt lat="47.86729" lon="-4.22424">
        <ele>4</ele>
        <time>2024-05-09T08:03:40Z</time>
      </trkpt>
      <trkpt lat="47.86728" lon="-4.2241">
        <ele>4</ele>
        <time>2024-05-09T08:03:48Z</time>
      </trkpt>
      <trkpt lat="47.86726" lon="-4.22396">
        <ele>3.9</ele>
        <time>2024-05-09T08:03:56Z</time>
      </trkpt>
      <trkpt lat="47.86721" lon="-4.22383">
        <ele>3.9</ele>
        <time>2024-05-09T08:04:05Z</time>
      </trkpt>
      <trkpt lat="47.8672" lon="-4.22369">
        <ele>3.6</ele>
        <time>2024-05-09T08:04:13Z</time>
      </trkpt>
      <trkpt lat="47.86717" lon="-4.22356">
        <ele>3.5</ele>
        <time>2024-05-09T08:04:22Z</time>
      </trkpt>
      <trkpt lat="47.86716" lon="-4.22341">
        <ele>3.2</ele>
        <time>2024-05-09T08:04:31Z</time>
      </trkpt>
      <trkpt lat="47.86712" lon="-4.22328">
        <ele>3.3</ele>
        <time>2024-05-09T08:04:39Z</time>
      </trkpt>
      <trkpt lat="47.86706" lon="-4.22318">
        <ele>3.8</ele>
        <time>2024-05-09T08:06:19Z</time>
      </trkpt>
      <trkpt lat="47.86697" lon="-4.22312">
        <ele>4.9</ele>
        <time>2024-05-09T08:06:50Z</time>
      </trkpt>
      <trkpt lat="47.86697" lon="-4.22295">
        <ele>4.6</ele>
        <time>2024-05-09T08:06:59Z</time>
      </trkpt>
      <trkpt lat="47.867" lon="-4.2228">
        <ele>4.2</ele>
        <time>2024-05-09T08:07:03Z</time>
      </trkpt>
      <trkpt lat="47.86703" lon="-4.22265">
        <ele>3.8</ele>
        <time>2024-05-09T08:07:08Z</time>
      </trkpt>
      <trkpt lat="47.86705" lon="-4.22252">
        <ele>3.5</ele>
        <time>2024-05-09T08:07:12Z</time>
      </trkpt>
      <trkpt lat="47.86708" lon="-4.22236">
        <ele>3.8</ele>
        <time>2024-05-09T08:07:17Z</time>
      </trkpt>
      <trkpt lat="47.86711" lon="-4.22221">
        <ele>4.4</ele>
        <time>2024-05-09T08:07:22Z</time>
      </trkpt>
      <trkpt lat="47.86712" lon="-4.22206">
        <ele>4.2</ele>
        <time>2024-05-09T08:07:26Z</time>
      </trkpt>
      <trkpt lat="47.86709" lon="-4.22192">
        <ele>4</ele>
        <time>2024-05-09T08:07:30Z</time>
      </trkpt>
      <trkpt lat="47.86699" lon="-4.22189">
        <ele>4.2</ele>
        <time>2024-05-09T08:07:34Z</time>
      </trkpt>
      <trkpt lat="47.8669" lon="-4.22193">
        <ele>4.2</ele>
        <time>2024-05-09T08:07:41Z</time>
      </trkpt>
      <trkpt lat="47.86686" lon="-4.22205">
        <ele>4.6</ele>
        <time>2024-05-09T08:07:48Z</time>
      </trkpt>
      <trkpt lat="47.8668" lon="-4.22217">
        <ele>4.9</ele>
        <time>2024-05-09T08:07:53Z</time>
      </trkpt>
      <trkpt lat="47.86676" lon="-4.22232">
        <ele>5</ele>
        <time>2024-05-09T08:07:58Z</time>
      </trkpt>
      <trkpt lat="47.86673" lon="-4.22248">
        <ele>5</ele>
        <time>2024-05-09T08:08:03Z</time>
      </trkpt>
      <trkpt lat="47.86679" lon="-4.22235">
        <ele>5</ele>
        <time>2024-05-09T08:09:55Z</time>
      </trkpt>
      <trkpt lat="47.86679" lon="-4.22221">
        <ele>5</ele>
        <time>2024-05-09T08:10:00Z</time>
      </trkpt>
      <trkpt lat="47.86677" lon="-4.22208">
        <ele>4.8</ele>
        <time>2024-05-09T08:10:05Z</time>
      </trkpt>
      <trkpt lat="47.86669" lon="-4.22198">
        <ele>4.9</ele>
        <time>2024-05-09T08:10:12Z</time>
      </trkpt>
      <trkpt lat="47.8666" lon="-4.22193">
        <ele>5.5</ele>
        <time>2024-05-09T08:10:17Z</time>
      </trkpt>
      <trkpt lat="47.86648" lon="-4.22187">
        <ele>6.4</ele>
        <time>2024-05-09T08:10:21Z</time>
      </trkpt>
      <trkpt lat="47.8664" lon="-4.22181">
        <ele>7</ele>
        <time>2024-05-09T08:10:24Z</time>
      </trkpt>
      <trkpt lat="47.86631" lon="-4.22176">
        <ele>7.3</ele>
        <time>2024-05-09T08:10:27Z</time>
      </trkpt>
      <trkpt lat="47.86622" lon="-4.2217">
        <ele>7.6</ele>
        <time>2024-05-09T08:10:30Z</time>
      </trkpt>
      <trkpt lat="47.86613" lon="-4.22165">
        <ele>7.8</ele>
        <time>2024-05-09T08:10:33Z</time>
      </trkpt>
      <trkpt lat="47.86605" lon="-4.2216">
        <ele>7.8</ele>
        <time>2024-05-09T08:10:36Z</time>
      </trkpt>
      <trkpt lat="47.86595" lon="-4.22153">
        <ele>7.9</ele>
        <time>2024-05-09T08:10:41Z</time>
      </trkpt>
      <trkpt lat="47.86586" lon="-4.22157">
        <ele>8.5</ele>
        <time>2024-05-09T08:10:48Z</time>
      </trkpt>
      <trkpt lat="47.86584" lon="-4.22171">
        <ele>8.8</ele>
        <time>2024-05-09T08:10:59Z</time>
      </trkpt>
      <trkpt lat="47.86581" lon="-4.22187">
        <ele>8.4</ele>
        <time>2024-05-09T08:11:06Z</time>
      </trkpt>
      <trkpt lat="47.86581" lon="-4.222">
        <ele>8.5</ele>
        <time>2024-05-09T08:11:11Z</time>
      </trkpt>
      <trkpt lat="47.86587" lon="-4.22213">
        <ele>9.2</ele>
        <time>2024-05-09T08:11:17Z</time>
      </trkpt>
      <trkpt lat="47.86592" lon="-4.22225">
        <ele>9.4</ele>
        <time>2024-05-09T08:11:22Z</time>
      </trkpt>
      <trkpt lat="47.86596" lon="-4.22238">
        <ele>9.4</ele>
        <time>2024-05-09T08:11:27Z</time>
      </trkpt>
      <trkpt lat="47.86599" lon="-4.22252">
        <ele>9.5</ele>
        <time>2024-05-09T08:11:32Z</time>
      </trkpt>
      <trkpt lat="47.86596" lon="-4.22266">
        <ele>10.1</ele>
        <time>2024-05-09T08:11:36Z</time>
      </trkpt>
      <trkpt lat="47.86592" lon="-4.2228">
        <ele>10.7</ele>
        <time>2024-05-09T08:11:40Z</time>
      </trkpt>
      <trkpt lat="47.86588" lon="-4.22294">
        <ele>10.8</ele>
        <time>2024-05-09T08:11:45Z</time>
      </trkpt>
      <trkpt lat="47.86585" lon="-4.22306">
        <ele>11</ele>
        <time>2024-05-09T08:12:02Z</time>
      </trkpt>
      <trkpt lat="47.86576" lon="-4.2231">
        <ele>11</ele>
        <time>2024-05-09T08:12:31Z</time>
      </trkpt>
      <trkpt lat="47.86567" lon="-4.22306">
        <ele>11</ele>
        <time>2024-05-09T08:12:41Z</time>
      </trkpt>
      <trkpt lat="47.86557" lon="-4.22302">
        <ele>11</ele>
        <time>2024-05-09T08:12:49Z</time>
      </trkpt>
      <trkpt lat="47.86548" lon="-4.22297">
        <ele>11.3</ele>
        <time>2024-05-09T08:12:58Z</time>
      </trkpt>
      <trkpt lat="47.86539" lon="-4.22292">
        <ele>11.6</ele>
        <time>2024-05-09T08:13:08Z</time>
      </trkpt>
      <trkpt lat="47.8653" lon="-4.22287">
        <ele>11.9</ele>
        <time>2024-05-09T08:13:18Z</time>
      </trkpt>
      <trkpt lat="47.86529" lon="-4.22301">
        <ele>12</ele>
        <time>2024-05-09T08:13:48Z</time>
      </trkpt>
      <trkpt lat="47.8652" lon="-4.22302">
        <ele>12</ele>
        <time>2024-05-09T08:14:02Z</time>
      </trkpt>
      <trkpt lat="47.86511" lon="-4.22307">
        <ele>12</ele>
        <time>2024-05-09T08:14:12Z</time>
      </trkpt>
      <trkpt lat="47.86503" lon="-4.22303">
        <ele>12</ele>
        <time>2024-05-09T08:14:20Z</time>
      </trkpt>
      <trkpt lat="47.86494" lon="-4.22298">
        <ele>12</ele>
        <time>2024-05-09T08:14:38Z</time>
      </trkpt>
      <trkpt lat="47.86485" lon="-4.22291">
        <ele>12</ele>
        <time>2024-05-09T08:14:46Z</time>
      </trkpt>
      <trkpt lat="47.86475" lon="-4.22291">
        <ele>12</ele>
        <time>2024-05-09T08:15:05Z</time>
      </trkpt>
      <trkpt lat="47.86466" lon="-4.22289">
        <ele>12</ele>
        <time>2024-05-09T08:15:18Z</time>
      </trkpt>
      <trkpt lat="47.86458" lon="-4.22285">
        <ele>12</ele>
        <time>2024-05-09T08:15:42Z</time>
      </trkpt>
      <trkpt lat="47.86448" lon="-4.22284">
        <ele>12</ele>
        <time>2024-05-09T08:15:53Z</time>
      </trkpt>
      <trkpt lat="47.86441" lon="-4.22293">
        <ele>12.1</ele>
        <time>2024-05-09T08:16:11Z</time>
      </trkpt>
      <trkpt lat="47.86434" lon="-4.22282">
        <ele>12.3</ele>
        <time>2024-05-09T08:16:24Z</time>
      </trkpt>
      <trkpt lat="47.86435" lon="-4.22267">
        <ele>12.3</ele>
        <time>2024-05-09T08:16:33Z</time>
      </trkpt>
      <trkpt lat="47.86434" lon="-4.22254">
        <ele>12.4</ele>
        <time>2024-05-09T08:16:41Z</time>
      </trkpt>
      <trkpt lat="47.86434" lon="-4.22239">
        <ele>12.4</ele>
        <time>2024-05-09T08:16:52Z</time>
      </trkpt>
      <trkpt lat="47.86439" lon="-4.22227">
        <ele>12.2</ele>
        <time>2024-05-09T08:16:59Z</time>
      </trkpt>
      <trkpt lat="47.86444" lon="-4.22215">
        <ele>12</ele>
        <time>2024-05-09T08:17:10Z</time>
      </trkpt>
      <trkpt lat="47.86441" lon="-4.22201">
        <ele>12.1</ele>
        <time>2024-05-09T08:17:14Z</time>
      </trkpt>
      <trkpt lat="47.86442" lon="-4.22186">
        <ele>12.1</ele>
        <time>2024-05-09T08:17:18Z</time>
      </trkpt>
      <trkpt lat="47.86444" lon="-4.22173">
        <ele>12</ele>
        <time>2024-05-09T08:17:24Z</time>
      </trkpt>
      <trkpt lat="47.86444" lon="-4.22159">
        <ele>12</ele>
        <time>2024-05-09T08:17:37Z</time>
      </trkpt>
      <trkpt lat="47.86451" lon="-4.22147">
        <ele>11.9</ele>
        <time>2024-05-09T08:17:46Z</time>
      </trkpt>
      <trkpt lat="47.86456" lon="-4.22132">
        <ele>12</ele>
        <time>2024-05-09T08:17:51Z</time>
      </trkpt>
      <trkpt lat="47.86461" lon="-4.22117">
        <ele>12</ele>
        <time>2024-05-09T08:17:55Z</time>
      </trkpt>
      <trkpt lat="47.86466" lon="-4.22103">
        <ele>11.8</ele>
        <time>2024-05-09T08:17:59Z</time>
      </trkpt>
      <trkpt lat="47.86471" lon="-4.2209">
        <ele>11.3</ele>
        <time>2024-05-09T08:18:02Z</time>
      </trkpt>
      <trkpt lat="47.86474" lon="-4.22077">
        <ele>10.7</ele>
        <time>2024-05-09T08:18:05Z</time>
      </trkpt>
      <trkpt lat="47.86477" lon="-4.22063">
        <ele>10.2</ele>
        <time>2024-05-09T08:18:10Z</time>
      </trkpt>
      <trkpt lat="47.86484" lon="-4.22055">
        <ele>10</ele>
        <time>2024-05-09T08:18:32Z</time>
      </trkpt>
      <trkpt lat="47.86494" lon="-4.2206">
        <ele>10</ele>
        <time>2024-05-09T08:18:37Z</time>
      </trkpt>
      <trkpt lat="47.86502" lon="-4.22068">
        <ele>10</ele>
        <time>2024-05-09T08:18:42Z</time>
      </trkpt>
      <trkpt lat="47.86511" lon="-4.22067">
        <ele>9.8</ele>
        <time>2024-05-09T08:18:47Z</time>
      </trkpt>
      <trkpt lat="47.86516" lon="-4.22055">
        <ele>9.4</ele>
        <time>2024-05-09T08:18:50Z</time>
      </trkpt>
      <trkpt lat="47.8652" lon="-4.22041">
        <ele>9.3</ele>
        <time>2024-05-09T08:18:53Z</time>
      </trkpt>
      <trkpt lat="47.86524" lon="-4.22028">
        <ele>9.1</ele>
        <time>2024-05-09T08:18:56Z</time>
      </trkpt>
      <trkpt lat="47.86529" lon="-4.22013">
        <ele>9</ele>
        <time>2024-05-09T08:19:00Z</time>
      </trkpt>
      <trkpt lat="47.86536" lon="-4.22004">
        <ele>8.7</ele>
        <time>2024-05-09T08:19:04Z</time>
      </trkpt>
      <trkpt lat="47.86542" lon="-4.21992">
        <ele>8.8</ele>
        <time>2024-05-09T08:19:09Z</time>
      </trkpt>
      <trkpt lat="47.86552" lon="-4.21998">
        <ele>8.2</ele>
        <time>2024-05-09T08:19:13Z</time>
      </trkpt>
      <trkpt lat="47.8656" lon="-4.22007">
        <ele>8</ele>
        <time>2024-05-09T08:19:16Z</time>
      </trkpt>
      <trkpt lat="47.8657" lon="-4.22015">
        <ele>8</ele>
        <time>2024-05-09T08:19:19Z</time>
      </trkpt>
      <trkpt lat="47.8658" lon="-4.22024">
        <ele>8</ele>
        <time>2024-05-09T08:19:22Z</time>
      </trkpt>
      <trkpt lat="47.86589" lon="-4.22027">
        <ele>7.8</ele>
        <time>2024-05-09T08:19:27Z</time>
      </trkpt>
      <trkpt lat="47.86597" lon="-4.22034">
        <ele>7.5</ele>
        <time>2024-05-09T08:19:39Z</time>
      </trkpt>
      <trkpt lat="47.86604" lon="-4.22024">
        <ele>7.4</ele>
        <time>2024-05-09T08:20:40Z</time>
      </trkpt>
      <trkpt lat="47.86608" lon="-4.22011">
        <ele>7.6</ele>
        <time>2024-05-09T08:20:47Z</time>
      </trkpt>
      <trkpt lat="47.86613" lon="-4.21997">
        <ele>8</ele>
        <time>2024-05-09T08:20:51Z</time>
      </trkpt>
      <trkpt lat="47.86619" lon="-4.21984">
        <ele>8</ele>
        <time>2024-05-09T08:20:55Z</time>
      </trkpt>
      <trkpt lat="47.86625" lon="-4.21972">
        <ele>8</ele>
        <time>2024-05-09T08:21:03Z</time>
      </trkpt>
      <trkpt lat="47.8663" lon="-4.21961">
        <ele>8</ele>
        <time>2024-05-09T08:21:13Z</time>
      </trkpt>
      <trkpt lat="47.86639" lon="-4.21957">
        <ele>8</ele>
        <time>2024-05-09T08:21:19Z</time>
      </trkpt>
      <trkpt lat="47.86647" lon="-4.21948">
        <ele>7.7</ele>
        <time>2024-05-09T08:21:24Z</time>
      </trkpt>
      <trkpt lat="47.86656" lon="-4.21952">
        <ele>7.6</ele>
        <time>2024-05-09T08:21:31Z</time>
      </trkpt>
      <trkpt lat="47.86662" lon="-4.21941">
        <ele>7</ele>
        <time>2024-05-09T08:22:44Z</time>
      </trkpt>
      <trkpt lat="47.86664" lon="-4.21927">
        <ele>6.4</ele>
        <time>2024-05-09T08:24:29Z</time>
      </trkpt>
      <trkpt lat="47.86667" lon="-4.21914">
        <ele>5.9</ele>
        <time>2024-05-09T08:24:57Z</time>
      </trkpt>
      <trkpt lat="47.86674" lon="-4.21905">
        <ele>5.6</ele>
        <time>2024-05-09T08:25:17Z</time>
      </trkpt>
      <trkpt lat="47.86673" lon="-4.2192">
        <ele>6.1</ele>
        <time>2024-05-09T08:27:13Z</time>
      </trkpt>
      <trkpt lat="47.8667" lon="-4.21933">
        <ele>6.6</ele>
        <time>2024-05-09T08:27:17Z</time>
      </trkpt>
      <trkpt lat="47.86663" lon="-4.21943">
        <ele>7.1</ele>
        <time>2024-05-09T08:27:21Z</time>
      </trkpt>
      <trkpt lat="47.86659" lon="-4.21955">
        <ele>7.6</ele>
        <time>2024-05-09T08:28:16Z</time>
      </trkpt>
      <trkpt lat="47.86666" lon="-4.21963">
        <ele>7.7</ele>
        <time>2024-05-09T08:33:01Z</time>
      </trkpt>
      <trkpt lat="47.86673" lon="-4.21953">
        <ele>7.3</ele>
        <time>2024-05-09T08:33:26Z</time>
      </trkpt>
      <trkpt lat="47.86679" lon="-4.21942">
        <ele>6.9</ele>
        <time>2024-05-09T08:33:31Z</time>
      </trkpt>
      <trkpt lat="47.86685" lon="-4.2193">
        <ele>6.5</ele>
        <time>2024-05-09T08:33:37Z</time>
      </trkpt>
      <trkpt lat="47.86689" lon="-4.21918">
        <ele>6</ele>
        <time>2024-05-09T08:33:42Z</time>
      </trkpt>
      <trkpt lat="47.86696" lon="-4.21906">
        <ele>5.5</ele>
        <time>2024-05-09T08:33:46Z</time>
      </trkpt>
      <trkpt lat="47.86703" lon="-4.21893">
        <ele>4.8</ele>
        <time>2024-05-09T08:33:50Z</time>
      </trkpt>
      <trkpt lat="47.86709" lon="-4.21879">
        <ele>4.3</ele>
        <time>2024-05-09T08:33:54Z</time>
      </trkpt>
      <trkpt lat="47.86716" lon="-4.21867">
        <ele>4</ele>
        <time>2024-05-09T08:33:59Z</time>
      </trkpt>
      <trkpt lat="47.8672" lon="-4.21855">
        <ele>3.6</ele>
        <time>2024-05-09T08:34:03Z</time>
      </trkpt>
      <trkpt lat="47.86715" lon="-4.21842">
        <ele>2.9</ele>
        <time>2024-05-09T08:34:15Z</time>
      </trkpt>
      <trkpt lat="47.86709" lon="-4.21828">
        <ele>3.2</ele>
        <time>2024-05-09T08:34:20Z</time>
      </trkpt>
      <trkpt lat="47.86703" lon="-4.21817">
        <ele>3.8</ele>
        <time>2024-05-09T08:34:24Z</time>
      </trkpt>
      <trkpt lat="47.86697" lon="-4.21804">
        <ele>3.8</ele>
        <time>2024-05-09T08:34:28Z</time>
      </trkpt>
      <trkpt lat="47.8669" lon="-4.21791">
        <ele>2.7</ele>
        <time>2024-05-09T08:34:32Z</time>
      </trkpt>
      <trkpt lat="47.86683" lon="-4.21782">
        <ele>2.5</ele>
        <time>2024-05-09T08:34:38Z</time>
      </trkpt>
      <trkpt lat="47.86673" lon="-4.21788">
        <ele>3.6</ele>
        <time>2024-05-09T08:34:45Z</time>
      </trkpt>
      <trkpt lat="47.86665" lon="-4.21799">
        <ele>4</ele>
        <time>2024-05-09T08:34:50Z</time>
      </trkpt>
      <trkpt lat="47.86655" lon="-4.21793">
        <ele>4.2</ele>
        <time>2024-05-09T08:34:56Z</time>
      </trkpt>
      <trkpt lat="47.86648" lon="-4.21783">
        <ele>4.1</ele>
        <time>2024-05-09T08:35:00Z</time>
      </trkpt>
      <trkpt lat="47.86641" lon="-4.2177">
        <ele>4</ele>
        <time>2024-05-09T08:35:04Z</time>
      </trkpt>
      <trkpt lat="47.86635" lon="-4.21756">
        <ele>4.3</ele>
        <time>2024-05-09T08:35:09Z</time>
      </trkpt>
      <trkpt lat="47.86634" lon="-4.21742">
        <ele>4.3</ele>
        <time>2024-05-09T08:35:14Z</time>
      </trkpt>
      <trkpt lat="47.86639" lon="-4.21728">
        <ele>4</ele>
        <time>2024-05-09T08:35:19Z</time>
      </trkpt>
      <trkpt lat="47.86643" lon="-4.21714">
        <ele>3.7</ele>
        <time>2024-05-09T08:35:23Z</time>
      </trkpt>
      <trkpt lat="47.86641" lon="-4.21699">
        <ele>4</ele>
        <time>2024-05-09T08:35:28Z</time>
      </trkpt>
      <trkpt lat="47.86634" lon="-4.21687">
        <ele>3.7</ele>
        <time>2024-05-09T08:35:33Z</time>
      </trkpt>
      <trkpt lat="47.86625" lon="-4.21688">
        <ele>4.1</ele>
        <time>2024-05-09T08:35:40Z</time>
      </trkpt>
      <trkpt lat="47.86634" lon="-4.2168">
        <ele>3.3</ele>
        <time>2024-05-09T08:40:19Z</time>
      </trkpt>
      <trkpt lat="47.8664" lon="-4.21691">
        <ele>3.7</ele>
        <time>2024-05-09T08:40:24Z</time>
      </trkpt>
      <trkpt lat="47.86648" lon="-4.21703">
        <ele>3.7</ele>
        <time>2024-05-09T08:40:29Z</time>
      </trkpt>
      <trkpt lat="47.86655" lon="-4.21715">
        <ele>2.8</ele>
        <time>2024-05-09T08:40:33Z</time>
      </trkpt>
      <trkpt lat="47.8666" lon="-4.21727">
        <ele>2.1</ele>
        <time>2024-05-09T08:40:37Z</time>
      </trkpt>
      <trkpt lat="47.86665" lon="-4.21739">
        <ele>2.9</ele>
        <time>2024-05-09T08:40:41Z</time>
      </trkpt>
      <trkpt lat="47.8667" lon="-4.2175">
        <ele>4</ele>
        <time>2024-05-09T08:40:46Z</time>
      </trkpt>
      <trkpt lat="47.86675" lon="-4.21761">
        <ele>3.6</ele>
        <time>2024-05-09T08:40:50Z</time>
      </trkpt>
      <trkpt lat="47.86682" lon="-4.21774">
        <ele>2.6</ele>
        <time>2024-05-09T08:40:54Z</time>
      </trkpt>
      <trkpt lat="47.86688" lon="-4.21786">
        <ele>2.4</ele>
        <time>2024-05-09T08:40:58Z</time>
      </trkpt>
      <trkpt lat="47.86694" lon="-4.21797">
        <ele>3.1</ele>
        <time>2024-05-09T08:41:02Z</time>
      </trkpt>
      <trkpt lat="47.86701" lon="-4.2181">
        <ele>3.9</ele>
        <time>2024-05-09T08:41:06Z</time>
      </trkpt>
      <trkpt lat="47.86707" lon="-4.21821">
        <ele>3.5</ele>
        <time>2024-05-09T08:41:10Z</time>
      </trkpt>
      <trkpt lat="47.86714" lon="-4.21834">
        <ele>2.6</ele>
        <time>2024-05-09T08:41:14Z</time>
      </trkpt>
      <trkpt lat="47.86721" lon="-4.21846">
        <ele>3</ele>
        <time>2024-05-09T08:41:18Z</time>
      </trkpt>
      <trkpt lat="47.86727" lon="-4.21859">
        <ele>3.9</ele>
        <time>2024-05-09T08:41:22Z</time>
      </trkpt>
      <trkpt lat="47.86731" lon="-4.21876">
        <ele>4</ele>
        <time>2024-05-09T08:41:26Z</time>
      </trkpt>
      <trkpt lat="47.86733" lon="-4.2189">
        <ele>4</ele>
        <time>2024-05-09T08:41:29Z</time>
      </trkpt>
      <trkpt lat="47.86734" lon="-4.21905">
        <ele>4</ele>
        <time>2024-05-09T08:41:32Z</time>
      </trkpt>
      <trkpt lat="47.86735" lon="-4.21919">
        <ele>4</ele>
        <time>2024-05-09T08:41:35Z</time>
      </trkpt>
      <trkpt lat="47.86735" lon="-4.21933">
        <ele>4</ele>
        <time>2024-05-09T08:41:38Z</time>
      </trkpt>
      <trkpt lat="47.86736" lon="-4.21949">
        <ele>4</ele>
        <time>2024-05-09T08:41:42Z</time>
      </trkpt>
      <trkpt lat="47.86735" lon="-4.21963">
        <ele>4</ele>
        <time>2024-05-09T08:41:45Z</time>
      </trkpt>
      <trkpt lat="47.86735" lon="-4.21976">
        <ele>4</ele>
        <time>2024-05-09T08:41:48Z</time>
      </trkpt>
      <trkpt lat="47.86736" lon="-4.21994">
        <ele>4</ele>
        <time>2024-05-09T08:41:52Z</time>
      </trkpt>
      <trkpt lat="47.86736" lon="-4.22007">
        <ele>4</ele>
        <time>2024-05-09T08:41:55Z</time>
      </trkpt>
      <trkpt lat="47.86735" lon="-4.22021">
        <ele>4</ele>
        <time>2024-05-09T08:41:58Z</time>
      </trkpt>
      <trkpt lat="47.86734" lon="-4.22038">
        <ele>4</ele>
        <time>2024-05-09T08:42:02Z</time>
      </trkpt>
      <trkpt lat="47.86732" lon="-4.22054">
        <ele>4</ele>
        <time>2024-05-09T08:42:06Z</time>
      </trkpt>
      <trkpt lat="47.8673" lon="-4.22069">
        <ele>4</ele>
        <time>2024-05-09T08:42:10Z</time>
      </trkpt>
      <trkpt lat="47.86728" lon="-4.22083">
        <ele>4</ele>
        <time>2024-05-09T08:42:13Z</time>
      </trkpt>
      <trkpt lat="47.86726" lon="-4.22098">
        <ele>4</ele>
        <time>2024-05-09T08:42:16Z</time>
      </trkpt>
      <trkpt lat="47.86724" lon="-4.22114">
        <ele>3.9</ele>
        <time>2024-05-09T08:42:20Z</time>
      </trkpt>
      <trkpt lat="47.86722" lon="-4.22128">
        <ele>3.4</ele>
        <time>2024-05-09T08:42:23Z</time>
      </trkpt>
      <trkpt lat="47.86721" lon="-4.22142">
        <ele>3.2</ele>
        <time>2024-05-09T08:42:26Z</time>
      </trkpt>
      <trkpt lat="47.8672" lon="-4.22159">
        <ele>3.8</ele>
        <time>2024-05-09T08:42:30Z</time>
      </trkpt>
      <trkpt lat="47.8672" lon="-4.22173">
        <ele>4.1</ele>
        <time>2024-05-09T08:42:34Z</time>
      </trkpt>
      <trkpt lat="47.86719" lon="-4.22188">
        <ele>4</ele>
        <time>2024-05-09T08:42:40Z</time>
      </trkpt>
      <trkpt lat="47.86722" lon="-4.22201">
        <ele>4</ele>
        <time>2024-05-09T08:42:46Z</time>
      </trkpt>
      <trkpt lat="47.86731" lon="-4.22208">
        <ele>3.7</ele>
        <time>2024-05-09T08:42:49Z</time>
      </trkpt>
      <trkpt lat="47.86744" lon="-4.2221">
        <ele>3.1</ele>
        <time>2024-05-09T08:42:52Z</time>
      </trkpt>
      <trkpt lat="47.86756" lon="-4.22213">
        <ele>3</ele>
        <time>2024-05-09T08:42:55Z</time>
      </trkpt>
      <trkpt lat="47.86766" lon="-4.22215">
        <ele>3.4</ele>
        <time>2024-05-09T08:42:58Z</time>
      </trkpt>
      <trkpt lat="47.86777" lon="-4.22217">
        <ele>4</ele>
        <time>2024-05-09T08:43:02Z</time>
      </trkpt>
      <trkpt lat="47.86788" lon="-4.22217">
        <ele>3.9</ele>
        <time>2024-05-09T08:43:07Z</time>
      </trkpt>
      <trkpt lat="47.86791" lon="-4.22201">
        <ele>3.6</ele>
        <time>2024-05-09T08:43:11Z</time>
      </trkpt>
      <trkpt lat="47.86792" lon="-4.22187">
        <ele>3.6</ele>
        <time>2024-05-09T08:43:14Z</time>
      </trkpt>
      <trkpt lat="47.86793" lon="-4.22173">
        <ele>3.9</ele>
        <time>2024-05-09T08:43:17Z</time>
      </trkpt>
      <trkpt lat="47.86792" lon="-4.22158">
        <ele>4.3</ele>
        <time>2024-05-09T08:43:20Z</time>
      </trkpt>
      <trkpt lat="47.86789" lon="-4.22144">
        <ele>4.8</ele>
        <time>2024-05-09T08:43:23Z</time>
      </trkpt>
      <trkpt lat="47.86787" lon="-4.22131">
        <ele>4.2</ele>
        <time>2024-05-09T08:43:26Z</time>
      </trkpt>
      <trkpt lat="47.86785" lon="-4.22115">
        <ele>2.5</ele>
        <time>2024-05-09T08:43:29Z</time>
      </trkpt>
      <trkpt lat="47.86784" lon="-4.22099">
        <ele>2.5</ele>
        <time>2024-05-09T08:43:32Z</time>
      </trkpt>
      <trkpt lat="47.86785" lon="-4.22083">
        <ele>3.3</ele>
        <time>2024-05-09T08:43:35Z</time>
      </trkpt>
      <trkpt lat="47.86787" lon="-4.22067">
        <ele>2.9</ele>
        <time>2024-05-09T08:43:38Z</time>
      </trkpt>
      <trkpt lat="47.86788" lon="-4.22051">
        <ele>2.7</ele>
        <time>2024-05-09T08:43:41Z</time>
      </trkpt>
      <trkpt lat="47.86789" lon="-4.22035">
        <ele>2.8</ele>
        <time>2024-05-09T08:43:44Z</time>
      </trkpt>
      <trkpt lat="47.8679" lon="-4.2202">
        <ele>2.7</ele>
        <time>2024-05-09T08:43:47Z</time>
      </trkpt>
      <trkpt lat="47.8679" lon="-4.22006">
        <ele>2.5</ele>
        <time>2024-05-09T08:43:50Z</time>
      </trkpt>
      <trkpt lat="47.86791" lon="-4.21992">
        <ele>2.4</ele>
        <time>2024-05-09T08:43:53Z</time>
      </trkpt>
      <trkpt lat="47.86792" lon="-4.21979">
        <ele>2.6</ele>
        <time>2024-05-09T08:43:56Z</time>
      </trkpt>
      <trkpt lat="47.86793" lon="-4.21961">
        <ele>2.6</ele>
        <time>2024-05-09T08:44:00Z</time>
      </trkpt>
      <trkpt lat="47.86794" lon="-4.21947">
        <ele>2.7</ele>
        <time>2024-05-09T08:44:03Z</time>
      </trkpt>
      <trkpt lat="47.86795" lon="-4.21933">
        <ele>2.9</ele>
        <time>2024-05-09T08:44:06Z</time>
      </trkpt>
      <trkpt lat="47.86796" lon="-4.21917">
        <ele>2.9</ele>
        <time>2024-05-09T08:44:10Z</time>
      </trkpt>
      <trkpt lat="47.86797" lon="-4.21903">
        <ele>3.5</ele>
        <time>2024-05-09T08:44:14Z</time>
      </trkpt>
      <trkpt lat="47.86806" lon="-4.21894">
        <ele>4</ele>
        <time>2024-05-09T08:44:19Z</time>
      </trkpt>
      <trkpt lat="47.86816" lon="-4.21896">
        <ele>4</ele>
        <time>2024-05-09T08:44:23Z</time>
      </trkpt>
      <trkpt lat="47.86827" lon="-4.21899">
        <ele>4</ele>
        <time>2024-05-09T08:44:27Z</time>
      </trkpt>
      <trkpt lat="47.86838" lon="-4.21904">
        <ele>4.3</ele>
        <time>2024-05-09T08:44:31Z</time>
      </trkpt>
      <trkpt lat="47.86849" lon="-4.21906">
        <ele>4.8</ele>
        <time>2024-05-09T08:44:35Z</time>
      </trkpt>
      <trkpt lat="47.86859" lon="-4.21909">
        <ele>5.2</ele>
        <time>2024-05-09T08:44:39Z</time>
      </trkpt>
      <trkpt lat="47.8687" lon="-4.21908">
        <ele>5.8</ele>
        <time>2024-05-09T08:44:44Z</time>
      </trkpt>
      <trkpt lat="47.86877" lon="-4.21898">
        <ele>6.4</ele>
        <time>2024-05-09T08:44:50Z</time>
      </trkpt>
      <trkpt lat="47.86886" lon="-4.21897">
        <ele>6.9</ele>
        <time>2024-05-09T08:44:57Z</time>
      </trkpt>
      <trkpt lat="47.86895" lon="-4.21898">
        <ele>7</ele>
        <time>2024-05-09T08:45:21Z</time>
      </trkpt>
      <trkpt lat="47.86892" lon="-4.21884">
        <ele>7.2</ele>
        <time>2024-05-09T08:46:17Z</time>
      </trkpt>
      <trkpt lat="47.86897" lon="-4.21872">
        <ele>7.6</ele>
        <time>2024-05-09T08:46:37Z</time>
      </trkpt>
      <trkpt lat="47.86897" lon="-4.21859">
        <ele>8</ele>
        <time>2024-05-09T08:47:40Z</time>
      </trkpt>
      <trkpt lat="47.86896" lon="-4.21873">
        <ele>7.6</ele>
        <time>2024-05-09T08:50:24Z</time>
      </trkpt>
      <trkpt lat="47.86893" lon="-4.21887">
        <ele>7.1</ele>
        <time>2024-05-09T08:50:44Z</time>
      </trkpt>
      <trkpt lat="47.86899" lon="-4.21898">
        <ele>7</ele>
        <time>2024-05-09T08:52:54Z</time>
      </trkpt>
      <trkpt lat="47.86889" lon="-4.21897">
        <ele>7</ele>
        <time>2024-05-09T08:53:24Z</time>
      </trkpt>
      <trkpt lat="47.86881" lon="-4.21889">
        <ele>6.7</ele>
        <time>2024-05-09T08:54:55Z</time>
      </trkpt>
      <trkpt lat="47.86878" lon="-4.21873">
        <ele>7.2</ele>
        <time>2024-05-09T08:54:59Z</time>
      </trkpt>
      <trkpt lat="47.86878" lon="-4.21858">
        <ele>7.7</ele>
        <time>2024-05-09T08:55:03Z</time>
      </trkpt>
      <trkpt lat="47.86881" lon="-4.21842">
        <ele>7.9</ele>
        <time>2024-05-09T08:55:08Z</time>
      </trkpt>
      <trkpt lat="47.86883" lon="-4.21826">
        <ele>8.3</ele>
        <time>2024-05-09T08:55:13Z</time>
      </trkpt>
      <trkpt lat="47.86884" lon="-4.21813">
        <ele>8.7</ele>
        <time>2024-05-09T08:55:17Z</time>
      </trkpt>
      <trkpt lat="47.86887" lon="-4.21797">
        <ele>9</ele>
        <time>2024-05-09T08:55:22Z</time>
      </trkpt>
      <trkpt lat="47.86891" lon="-4.21784">
        <ele>9</ele>
        <time>2024-05-09T08:55:26Z</time>
      </trkpt>
      <trkpt lat="47.86897" lon="-4.21771">
        <ele>8.9</ele>
        <time>2024-05-09T08:55:30Z</time>
      </trkpt>
      <trkpt lat="47.86905" lon="-4.21762">
        <ele>8.7</ele>
        <time>2024-05-09T08:55:34Z</time>
      </trkpt>
      <trkpt lat="47.86916" lon="-4.21756">
        <ele>8.2</ele>
        <time>2024-05-09T08:55:38Z</time>
      </trkpt>
      <trkpt lat="47.86926" lon="-4.21753">
        <ele>8.1</ele>
        <time>2024-05-09T08:55:41Z</time>
      </trkpt>
      <trkpt lat="47.86937" lon="-4.21752">
        <ele>8</ele>
        <time>2024-05-09T08:55:44Z</time>
      </trkpt>
      <trkpt lat="47.86946" lon="-4.21752">
        <ele>7.9</ele>
        <time>2024-05-09T08:55:46Z</time>
      </trkpt>
      <trkpt lat="47.8696" lon="-4.21753">
        <ele>7.5</ele>
        <time>2024-05-09T08:55:49Z</time>
      </trkpt>
      <trkpt lat="47.86973" lon="-4.21758">
        <ele>7.3</ele>
        <time>2024-05-09T08:55:52Z</time>
      </trkpt>
      <trkpt lat="47.86985" lon="-4.21763">
        <ele>7.5</ele>
        <time>2024-05-09T08:55:55Z</time>
      </trkpt>
      <trkpt lat="47.86995" lon="-4.21765">
        <ele>7.5</ele>
        <time>2024-05-09T08:55:58Z</time>
      </trkpt>
      <trkpt lat="47.87005" lon="-4.21766">
        <ele>7.5</ele>
        <time>2024-05-09T08:56:01Z</time>
      </trkpt>
      <trkpt lat="47.87014" lon="-4.21765">
        <ele>7.3</ele>
        <time>2024-05-09T08:56:04Z</time>
      </trkpt>
      <trkpt lat="47.87023" lon="-4.21759">
        <ele>7.1</ele>
        <time>2024-05-09T08:56:07Z</time>
      </trkpt>
      <trkpt lat="47.87032" lon="-4.21748">
        <ele>7.3</ele>
        <time>2024-05-09T08:56:10Z</time>
      </trkpt>
      <trkpt lat="47.87038" lon="-4.21735">
        <ele>7.7</ele>
        <time>2024-05-09T08:56:13Z</time>
      </trkpt>
      <trkpt lat="47.87042" lon="-4.2172">
        <ele>8</ele>
        <time>2024-05-09T08:56:16Z</time>
      </trkpt>
      <trkpt lat="47.87045" lon="-4.21704">
        <ele>8.2</ele>
        <time>2024-05-09T08:56:20Z</time>
      </trkpt>
      <trkpt lat="47.87048" lon="-4.21688">
        <ele>8.4</ele>
        <time>2024-05-09T08:56:24Z</time>
      </trkpt>
      <trkpt lat="47.87049" lon="-4.21674">
        <ele>8.5</ele>
        <time>2024-05-09T08:56:27Z</time>
      </trkpt>
      <trkpt lat="47.87052" lon="-4.21657">
        <ele>8.1</ele>
        <time>2024-05-09T08:56:31Z</time>
      </trkpt>
      <trkpt lat="47.87053" lon="-4.21643">
        <ele>7.3</ele>
        <time>2024-05-09T08:56:35Z</time>
      </trkpt>
      <trkpt lat="47.87057" lon="-4.21629">
        <ele>7.1</ele>
        <time>2024-05-09T08:56:39Z</time>
      </trkpt>
      <trkpt lat="47.8706" lon="-4.21613">
        <ele>7.2</ele>
        <time>2024-05-09T08:56:43Z</time>
      </trkpt>
      <trkpt lat="47.87065" lon="-4.216">
        <ele>7.2</ele>
        <time>2024-05-09T08:56:46Z</time>
      </trkpt>
      <trkpt lat="47.8707" lon="-4.21589">
        <ele>7.1</ele>
        <time>2024-05-09T08:56:49Z</time>
      </trkpt>
      <trkpt lat="47.87075" lon="-4.21578">
        <ele>7</ele>
        <time>2024-05-09T08:56:52Z</time>
      </trkpt>
      <trkpt lat="47.87081" lon="-4.21566">
        <ele>7</ele>
        <time>2024-05-09T08:56:55Z</time>
      </trkpt>
      <trkpt lat="47.87087" lon="-4.21554">
        <ele>7.1</ele>
        <time>2024-05-09T08:56:58Z</time>
      </trkpt>
      <trkpt lat="47.87093" lon="-4.21541">
        <ele>7.2</ele>
        <time>2024-05-09T08:57:01Z</time>
      </trkpt>
      <trkpt lat="47.871" lon="-4.21528">
        <ele>7</ele>
        <time>2024-05-09T08:57:05Z</time>
      </trkpt>
      <trkpt lat="47.87107" lon="-4.21515">
        <ele>6.6</ele>
        <time>2024-05-09T08:57:09Z</time>
      </trkpt>
      <trkpt lat="47.87112" lon="-4.21503">
        <ele>6.1</ele>
        <time>2024-05-09T08:57:12Z</time>
      </trkpt>
      <trkpt lat="47.87115" lon="-4.21489">
        <ele>6</ele>
        <time>2024-05-09T08:57:16Z</time>
      </trkpt>
      <trkpt lat="47.8712" lon="-4.21473">
        <ele>6</ele>
        <time>2024-05-09T08:57:20Z</time>
      </trkpt>
      <trkpt lat="47.87122" lon="-4.21457">
        <ele>5.7</ele>
        <time>2024-05-09T08:57:23Z</time>
      </trkpt>
      <trkpt lat="47.87125" lon="-4.2144">
        <ele>5.4</ele>
        <time>2024-05-09T08:57:26Z</time>
      </trkpt>
      <trkpt lat="47.87127" lon="-4.21422">
        <ele>5.1</ele>
        <time>2024-05-09T08:57:29Z</time>
      </trkpt>
      <trkpt lat="47.87129" lon="-4.21404">
        <ele>4.8</ele>
        <time>2024-05-09T08:57:32Z</time>
      </trkpt>
      <trkpt lat="47.87132" lon="-4.21387">
        <ele>4.7</ele>
        <time>2024-05-09T08:57:35Z</time>
      </trkpt>
      <trkpt lat="47.87135" lon="-4.21371">
        <ele>4.3</ele>
        <time>2024-05-09T08:57:38Z</time>
      </trkpt>
      <trkpt lat="47.87137" lon="-4.21356">
        <ele>4.2</ele>
        <time>2024-05-09T08:57:41Z</time>
      </trkpt>
      <trkpt lat="47.87139" lon="-4.2134">
        <ele>4.7</ele>
        <time>2024-05-09T08:57:44Z</time>
      </trkpt>
      <trkpt lat="47.87141" lon="-4.21323">
        <ele>4.6</ele>
        <time>2024-05-09T08:57:47Z</time>
      </trkpt>
      <trkpt lat="47.87143" lon="-4.21306">
        <ele>4</ele>
        <time>2024-05-09T08:57:50Z</time>
      </trkpt>
      <trkpt lat="47.87146" lon="-4.21288">
        <ele>4.5</ele>
        <time>2024-05-09T08:57:53Z</time>
      </trkpt>
      <trkpt lat="47.87148" lon="-4.21271">
        <ele>4.5</ele>
        <time>2024-05-09T08:57:56Z</time>
      </trkpt>
      <trkpt lat="47.8715" lon="-4.21255">
        <ele>4.1</ele>
        <time>2024-05-09T08:57:59Z</time>
      </trkpt>
      <trkpt lat="47.87152" lon="-4.21241">
        <ele>4.3</ele>
        <time>2024-05-09T08:58:02Z</time>
      </trkpt>
      <trkpt lat="47.87154" lon="-4.21228">
        <ele>4.8</ele>
        <time>2024-05-09T08:58:05Z</time>
      </trkpt>
      <trkpt lat="47.87157" lon="-4.21213">
        <ele>5.3</ele>
        <time>2024-05-09T08:58:08Z</time>
      </trkpt>
      <trkpt lat="47.87159" lon="-4.21198">
        <ele>5.9</ele>
        <time>2024-05-09T08:58:11Z</time>
      </trkpt>
      <trkpt lat="47.87161" lon="-4.21183">
        <ele>6.1</ele>
        <time>2024-05-09T08:58:14Z</time>
      </trkpt>
      <trkpt lat="47.87163" lon="-4.21169">
        <ele>6.1</ele>
        <time>2024-05-09T08:58:17Z</time>
      </trkpt>
      <trkpt lat="47.87163" lon="-4.21154">
        <ele>6.6</ele>
        <time>2024-05-09T08:58:20Z</time>
      </trkpt>
      <trkpt lat="47.87162" lon="-4.21138">
        <ele>7.2</ele>
        <time>2024-05-09T08:58:23Z</time>
      </trkpt>
      <trkpt lat="47.87163" lon="-4.21124">
        <ele>7.1</ele>
        <time>2024-05-09T08:58:26Z</time>
      </trkpt>
      <trkpt lat="47.87162" lon="-4.2111">
        <ele>7.2</ele>
        <time>2024-05-09T08:58:29Z</time>
      </trkpt>
      <trkpt lat="47.87162" lon="-4.21096">
        <ele>7.6</ele>
        <time>2024-05-09T08:58:32Z</time>
      </trkpt>
      <trkpt lat="47.87161" lon="-4.21079">
        <ele>8</ele>
        <time>2024-05-09T08:58:36Z</time>
      </trkpt>
      <trkpt lat="47.87159" lon="-4.21061">
        <ele>8.2</ele>
        <time>2024-05-09T08:58:40Z</time>
      </trkpt>
      <trkpt lat="47.87157" lon="-4.21047">
        <ele>8.3</ele>
        <time>2024-05-09T08:58:43Z</time>
      </trkpt>
      <trkpt lat="47.87156" lon="-4.21033">
        <ele>8.4</ele>
        <time>2024-05-09T08:58:46Z</time>
      </trkpt>
      <trkpt lat="47.87155" lon="-4.21019">
        <ele>8.4</ele>
        <time>2024-05-09T08:58:49Z</time>
      </trkpt>
      <trkpt lat="47.87153" lon="-4.21003">
        <ele>8.5</ele>
        <time>2024-05-09T08:58:53Z</time>
      </trkpt>
      <trkpt lat="47.87152" lon="-4.20989">
        <ele>8.5</ele>
        <time>2024-05-09T08:58:56Z</time>
      </trkpt>
      <trkpt lat="47.87151" lon="-4.20973">
        <ele>8.6</ele>
        <time>2024-05-09T08:58:59Z</time>
      </trkpt>
      <trkpt lat="47.8715" lon="-4.20959">
        <ele>8.8</ele>
        <time>2024-05-09T08:59:02Z</time>
      </trkpt>
      <trkpt lat="47.87149" lon="-4.20945">
        <ele>9</ele>
        <time>2024-05-09T08:59:05Z</time>
      </trkpt>
      <trkpt lat="47.87147" lon="-4.20929">
        <ele>9</ele>
        <time>2024-05-09T08:59:08Z</time>
      </trkpt>
      <trkpt lat="47.87146" lon="-4.20912">
        <ele>9</ele>
        <time>2024-05-09T08:59:11Z</time>
      </trkpt>
      <trkpt lat="47.87146" lon="-4.20893">
        <ele>9</ele>
        <time>2024-05-09T08:59:14Z</time>
      </trkpt>
      <trkpt lat="47.87145" lon="-4.20879">
        <ele>9</ele>
        <time>2024-05-09T08:59:16Z</time>
      </trkpt>
      <trkpt lat="47.87145" lon="-4.20866">
        <ele>9</ele>
        <time>2024-05-09T08:59:18Z</time>
      </trkpt>
      <trkpt lat="47.87145" lon="-4.20847">
        <ele>9</ele>
        <time>2024-05-09T08:59:21Z</time>
      </trkpt>
      <trkpt lat="47.87147" lon="-4.2083">
        <ele>9</ele>
        <time>2024-05-09T08:59:24Z</time>
      </trkpt>
      <trkpt lat="47.87147" lon="-4.20813">
        <ele>8.8</ele>
        <time>2024-05-09T08:59:27Z</time>
      </trkpt>
      <trkpt lat="47.87148" lon="-4.20793">
        <ele>8.4</ele>
        <time>2024-05-09T08:59:30Z</time>
      </trkpt>
      <trkpt lat="47.87149" lon="-4.20777">
        <ele>8</ele>
        <time>2024-05-09T08:59:32Z</time>
      </trkpt>
      <trkpt lat="47.8715" lon="-4.20758">
        <ele>8</ele>
        <time>2024-05-09T08:59:35Z</time>
      </trkpt>
      <trkpt lat="47.8715" lon="-4.20741">
        <ele>8.2</ele>
        <time>2024-05-09T08:59:38Z</time>
      </trkpt>
      <trkpt lat="47.87149" lon="-4.20724">
        <ele>8.6</ele>
        <time>2024-05-09T08:59:41Z</time>
      </trkpt>
      <trkpt lat="47.8715" lon="-4.20706">
        <ele>8.6</ele>
        <time>2024-05-09T08:59:44Z</time>
      </trkpt>
      <trkpt lat="47.87151" lon="-4.20691">
        <ele>8.6</ele>
        <time>2024-05-09T08:59:47Z</time>
      </trkpt>
      <trkpt lat="47.87151" lon="-4.20678">
        <ele>8.6</ele>
        <time>2024-05-09T08:59:50Z</time>
      </trkpt>
      <trkpt lat="47.87155" lon="-4.20662">
        <ele>8.5</ele>
        <time>2024-05-09T08:59:54Z</time>
      </trkpt>
      <trkpt lat="47.87157" lon="-4.20649">
        <ele>8.6</ele>
        <time>2024-05-09T08:59:57Z</time>
      </trkpt>
      <trkpt lat="47.87161" lon="-4.20635">
        <ele>8.5</ele>
        <time>2024-05-09T09:00:00Z</time>
      </trkpt>
      <trkpt lat="47.87166" lon="-4.20621">
        <ele>8.7</ele>
        <time>2024-05-09T09:00:03Z</time>
      </trkpt>
      <trkpt lat="47.87173" lon="-4.20608">
        <ele>8.8</ele>
        <time>2024-05-09T09:00:07Z</time>
      </trkpt>
      <trkpt lat="47.87179" lon="-4.20593">
        <ele>8.6</ele>
        <time>2024-05-09T09:00:10Z</time>
      </trkpt>
      <trkpt lat="47.87185" lon="-4.20577">
        <ele>8.3</ele>
        <time>2024-05-09T09:00:13Z</time>
      </trkpt>
      <trkpt lat="47.87191" lon="-4.20563">
        <ele>8.1</ele>
        <time>2024-05-09T09:00:16Z</time>
      </trkpt>
      <trkpt lat="47.87197" lon="-4.20549">
        <ele>7.9</ele>
        <time>2024-05-09T09:00:19Z</time>
      </trkpt>
      <trkpt lat="47.87202" lon="-4.20536">
        <ele>7.7</ele>
        <time>2024-05-09T09:00:22Z</time>
      </trkpt>
      <trkpt lat="47.87206" lon="-4.20521">
        <ele>7.6</ele>
        <time>2024-05-09T09:00:25Z</time>
      </trkpt>
      <trkpt lat="47.8721" lon="-4.20506">
        <ele>7.4</ele>
        <time>2024-05-09T09:00:28Z</time>
      </trkpt>
      <trkpt lat="47.87212" lon="-4.2049">
        <ele>7.4</ele>
        <time>2024-05-09T09:00:31Z</time>
      </trkpt>
      <trkpt lat="47.87215" lon="-4.20476">
        <ele>7.3</ele>
        <time>2024-05-09T09:00:33Z</time>
      </trkpt>
      <trkpt lat="47.87219" lon="-4.20463">
        <ele>7.1</ele>
        <time>2024-05-09T09:00:35Z</time>
      </trkpt>
      <trkpt lat="47.87223" lon="-4.20451">
        <ele>7</ele>
        <time>2024-05-09T09:00:37Z</time>
      </trkpt>
      <trkpt lat="47.87228" lon="-4.20439">
        <ele>6.8</ele>
        <time>2024-05-09T09:00:39Z</time>
      </trkpt>
      <trkpt lat="47.87235" lon="-4.20423">
        <ele>6.6</ele>
        <time>2024-05-09T09:00:42Z</time>
      </trkpt>
      <trkpt lat="47.8724" lon="-4.2041">
        <ele>6.4</ele>
        <time>2024-05-09T09:00:45Z</time>
      </trkpt>
      <trkpt lat="47.87247" lon="-4.20395">
        <ele>6.1</ele>
        <time>2024-05-09T09:00:48Z</time>
      </trkpt>
      <trkpt lat="47.87253" lon="-4.2038">
        <ele>5.6</ele>
        <time>2024-05-09T09:00:51Z</time>
      </trkpt>
      <trkpt lat="47.87255" lon="-4.20364">
        <ele>5.1</ele>
        <time>2024-05-09T09:00:55Z</time>
      </trkpt>
      <trkpt lat="47.87257" lon="-4.2035">
        <ele>4.9</ele>
        <time>2024-05-09T09:00:58Z</time>
      </trkpt>
      <trkpt lat="47.87263" lon="-4.20336">
        <ele>4.6</ele>
        <time>2024-05-09T09:01:01Z</time>
      </trkpt>
      <trkpt lat="47.8727" lon="-4.2032">
        <ele>4.3</ele>
        <time>2024-05-09T09:01:04Z</time>
      </trkpt>
      <trkpt lat="47.87277" lon="-4.20303">
        <ele>4</ele>
        <time>2024-05-09T09:01:07Z</time>
      </trkpt>
      <trkpt lat="47.87285" lon="-4.20291">
        <ele>3.7</ele>
        <time>2024-05-09T09:01:09Z</time>
      </trkpt>
      <trkpt lat="47.87291" lon="-4.20278">
        <ele>3.5</ele>
        <time>2024-05-09T09:01:13Z</time>
      </trkpt>
      <trkpt lat="47.87294" lon="-4.20265">
        <ele>3.2</ele>
        <time>2024-05-09T09:01:18Z</time>
      </trkpt>
      <trkpt lat="47.87303" lon="-4.20269">
        <ele>3.1</ele>
        <time>2024-05-09T09:02:35Z</time>
      </trkpt>
      <trkpt lat="47.87312" lon="-4.20273">
        <ele>3</ele>
        <time>2024-05-09T09:02:41Z</time>
      </trkpt>
      <trkpt lat="47.8732" lon="-4.20283">
        <ele>3</ele>
        <time>2024-05-09T09:02:47Z</time>
      </trkpt>
      <trkpt lat="47.87328" lon="-4.20289">
        <ele>3</ele>
        <time>2024-05-09T09:02:51Z</time>
      </trkpt>
      <trkpt lat="47.87337" lon="-4.20297">
        <ele>3</ele>
        <time>2024-05-09T09:02:55Z</time>
      </trkpt>
      <trkpt lat="47.87345" lon="-4.20304">
        <ele>3</ele>
        <time>2024-05-09T09:02:59Z</time>
      </trkpt>
      <trkpt lat="47.87353" lon="-4.2031">
        <ele>3</ele>
        <time>2024-05-09T09:03:04Z</time>
      </trkpt>
      <trkpt lat="47.87361" lon="-4.20317">
        <ele>3</ele>
        <time>2024-05-09T09:03:09Z</time>
      </trkpt>
      <trkpt lat="47.8737" lon="-4.20324">
        <ele>3</ele>
        <time>2024-05-09T09:03:15Z</time>
      </trkpt>
      <trkpt lat="47.87379" lon="-4.2033">
        <ele>3</ele>
        <time>2024-05-09T09:03:20Z</time>
      </trkpt>
      <trkpt lat="47.87389" lon="-4.20337">
        <ele>3</ele>
        <time>2024-05-09T09:03:25Z</time>
      </trkpt>
      <trkpt lat="47.87399" lon="-4.20344">
        <ele>3</ele>
        <time>2024-05-09T09:03:30Z</time>
      </trkpt>
      <trkpt lat="47.87408" lon="-4.2035">
        <ele>3</ele>
        <time>2024-05-09T09:03:34Z</time>
      </trkpt>
      <trkpt lat="47.87416" lon="-4.20356">
        <ele>3</ele>
        <time>2024-05-09T09:03:38Z</time>
      </trkpt>
      <trkpt lat="47.87426" lon="-4.20361">
        <ele>3</ele>
        <time>2024-05-09T09:03:42Z</time>
      </trkpt>
      <trkpt lat="47.87435" lon="-4.20357">
        <ele>3</ele>
        <time>2024-05-09T09:03:46Z</time>
      </trkpt>
      <trkpt lat="47.87442" lon="-4.20347">
        <ele>3</ele>
        <time>2024-05-09T09:03:50Z</time>
      </trkpt>
      <trkpt lat="47.87448" lon="-4.20333">
        <ele>3</ele>
        <time>2024-05-09T09:03:54Z</time>
      </trkpt>
      <trkpt lat="47.87454" lon="-4.20318">
        <ele>3</ele>
        <time>2024-05-09T09:03:58Z</time>
      </trkpt>
      <trkpt lat="47.87459" lon="-4.20306">
        <ele>3</ele>
        <time>2024-05-09T09:04:02Z</time>
      </trkpt>
      <trkpt lat="47.87464" lon="-4.20291">
        <ele>3</ele>
        <time>2024-05-09T09:04:06Z</time>
      </trkpt>
      <trkpt lat="47.8747" lon="-4.20277">
        <ele>3</ele>
        <time>2024-05-09T09:04:10Z</time>
      </trkpt>
      <trkpt lat="47.87477" lon="-4.20266">
        <ele>3.1</ele>
        <time>2024-05-09T09:04:13Z</time>
      </trkpt>
      <trkpt lat="47.87483" lon="-4.20253">
        <ele>3</ele>
        <time>2024-05-09T09:04:17Z</time>
      </trkpt>
      <trkpt lat="47.8749" lon="-4.20244">
        <ele>3</ele>
        <time>2024-05-09T09:04:22Z</time>
      </trkpt>
      <trkpt lat="47.87498" lon="-4.20233">
        <ele>3</ele>
        <time>2024-05-09T09:04:27Z</time>
      </trkpt>
      <trkpt lat="47.87503" lon="-4.20221">
        <ele>3</ele>
        <time>2024-05-09T09:04:32Z</time>
      </trkpt>
      <trkpt lat="47.87509" lon="-4.20207">
        <ele>3.2</ele>
        <time>2024-05-09T09:04:36Z</time>
      </trkpt>
      <trkpt lat="47.87515" lon="-4.20193">
        <ele>3.5</ele>
        <time>2024-05-09T09:04:40Z</time>
      </trkpt>
      <trkpt lat="47.87521" lon="-4.20179">
        <ele>3.7</ele>
        <time>2024-05-09T09:04:44Z</time>
      </trkpt>
      <trkpt lat="47.87526" lon="-4.20168">
        <ele>3.9</ele>
        <time>2024-05-09T09:04:47Z</time>
      </trkpt>
      <trkpt lat="47.87533" lon="-4.20159">
        <ele>3.8</ele>
        <time>2024-05-09T09:04:50Z</time>
      </trkpt>
      <trkpt lat="47.87544" lon="-4.20157">
        <ele>3.9</ele>
        <time>2024-05-09T09:04:54Z</time>
      </trkpt>
      <trkpt lat="47.87554" lon="-4.2016">
        <ele>4</ele>
        <time>2024-05-09T09:04:58Z</time>
      </trkpt>
      <trkpt lat="47.87562" lon="-4.20165">
        <ele>4</ele>
        <time>2024-05-09T09:05:03Z</time>
      </trkpt>
      <trkpt lat="47.87572" lon="-4.20172">
        <ele>4</ele>
        <time>2024-05-09T09:05:07Z</time>
      </trkpt>
      <trkpt lat="47.87584" lon="-4.20178">
        <ele>4</ele>
        <time>2024-05-09T09:05:11Z</time>
      </trkpt>
      <trkpt lat="47.87594" lon="-4.20183">
        <ele>4.4</ele>
        <time>2024-05-09T09:05:15Z</time>
      </trkpt>
      <trkpt lat="47.87604" lon="-4.20189">
        <ele>4.8</ele>
        <time>2024-05-09T09:05:19Z</time>
      </trkpt>
      <trkpt lat="47.87614" lon="-4.20195">
        <ele>5</ele>
        <time>2024-05-09T09:05:23Z</time>
      </trkpt>
      <trkpt lat="47.87624" lon="-4.20198">
        <ele>5</ele>
        <time>2024-05-09T09:05:27Z</time>
      </trkpt>
      <trkpt lat="47.87634" lon="-4.20202">
        <ele>5</ele>
        <time>2024-05-09T09:05:31Z</time>
      </trkpt>
      <trkpt lat="47.87645" lon="-4.20208">
        <ele>5.2</ele>
        <time>2024-05-09T09:05:35Z</time>
      </trkpt>
      <trkpt lat="47.87655" lon="-4.20213">
        <ele>5.6</ele>
        <time>2024-05-09T09:05:39Z</time>
      </trkpt>
      <trkpt lat="47.87665" lon="-4.20216">
        <ele>5.9</ele>
        <time>2024-05-09T09:05:43Z</time>
      </trkpt>
      <trkpt lat="47.87674" lon="-4.2022">
        <ele>6.3</ele>
        <time>2024-05-09T09:05:47Z</time>
      </trkpt>
      <trkpt lat="47.87685" lon="-4.20223">
        <ele>6.7</ele>
        <time>2024-05-09T09:05:51Z</time>
      </trkpt>
      <trkpt lat="47.87695" lon="-4.20223">
        <ele>7</ele>
        <time>2024-05-09T09:05:55Z</time>
      </trkpt>
      <trkpt lat="47.87703" lon="-4.20226">
        <ele>7.3</ele>
        <time>2024-05-09T09:08:22Z</time>
      </trkpt>
      <trkpt lat="47.87712" lon="-4.20229">
        <ele>7.6</ele>
        <time>2024-05-09T09:13:19Z</time>
      </trkpt>
      <trkpt lat="47.87723" lon="-4.20228">
        <ele>8</ele>
        <time>2024-05-09T09:13:26Z</time>
      </trkpt>
      <trkpt lat="47.87732" lon="-4.20228">
        <ele>9</ele>
        <time>2024-05-09T09:13:31Z</time>
      </trkpt>
      <trkpt lat="47.87742" lon="-4.20231">
        <ele>10</ele>
        <time>2024-05-09T09:13:36Z</time>
      </trkpt>
      <trkpt lat="47.87749" lon="-4.20244">
        <ele>10.2</ele>
        <time>2024-05-09T09:13:41Z</time>
      </trkpt>
      <trkpt lat="47.8775" lon="-4.20261">
        <ele>10.4</ele>
        <time>2024-05-09T09:13:45Z</time>
      </trkpt>
      <trkpt lat="47.8775" lon="-4.20276">
        <ele>10.9</ele>
        <time>2024-05-09T09:13:49Z</time>
      </trkpt>
      <trkpt lat="47.8775" lon="-4.20292">
        <ele>11.6</ele>
        <time>2024-05-09T09:13:53Z</time>
      </trkpt>
      <trkpt lat="47.8775" lon="-4.20307">
        <ele>12</ele>
        <time>2024-05-09T09:13:57Z</time>
      </trkpt>
      <trkpt lat="47.87751" lon="-4.20322">
        <ele>12.2</ele>
        <time>2024-05-09T09:14:01Z</time>
      </trkpt>
      <trkpt lat="47.87752" lon="-4.20336">
        <ele>12.6</ele>
        <time>2024-05-09T09:14:05Z</time>
      </trkpt>
      <trkpt lat="47.87755" lon="-4.20352">
        <ele>13.8</ele>
        <time>2024-05-09T09:14:10Z</time>
      </trkpt>
      <trkpt lat="47.87759" lon="-4.20364">
        <ele>15</ele>
        <time>2024-05-09T09:14:15Z</time>
      </trkpt>
      <trkpt lat="47.87765" lon="-4.20376">
        <ele>16.2</ele>
        <time>2024-05-09T09:14:20Z</time>
      </trkpt>
      <trkpt lat="47.87773" lon="-4.20385">
        <ele>17.9</ele>
        <time>2024-05-09T09:14:26Z</time>
      </trkpt>
      <trkpt lat="47.87781" lon="-4.20391">
        <ele>19.3</ele>
        <time>2024-05-09T09:14:32Z</time>
      </trkpt>
      <trkpt lat="47.8779" lon="-4.20395">
        <ele>20.3</ele>
        <time>2024-05-09T09:14:39Z</time>
      </trkpt>
      <trkpt lat="47.87799" lon="-4.20397">
        <ele>21.3</ele>
        <time>2024-05-09T09:14:46Z</time>
      </trkpt>
      <trkpt lat="47.87809" lon="-4.20399">
        <ele>22.3</ele>
        <time>2024-05-09T09:14:54Z</time>
      </trkpt>
      <trkpt lat="47.87817" lon="-4.2039">
        <ele>22.8</ele>
        <time>2024-05-09T09:15:00Z</time>
      </trkpt>
      <trkpt lat="47.87822" lon="-4.20375">
        <ele>23.4</ele>
        <time>2024-05-09T09:15:06Z</time>
      </trkpt>
      <trkpt lat="47.87825" lon="-4.2036">
        <ele>23.7</ele>
        <time>2024-05-09T09:15:11Z</time>
      </trkpt>
      <trkpt lat="47.87826" lon="-4.20346">
        <ele>23.8</ele>
        <time>2024-05-09T09:15:15Z</time>
      </trkpt>
      <trkpt lat="47.87827" lon="-4.20331">
        <ele>23.8</ele>
        <time>2024-05-09T09:15:19Z</time>
      </trkpt>
      <trkpt lat="47.87829" lon="-4.20316">
        <ele>23.8</ele>
        <time>2024-05-09T09:15:23Z</time>
      </trkpt>
      <trkpt lat="47.8783" lon="-4.20299">
        <ele>24.1</ele>
        <time>2024-05-09T09:15:27Z</time>
      </trkpt>
      <trkpt lat="47.87831" lon="-4.20285">
        <ele>24.6</ele>
        <time>2024-05-09T09:15:30Z</time>
      </trkpt>
      <trkpt lat="47.87833" lon="-4.2027">
        <ele>25</ele>
        <time>2024-05-09T09:15:33Z</time>
      </trkpt>
      <trkpt lat="47.87835" lon="-4.20256">
        <ele>25.1</ele>
        <time>2024-05-09T09:15:36Z</time>
      </trkpt>
      <trkpt lat="47.87838" lon="-4.20238">
        <ele>25.2</ele>
        <time>2024-05-09T09:15:40Z</time>
      </trkpt>
      <trkpt lat="47.87839" lon="-4.20224">
        <ele>25.2</ele>
        <time>2024-05-09T09:15:43Z</time>
      </trkpt>
      <trkpt lat="47.87841" lon="-4.20206">
        <ele>24.7</ele>
        <time>2024-05-09T09:15:47Z</time>
      </trkpt>
      <trkpt lat="47.87842" lon="-4.20192">
        <ele>24.3</ele>
        <time>2024-05-09T09:15:50Z</time>
      </trkpt>
      <trkpt lat="47.87847" lon="-4.20181">
        <ele>24.5</ele>
        <time>2024-05-09T09:15:53Z</time>
      </trkpt>
      <trkpt lat="47.87856" lon="-4.20177">
        <ele>24.8</ele>
        <time>2024-05-09T09:15:56Z</time>
      </trkpt>
      <trkpt lat="47.87866" lon="-4.20179">
        <ele>25.2</ele>
        <time>2024-05-09T09:15:59Z</time>
      </trkpt>
      <trkpt lat="47.87876" lon="-4.20183">
        <ele>25.5</ele>
        <time>2024-05-09T09:16:02Z</time>
      </trkpt>
      <trkpt lat="47.87885" lon="-4.20185">
        <ele>25.9</ele>
        <time>2024-05-09T09:16:05Z</time>
      </trkpt>
      <trkpt lat="47.87894" lon="-4.20188">
        <ele>26.4</ele>
        <time>2024-05-09T09:16:08Z</time>
      </trkpt>
      <trkpt lat="47.87904" lon="-4.2019">
        <ele>27.1</ele>
        <time>2024-05-09T09:16:11Z</time>
      </trkpt>
      <trkpt lat="47.87914" lon="-4.20193">
        <ele>27.8</ele>
        <time>2024-05-09T09:16:14Z</time>
      </trkpt>
      <trkpt lat="47.87924" lon="-4.20196">
        <ele>28.5</ele>
        <time>2024-05-09T09:16:17Z</time>
      </trkpt>
      <trkpt lat="47.87932" lon="-4.20198">
        <ele>29.1</ele>
        <time>2024-05-09T09:16:20Z</time>
      </trkpt>
      <trkpt lat="47.87943" lon="-4.20203">
        <ele>29.6</ele>
        <time>2024-05-09T09:16:24Z</time>
      </trkpt>
      <trkpt lat="47.87954" lon="-4.20207">
        <ele>29.7</ele>
        <time>2024-05-09T09:16:28Z</time>
      </trkpt>
      <trkpt lat="47.87962" lon="-4.20211">
        <ele>29.8</ele>
        <time>2024-05-09T09:16:31Z</time>
      </trkpt>
      <trkpt lat="47.87972" lon="-4.20214">
        <ele>30</ele>
        <time>2024-05-09T09:16:34Z</time>
      </trkpt>
      <trkpt lat="47.87981" lon="-4.20217">
        <ele>30.3</ele>
        <time>2024-05-09T09:16:37Z</time>
      </trkpt>
      <trkpt lat="47.87992" lon="-4.20222">
        <ele>30.7</ele>
        <time>2024-05-09T09:16:41Z</time>
      </trkpt>
      <trkpt lat="47.88004" lon="-4.20227">
        <ele>31.1</ele>
        <time>2024-05-09T09:16:45Z</time>
      </trkpt>
      <trkpt lat="47.88013" lon="-4.2023">
        <ele>31.5</ele>
        <time>2024-05-09T09:16:48Z</time>
      </trkpt>
      <trkpt lat="47.88022" lon="-4.20234">
        <ele>31.8</ele>
        <time>2024-05-09T09:16:51Z</time>
      </trkpt>
      <trkpt lat="47.88032" lon="-4.20237">
        <ele>32</ele>
        <time>2024-05-09T09:16:54Z</time>
      </trkpt>
      <trkpt lat="47.88041" lon="-4.20239">
        <ele>32</ele>
        <time>2024-05-09T09:16:57Z</time>
      </trkpt>
      <trkpt lat="47.8805" lon="-4.20241">
        <ele>32</ele>
        <time>2024-05-09T09:17:00Z</time>
      </trkpt>
      <trkpt lat="47.8806" lon="-4.20245">
        <ele>32.1</ele>
        <time>2024-05-09T09:17:03Z</time>
      </trkpt>
      <trkpt lat="47.88069" lon="-4.20248">
        <ele>32.5</ele>
        <time>2024-05-09T09:17:06Z</time>
      </trkpt>
      <trkpt lat="47.88079" lon="-4.20251">
        <ele>32.8</ele>
        <time>2024-05-09T09:17:09Z</time>
      </trkpt>
      <trkpt lat="47.88088" lon="-4.20255">
        <ele>33</ele>
        <time>2024-05-09T09:17:12Z</time>
      </trkpt>
      <trkpt lat="47.88098" lon="-4.20259">
        <ele>33</ele>
        <time>2024-05-09T09:17:15Z</time>
      </trkpt>
      <trkpt lat="47.88107" lon="-4.20262">
        <ele>33</ele>
        <time>2024-05-09T09:17:18Z</time>
      </trkpt>
      <trkpt lat="47.88117" lon="-4.20266">
        <ele>33.2</ele>
        <time>2024-05-09T09:17:21Z</time>
      </trkpt>
      <trkpt lat="47.88128" lon="-4.20263">
        <ele>33.6</ele>
        <time>2024-05-09T09:17:25Z</time>
      </trkpt>
      <trkpt lat="47.88132" lon="-4.2025">
        <ele>33.8</ele>
        <time>2024-05-09T09:17:28Z</time>
      </trkpt>
      <trkpt lat="47.8813" lon="-4.20235">
        <ele>33.7</ele>
        <time>2024-05-09T09:17:31Z</time>
      </trkpt>
      <trkpt lat="47.88127" lon="-4.20218">
        <ele>33.6</ele>
        <time>2024-05-09T09:17:34Z</time>
      </trkpt>
      <trkpt lat="47.88125" lon="-4.202">
        <ele>33.5</ele>
        <time>2024-05-09T09:17:37Z</time>
      </trkpt>
      <trkpt lat="47.88122" lon="-4.20182">
        <ele>33.4</ele>
        <time>2024-05-09T09:17:40Z</time>
      </trkpt>
      <trkpt lat="47.88121" lon="-4.20163">
        <ele>33.3</ele>
        <time>2024-05-09T09:17:43Z</time>
      </trkpt>
      <trkpt lat="47.8812" lon="-4.20144">
        <ele>33.3</ele>
        <time>2024-05-09T09:17:46Z</time>
      </trkpt>
      <trkpt lat="47.88119" lon="-4.20126">
        <ele>33.3</ele>
        <time>2024-05-09T09:17:49Z</time>
      </trkpt>
      <trkpt lat="47.88119" lon="-4.20109">
        <ele>33.3</ele>
        <time>2024-05-09T09:17:52Z</time>
      </trkpt>
      <trkpt lat="47.8812" lon="-4.20091">
        <ele>33.3</ele>
        <time>2024-05-09T09:17:55Z</time>
      </trkpt>
      <trkpt lat="47.88121" lon="-4.20074">
        <ele>33.2</ele>
        <time>2024-05-09T09:17:58Z</time>
      </trkpt>
      <trkpt lat="47.88123" lon="-4.20056">
        <ele>33</ele>
        <time>2024-05-09T09:18:01Z</time>
      </trkpt>
      <trkpt lat="47.88124" lon="-4.20038">
        <ele>32.7</ele>
        <time>2024-05-09T09:18:04Z</time>
      </trkpt>
      <trkpt lat="47.88125" lon="-4.20022">
        <ele>32.5</ele>
        <time>2024-05-09T09:18:07Z</time>
      </trkpt>
      <trkpt lat="47.88127" lon="-4.20004">
        <ele>32.6</ele>
        <time>2024-05-09T09:18:10Z</time>
      </trkpt>
      <trkpt lat="47.8813" lon="-4.19985">
        <ele>32.3</ele>
        <time>2024-05-09T09:18:13Z</time>
      </trkpt>
      <trkpt lat="47.88133" lon="-4.19966">
        <ele>31.8</ele>
        <time>2024-05-09T09:18:16Z</time>
      </trkpt>
      <trkpt lat="47.88134" lon="-4.19952">
        <ele>31.4</ele>
        <time>2024-05-09T09:18:18Z</time>
      </trkpt>
      <trkpt lat="47.88136" lon="-4.19938">
        <ele>31.1</ele>
        <time>2024-05-09T09:18:20Z</time>
      </trkpt>
      <trkpt lat="47.88138" lon="-4.19923">
        <ele>31</ele>
        <time>2024-05-09T09:18:22Z</time>
      </trkpt>
      <trkpt lat="47.8814" lon="-4.19908">
        <ele>30.7</ele>
        <time>2024-05-09T09:18:24Z</time>
      </trkpt>
      <trkpt lat="47.88142" lon="-4.19891">
        <ele>30.1</ele>
        <time>2024-05-09T09:18:26Z</time>
      </trkpt>
      <trkpt lat="47.88143" lon="-4.19875">
        <ele>29.9</ele>
        <time>2024-05-09T09:18:28Z</time>
      </trkpt>
      <trkpt lat="47.88143" lon="-4.19856">
        <ele>29.7</ele>
        <time>2024-05-09T09:18:30Z</time>
      </trkpt>
      <trkpt lat="47.88144" lon="-4.1984">
        <ele>29.1</ele>
        <time>2024-05-09T09:18:32Z</time>
      </trkpt>
      <trkpt lat="47.88145" lon="-4.19821">
        <ele>28.8</ele>
        <time>2024-05-09T09:18:34Z</time>
      </trkpt>
      <trkpt lat="47.88143" lon="-4.19801">
        <ele>28.7</ele>
        <time>2024-05-09T09:18:36Z</time>
      </trkpt>
      <trkpt lat="47.88144" lon="-4.19784">
        <ele>28</ele>
        <time>2024-05-09T09:18:38Z</time>
      </trkpt>
      <trkpt lat="47.88145" lon="-4.19768">
        <ele>27.8</ele>
        <time>2024-05-09T09:18:40Z</time>
      </trkpt>
      <trkpt lat="47.88145" lon="-4.19752">
        <ele>27.8</ele>
        <time>2024-05-09T09:18:42Z</time>
      </trkpt>
      <trkpt lat="47.88145" lon="-4.19736">
        <ele>27.8</ele>
        <time>2024-05-09T09:18:44Z</time>
      </trkpt>
      <trkpt lat="47.88144" lon="-4.19722">
        <ele>27.8</ele>
        <time>2024-05-09T09:18:46Z</time>
      </trkpt>
      <trkpt lat="47.88145" lon="-4.19708">
        <ele>27.8</ele>
        <time>2024-05-09T09:18:48Z</time>
      </trkpt>
      <trkpt lat="47.88144" lon="-4.19691">
        <ele>27.8</ele>
        <time>2024-05-09T09:18:51Z</time>
      </trkpt>
      <trkpt lat="47.88144" lon="-4.19675">
        <ele>27.9</ele>
        <time>2024-05-09T09:18:55Z</time>
      </trkpt>
      <trkpt lat="47.88152" lon="-4.19668">
        <ele>28</ele>
        <time>2024-05-09T09:19:43Z</time>
      </trkpt>
      <trkpt lat="47.88159" lon="-4.19678">
        <ele>27.7</ele>
        <time>2024-05-09T09:19:47Z</time>
      </trkpt>
      <trkpt lat="47.88164" lon="-4.19691">
        <ele>27.2</ele>
        <time>2024-05-09T09:19:51Z</time>
      </trkpt>
      <trkpt lat="47.8817" lon="-4.19702">
        <ele>26.9</ele>
        <time>2024-05-09T09:19:54Z</time>
      </trkpt>
      <trkpt lat="47.88179" lon="-4.19713">
        <ele>26.6</ele>
        <time>2024-05-09T09:19:57Z</time>
      </trkpt>
      <trkpt lat="47.88187" lon="-4.19726">
        <ele>26.2</ele>
        <time>2024-05-09T09:19:59Z</time>
      </trkpt>
      <trkpt lat="47.88194" lon="-4.19741">
        <ele>25.4</ele>
        <time>2024-05-09T09:20:01Z</time>
      </trkpt>
      <trkpt lat="47.88202" lon="-4.19756">
        <ele>24.7</ele>
        <time>2024-05-09T09:20:03Z</time>
      </trkpt>
      <trkpt lat="47.88213" lon="-4.19767">
        <ele>23.9</ele>
        <time>2024-05-09T09:20:05Z</time>
      </trkpt>
      <trkpt lat="47.88229" lon="-4.19769">
        <ele>22.9</ele>
        <time>2024-05-09T09:20:07Z</time>
      </trkpt>
      <trkpt lat="47.88246" lon="-4.19771">
        <ele>21.8</ele>
        <time>2024-05-09T09:20:09Z</time>
      </trkpt>
      <trkpt lat="47.88256" lon="-4.1977">
        <ele>20.9</ele>
        <time>2024-05-09T09:20:11Z</time>
      </trkpt>
      <trkpt lat="47.88269" lon="-4.19773">
        <ele>19.3</ele>
        <time>2024-05-09T09:20:14Z</time>
      </trkpt>
      <trkpt lat="47.88281" lon="-4.19773">
        <ele>18.1</ele>
        <time>2024-05-09T09:20:17Z</time>
      </trkpt>
      <trkpt lat="47.88292" lon="-4.19771">
        <ele>17.3</ele>
        <time>2024-05-09T09:20:19Z</time>
      </trkpt>
      <trkpt lat="47.88302" lon="-4.19776">
        <ele>16.4</ele>
        <time>2024-05-09T09:20:20Z</time>
      </trkpt>
      <trkpt lat="47.88314" lon="-4.19777">
        <ele>14.8</ele>
        <time>2024-05-09T09:20:22Z</time>
      </trkpt>
      <trkpt lat="47.88322" lon="-4.19792">
        <ele>13.8</ele>
        <time>2024-05-09T09:20:24Z</time>
      </trkpt>
      <trkpt lat="47.88328" lon="-4.19802">
        <ele>12.9</ele>
        <time>2024-05-09T09:20:27Z</time>
      </trkpt>
      <trkpt lat="47.88334" lon="-4.19816">
        <ele>12</ele>
        <time>2024-05-09T09:21:29Z</time>
      </trkpt>
      <trkpt lat="47.88341" lon="-4.19828">
        <ele>11.4</ele>
        <time>2024-05-09T09:21:34Z</time>
      </trkpt>
      <trkpt lat="47.88349" lon="-4.19833">
        <ele>10.9</ele>
        <time>2024-05-09T09:21:38Z</time>
      </trkpt>
      <trkpt lat="47.88356" lon="-4.19818">
        <ele>10</ele>
        <time>2024-05-09T09:21:43Z</time>
      </trkpt>
      <trkpt lat="47.88355" lon="-4.19799">
        <ele>9.7</ele>
        <time>2024-05-09T09:21:46Z</time>
      </trkpt>
      <trkpt lat="47.88353" lon="-4.19784">
        <ele>9.9</ele>
        <time>2024-05-09T09:21:48Z</time>
      </trkpt>
      <trkpt lat="47.88353" lon="-4.1977">
        <ele>9.7</ele>
        <time>2024-05-09T09:21:50Z</time>
      </trkpt>
      <trkpt lat="47.88353" lon="-4.19755">
        <ele>9.4</ele>
        <time>2024-05-09T09:21:52Z</time>
      </trkpt>
      <trkpt lat="47.88353" lon="-4.1974">
        <ele>9</ele>
        <time>2024-05-09T09:21:54Z</time>
      </trkpt>
      <trkpt lat="47.88354" lon="-4.19724">
        <ele>8.8</ele>
        <time>2024-05-09T09:21:56Z</time>
      </trkpt>
      <trkpt lat="47.88354" lon="-4.19708">
        <ele>8.8</ele>
        <time>2024-05-09T09:21:58Z</time>
      </trkpt>
      <trkpt lat="47.88355" lon="-4.19691">
        <ele>8.7</ele>
        <time>2024-05-09T09:22:00Z</time>
      </trkpt>
      <trkpt lat="47.88356" lon="-4.19675">
        <ele>8.5</ele>
        <time>2024-05-09T09:22:02Z</time>
      </trkpt>
      <trkpt lat="47.88356" lon="-4.19659">
        <ele>8.1</ele>
        <time>2024-05-09T09:22:04Z</time>
      </trkpt>
      <trkpt lat="47.88357" lon="-4.19642">
        <ele>7.4</ele>
        <time>2024-05-09T09:22:06Z</time>
      </trkpt>
      <trkpt lat="47.88358" lon="-4.19626">
        <ele>7.2</ele>
        <time>2024-05-09T09:22:08Z</time>
      </trkpt>
      <trkpt lat="47.8836" lon="-4.19609">
        <ele>7</ele>
        <time>2024-05-09T09:22:10Z</time>
      </trkpt>
      <trkpt lat="47.88362" lon="-4.19592">
        <ele>6.3</ele>
        <time>2024-05-09T09:22:12Z</time>
      </trkpt>
      <trkpt lat="47.88364" lon="-4.19576">
        <ele>6.2</ele>
        <time>2024-05-09T09:22:14Z</time>
      </trkpt>
      <trkpt lat="47.88366" lon="-4.19558">
        <ele>6.7</ele>
        <time>2024-05-09T09:22:16Z</time>
      </trkpt>
      <trkpt lat="47.88368" lon="-4.1954">
        <ele>7.2</ele>
        <time>2024-05-09T09:22:18Z</time>
      </trkpt>
      <trkpt lat="47.88371" lon="-4.19523">
        <ele>7.5</ele>
        <time>2024-05-09T09:22:20Z</time>
      </trkpt>
      <trkpt lat="47.88374" lon="-4.19505">
        <ele>8</ele>
        <time>2024-05-09T09:22:22Z</time>
      </trkpt>
      <trkpt lat="47.88377" lon="-4.19488">
        <ele>8.4</ele>
        <time>2024-05-09T09:22:24Z</time>
      </trkpt>
      <trkpt lat="47.88378" lon="-4.1947">
        <ele>9</ele>
        <time>2024-05-09T09:22:26Z</time>
      </trkpt>
      <trkpt lat="47.8838" lon="-4.19453">
        <ele>8.6</ele>
        <time>2024-05-09T09:22:28Z</time>
      </trkpt>
      <trkpt lat="47.88382" lon="-4.19436">
        <ele>8.1</ele>
        <time>2024-05-09T09:22:30Z</time>
      </trkpt>
      <trkpt lat="47.88385" lon="-4.19417">
        <ele>7.2</ele>
        <time>2024-05-09T09:22:32Z</time>
      </trkpt>
      <trkpt lat="47.88387" lon="-4.19399">
        <ele>7.1</ele>
        <time>2024-05-09T09:22:34Z</time>
      </trkpt>
      <trkpt lat="47.88389" lon="-4.19381">
        <ele>7.1</ele>
        <time>2024-05-09T09:22:36Z</time>
      </trkpt>
      <trkpt lat="47.8839" lon="-4.19362">
        <ele>6.9</ele>
        <time>2024-05-09T09:22:38Z</time>
      </trkpt>
      <trkpt lat="47.88392" lon="-4.19343">
        <ele>6.8</ele>
        <time>2024-05-09T09:22:40Z</time>
      </trkpt>
      <trkpt lat="47.88395" lon="-4.19324">
        <ele>6</ele>
        <time>2024-05-09T09:22:42Z</time>
      </trkpt>
      <trkpt lat="47.88397" lon="-4.19304">
        <ele>5</ele>
        <time>2024-05-09T09:22:44Z</time>
      </trkpt>
      <trkpt lat="47.884" lon="-4.19284">
        <ele>5.3</ele>
        <time>2024-05-09T09:22:46Z</time>
      </trkpt>
      <trkpt lat="47.88403" lon="-4.19264">
        <ele>5.3</ele>
        <time>2024-05-09T09:22:48Z</time>
      </trkpt>
      <trkpt lat="47.88407" lon="-4.19245">
        <ele>5.1</ele>
        <time>2024-05-09T09:22:50Z</time>
      </trkpt>
      <trkpt lat="47.8841" lon="-4.19225">
        <ele>5.2</ele>
        <time>2024-05-09T09:22:52Z</time>
      </trkpt>
      <trkpt lat="47.88412" lon="-4.19207">
        <ele>5.2</ele>
        <time>2024-05-09T09:22:54Z</time>
      </trkpt>
      <trkpt lat="47.88414" lon="-4.19189">
        <ele>5.1</ele>
        <time>2024-05-09T09:22:56Z</time>
      </trkpt>
      <trkpt lat="47.88417" lon="-4.1917">
        <ele>5</ele>
        <time>2024-05-09T09:22:58Z</time>
      </trkpt>
      <trkpt lat="47.8842" lon="-4.19151">
        <ele>5.5</ele>
        <time>2024-05-09T09:23:00Z</time>
      </trkpt>
      <trkpt lat="47.88422" lon="-4.19134">
        <ele>5.9</ele>
        <time>2024-05-09T09:23:02Z</time>
      </trkpt>
      <trkpt lat="47.88425" lon="-4.19117">
        <ele>5.5</ele>
        <time>2024-05-09T09:23:04Z</time>
      </trkpt>
      <trkpt lat="47.88428" lon="-4.191">
        <ele>5.4</ele>
        <time>2024-05-09T09:23:06Z</time>
      </trkpt>
      <trkpt lat="47.88431" lon="-4.19082">
        <ele>5.5</ele>
        <time>2024-05-09T09:23:08Z</time>
      </trkpt>
      <trkpt lat="47.88434" lon="-4.19065">
        <ele>5.6</ele>
        <time>2024-05-09T09:23:10Z</time>
      </trkpt>
      <trkpt lat="47.88435" lon="-4.19048">
        <ele>5.7</ele>
        <time>2024-05-09T09:23:12Z</time>
      </trkpt>
      <trkpt lat="47.88438" lon="-4.19031">
        <ele>5.8</ele>
        <time>2024-05-09T09:23:14Z</time>
      </trkpt>
      <trkpt lat="47.8844" lon="-4.19014">
        <ele>5.9</ele>
        <time>2024-05-09T09:23:16Z</time>
      </trkpt>
      <trkpt lat="47.88442" lon="-4.18997">
        <ele>6</ele>
        <time>2024-05-09T09:23:18Z</time>
      </trkpt>
      <trkpt lat="47.88445" lon="-4.18982">
        <ele>6</ele>
        <time>2024-05-09T09:23:20Z</time>
      </trkpt>
      <trkpt lat="47.88447" lon="-4.18966">
        <ele>6.6</ele>
        <time>2024-05-09T09:23:22Z</time>
      </trkpt>
      <trkpt lat="47.88448" lon="-4.1895">
        <ele>7.7</ele>
        <time>2024-05-09T09:23:24Z</time>
      </trkpt>
      <trkpt lat="47.88451" lon="-4.18934">
        <ele>7.7</ele>
        <time>2024-05-09T09:23:26Z</time>
      </trkpt>
      <trkpt lat="47.88455" lon="-4.18918">
        <ele>7.4</ele>
        <time>2024-05-09T09:23:28Z</time>
      </trkpt>
      <trkpt lat="47.88457" lon="-4.18901">
        <ele>7.5</ele>
        <time>2024-05-09T09:23:30Z</time>
      </trkpt>
      <trkpt lat="47.88459" lon="-4.18884">
        <ele>7.5</ele>
        <time>2024-05-09T09:23:32Z</time>
      </trkpt>
      <trkpt lat="47.88461" lon="-4.18868">
        <ele>7.6</ele>
        <time>2024-05-09T09:23:34Z</time>
      </trkpt>
      <trkpt lat="47.88463" lon="-4.18851">
        <ele>7.6</ele>
        <time>2024-05-09T09:23:36Z</time>
      </trkpt>
      <trkpt lat="47.88466" lon="-4.18834">
        <ele>7.5</ele>
        <time>2024-05-09T09:23:38Z</time>
      </trkpt>
      <trkpt lat="47.88468" lon="-4.18817">
        <ele>7.7</ele>
        <time>2024-05-09T09:23:40Z</time>
      </trkpt>
      <trkpt lat="47.8847" lon="-4.188">
        <ele>7.7</ele>
        <time>2024-05-09T09:23:42Z</time>
      </trkpt>
      <trkpt lat="47.88473" lon="-4.18782">
        <ele>7.2</ele>
        <time>2024-05-09T09:23:44Z</time>
      </trkpt>
      <trkpt lat="47.88476" lon="-4.18765">
        <ele>7.1</ele>
        <time>2024-05-09T09:23:46Z</time>
      </trkpt>
      <trkpt lat="47.88479" lon="-4.18748">
        <ele>7.2</ele>
        <time>2024-05-09T09:23:48Z</time>
      </trkpt>
      <trkpt lat="47.88481" lon="-4.18733">
        <ele>6.9</ele>
        <time>2024-05-09T09:23:50Z</time>
      </trkpt>
      <trkpt lat="47.88484" lon="-4.18717">
        <ele>6.9</ele>
        <time>2024-05-09T09:23:52Z</time>
      </trkpt>
      <trkpt lat="47.88487" lon="-4.18702">
        <ele>7.1</ele>
        <time>2024-05-09T09:23:54Z</time>
      </trkpt>
      <trkpt lat="47.88489" lon="-4.18687">
        <ele>7.4</ele>
        <time>2024-05-09T09:23:56Z</time>
      </trkpt>
      <trkpt lat="47.8849" lon="-4.18673">
        <ele>7.8</ele>
        <time>2024-05-09T09:23:58Z</time>
      </trkpt>
      <trkpt lat="47.88492" lon="-4.18654">
        <ele>8.2</ele>
        <time>2024-05-09T09:24:01Z</time>
      </trkpt>
      <trkpt lat="47.88496" lon="-4.18637">
        <ele>8.6</ele>
        <time>2024-05-09T09:24:04Z</time>
      </trkpt>
      <trkpt lat="47.88498" lon="-4.18619">
        <ele>9.5</ele>
        <time>2024-05-09T09:24:07Z</time>
      </trkpt>
      <trkpt lat="47.88501" lon="-4.18601">
        <ele>10.1</ele>
        <time>2024-05-09T09:24:10Z</time>
      </trkpt>
      <trkpt lat="47.88503" lon="-4.18583">
        <ele>10.4</ele>
        <time>2024-05-09T09:24:13Z</time>
      </trkpt>
      <trkpt lat="47.88505" lon="-4.18566">
        <ele>10.8</ele>
        <time>2024-05-09T09:24:16Z</time>
      </trkpt>
      <trkpt lat="47.88507" lon="-4.18551">
        <ele>11.2</ele>
        <time>2024-05-09T09:24:19Z</time>
      </trkpt>
      <trkpt lat="47.88509" lon="-4.18537">
        <ele>11.8</ele>
        <time>2024-05-09T09:24:22Z</time>
      </trkpt>
      <trkpt lat="47.88511" lon="-4.18523">
        <ele>12.3</ele>
        <time>2024-05-09T09:24:25Z</time>
      </trkpt>
      <trkpt lat="47.88513" lon="-4.18509">
        <ele>13.1</ele>
        <time>2024-05-09T09:24:28Z</time>
      </trkpt>
      <trkpt lat="47.88516" lon="-4.18493">
        <ele>13.5</ele>
        <time>2024-05-09T09:24:32Z</time>
      </trkpt>
      <trkpt lat="47.88519" lon="-4.1848">
        <ele>13.7</ele>
        <time>2024-05-09T09:24:35Z</time>
      </trkpt>
      <trkpt lat="47.88521" lon="-4.18466">
        <ele>14</ele>
        <time>2024-05-09T09:24:38Z</time>
      </trkpt>
      <trkpt lat="47.88524" lon="-4.18453">
        <ele>14.1</ele>
        <time>2024-05-09T09:24:41Z</time>
      </trkpt>
      <trkpt lat="47.88527" lon="-4.1844">
        <ele>14.2</ele>
        <time>2024-05-09T09:24:44Z</time>
      </trkpt>
      <trkpt lat="47.8853" lon="-4.18426">
        <ele>14.5</ele>
        <time>2024-05-09T09:24:47Z</time>
      </trkpt>
      <trkpt lat="47.88534" lon="-4.18409">
        <ele>14.7</ele>
        <time>2024-05-09T09:24:51Z</time>
      </trkpt>
      <trkpt lat="47.88536" lon="-4.18395">
        <ele>14.9</ele>
        <time>2024-05-09T09:24:54Z</time>
      </trkpt>
      <trkpt lat="47.88539" lon="-4.18382">
        <ele>15.5</ele>
        <time>2024-05-09T09:24:57Z</time>
      </trkpt>
      <trkpt lat="47.88542" lon="-4.18365">
        <ele>16.7</ele>
        <time>2024-05-09T09:25:01Z</time>
      </trkpt>
      <trkpt lat="47.88544" lon="-4.18351">
        <ele>17.4</ele>
        <time>2024-05-09T09:25:04Z</time>
      </trkpt>
      <trkpt lat="47.88545" lon="-4.18337">
        <ele>17.9</ele>
        <time>2024-05-09T09:25:07Z</time>
      </trkpt>
      <trkpt lat="47.88549" lon="-4.18321">
        <ele>18.5</ele>
        <time>2024-05-09T09:25:11Z</time>
      </trkpt>
      <trkpt lat="47.88552" lon="-4.18303">
        <ele>19.1</ele>
        <time>2024-05-09T09:25:15Z</time>
      </trkpt>
      <trkpt lat="47.88554" lon="-4.1829">
        <ele>19.6</ele>
        <time>2024-05-09T09:25:18Z</time>
      </trkpt>
      <trkpt lat="47.88556" lon="-4.18275">
        <ele>20</ele>
        <time>2024-05-09T09:25:22Z</time>
      </trkpt>
      <trkpt lat="47.88557" lon="-4.18261">
        <ele>20</ele>
        <time>2024-05-09T09:25:26Z</time>
      </trkpt>
      <trkpt lat="47.88558" lon="-4.18244">
        <ele>20.2</ele>
        <time>2024-05-09T09:25:30Z</time>
      </trkpt>
      <trkpt lat="47.88556" lon="-4.18229">
        <ele>20.7</ele>
        <time>2024-05-09T09:25:34Z</time>
      </trkpt>
      <trkpt lat="47.88546" lon="-4.18227">
        <ele>21.2</ele>
        <time>2024-05-09T09:25:38Z</time>
      </trkpt>
      <trkpt lat="47.88534" lon="-4.18232">
        <ele>21.4</ele>
        <time>2024-05-09T09:25:42Z</time>
      </trkpt>
      <trkpt lat="47.88524" lon="-4.18236">
        <ele>21.6</ele>
        <time>2024-05-09T09:25:45Z</time>
      </trkpt>
      <trkpt lat="47.88515" lon="-4.1824">
        <ele>21.7</ele>
        <time>2024-05-09T09:25:48Z</time>
      </trkpt>
      <trkpt lat="47.88506" lon="-4.18244">
        <ele>21.8</ele>
        <time>2024-05-09T09:25:51Z</time>
      </trkpt>
      <trkpt lat="47.88494" lon="-4.18247">
        <ele>22</ele>
        <time>2024-05-09T09:25:55Z</time>
      </trkpt>
      <trkpt lat="47.88486" lon="-4.18252">
        <ele>21.9</ele>
        <time>2024-05-09T09:25:58Z</time>
      </trkpt>
      <trkpt lat="47.88477" lon="-4.18255">
        <ele>21.8</ele>
        <time>2024-05-09T09:26:01Z</time>
      </trkpt>
      <trkpt lat="47.88467" lon="-4.18258">
        <ele>21.7</ele>
        <time>2024-05-09T09:26:04Z</time>
      </trkpt>
      <trkpt lat="47.88457" lon="-4.18259">
        <ele>21.7</ele>
        <time>2024-05-09T09:26:07Z</time>
      </trkpt>
      <trkpt lat="47.88447" lon="-4.18261">
        <ele>21.6</ele>
        <time>2024-05-09T09:26:10Z</time>
      </trkpt>
      <trkpt lat="47.88437" lon="-4.18262">
        <ele>21.4</ele>
        <time>2024-05-09T09:26:13Z</time>
      </trkpt>
      <trkpt lat="47.88427" lon="-4.18262">
        <ele>21.2</ele>
        <time>2024-05-09T09:26:16Z</time>
      </trkpt>
      <trkpt lat="47.88416" lon="-4.18262">
        <ele>21</ele>
        <time>2024-05-09T09:26:19Z</time>
      </trkpt>
      <trkpt lat="47.88405" lon="-4.18264">
        <ele>20.8</ele>
        <time>2024-05-09T09:26:22Z</time>
      </trkpt>
      <trkpt lat="47.88391" lon="-4.18266">
        <ele>20.5</ele>
        <time>2024-05-09T09:26:25Z</time>
      </trkpt>
      <trkpt lat="47.8838" lon="-4.18267">
        <ele>19.6</ele>
        <time>2024-05-09T09:26:27Z</time>
      </trkpt>
      <trkpt lat="47.8837" lon="-4.18265">
        <ele>18.7</ele>
        <time>2024-05-09T09:26:29Z</time>
      </trkpt>
      <trkpt lat="47.8836" lon="-4.18261">
        <ele>18</ele>
        <time>2024-05-09T09:26:31Z</time>
      </trkpt>
      <trkpt lat="47.88348" lon="-4.18257">
        <ele>17.2</ele>
        <time>2024-05-09T09:26:33Z</time>
      </trkpt>
      <trkpt lat="47.88335" lon="-4.18253">
        <ele>16.5</ele>
        <time>2024-05-09T09:26:35Z</time>
      </trkpt>
      <trkpt lat="47.88324" lon="-4.18248">
        <ele>16.9</ele>
        <time>2024-05-09T09:26:37Z</time>
      </trkpt>
      <trkpt lat="47.88313" lon="-4.18244">
        <ele>16.9</ele>
        <time>2024-05-09T09:26:39Z</time>
      </trkpt>
      <trkpt lat="47.88301" lon="-4.1824">
        <ele>17.3</ele>
        <time>2024-05-09T09:26:42Z</time>
      </trkpt>
      <trkpt lat="47.88289" lon="-4.18235">
        <ele>18.2</ele>
        <time>2024-05-09T09:26:45Z</time>
      </trkpt>
      <trkpt lat="47.8828" lon="-4.1823">
        <ele>19</ele>
        <time>2024-05-09T09:26:48Z</time>
      </trkpt>
      <trkpt lat="47.8827" lon="-4.18228">
        <ele>19.8</ele>
        <time>2024-05-09T09:26:51Z</time>
      </trkpt>
      <trkpt lat="47.88261" lon="-4.18224">
        <ele>20.5</ele>
        <time>2024-05-09T09:26:54Z</time>
      </trkpt>
      <trkpt lat="47.88253" lon="-4.1822">
        <ele>20.9</ele>
        <time>2024-05-09T09:26:57Z</time>
      </trkpt>
      <trkpt lat="47.88243" lon="-4.18214">
        <ele>21</ele>
        <time>2024-05-09T09:27:01Z</time>
      </trkpt>
      <trkpt lat="47.88233" lon="-4.18205">
        <ele>21</ele>
        <time>2024-05-09T09:27:05Z</time>
      </trkpt>
      <trkpt lat="47.88223" lon="-4.18196">
        <ele>21</ele>
        <time>2024-05-09T09:27:09Z</time>
      </trkpt>
      <trkpt lat="47.88214" lon="-4.18187">
        <ele>20.4</ele>
        <time>2024-05-09T09:27:12Z</time>
      </trkpt>
      <trkpt lat="47.88207" lon="-4.18176">
        <ele>19.8</ele>
        <time>2024-05-09T09:27:14Z</time>
      </trkpt>
      <trkpt lat="47.88199" lon="-4.18164">
        <ele>19</ele>
        <time>2024-05-09T09:27:16Z</time>
      </trkpt>
      <trkpt lat="47.88195" lon="-4.18147">
        <ele>17.6</ele>
        <time>2024-05-09T09:27:18Z</time>
      </trkpt>
      <trkpt lat="47.88189" lon="-4.18125">
        <ele>15.4</ele>
        <time>2024-05-09T09:27:20Z</time>
      </trkpt>
      <trkpt lat="47.88187" lon="-4.18104">
        <ele>13.9</ele>
        <time>2024-05-09T09:27:22Z</time>
      </trkpt>
      <trkpt lat="47.88185" lon="-4.18081">
        <ele>12.9</ele>
        <time>2024-05-09T09:27:24Z</time>
      </trkpt>
      <trkpt lat="47.88182" lon="-4.18059">
        <ele>11.8</ele>
        <time>2024-05-09T09:27:26Z</time>
      </trkpt>
      <trkpt lat="47.88181" lon="-4.18043">
        <ele>11.5</ele>
        <time>2024-05-09T09:27:28Z</time>
      </trkpt>
      <trkpt lat="47.8818" lon="-4.18028">
        <ele>11.4</ele>
        <time>2024-05-09T09:27:31Z</time>
      </trkpt>
      <trkpt lat="47.88176" lon="-4.18015">
        <ele>11.3</ele>
        <time>2024-05-09T09:29:48Z</time>
      </trkpt>
      <trkpt lat="47.88179" lon="-4.18001">
        <ele>11.9</ele>
        <time>2024-05-09T09:30:15Z</time>
      </trkpt>
      <trkpt lat="47.88177" lon="-4.17985">
        <ele>11.5</ele>
        <time>2024-05-09T09:30:18Z</time>
      </trkpt>
      <trkpt lat="47.88174" lon="-4.17972">
        <ele>11.3</ele>
        <time>2024-05-09T09:30:20Z</time>
      </trkpt>
      <trkpt lat="47.88171" lon="-4.17958">
        <ele>11.2</ele>
        <time>2024-05-09T09:30:22Z</time>
      </trkpt>
      <trkpt lat="47.8817" lon="-4.17944">
        <ele>11.1</ele>
        <time>2024-05-09T09:30:24Z</time>
      </trkpt>
      <trkpt lat="47.88168" lon="-4.17931">
        <ele>11</ele>
        <time>2024-05-09T09:30:26Z</time>
      </trkpt>
      <trkpt lat="47.88165" lon="-4.17917">
        <ele>10.9</ele>
        <time>2024-05-09T09:30:28Z</time>
      </trkpt>
      <trkpt lat="47.88162" lon="-4.17904">
        <ele>10.5</ele>
        <time>2024-05-09T09:30:30Z</time>
      </trkpt>
      <trkpt lat="47.88157" lon="-4.17886">
        <ele>10</ele>
        <time>2024-05-09T09:30:33Z</time>
      </trkpt>
      <trkpt lat="47.88153" lon="-4.17873">
        <ele>10</ele>
        <time>2024-05-09T09:30:35Z</time>
      </trkpt>
      <trkpt lat="47.88148" lon="-4.1786">
        <ele>10</ele>
        <time>2024-05-09T09:30:37Z</time>
      </trkpt>
      <trkpt lat="47.88142" lon="-4.17848">
        <ele>9.5</ele>
        <time>2024-05-09T09:30:39Z</time>
      </trkpt>
      <trkpt lat="47.88135" lon="-4.17831">
        <ele>8.9</ele>
        <time>2024-05-09T09:30:42Z</time>
      </trkpt>
      <trkpt lat="47.8813" lon="-4.1782">
        <ele>8.5</ele>
        <time>2024-05-09T09:30:44Z</time>
      </trkpt>
      <trkpt lat="47.88123" lon="-4.17807">
        <ele>8.1</ele>
        <time>2024-05-09T09:30:46Z</time>
      </trkpt>
      <trkpt lat="47.88116" lon="-4.17793">
        <ele>7.6</ele>
        <time>2024-05-09T09:30:48Z</time>
      </trkpt>
      <trkpt lat="47.88107" lon="-4.1778">
        <ele>6.9</ele>
        <time>2024-05-09T09:30:50Z</time>
      </trkpt>
      <trkpt lat="47.88098" lon="-4.17766">
        <ele>5.9</ele>
        <time>2024-05-09T09:30:52Z</time>
      </trkpt>
      <trkpt lat="47.88089" lon="-4.17746">
        <ele>4.7</ele>
        <time>2024-05-09T09:30:54Z</time>
      </trkpt>
      <trkpt lat="47.88078" lon="-4.17728">
        <ele>3.3</ele>
        <time>2024-05-09T09:30:56Z</time>
      </trkpt>
      <trkpt lat="47.88067" lon="-4.17708">
        <ele>3</ele>
        <time>2024-05-09T09:30:58Z</time>
      </trkpt>
      <trkpt lat="47.88057" lon="-4.17692">
        <ele>3.1</ele>
        <time>2024-05-09T09:31:00Z</time>
      </trkpt>
      <trkpt lat="47.88049" lon="-4.17678">
        <ele>3.9</ele>
        <time>2024-05-09T09:31:02Z</time>
      </trkpt>
      <trkpt lat="47.8804" lon="-4.17663">
        <ele>4.6</ele>
        <time>2024-05-09T09:31:04Z</time>
      </trkpt>
      <trkpt lat="47.88033" lon="-4.17651">
        <ele>4.8</ele>
        <time>2024-05-09T09:31:06Z</time>
      </trkpt>
      <trkpt lat="47.88026" lon="-4.17642">
        <ele>5.1</ele>
        <time>2024-05-09T09:31:08Z</time>
      </trkpt>
      <trkpt lat="47.88018" lon="-4.17628">
        <ele>6.1</ele>
        <time>2024-05-09T09:31:11Z</time>
      </trkpt>
      <trkpt lat="47.88011" lon="-4.17619">
        <ele>6.9</ele>
        <time>2024-05-09T09:31:13Z</time>
      </trkpt>
      <trkpt lat="47.88001" lon="-4.17604">
        <ele>8</ele>
        <time>2024-05-09T09:31:16Z</time>
      </trkpt>
      <trkpt lat="47.87993" lon="-4.17592">
        <ele>8.5</ele>
        <time>2024-05-09T09:31:19Z</time>
      </trkpt>
      <trkpt lat="47.87987" lon="-4.17582">
        <ele>9</ele>
        <time>2024-05-09T09:31:22Z</time>
      </trkpt>
      <trkpt lat="47.87978" lon="-4.17571">
        <ele>9.6</ele>
        <time>2024-05-09T09:31:26Z</time>
      </trkpt>
      <trkpt lat="47.87971" lon="-4.17561">
        <ele>10</ele>
        <time>2024-05-09T09:31:29Z</time>
      </trkpt>
      <trkpt lat="47.87963" lon="-4.1755">
        <ele>10.6</ele>
        <time>2024-05-09T09:31:33Z</time>
      </trkpt>
      <trkpt lat="47.87955" lon="-4.17539">
        <ele>11.2</ele>
        <time>2024-05-09T09:31:37Z</time>
      </trkpt>
      <trkpt lat="47.87948" lon="-4.17525">
        <ele>11.9</ele>
        <time>2024-05-09T09:31:41Z</time>
      </trkpt>
      <trkpt lat="47.87939" lon="-4.17513">
        <ele>12.2</ele>
        <time>2024-05-09T09:31:45Z</time>
      </trkpt>
      <trkpt lat="47.87931" lon="-4.175">
        <ele>12.5</ele>
        <time>2024-05-09T09:31:49Z</time>
      </trkpt>
      <trkpt lat="47.87923" lon="-4.17486">
        <ele>12.9</ele>
        <time>2024-05-09T09:31:53Z</time>
      </trkpt>
      <trkpt lat="47.87917" lon="-4.17475">
        <ele>13</ele>
        <time>2024-05-09T09:31:56Z</time>
      </trkpt>
      <trkpt lat="47.87911" lon="-4.1746">
        <ele>13.6</ele>
        <time>2024-05-09T09:32:00Z</time>
      </trkpt>
      <trkpt lat="47.87906" lon="-4.17444">
        <ele>14.4</ele>
        <time>2024-05-09T09:32:04Z</time>
      </trkpt>
      <trkpt lat="47.87902" lon="-4.1743">
        <ele>14.8</ele>
        <time>2024-05-09T09:32:07Z</time>
      </trkpt>
      <trkpt lat="47.87898" lon="-4.17417">
        <ele>15</ele>
        <time>2024-05-09T09:32:10Z</time>
      </trkpt>
      <trkpt lat="47.87894" lon="-4.17402">
        <ele>15.4</ele>
        <time>2024-05-09T09:32:14Z</time>
      </trkpt>
      <trkpt lat="47.87889" lon="-4.17386">
        <ele>16.1</ele>
        <time>2024-05-09T09:32:18Z</time>
      </trkpt>
      <trkpt lat="47.87886" lon="-4.17371">
        <ele>16.7</ele>
        <time>2024-05-09T09:32:22Z</time>
      </trkpt>
      <trkpt lat="47.87884" lon="-4.17355">
        <ele>17</ele>
        <time>2024-05-09T09:32:26Z</time>
      </trkpt>
      <trkpt lat="47.8788" lon="-4.17339">
        <ele>17</ele>
        <time>2024-05-09T09:32:30Z</time>
      </trkpt>
      <trkpt lat="47.87876" lon="-4.17323">
        <ele>17.2</ele>
        <time>2024-05-09T09:32:34Z</time>
      </trkpt>
      <trkpt lat="47.87873" lon="-4.17307">
        <ele>17.4</ele>
        <time>2024-05-09T09:32:38Z</time>
      </trkpt>
      <trkpt lat="47.87869" lon="-4.1729">
        <ele>17.3</ele>
        <time>2024-05-09T09:32:42Z</time>
      </trkpt>
      <trkpt lat="47.87866" lon="-4.17277">
        <ele>17.2</ele>
        <time>2024-05-09T09:32:45Z</time>
      </trkpt>
      <trkpt lat="47.87862" lon="-4.17263">
        <ele>17.6</ele>
        <time>2024-05-09T09:32:48Z</time>
      </trkpt>
      <trkpt lat="47.87859" lon="-4.17247">
        <ele>17.9</ele>
        <time>2024-05-09T09:32:51Z</time>
      </trkpt>
      <trkpt lat="47.87856" lon="-4.17231">
        <ele>17.8</ele>
        <time>2024-05-09T09:32:54Z</time>
      </trkpt>
      <trkpt lat="47.87852" lon="-4.17216">
        <ele>17.7</ele>
        <time>2024-05-09T09:32:57Z</time>
      </trkpt>
      <trkpt lat="47.87849" lon="-4.17202">
        <ele>17.6</ele>
        <time>2024-05-09T09:33:00Z</time>
      </trkpt>
      <trkpt lat="47.87846" lon="-4.17187">
        <ele>17.5</ele>
        <time>2024-05-09T09:33:03Z</time>
      </trkpt>
      <trkpt lat="47.87843" lon="-4.17171">
        <ele>17.4</ele>
        <time>2024-05-09T09:33:06Z</time>
      </trkpt>
      <trkpt lat="47.8784" lon="-4.17155">
        <ele>17.2</ele>
        <time>2024-05-09T09:33:09Z</time>
      </trkpt>
      <trkpt lat="47.87837" lon="-4.1714">
        <ele>17.1</ele>
        <time>2024-05-09T09:33:12Z</time>
      </trkpt>
      <trkpt lat="47.87833" lon="-4.17123">
        <ele>17</ele>
        <time>2024-05-09T09:33:15Z</time>
      </trkpt>
      <trkpt lat="47.8783" lon="-4.17107">
        <ele>16.9</ele>
        <time>2024-05-09T09:33:18Z</time>
      </trkpt>
      <trkpt lat="47.87826" lon="-4.1709">
        <ele>16.7</ele>
        <time>2024-05-09T09:33:21Z</time>
      </trkpt>
      <trkpt lat="47.87822" lon="-4.17072">
        <ele>16.6</ele>
        <time>2024-05-09T09:33:24Z</time>
      </trkpt>
      <trkpt lat="47.87818" lon="-4.17053">
        <ele>16.5</ele>
        <time>2024-05-09T09:33:27Z</time>
      </trkpt>
      <trkpt lat="47.87814" lon="-4.17035">
        <ele>16.3</ele>
        <time>2024-05-09T09:33:30Z</time>
      </trkpt>
      <trkpt lat="47.8781" lon="-4.17016">
        <ele>16.2</ele>
        <time>2024-05-09T09:33:33Z</time>
      </trkpt>
      <trkpt lat="47.87808" lon="-4.17003">
        <ele>16.1</ele>
        <time>2024-05-09T09:33:35Z</time>
      </trkpt>
      <trkpt lat="47.87805" lon="-4.1699">
        <ele>15.5</ele>
        <time>2024-05-09T09:33:37Z</time>
      </trkpt>
      <trkpt lat="47.87802" lon="-4.16977">
        <ele>14.7</ele>
        <time>2024-05-09T09:33:39Z</time>
      </trkpt>
      <trkpt lat="47.87799" lon="-4.16962">
        <ele>14</ele>
        <time>2024-05-09T09:33:41Z</time>
      </trkpt>
      <trkpt lat="47.87796" lon="-4.16945">
        <ele>13.3</ele>
        <time>2024-05-09T09:33:43Z</time>
      </trkpt>
      <trkpt lat="47.87794" lon="-4.16926">
        <ele>12.1</ele>
        <time>2024-05-09T09:33:45Z</time>
      </trkpt>
      <trkpt lat="47.87792" lon="-4.16907">
        <ele>12</ele>
        <time>2024-05-09T09:33:47Z</time>
      </trkpt>
      <trkpt lat="47.87792" lon="-4.16889">
        <ele>13</ele>
        <time>2024-05-09T09:33:49Z</time>
      </trkpt>
      <trkpt lat="47.87792" lon="-4.16871">
        <ele>14</ele>
        <time>2024-05-09T09:33:51Z</time>
      </trkpt>
      <trkpt lat="47.87792" lon="-4.16855">
        <ele>14.7</ele>
        <time>2024-05-09T09:33:53Z</time>
      </trkpt>
      <trkpt lat="47.87791" lon="-4.16841">
        <ele>15.2</ele>
        <time>2024-05-09T09:33:55Z</time>
      </trkpt>
      <trkpt lat="47.8779" lon="-4.16824">
        <ele>16</ele>
        <time>2024-05-09T09:33:58Z</time>
      </trkpt>
      <trkpt lat="47.87791" lon="-4.16809">
        <ele>16.8</ele>
        <time>2024-05-09T09:34:01Z</time>
      </trkpt>
      <trkpt lat="47.87791" lon="-4.16795">
        <ele>17.2</ele>
        <time>2024-05-09T09:34:04Z</time>
      </trkpt>
      <trkpt lat="47.8779" lon="-4.16779">
        <ele>17.5</ele>
        <time>2024-05-09T09:34:07Z</time>
      </trkpt>
      <trkpt lat="47.87789" lon="-4.16764">
        <ele>17.8</ele>
        <time>2024-05-09T09:34:10Z</time>
      </trkpt>
      <trkpt lat="47.87787" lon="-4.16749">
        <ele>18</ele>
        <time>2024-05-09T09:34:13Z</time>
      </trkpt>
      <trkpt lat="47.87784" lon="-4.16733">
        <ele>18.1</ele>
        <time>2024-05-09T09:34:16Z</time>
      </trkpt>
      <trkpt lat="47.87778" lon="-4.16719">
        <ele>18.1</ele>
        <time>2024-05-09T09:34:19Z</time>
      </trkpt>
      <trkpt lat="47.8777" lon="-4.16706">
        <ele>18.4</ele>
        <time>2024-05-09T09:34:22Z</time>
      </trkpt>
      <trkpt lat="47.8776" lon="-4.16695">
        <ele>18.4</ele>
        <time>2024-05-09T09:34:25Z</time>
      </trkpt>
      <trkpt lat="47.87751" lon="-4.16685">
        <ele>18</ele>
        <time>2024-05-09T09:34:28Z</time>
      </trkpt>
      <trkpt lat="47.87742" lon="-4.16674">
        <ele>17.6</ele>
        <time>2024-05-09T09:34:31Z</time>
      </trkpt>
      <trkpt lat="47.87733" lon="-4.1666">
        <ele>16.3</ele>
        <time>2024-05-09T09:34:34Z</time>
      </trkpt>
      <trkpt lat="47.87727" lon="-4.16649">
        <ele>15.5</ele>
        <time>2024-05-09T09:34:36Z</time>
      </trkpt>
      <trkpt lat="47.87721" lon="-4.16639">
        <ele>15.1</ele>
        <time>2024-05-09T09:34:38Z</time>
      </trkpt>
      <trkpt lat="47.87714" lon="-4.16628">
        <ele>15.4</ele>
        <time>2024-05-09T09:34:40Z</time>
      </trkpt>
      <trkpt lat="47.87707" lon="-4.16619">
        <ele>15.3</ele>
        <time>2024-05-09T09:34:42Z</time>
      </trkpt>
      <trkpt lat="47.87696" lon="-4.16613">
        <ele>15.1</ele>
        <time>2024-05-09T09:34:45Z</time>
      </trkpt>
      <trkpt lat="47.87687" lon="-4.16609">
        <ele>14.8</ele>
        <time>2024-05-09T09:34:48Z</time>
      </trkpt>
      <trkpt lat="47.87675" lon="-4.16606">
        <ele>14.4</ele>
        <time>2024-05-09T09:34:51Z</time>
      </trkpt>
      <trkpt lat="47.87666" lon="-4.16603">
        <ele>14</ele>
        <time>2024-05-09T09:34:53Z</time>
      </trkpt>
      <trkpt lat="47.87656" lon="-4.166">
        <ele>13.6</ele>
        <time>2024-05-09T09:34:55Z</time>
      </trkpt>
      <trkpt lat="47.87646" lon="-4.16597">
        <ele>13.2</ele>
        <time>2024-05-09T09:34:57Z</time>
      </trkpt>
      <trkpt lat="47.87635" lon="-4.16594">
        <ele>12.8</ele>
        <time>2024-05-09T09:34:59Z</time>
      </trkpt>
      <trkpt lat="47.87625" lon="-4.16591">
        <ele>12.4</ele>
        <time>2024-05-09T09:35:01Z</time>
      </trkpt>
      <trkpt lat="47.87614" lon="-4.16588">
        <ele>12</ele>
        <time>2024-05-09T09:35:03Z</time>
      </trkpt>
      <trkpt lat="47.87604" lon="-4.16584">
        <ele>11.7</ele>
        <time>2024-05-09T09:35:05Z</time>
      </trkpt>
      <trkpt lat="47.87593" lon="-4.1658">
        <ele>11.3</ele>
        <time>2024-05-09T09:35:07Z</time>
      </trkpt>
      <trkpt lat="47.87585" lon="-4.16578">
        <ele>11</ele>
        <time>2024-05-09T09:35:09Z</time>
      </trkpt>
      <trkpt lat="47.87572" lon="-4.16574">
        <ele>10.5</ele>
        <time>2024-05-09T09:35:12Z</time>
      </trkpt>
      <trkpt lat="47.8756" lon="-4.1657">
        <ele>10.1</ele>
        <time>2024-05-09T09:35:15Z</time>
      </trkpt>
      <trkpt lat="47.87548" lon="-4.16568">
        <ele>9.7</ele>
        <time>2024-05-09T09:35:18Z</time>
      </trkpt>
      <trkpt lat="47.87539" lon="-4.16564">
        <ele>9.6</ele>
        <time>2024-05-09T09:35:21Z</time>
      </trkpt>
      <trkpt lat="47.87529" lon="-4.16561">
        <ele>9.5</ele>
        <time>2024-05-09T09:35:24Z</time>
      </trkpt>
      <trkpt lat="47.87518" lon="-4.16556">
        <ele>9.9</ele>
        <time>2024-05-09T09:35:27Z</time>
      </trkpt>
      <trkpt lat="47.87506" lon="-4.16553">
        <ele>10</ele>
        <time>2024-05-09T09:35:30Z</time>
      </trkpt>
      <trkpt lat="47.87493" lon="-4.16549">
        <ele>9.8</ele>
        <time>2024-05-09T09:35:33Z</time>
      </trkpt>
      <trkpt lat="47.87481" lon="-4.16545">
        <ele>9.3</ele>
        <time>2024-05-09T09:35:36Z</time>
      </trkpt>
      <trkpt lat="47.8747" lon="-4.16542">
        <ele>9</ele>
        <time>2024-05-09T09:35:39Z</time>
      </trkpt>
      <trkpt lat="47.87458" lon="-4.16538">
        <ele>9</ele>
        <time>2024-05-09T09:35:42Z</time>
      </trkpt>
      <trkpt lat="47.87446" lon="-4.16535">
        <ele>9</ele>
        <time>2024-05-09T09:35:45Z</time>
      </trkpt>
      <trkpt lat="47.87435" lon="-4.16532">
        <ele>9</ele>
        <time>2024-05-09T09:35:48Z</time>
      </trkpt>
      <trkpt lat="47.87424" lon="-4.16528">
        <ele>9</ele>
        <time>2024-05-09T09:35:51Z</time>
      </trkpt>
      <trkpt lat="47.87412" lon="-4.16524">
        <ele>9</ele>
        <time>2024-05-09T09:35:54Z</time>
      </trkpt>
      <trkpt lat="47.87401" lon="-4.1652">
        <ele>9</ele>
        <time>2024-05-09T09:35:57Z</time>
      </trkpt>
      <trkpt lat="47.8739" lon="-4.16518">
        <ele>9</ele>
        <time>2024-05-09T09:36:00Z</time>
      </trkpt>
      <trkpt lat="47.8738" lon="-4.16515">
        <ele>9.2</ele>
        <time>2024-05-09T09:36:03Z</time>
      </trkpt>
      <trkpt lat="47.87368" lon="-4.16519">
        <ele>9.5</ele>
        <time>2024-05-09T09:36:06Z</time>
      </trkpt>
      <trkpt lat="47.87358" lon="-4.16529">
        <ele>10.1</ele>
        <time>2024-05-09T09:36:09Z</time>
      </trkpt>
      <trkpt lat="47.87349" lon="-4.16538">
        <ele>10.3</ele>
        <time>2024-05-09T09:36:12Z</time>
      </trkpt>
      <trkpt lat="47.8734" lon="-4.16545">
        <ele>10.3</ele>
        <time>2024-05-09T09:36:15Z</time>
      </trkpt>
      <trkpt lat="47.87329" lon="-4.1655">
        <ele>10.4</ele>
        <time>2024-05-09T09:36:18Z</time>
      </trkpt>
      <trkpt lat="47.87318" lon="-4.16551">
        <ele>10.7</ele>
        <time>2024-05-09T09:36:21Z</time>
      </trkpt>
      <trkpt lat="47.87306" lon="-4.16551">
        <ele>11.2</ele>
        <time>2024-05-09T09:36:24Z</time>
      </trkpt>
      <trkpt lat="47.87295" lon="-4.16549">
        <ele>11.2</ele>
        <time>2024-05-09T09:36:27Z</time>
      </trkpt>
      <trkpt lat="47.87285" lon="-4.16548">
        <ele>11.3</ele>
        <time>2024-05-09T09:36:30Z</time>
      </trkpt>
      <trkpt lat="47.87275" lon="-4.16547">
        <ele>11.4</ele>
        <time>2024-05-09T09:36:33Z</time>
      </trkpt>
      <trkpt lat="47.87265" lon="-4.16546">
        <ele>11.6</ele>
        <time>2024-05-09T09:36:36Z</time>
      </trkpt>
      <trkpt lat="47.87255" lon="-4.16546">
        <ele>11.9</ele>
        <time>2024-05-09T09:36:39Z</time>
      </trkpt>
      <trkpt lat="47.87244" lon="-4.16546">
        <ele>12</ele>
        <time>2024-05-09T09:36:42Z</time>
      </trkpt>
      <trkpt lat="47.87233" lon="-4.16546">
        <ele>12</ele>
        <time>2024-05-09T09:36:45Z</time>
      </trkpt>
      <trkpt lat="47.87221" lon="-4.16548">
        <ele>12</ele>
        <time>2024-05-09T09:36:48Z</time>
      </trkpt>
      <trkpt lat="47.8721" lon="-4.1655">
        <ele>11.6</ele>
        <time>2024-05-09T09:36:51Z</time>
      </trkpt>
      <trkpt lat="47.87198" lon="-4.16553">
        <ele>11.2</ele>
        <time>2024-05-09T09:36:54Z</time>
      </trkpt>
      <trkpt lat="47.87187" lon="-4.16555">
        <ele>11</ele>
        <time>2024-05-09T09:36:57Z</time>
      </trkpt>
      <trkpt lat="47.87175" lon="-4.16557">
        <ele>11</ele>
        <time>2024-05-09T09:37:00Z</time>
      </trkpt>
      <trkpt lat="47.87163" lon="-4.16559">
        <ele>11</ele>
        <time>2024-05-09T09:37:03Z</time>
      </trkpt>
      <trkpt lat="47.87151" lon="-4.16561">
        <ele>11</ele>
        <time>2024-05-09T09:37:06Z</time>
      </trkpt>
      <trkpt lat="47.87139" lon="-4.16563">
        <ele>11</ele>
        <time>2024-05-09T09:37:09Z</time>
      </trkpt>
      <trkpt lat="47.87127" lon="-4.16564">
        <ele>11</ele>
        <time>2024-05-09T09:37:12Z</time>
      </trkpt>
      <trkpt lat="47.87117" lon="-4.16566">
        <ele>11</ele>
        <time>2024-05-09T09:37:15Z</time>
      </trkpt>
      <trkpt lat="47.87106" lon="-4.16567">
        <ele>11.1</ele>
        <time>2024-05-09T09:37:18Z</time>
      </trkpt>
      <trkpt lat="47.87095" lon="-4.16569">
        <ele>11.3</ele>
        <time>2024-05-09T09:37:21Z</time>
      </trkpt>
      <trkpt lat="47.87083" lon="-4.1657">
        <ele>11.5</ele>
        <time>2024-05-09T09:37:24Z</time>
      </trkpt>
      <trkpt lat="47.87072" lon="-4.16571">
        <ele>11.3</ele>
        <time>2024-05-09T09:37:27Z</time>
      </trkpt>
      <trkpt lat="47.87061" lon="-4.16572">
        <ele>11.1</ele>
        <time>2024-05-09T09:37:31Z</time>
      </trkpt>
      <trkpt lat="47.87049" lon="-4.16575">
        <ele>11</ele>
        <time>2024-05-09T09:37:35Z</time>
      </trkpt>
      <trkpt lat="47.8704" lon="-4.16577">
        <ele>11</ele>
        <time>2024-05-09T09:37:38Z</time>
      </trkpt>
      <trkpt lat="47.87028" lon="-4.16578">
        <ele>11</ele>
        <time>2024-05-09T09:37:41Z</time>
      </trkpt>
      <trkpt lat="47.87018" lon="-4.16579">
        <ele>11</ele>
        <time>2024-05-09T09:37:44Z</time>
      </trkpt>
      <trkpt lat="47.87007" lon="-4.1658">
        <ele>11</ele>
        <time>2024-05-09T09:37:47Z</time>
      </trkpt>
      <trkpt lat="47.86997" lon="-4.16582">
        <ele>11</ele>
        <time>2024-05-09T09:37:50Z</time>
      </trkpt>
      <trkpt lat="47.86987" lon="-4.16584">
        <ele>11</ele>
        <time>2024-05-09T09:37:53Z</time>
      </trkpt>
      <trkpt lat="47.86977" lon="-4.16584">
        <ele>11</ele>
        <time>2024-05-09T09:37:56Z</time>
      </trkpt>
      <trkpt lat="47.86966" lon="-4.16584">
        <ele>10.8</ele>
        <time>2024-05-09T09:37:59Z</time>
      </trkpt>
      <trkpt lat="47.86956" lon="-4.16585">
        <ele>10.5</ele>
        <time>2024-05-09T09:38:02Z</time>
      </trkpt>
      <trkpt lat="47.86946" lon="-4.16586">
        <ele>10.2</ele>
        <time>2024-05-09T09:38:05Z</time>
      </trkpt>
      <trkpt lat="47.86936" lon="-4.16586">
        <ele>10.1</ele>
        <time>2024-05-09T09:38:08Z</time>
      </trkpt>
      <trkpt lat="47.86926" lon="-4.16587">
        <ele>10</ele>
        <time>2024-05-09T09:38:11Z</time>
      </trkpt>
      <trkpt lat="47.86915" lon="-4.16587">
        <ele>9.9</ele>
        <time>2024-05-09T09:38:14Z</time>
      </trkpt>
      <trkpt lat="47.86903" lon="-4.16587">
        <ele>9.5</ele>
        <time>2024-05-09T09:38:17Z</time>
      </trkpt>
      <trkpt lat="47.86892" lon="-4.16586">
        <ele>9.1</ele>
        <time>2024-05-09T09:38:20Z</time>
      </trkpt>
      <trkpt lat="47.86879" lon="-4.16585">
        <ele>9</ele>
        <time>2024-05-09T09:38:23Z</time>
      </trkpt>
      <trkpt lat="47.86866" lon="-4.16581">
        <ele>8.9</ele>
        <time>2024-05-09T09:38:26Z</time>
      </trkpt>
      <trkpt lat="47.86853" lon="-4.16577">
        <ele>8.8</ele>
        <time>2024-05-09T09:38:29Z</time>
      </trkpt>
      <trkpt lat="47.8684" lon="-4.16573">
        <ele>8.6</ele>
        <time>2024-05-09T09:38:32Z</time>
      </trkpt>
      <trkpt lat="47.86827" lon="-4.16569">
        <ele>8.4</ele>
        <time>2024-05-09T09:38:35Z</time>
      </trkpt>
      <trkpt lat="47.86818" lon="-4.16564">
        <ele>8.1</ele>
        <time>2024-05-09T09:38:37Z</time>
      </trkpt>
      <trkpt lat="47.86808" lon="-4.16557">
        <ele>8</ele>
        <time>2024-05-09T09:38:39Z</time>
      </trkpt>
      <trkpt lat="47.86799" lon="-4.16551">
        <ele>7.6</ele>
        <time>2024-05-09T09:38:41Z</time>
      </trkpt>
      <trkpt lat="47.86787" lon="-4.16541">
        <ele>7.1</ele>
        <time>2024-05-09T09:38:44Z</time>
      </trkpt>
      <trkpt lat="47.86777" lon="-4.16531">
        <ele>7</ele>
        <time>2024-05-09T09:38:46Z</time>
      </trkpt>
      <trkpt lat="47.86768" lon="-4.16524">
        <ele>6.7</ele>
        <time>2024-05-09T09:38:48Z</time>
      </trkpt>
      <trkpt lat="47.8676" lon="-4.16514">
        <ele>6.4</ele>
        <time>2024-05-09T09:38:50Z</time>
      </trkpt>
      <trkpt lat="47.86749" lon="-4.16503">
        <ele>6</ele>
        <time>2024-05-09T09:38:52Z</time>
      </trkpt>
      <trkpt lat="47.86737" lon="-4.16498">
        <ele>5.9</ele>
        <time>2024-05-09T09:38:54Z</time>
      </trkpt>
      <trkpt lat="47.86729" lon="-4.16489">
        <ele>5.6</ele>
        <time>2024-05-09T09:38:56Z</time>
      </trkpt>
      <trkpt lat="47.86721" lon="-4.1648">
        <ele>5.3</ele>
        <time>2024-05-09T09:38:58Z</time>
      </trkpt>
      <trkpt lat="47.86713" lon="-4.16473">
        <ele>5.4</ele>
        <time>2024-05-09T09:39:00Z</time>
      </trkpt>
      <trkpt lat="47.86704" lon="-4.16464">
        <ele>5.5</ele>
        <time>2024-05-09T09:39:02Z</time>
      </trkpt>
      <trkpt lat="47.86694" lon="-4.16456">
        <ele>5.4</ele>
        <time>2024-05-09T09:39:04Z</time>
      </trkpt>
      <trkpt lat="47.86687" lon="-4.16447">
        <ele>5.4</ele>
        <time>2024-05-09T09:39:06Z</time>
      </trkpt>
      <trkpt lat="47.86678" lon="-4.16438">
        <ele>5.5</ele>
        <time>2024-05-09T09:39:09Z</time>
      </trkpt>
      <trkpt lat="47.86669" lon="-4.16429">
        <ele>5.4</ele>
        <time>2024-05-09T09:39:11Z</time>
      </trkpt>
      <trkpt lat="47.86662" lon="-4.1642">
        <ele>5.3</ele>
        <time>2024-05-09T09:39:13Z</time>
      </trkpt>
      <trkpt lat="47.8665" lon="-4.16407">
        <ele>5.4</ele>
        <time>2024-05-09T09:39:16Z</time>
      </trkpt>
      <trkpt lat="47.86643" lon="-4.16399">
        <ele>5.3</ele>
        <time>2024-05-09T09:39:18Z</time>
      </trkpt>
      <trkpt lat="47.86631" lon="-4.16392">
        <ele>5.1</ele>
        <time>2024-05-09T09:39:21Z</time>
      </trkpt>
      <trkpt lat="47.86623" lon="-4.16398">
        <ele>5.3</ele>
        <time>2024-05-09T09:39:23Z</time>
      </trkpt>
      <trkpt lat="47.86616" lon="-4.16413">
        <ele>5.9</ele>
        <time>2024-05-09T09:39:26Z</time>
      </trkpt>
      <trkpt lat="47.86614" lon="-4.16429">
        <ele>6</ele>
        <time>2024-05-09T09:39:29Z</time>
      </trkpt>
      <trkpt lat="47.86611" lon="-4.16445">
        <ele>6</ele>
        <time>2024-05-09T09:39:32Z</time>
      </trkpt>
      <trkpt lat="47.86608" lon="-4.16464">
        <ele>6</ele>
        <time>2024-05-09T09:39:35Z</time>
      </trkpt>
      <trkpt lat="47.86604" lon="-4.16482">
        <ele>6.3</ele>
        <time>2024-05-09T09:39:38Z</time>
      </trkpt>
      <trkpt lat="47.866" lon="-4.16498">
        <ele>6.9</ele>
        <time>2024-05-09T09:39:41Z</time>
      </trkpt>
      <trkpt lat="47.86597" lon="-4.16517">
        <ele>7</ele>
        <time>2024-05-09T09:39:44Z</time>
      </trkpt>
      <trkpt lat="47.86595" lon="-4.1653">
        <ele>7</ele>
        <time>2024-05-09T09:39:46Z</time>
      </trkpt>
      <trkpt lat="47.86592" lon="-4.16543">
        <ele>7</ele>
        <time>2024-05-09T09:39:48Z</time>
      </trkpt>
      <trkpt lat="47.86589" lon="-4.16559">
        <ele>7.1</ele>
        <time>2024-05-09T09:39:50Z</time>
      </trkpt>
      <trkpt lat="47.86587" lon="-4.16572">
        <ele>7.6</ele>
        <time>2024-05-09T09:39:52Z</time>
      </trkpt>
      <trkpt lat="47.86585" lon="-4.16591">
        <ele>8</ele>
        <time>2024-05-09T09:39:55Z</time>
      </trkpt>
      <trkpt lat="47.86583" lon="-4.16604">
        <ele>8</ele>
        <time>2024-05-09T09:39:57Z</time>
      </trkpt>
      <trkpt lat="47.86582" lon="-4.16622">
        <ele>8</ele>
        <time>2024-05-09T09:40:00Z</time>
      </trkpt>
      <trkpt lat="47.86588" lon="-4.16637">
        <ele>8</ele>
        <time>2024-05-09T09:40:03Z</time>
      </trkpt>
      <trkpt lat="47.86592" lon="-4.1665">
        <ele>8</ele>
        <time>2024-05-09T09:40:06Z</time>
      </trkpt>
      <trkpt lat="47.86593" lon="-4.16665">
        <ele>8</ele>
        <time>2024-05-09T09:40:09Z</time>
      </trkpt>
      <trkpt lat="47.86591" lon="-4.16683">
        <ele>8</ele>
        <time>2024-05-09T09:40:12Z</time>
      </trkpt>
      <trkpt lat="47.86589" lon="-4.16697">
        <ele>7.9</ele>
        <time>2024-05-09T09:40:14Z</time>
      </trkpt>
      <trkpt lat="47.86587" lon="-4.16712">
        <ele>7.5</ele>
        <time>2024-05-09T09:40:16Z</time>
      </trkpt>
      <trkpt lat="47.86586" lon="-4.16731">
        <ele>7.1</ele>
        <time>2024-05-09T09:40:19Z</time>
      </trkpt>
      <trkpt lat="47.86583" lon="-4.1675">
        <ele>7</ele>
        <time>2024-05-09T09:40:22Z</time>
      </trkpt>
      <trkpt lat="47.86577" lon="-4.16762">
        <ele>6.6</ele>
        <time>2024-05-09T09:40:24Z</time>
      </trkpt>
      <trkpt lat="47.86566" lon="-4.16768">
        <ele>6.3</ele>
        <time>2024-05-09T09:40:27Z</time>
      </trkpt>
      <trkpt lat="47.86554" lon="-4.16772">
        <ele>6.2</ele>
        <time>2024-05-09T09:40:30Z</time>
      </trkpt>
      <trkpt lat="47.86543" lon="-4.16775">
        <ele>6.1</ele>
        <time>2024-05-09T09:40:32Z</time>
      </trkpt>
      <trkpt lat="47.86533" lon="-4.16775">
        <ele>6.1</ele>
        <time>2024-05-09T09:40:34Z</time>
      </trkpt>
      <trkpt lat="47.86524" lon="-4.16773">
        <ele>6.2</ele>
        <time>2024-05-09T09:40:36Z</time>
      </trkpt>
      <trkpt lat="47.86511" lon="-4.16773">
        <ele>6.2</ele>
        <time>2024-05-09T09:40:39Z</time>
      </trkpt>
      <trkpt lat="47.86498" lon="-4.16772">
        <ele>6.2</ele>
        <time>2024-05-09T09:40:42Z</time>
      </trkpt>
      <trkpt lat="47.86486" lon="-4.16771">
        <ele>6.2</ele>
        <time>2024-05-09T09:40:45Z</time>
      </trkpt>
      <trkpt lat="47.86475" lon="-4.1677">
        <ele>6.3</ele>
        <time>2024-05-09T09:40:48Z</time>
      </trkpt>
      <trkpt lat="47.86464" lon="-4.16768">
        <ele>6.5</ele>
        <time>2024-05-09T09:40:51Z</time>
      </trkpt>
      <trkpt lat="47.86454" lon="-4.16764">
        <ele>6.8</ele>
        <time>2024-05-09T09:40:54Z</time>
      </trkpt>
      <trkpt lat="47.86446" lon="-4.16758">
        <ele>7</ele>
        <time>2024-05-09T09:40:57Z</time>
      </trkpt>
      <trkpt lat="47.86436" lon="-4.16754">
        <ele>7</ele>
        <time>2024-05-09T09:41:00Z</time>
      </trkpt>
      <trkpt lat="47.86425" lon="-4.16748">
        <ele>7</ele>
        <time>2024-05-09T09:41:03Z</time>
      </trkpt>
      <trkpt lat="47.86414" lon="-4.16743">
        <ele>7</ele>
        <time>2024-05-09T09:41:06Z</time>
      </trkpt>
      <trkpt lat="47.86402" lon="-4.1674">
        <ele>6.8</ele>
        <time>2024-05-09T09:41:09Z</time>
      </trkpt>
      <trkpt lat="47.86391" lon="-4.16737">
        <ele>6.6</ele>
        <time>2024-05-09T09:41:12Z</time>
      </trkpt>
      <trkpt lat="47.8638" lon="-4.16743">
        <ele>6.7</ele>
        <time>2024-05-09T09:41:15Z</time>
      </trkpt>
      <trkpt lat="47.86371" lon="-4.16753">
        <ele>7</ele>
        <time>2024-05-09T09:41:18Z</time>
      </trkpt>
      <trkpt lat="47.86362" lon="-4.16764">
        <ele>7</ele>
        <time>2024-05-09T09:41:21Z</time>
      </trkpt>
      <trkpt lat="47.86353" lon="-4.16775">
        <ele>7</ele>
        <time>2024-05-09T09:41:25Z</time>
      </trkpt>
      <trkpt lat="47.86341" lon="-4.16781">
        <ele>7</ele>
        <time>2024-05-09T09:41:28Z</time>
      </trkpt>
      <trkpt lat="47.86329" lon="-4.16786">
        <ele>7</ele>
        <time>2024-05-09T09:41:31Z</time>
      </trkpt>
      <trkpt lat="47.86318" lon="-4.16791">
        <ele>7</ele>
        <time>2024-05-09T09:41:34Z</time>
      </trkpt>
      <trkpt lat="47.86307" lon="-4.16792">
        <ele>7</ele>
        <time>2024-05-09T09:41:37Z</time>
      </trkpt>
      <trkpt lat="47.86298" lon="-4.16793">
        <ele>7</ele>
        <time>2024-05-09T09:41:40Z</time>
      </trkpt>
      <trkpt lat="47.86288" lon="-4.16794">
        <ele>7</ele>
        <time>2024-05-09T09:41:43Z</time>
      </trkpt>
      <trkpt lat="47.86279" lon="-4.16795">
        <ele>7</ele>
        <time>2024-05-09T09:41:46Z</time>
      </trkpt>
      <trkpt lat="47.86269" lon="-4.16795">
        <ele>6.9</ele>
        <time>2024-05-09T09:41:50Z</time>
      </trkpt>
      <trkpt lat="47.86259" lon="-4.16791">
        <ele>6.6</ele>
        <time>2024-05-09T09:41:54Z</time>
      </trkpt>
      <trkpt lat="47.86247" lon="-4.16789">
        <ele>6.4</ele>
        <time>2024-05-09T09:41:58Z</time>
      </trkpt>
      <trkpt lat="47.86235" lon="-4.1679">
        <ele>6.4</ele>
        <time>2024-05-09T09:42:02Z</time>
      </trkpt>
      <trkpt lat="47.86223" lon="-4.16791">
        <ele>6.5</ele>
        <time>2024-05-09T09:42:06Z</time>
      </trkpt>
      <trkpt lat="47.86214" lon="-4.16793">
        <ele>6.4</ele>
        <time>2024-05-09T09:42:09Z</time>
      </trkpt>
      <trkpt lat="47.86203" lon="-4.1679">
        <ele>6.1</ele>
        <time>2024-05-09T09:42:14Z</time>
      </trkpt>
      <trkpt lat="47.86194" lon="-4.16789">
        <ele>6</ele>
        <time>2024-05-09T09:42:17Z</time>
      </trkpt>
      <trkpt lat="47.86184" lon="-4.16785">
        <ele>5.7</ele>
        <time>2024-05-09T09:42:21Z</time>
      </trkpt>
      <trkpt lat="47.86174" lon="-4.16779">
        <ele>5.3</ele>
        <time>2024-05-09T09:42:24Z</time>
      </trkpt>
      <trkpt lat="47.86165" lon="-4.16772">
        <ele>5</ele>
        <time>2024-05-09T09:42:27Z</time>
      </trkpt>
      <trkpt lat="47.86156" lon="-4.16763">
        <ele>4.8</ele>
        <time>2024-05-09T09:42:30Z</time>
      </trkpt>
      <trkpt lat="47.86148" lon="-4.16753">
        <ele>4.4</ele>
        <time>2024-05-09T09:42:33Z</time>
      </trkpt>
      <trkpt lat="47.86143" lon="-4.16735">
        <ele>4.1</ele>
        <time>2024-05-09T09:42:36Z</time>
      </trkpt>
      <trkpt lat="47.8614" lon="-4.16714">
        <ele>4</ele>
        <time>2024-05-09T09:42:39Z</time>
      </trkpt>
      <trkpt lat="47.86138" lon="-4.16698">
        <ele>4</ele>
        <time>2024-05-09T09:42:42Z</time>
      </trkpt>
      <trkpt lat="47.86139" lon="-4.16685">
        <ele>3.7</ele>
        <time>2024-05-09T09:43:47Z</time>
      </trkpt>
      <trkpt lat="47.86141" lon="-4.16672">
        <ele>3.2</ele>
        <time>2024-05-09T09:46:23Z</time>
      </trkpt>
      <trkpt lat="47.8614" lon="-4.16657">
        <ele>3</ele>
        <time>2024-05-09T09:47:24Z</time>
      </trkpt>
      <trkpt lat="47.86132" lon="-4.16645">
        <ele>3.1</ele>
        <time>2024-05-09T09:47:28Z</time>
      </trkpt>
      <trkpt lat="47.86125" lon="-4.16636">
        <ele>2.9</ele>
        <time>2024-05-09T09:47:31Z</time>
      </trkpt>
      <trkpt lat="47.86119" lon="-4.16624">
        <ele>2.8</ele>
        <time>2024-05-09T09:47:34Z</time>
      </trkpt>
      <trkpt lat="47.86113" lon="-4.16613">
        <ele>2.9</ele>
        <time>2024-05-09T09:47:37Z</time>
      </trkpt>
      <trkpt lat="47.86107" lon="-4.16602">
        <ele>2.8</ele>
        <time>2024-05-09T09:47:40Z</time>
      </trkpt>
      <trkpt lat="47.86101" lon="-4.1659">
        <ele>2.6</ele>
        <time>2024-05-09T09:47:43Z</time>
      </trkpt>
      <trkpt lat="47.86095" lon="-4.16578">
        <ele>2.5</ele>
        <time>2024-05-09T09:47:46Z</time>
      </trkpt>
      <trkpt lat="47.86089" lon="-4.16566">
        <ele>2.3</ele>
        <time>2024-05-09T09:47:49Z</time>
      </trkpt>
      <trkpt lat="47.86083" lon="-4.16554">
        <ele>1.9</ele>
        <time>2024-05-09T09:47:52Z</time>
      </trkpt>
      <trkpt lat="47.86077" lon="-4.16541">
        <ele>1.8</ele>
        <time>2024-05-09T09:47:55Z</time>
      </trkpt>
      <trkpt lat="47.86072" lon="-4.16528">
        <ele>1.8</ele>
        <time>2024-05-09T09:47:58Z</time>
      </trkpt>
      <trkpt lat="47.86067" lon="-4.16517">
        <ele>2.3</ele>
        <time>2024-05-09T09:48:01Z</time>
      </trkpt>
      <trkpt lat="47.86061" lon="-4.16504">
        <ele>2.8</ele>
        <time>2024-05-09T09:48:04Z</time>
      </trkpt>
      <trkpt lat="47.86054" lon="-4.16489">
        <ele>2.6</ele>
        <time>2024-05-09T09:48:08Z</time>
      </trkpt>
      <trkpt lat="47.86049" lon="-4.16478">
        <ele>2.4</ele>
        <time>2024-05-09T09:48:11Z</time>
      </trkpt>
      <trkpt lat="47.86044" lon="-4.16466">
        <ele>2.4</ele>
        <time>2024-05-09T09:48:14Z</time>
      </trkpt>
      <trkpt lat="47.86038" lon="-4.16451">
        <ele>2.6</ele>
        <time>2024-05-09T09:48:18Z</time>
      </trkpt>
      <trkpt lat="47.86033" lon="-4.16439">
        <ele>2.8</ele>
        <time>2024-05-09T09:48:21Z</time>
      </trkpt>
      <trkpt lat="47.86028" lon="-4.16427">
        <ele>3</ele>
        <time>2024-05-09T09:48:24Z</time>
      </trkpt>
      <trkpt lat="47.8602" lon="-4.16417">
        <ele>3</ele>
        <time>2024-05-09T09:48:27Z</time>
      </trkpt>
      <trkpt lat="47.86012" lon="-4.16408">
        <ele>2.9</ele>
        <time>2024-05-09T09:48:30Z</time>
      </trkpt>
      <trkpt lat="47.86002" lon="-4.16405">
        <ele>3</ele>
        <time>2024-05-09T09:48:33Z</time>
      </trkpt>
      <trkpt lat="47.85992" lon="-4.16412">
        <ele>3</ele>
        <time>2024-05-09T09:48:37Z</time>
      </trkpt>
      <trkpt lat="47.85989" lon="-4.16425">
        <ele>3.1</ele>
        <time>2024-05-09T09:48:40Z</time>
      </trkpt>
      <trkpt lat="47.85986" lon="-4.16439">
        <ele>3.4</ele>
        <time>2024-05-09T09:48:43Z</time>
      </trkpt>
      <trkpt lat="47.8598" lon="-4.16453">
        <ele>3.5</ele>
        <time>2024-05-09T09:48:46Z</time>
      </trkpt>
      <trkpt lat="47.85972" lon="-4.16465">
        <ele>3.3</ele>
        <time>2024-05-09T09:48:49Z</time>
      </trkpt>
      <trkpt lat="47.85964" lon="-4.16475">
        <ele>3.3</ele>
        <time>2024-05-09T09:48:52Z</time>
      </trkpt>
      <trkpt lat="47.85954" lon="-4.16483">
        <ele>3.4</ele>
        <time>2024-05-09T09:48:55Z</time>
      </trkpt>
      <trkpt lat="47.85944" lon="-4.1649">
        <ele>3.4</ele>
        <time>2024-05-09T09:48:58Z</time>
      </trkpt>
      <trkpt lat="47.85934" lon="-4.16497">
        <ele>3.1</ele>
        <time>2024-05-09T09:49:01Z</time>
      </trkpt>
      <trkpt lat="47.85923" lon="-4.16503">
        <ele>3</ele>
        <time>2024-05-09T09:49:04Z</time>
      </trkpt>
      <trkpt lat="47.85912" lon="-4.16507">
        <ele>3</ele>
        <time>2024-05-09T09:49:07Z</time>
      </trkpt>
      <trkpt lat="47.85901" lon="-4.1651">
        <ele>3</ele>
        <time>2024-05-09T09:49:10Z</time>
      </trkpt>
      <trkpt lat="47.8589" lon="-4.16513">
        <ele>3</ele>
        <time>2024-05-09T09:49:13Z</time>
      </trkpt>
      <trkpt lat="47.85879" lon="-4.16515">
        <ele>2.8</ele>
        <time>2024-05-09T09:49:16Z</time>
      </trkpt>
      <trkpt lat="47.85868" lon="-4.16516">
        <ele>2.7</ele>
        <time>2024-05-09T09:49:19Z</time>
      </trkpt>
      <trkpt lat="47.85857" lon="-4.16517">
        <ele>2.6</ele>
        <time>2024-05-09T09:49:22Z</time>
      </trkpt>
      <trkpt lat="47.85846" lon="-4.16519">
        <ele>2.7</ele>
        <time>2024-05-09T09:49:26Z</time>
      </trkpt>
      <trkpt lat="47.85836" lon="-4.16521">
        <ele>2.7</ele>
        <time>2024-05-09T09:49:29Z</time>
      </trkpt>
      <trkpt lat="47.85826" lon="-4.16523">
        <ele>2.8</ele>
        <time>2024-05-09T09:49:32Z</time>
      </trkpt>
      <trkpt lat="47.85815" lon="-4.16524">
        <ele>2.9</ele>
        <time>2024-05-09T09:49:35Z</time>
      </trkpt>
      <trkpt lat="47.85803" lon="-4.16525">
        <ele>2.9</ele>
        <time>2024-05-09T09:49:38Z</time>
      </trkpt>
      <trkpt lat="47.85791" lon="-4.16528">
        <ele>3</ele>
        <time>2024-05-09T09:49:41Z</time>
      </trkpt>
      <trkpt lat="47.85779" lon="-4.1653">
        <ele>3.1</ele>
        <time>2024-05-09T09:49:44Z</time>
      </trkpt>
      <trkpt lat="47.85767" lon="-4.16532">
        <ele>2.8</ele>
        <time>2024-05-09T09:49:47Z</time>
      </trkpt>
      <trkpt lat="47.85756" lon="-4.16533">
        <ele>2.6</ele>
        <time>2024-05-09T09:49:50Z</time>
      </trkpt>
      <trkpt lat="47.85747" lon="-4.16534">
        <ele>2.3</ele>
        <time>2024-05-09T09:49:53Z</time>
      </trkpt>
      <trkpt lat="47.85738" lon="-4.16536">
        <ele>2.3</ele>
        <time>2024-05-09T09:49:56Z</time>
      </trkpt>
      <trkpt lat="47.85728" lon="-4.16542">
        <ele>2.6</ele>
        <time>2024-05-09T09:49:59Z</time>
      </trkpt>
      <trkpt lat="47.85718" lon="-4.16551">
        <ele>3.3</ele>
        <time>2024-05-09T09:50:02Z</time>
      </trkpt>
      <trkpt lat="47.85711" lon="-4.16562">
        <ele>3.4</ele>
        <time>2024-05-09T09:50:05Z</time>
      </trkpt>
      <trkpt lat="47.85702" lon="-4.16574">
        <ele>3.5</ele>
        <time>2024-05-09T09:50:08Z</time>
      </trkpt>
      <trkpt lat="47.85696" lon="-4.16589">
        <ele>4</ele>
        <time>2024-05-09T09:50:11Z</time>
      </trkpt>
      <trkpt lat="47.8569" lon="-4.16604">
        <ele>3.7</ele>
        <time>2024-05-09T09:50:14Z</time>
      </trkpt>
      <trkpt lat="47.85684" lon="-4.16618">
        <ele>3.4</ele>
        <time>2024-05-09T09:50:18Z</time>
      </trkpt>
      <trkpt lat="47.8568" lon="-4.16632">
        <ele>2.7</ele>
        <time>2024-05-09T09:50:23Z</time>
      </trkpt>
      <trkpt lat="47.85671" lon="-4.16628">
        <ele>2.1</ele>
        <time>2024-05-09T09:56:09Z</time>
      </trkpt>
      <trkpt lat="47.85662" lon="-4.16621">
        <ele>2.4</ele>
        <time>2024-05-09T09:58:47Z</time>
      </trkpt>
      <trkpt lat="47.85651" lon="-4.1662">
        <ele>2.9</ele>
        <time>2024-05-09T09:58:53Z</time>
      </trkpt>
      <trkpt lat="47.85641" lon="-4.16618">
        <ele>3.4</ele>
        <time>2024-05-09T09:58:57Z</time>
      </trkpt>
      <trkpt lat="47.85631" lon="-4.16615">
        <ele>3.7</ele>
        <time>2024-05-09T09:59:01Z</time>
      </trkpt>
      <trkpt lat="47.8562" lon="-4.16612">
        <ele>3.9</ele>
        <time>2024-05-09T09:59:05Z</time>
      </trkpt>
      <trkpt lat="47.85608" lon="-4.1661">
        <ele>3.6</ele>
        <time>2024-05-09T09:59:09Z</time>
      </trkpt>
      <trkpt lat="47.85599" lon="-4.16608">
        <ele>2.8</ele>
        <time>2024-05-09T09:59:12Z</time>
      </trkpt>
      <trkpt lat="47.85589" lon="-4.16605">
        <ele>2.1</ele>
        <time>2024-05-09T09:59:15Z</time>
      </trkpt>
      <trkpt lat="47.85579" lon="-4.16603">
        <ele>1.6</ele>
        <time>2024-05-09T09:59:18Z</time>
      </trkpt>
      <trkpt lat="47.85569" lon="-4.166">
        <ele>1.5</ele>
        <time>2024-05-09T09:59:21Z</time>
      </trkpt>
      <trkpt lat="47.85559" lon="-4.16598">
        <ele>1.5</ele>
        <time>2024-05-09T09:59:24Z</time>
      </trkpt>
      <trkpt lat="47.85549" lon="-4.16596">
        <ele>1.7</ele>
        <time>2024-05-09T09:59:27Z</time>
      </trkpt>
      <trkpt lat="47.85539" lon="-4.16594">
        <ele>2</ele>
        <time>2024-05-09T09:59:30Z</time>
      </trkpt>
      <trkpt lat="47.85528" lon="-4.16591">
        <ele>2.4</ele>
        <time>2024-05-09T09:59:33Z</time>
      </trkpt>
      <trkpt lat="47.85517" lon="-4.16589">
        <ele>2.6</ele>
        <time>2024-05-09T09:59:36Z</time>
      </trkpt>
      <trkpt lat="47.85507" lon="-4.16585">
        <ele>2.9</ele>
        <time>2024-05-09T09:59:39Z</time>
      </trkpt>
      <trkpt lat="47.85497" lon="-4.16583">
        <ele>3</ele>
        <time>2024-05-09T09:59:42Z</time>
      </trkpt>
      <trkpt lat="47.85487" lon="-4.16581">
        <ele>2.9</ele>
        <time>2024-05-09T09:59:45Z</time>
      </trkpt>
      <trkpt lat="47.85477" lon="-4.16578">
        <ele>2.7</ele>
        <time>2024-05-09T09:59:48Z</time>
      </trkpt>
      <trkpt lat="47.85467" lon="-4.16575">
        <ele>2.3</ele>
        <time>2024-05-09T09:59:51Z</time>
      </trkpt>
      <trkpt lat="47.85457" lon="-4.16573">
        <ele>2.1</ele>
        <time>2024-05-09T09:59:54Z</time>
      </trkpt>
      <trkpt lat="47.85447" lon="-4.16571">
        <ele>2</ele>
        <time>2024-05-09T09:59:57Z</time>
      </trkpt>
      <trkpt lat="47.85437" lon="-4.16569">
        <ele>2</ele>
        <time>2024-05-09T10:00:00Z</time>
      </trkpt>
      <trkpt lat="47.85427" lon="-4.16566">
        <ele>2.1</ele>
        <time>2024-05-09T10:00:03Z</time>
      </trkpt>
      <trkpt lat="47.85416" lon="-4.16564">
        <ele>2.4</ele>
        <time>2024-05-09T10:00:06Z</time>
      </trkpt>
      <trkpt lat="47.85405" lon="-4.16561">
        <ele>2.6</ele>
        <time>2024-05-09T10:00:09Z</time>
      </trkpt>
      <trkpt lat="47.85395" lon="-4.16558">
        <ele>2.8</ele>
        <time>2024-05-09T10:00:12Z</time>
      </trkpt>
      <trkpt lat="47.85385" lon="-4.16556">
        <ele>2.8</ele>
        <time>2024-05-09T10:00:15Z</time>
      </trkpt>
      <trkpt lat="47.85374" lon="-4.16553">
        <ele>2.48</ele>
        <time>2024-05-09T10:00:18Z</time>
      </trkpt>
      <trkpt lat="47.85364" lon="-4.16551">
        <ele>2.11</ele>
        <time>2024-05-09T10:00:21Z</time>
      </trkpt>
      <trkpt lat="47.85354" lon="-4.16549">
        <ele>1.8</ele>
        <time>2024-05-09T10:00:24Z</time>
      </trkpt>
      <trkpt lat="47.85343" lon="-4.16546">
        <ele>1.7</ele>
        <time>2024-05-09T10:00:27Z</time>
      </trkpt>
      <trkpt lat="47.85332" lon="-4.16544">
        <ele>1.6</ele>
        <time>2024-05-09T10:00:30Z</time>
      </trkpt>
      <trkpt lat="47.85321" lon="-4.16542">
        <ele>1.3</ele>
        <time>2024-05-09T10:00:33Z</time>
      </trkpt>
      <trkpt lat="47.8531" lon="-4.1654">
        <ele>1.1</ele>
        <time>2024-05-09T10:00:36Z</time>
      </trkpt>
      <trkpt lat="47.85299" lon="-4.16537">
        <ele>1.1</ele>
        <time>2024-05-09T10:00:39Z</time>
      </trkpt>
      <trkpt lat="47.85289" lon="-4.16535">
        <ele>1.4</ele>
        <time>2024-05-09T10:00:42Z</time>
      </trkpt>
      <trkpt lat="47.85278" lon="-4.16532">
        <ele>1.8</ele>
        <time>2024-05-09T10:00:45Z</time>
      </trkpt>
      <trkpt lat="47.85268" lon="-4.16528">
        <ele>2.3</ele>
        <time>2024-05-09T10:00:48Z</time>
      </trkpt>
      <trkpt lat="47.85257" lon="-4.16526">
        <ele>2.6</ele>
        <time>2024-05-09T10:00:51Z</time>
      </trkpt>
      <trkpt lat="47.85246" lon="-4.16523">
        <ele>2.7</ele>
        <time>2024-05-09T10:00:54Z</time>
      </trkpt>
      <trkpt lat="47.85236" lon="-4.16521">
        <ele>2.7</ele>
        <time>2024-05-09T10:00:57Z</time>
      </trkpt>
      <trkpt lat="47.85227" lon="-4.16517">
        <ele>2.9</ele>
        <time>2024-05-09T10:01:00Z</time>
      </trkpt>
      <trkpt lat="47.85218" lon="-4.16514">
        <ele>3.2</ele>
        <time>2024-05-09T10:01:03Z</time>
      </trkpt>
      <trkpt lat="47.85208" lon="-4.16512">
        <ele>3.8</ele>
        <time>2024-05-09T10:01:09Z</time>
      </trkpt>
      <trkpt lat="47.85199" lon="-4.16508">
        <ele>4.4</ele>
        <time>2024-05-09T10:01:13Z</time>
      </trkpt>
      <trkpt lat="47.8519" lon="-4.16502">
        <ele>4.9</ele>
        <time>2024-05-09T10:01:17Z</time>
      </trkpt>
      <trkpt lat="47.85181" lon="-4.16494">
        <ele>4.7</ele>
        <time>2024-05-09T10:01:22Z</time>
      </trkpt>
      <trkpt lat="47.85171" lon="-4.16487">
        <ele>4.4</ele>
        <time>2024-05-09T10:01:26Z</time>
      </trkpt>
      <trkpt lat="47.85162" lon="-4.16479">
        <ele>4.4</ele>
        <time>2024-05-09T10:01:30Z</time>
      </trkpt>
      <trkpt lat="47.85153" lon="-4.16471">
        <ele>4.5</ele>
        <time>2024-05-09T10:01:34Z</time>
      </trkpt>
      <trkpt lat="47.85142" lon="-4.16465">
        <ele>4.9</ele>
        <time>2024-05-09T10:01:38Z</time>
      </trkpt>
      <trkpt lat="47.85133" lon="-4.16459">
        <ele>5</ele>
        <time>2024-05-09T10:01:42Z</time>
      </trkpt>
      <trkpt lat="47.85124" lon="-4.16468">
        <ele>5</ele>
        <time>2024-05-09T10:01:47Z</time>
      </trkpt>
      <trkpt lat="47.85119" lon="-4.16481">
        <ele>5</ele>
        <time>2024-05-09T10:01:51Z</time>
      </trkpt>
      <trkpt lat="47.85115" lon="-4.16493">
        <ele>5</ele>
        <time>2024-05-09T10:01:55Z</time>
      </trkpt>
      <trkpt lat="47.8511" lon="-4.16506">
        <ele>5</ele>
        <time>2024-05-09T10:01:59Z</time>
      </trkpt>
      <trkpt lat="47.85105" lon="-4.16518">
        <ele>5</ele>
        <time>2024-05-09T10:02:03Z</time>
      </trkpt>
      <trkpt lat="47.85101" lon="-4.1653">
        <ele>5</ele>
        <time>2024-05-09T10:04:27Z</time>
      </trkpt>
      <trkpt lat="47.85094" lon="-4.1654">
        <ele>5</ele>
        <time>2024-05-09T10:04:49Z</time>
      </trkpt>
      <trkpt lat="47.85088" lon="-4.16552">
        <ele>5</ele>
        <time>2024-05-09T10:04:53Z</time>
      </trkpt>
      <trkpt lat="47.85079" lon="-4.16564">
        <ele>5</ele>
        <time>2024-05-09T10:04:57Z</time>
      </trkpt>
      <trkpt lat="47.85072" lon="-4.16573">
        <ele>5</ele>
        <time>2024-05-09T10:05:00Z</time>
      </trkpt>
      <trkpt lat="47.85063" lon="-4.1658">
        <ele>5</ele>
        <time>2024-05-09T10:05:03Z</time>
      </trkpt>
      <trkpt lat="47.85055" lon="-4.16588">
        <ele>5</ele>
        <time>2024-05-09T10:05:06Z</time>
      </trkpt>
      <trkpt lat="47.85047" lon="-4.16597">
        <ele>5.3</ele>
        <time>2024-05-09T10:05:09Z</time>
      </trkpt>
      <trkpt lat="47.85039" lon="-4.16606">
        <ele>5.6</ele>
        <time>2024-05-09T10:05:12Z</time>
      </trkpt>
      <trkpt lat="47.85032" lon="-4.16616">
        <ele>5.7</ele>
        <time>2024-05-09T10:05:15Z</time>
      </trkpt>
      <trkpt lat="47.85025" lon="-4.16625">
        <ele>5.6</ele>
        <time>2024-05-09T10:05:18Z</time>
      </trkpt>
      <trkpt lat="47.85016" lon="-4.16636">
        <ele>5.5</ele>
        <time>2024-05-09T10:05:22Z</time>
      </trkpt>
      <trkpt lat="47.85017" lon="-4.16653">
        <ele>5.2</ele>
        <time>2024-05-09T10:05:26Z</time>
      </trkpt>
      <trkpt lat="47.85024" lon="-4.16664">
        <ele>5</ele>
        <time>2024-05-09T10:05:29Z</time>
      </trkpt>
      <trkpt lat="47.85032" lon="-4.16673">
        <ele>5</ele>
        <time>2024-05-09T10:05:32Z</time>
      </trkpt>
      <trkpt lat="47.8504" lon="-4.16682">
        <ele>5</ele>
        <time>2024-05-09T10:05:35Z</time>
      </trkpt>
      <trkpt lat="47.85046" lon="-4.16693">
        <ele>5</ele>
        <time>2024-05-09T10:05:38Z</time>
      </trkpt>
      <trkpt lat="47.85045" lon="-4.16707">
        <ele>5</ele>
        <time>2024-05-09T10:05:41Z</time>
      </trkpt>
      <trkpt lat="47.85038" lon="-4.16718">
        <ele>5</ele>
        <time>2024-05-09T10:05:44Z</time>
      </trkpt>
      <trkpt lat="47.85029" lon="-4.16728">
        <ele>5</ele>
        <time>2024-05-09T10:05:47Z</time>
      </trkpt>
      <trkpt lat="47.85021" lon="-4.16738">
        <ele>5</ele>
        <time>2024-05-09T10:05:50Z</time>
      </trkpt>
      <trkpt lat="47.85013" lon="-4.16748">
        <ele>5</ele>
        <time>2024-05-09T10:05:53Z</time>
      </trkpt>
      <trkpt lat="47.85004" lon="-4.16757">
        <ele>5.1</ele>
        <time>2024-05-09T10:05:56Z</time>
      </trkpt>
      <trkpt lat="47.84996" lon="-4.16767">
        <ele>5.5</ele>
        <time>2024-05-09T10:05:59Z</time>
      </trkpt>
      <trkpt lat="47.84989" lon="-4.16777">
        <ele>5.6</ele>
        <time>2024-05-09T10:06:02Z</time>
      </trkpt>
      <trkpt lat="47.8498" lon="-4.16785">
        <ele>5.3</ele>
        <time>2024-05-09T10:06:05Z</time>
      </trkpt>
      <trkpt lat="47.84971" lon="-4.16793">
        <ele>5.5</ele>
        <time>2024-05-09T10:06:08Z</time>
      </trkpt>
      <trkpt lat="47.84962" lon="-4.16799">
        <ele>5.9</ele>
        <time>2024-05-09T10:06:11Z</time>
      </trkpt>
      <trkpt lat="47.84952" lon="-4.16805">
        <ele>6</ele>
        <time>2024-05-09T10:06:14Z</time>
      </trkpt>
      <trkpt lat="47.84943" lon="-4.16809">
        <ele>6</ele>
        <time>2024-05-09T10:06:17Z</time>
      </trkpt>
      <trkpt lat="47.84933" lon="-4.16812">
        <ele>6</ele>
        <time>2024-05-09T10:06:20Z</time>
      </trkpt>
      <trkpt lat="47.84922" lon="-4.16814">
        <ele>6</ele>
        <time>2024-05-09T10:06:24Z</time>
      </trkpt>
      <trkpt lat="47.8491" lon="-4.16814">
        <ele>6</ele>
        <time>2024-05-09T10:06:28Z</time>
      </trkpt>
      <trkpt lat="47.849" lon="-4.16805">
        <ele>6</ele>
        <time>2024-05-09T10:06:32Z</time>
      </trkpt>
      <trkpt lat="47.84892" lon="-4.16793">
        <ele>6</ele>
        <time>2024-05-09T10:06:36Z</time>
      </trkpt>
      <trkpt lat="47.84885" lon="-4.16779">
        <ele>6</ele>
        <time>2024-05-09T10:06:40Z</time>
      </trkpt>
      <trkpt lat="47.84879" lon="-4.16767">
        <ele>5.9</ele>
        <time>2024-05-09T10:06:43Z</time>
      </trkpt>
      <trkpt lat="47.84872" lon="-4.16754">
        <ele>5.5</ele>
        <time>2024-05-09T10:06:46Z</time>
      </trkpt>
      <trkpt lat="47.84865" lon="-4.16742">
        <ele>5.1</ele>
        <time>2024-05-09T10:06:49Z</time>
      </trkpt>
      <trkpt lat="47.84859" lon="-4.1673">
        <ele>5</ele>
        <time>2024-05-09T10:06:52Z</time>
      </trkpt>
      <trkpt lat="47.84853" lon="-4.16719">
        <ele>5</ele>
        <time>2024-05-09T10:06:55Z</time>
      </trkpt>
      <trkpt lat="47.84845" lon="-4.16711">
        <ele>5</ele>
        <time>2024-05-09T10:07:04Z</time>
      </trkpt>
      <trkpt lat="47.84836" lon="-4.1672">
        <ele>5</ele>
        <time>2024-05-09T10:07:10Z</time>
      </trkpt>
      <trkpt lat="47.84828" lon="-4.16729">
        <ele>5</ele>
        <time>2024-05-09T10:07:13Z</time>
      </trkpt>
      <trkpt lat="47.8482" lon="-4.16738">
        <ele>5</ele>
        <time>2024-05-09T10:07:18Z</time>
      </trkpt>
      <trkpt lat="47.84812" lon="-4.16745">
        <ele>5</ele>
        <time>2024-05-09T10:07:22Z</time>
      </trkpt>
      <trkpt lat="47.84801" lon="-4.16751">
        <ele>5</ele>
        <time>2024-05-09T10:07:26Z</time>
      </trkpt>
      <trkpt lat="47.84793" lon="-4.1676">
        <ele>5</ele>
        <time>2024-05-09T10:07:29Z</time>
      </trkpt>
      <trkpt lat="47.84786" lon="-4.16768">
        <ele>5</ele>
        <time>2024-05-09T10:07:32Z</time>
      </trkpt>
      <trkpt lat="47.84777" lon="-4.16779">
        <ele>5</ele>
        <time>2024-05-09T10:07:36Z</time>
      </trkpt>
      <trkpt lat="47.84768" lon="-4.16787">
        <ele>5</ele>
        <time>2024-05-09T10:07:40Z</time>
      </trkpt>
      <trkpt lat="47.84759" lon="-4.16794">
        <ele>5</ele>
        <time>2024-05-09T10:07:43Z</time>
      </trkpt>
      <trkpt lat="47.8475" lon="-4.16803">
        <ele>5</ele>
        <time>2024-05-09T10:07:47Z</time>
      </trkpt>
      <trkpt lat="47.84742" lon="-4.16809">
        <ele>5</ele>
        <time>2024-05-09T10:07:52Z</time>
      </trkpt>
      <trkpt lat="47.84736" lon="-4.16821">
        <ele>5</ele>
        <time>2024-05-09T10:07:59Z</time>
      </trkpt>
      <trkpt lat="47.84727" lon="-4.1683">
        <ele>5</ele>
        <time>2024-05-09T10:08:03Z</time>
      </trkpt>
      <trkpt lat="47.84717" lon="-4.16835">
        <ele>5</ele>
        <time>2024-05-09T10:08:06Z</time>
      </trkpt>
      <trkpt lat="47.84707" lon="-4.16839">
        <ele>5</ele>
        <time>2024-05-09T10:08:09Z</time>
      </trkpt>
      <trkpt lat="47.84697" lon="-4.16844">
        <ele>5</ele>
        <time>2024-05-09T10:08:12Z</time>
      </trkpt>
      <trkpt lat="47.84687" lon="-4.16848">
        <ele>5</ele>
        <time>2024-05-09T10:08:15Z</time>
      </trkpt>
      <trkpt lat="47.84677" lon="-4.16853">
        <ele>5</ele>
        <time>2024-05-09T10:08:18Z</time>
      </trkpt>
      <trkpt lat="47.84666" lon="-4.16856">
        <ele>5</ele>
        <time>2024-05-09T10:08:21Z</time>
      </trkpt>
      <trkpt lat="47.84656" lon="-4.16858">
        <ele>5</ele>
        <time>2024-05-09T10:08:24Z</time>
      </trkpt>
      <trkpt lat="47.84646" lon="-4.1686">
        <ele>5</ele>
        <time>2024-05-09T10:08:27Z</time>
      </trkpt>
      <trkpt lat="47.84634" lon="-4.16862">
        <ele>5</ele>
        <time>2024-05-09T10:08:30Z</time>
      </trkpt>
      <trkpt lat="47.84622" lon="-4.16864">
        <ele>5</ele>
        <time>2024-05-09T10:08:33Z</time>
      </trkpt>
      <trkpt lat="47.84611" lon="-4.16864">
        <ele>5</ele>
        <time>2024-05-09T10:08:36Z</time>
      </trkpt>
      <trkpt lat="47.846" lon="-4.16866">
        <ele>4.9</ele>
        <time>2024-05-09T10:08:39Z</time>
      </trkpt>
      <trkpt lat="47.84589" lon="-4.16867">
        <ele>4.8</ele>
        <time>2024-05-09T10:08:42Z</time>
      </trkpt>
      <trkpt lat="47.84577" lon="-4.16867">
        <ele>4.8</ele>
        <time>2024-05-09T10:08:45Z</time>
      </trkpt>
      <trkpt lat="47.84567" lon="-4.16867">
        <ele>4.9</ele>
        <time>2024-05-09T10:08:48Z</time>
      </trkpt>
      <trkpt lat="47.84558" lon="-4.1687">
        <ele>5</ele>
        <time>2024-05-09T10:08:51Z</time>
      </trkpt>
      <trkpt lat="47.84548" lon="-4.16873">
        <ele>5</ele>
        <time>2024-05-09T10:08:54Z</time>
      </trkpt>
      <trkpt lat="47.84539" lon="-4.16873">
        <ele>5</ele>
        <time>2024-05-09T10:08:57Z</time>
      </trkpt>
      <trkpt lat="47.84529" lon="-4.16874">
        <ele>5</ele>
        <time>2024-05-09T10:09:00Z</time>
      </trkpt>
      <trkpt lat="47.84518" lon="-4.16874">
        <ele>5</ele>
        <time>2024-05-09T10:09:04Z</time>
      </trkpt>
      <trkpt lat="47.84507" lon="-4.16875">
        <ele>5</ele>
        <time>2024-05-09T10:09:07Z</time>
      </trkpt>
      <trkpt lat="47.84496" lon="-4.16876">
        <ele>5</ele>
        <time>2024-05-09T10:09:10Z</time>
      </trkpt>
      <trkpt lat="47.84485" lon="-4.16877">
        <ele>5</ele>
        <time>2024-05-09T10:09:13Z</time>
      </trkpt>
      <trkpt lat="47.84474" lon="-4.16878">
        <ele>5</ele>
        <time>2024-05-09T10:09:16Z</time>
      </trkpt>
      <trkpt lat="47.84464" lon="-4.16879">
        <ele>4.8</ele>
        <time>2024-05-09T10:09:19Z</time>
      </trkpt>
      <trkpt lat="47.84453" lon="-4.16879">
        <ele>4.6</ele>
        <time>2024-05-09T10:09:22Z</time>
      </trkpt>
      <trkpt lat="47.84442" lon="-4.16878">
        <ele>4.4</ele>
        <time>2024-05-09T10:09:25Z</time>
      </trkpt>
      <trkpt lat="47.84433" lon="-4.16876">
        <ele>4.5</ele>
        <time>2024-05-09T10:09:28Z</time>
      </trkpt>
      <trkpt lat="47.84422" lon="-4.16873">
        <ele>4.6</ele>
        <time>2024-05-09T10:09:32Z</time>
      </trkpt>
      <trkpt lat="47.84412" lon="-4.16871">
        <ele>4.6</ele>
        <time>2024-05-09T10:09:35Z</time>
      </trkpt>
      <trkpt lat="47.84402" lon="-4.16869">
        <ele>4.7</ele>
        <time>2024-05-09T10:09:38Z</time>
      </trkpt>
      <trkpt lat="47.8439" lon="-4.16867">
        <ele>4.8</ele>
        <time>2024-05-09T10:09:42Z</time>
      </trkpt>
      <trkpt lat="47.8438" lon="-4.16866">
        <ele>4.6</ele>
        <time>2024-05-09T10:09:45Z</time>
      </trkpt>
      <trkpt lat="47.84369" lon="-4.16866">
        <ele>4.2</ele>
        <time>2024-05-09T10:09:48Z</time>
      </trkpt>
      <trkpt lat="47.84358" lon="-4.16868">
        <ele>4</ele>
        <time>2024-05-09T10:09:51Z</time>
      </trkpt>
      <trkpt lat="47.84347" lon="-4.16868">
        <ele>3.9</ele>
        <time>2024-05-09T10:09:54Z</time>
      </trkpt>
      <trkpt lat="47.84337" lon="-4.16868">
        <ele>3.8</ele>
        <time>2024-05-09T10:09:57Z</time>
      </trkpt>
      <trkpt lat="47.84327" lon="-4.16869">
        <ele>3.7</ele>
        <time>2024-05-09T10:10:00Z</time>
      </trkpt>
      <trkpt lat="47.84316" lon="-4.16869">
        <ele>3.6</ele>
        <time>2024-05-09T10:10:03Z</time>
      </trkpt>
      <trkpt lat="47.84305" lon="-4.16865">
        <ele>3.7</ele>
        <time>2024-05-09T10:10:06Z</time>
      </trkpt>
      <trkpt lat="47.84294" lon="-4.16861">
        <ele>4</ele>
        <time>2024-05-09T10:10:10Z</time>
      </trkpt>
      <trkpt lat="47.84284" lon="-4.16857">
        <ele>4</ele>
        <time>2024-05-09T10:10:13Z</time>
      </trkpt>
      <trkpt lat="47.84274" lon="-4.16853">
        <ele>4</ele>
        <time>2024-05-09T10:10:16Z</time>
      </trkpt>
      <trkpt lat="47.84264" lon="-4.16852">
        <ele>4</ele>
        <time>2024-05-09T10:10:20Z</time>
      </trkpt>
      <trkpt lat="47.84254" lon="-4.16849">
        <ele>4</ele>
        <time>2024-05-09T10:10:24Z</time>
      </trkpt>
      <trkpt lat="47.84244" lon="-4.16847">
        <ele>4</ele>
        <time>2024-05-09T10:10:27Z</time>
      </trkpt>
      <trkpt lat="47.84234" lon="-4.1685">
        <ele>4</ele>
        <time>2024-05-09T10:10:30Z</time>
      </trkpt>
      <trkpt lat="47.84224" lon="-4.16853">
        <ele>4</ele>
        <time>2024-05-09T10:10:33Z</time>
      </trkpt>
      <trkpt lat="47.84214" lon="-4.16857">
        <ele>4</ele>
        <time>2024-05-09T10:10:36Z</time>
      </trkpt>
      <trkpt lat="47.84205" lon="-4.16861">
        <ele>4</ele>
        <time>2024-05-09T10:10:39Z</time>
      </trkpt>
      <trkpt lat="47.84196" lon="-4.16865">
        <ele>3.9</ele>
        <time>2024-05-09T10:10:42Z</time>
      </trkpt>
      <trkpt lat="47.84186" lon="-4.1687">
        <ele>3.8</ele>
        <time>2024-05-09T10:10:45Z</time>
      </trkpt>
      <trkpt lat="47.84176" lon="-4.16879">
        <ele>3.8</ele>
        <time>2024-05-09T10:10:49Z</time>
      </trkpt>
      <trkpt lat="47.84168" lon="-4.16887">
        <ele>3.9</ele>
        <time>2024-05-09T10:10:52Z</time>
      </trkpt>
      <trkpt lat="47.84161" lon="-4.16894">
        <ele>3.6</ele>
        <time>2024-05-09T10:10:55Z</time>
      </trkpt>
      <trkpt lat="47.84151" lon="-4.16899">
        <ele>3.5</ele>
        <time>2024-05-09T10:10:58Z</time>
      </trkpt>
      <trkpt lat="47.84143" lon="-4.16906">
        <ele>3.7</ele>
        <time>2024-05-09T10:11:01Z</time>
      </trkpt>
      <trkpt lat="47.84134" lon="-4.16913">
        <ele>4</ele>
        <time>2024-05-09T10:11:22Z</time>
      </trkpt>
      <trkpt lat="47.84125" lon="-4.16919">
        <ele>3.9</ele>
        <time>2024-05-09T10:11:28Z</time>
      </trkpt>
      <trkpt lat="47.84117" lon="-4.16926">
        <ele>3.8</ele>
        <time>2024-05-09T10:11:33Z</time>
      </trkpt>
      <trkpt lat="47.84114" lon="-4.16939">
        <ele>3.8</ele>
        <time>2024-05-09T10:11:39Z</time>
      </trkpt>
      <trkpt lat="47.84113" lon="-4.16952">
        <ele>3.6</ele>
        <time>2024-05-09T10:11:45Z</time>
      </trkpt>
      <trkpt lat="47.84114" lon="-4.16966">
        <ele>3.1</ele>
        <time>2024-05-09T10:11:50Z</time>
      </trkpt>
      <trkpt lat="47.84105" lon="-4.16967">
        <ele>3.2</ele>
        <time>2024-05-09T10:17:53Z</time>
      </trkpt>
      <trkpt lat="47.84096" lon="-4.16962">
        <ele>3.4</ele>
        <time>2024-05-09T10:22:14Z</time>
      </trkpt>
      <trkpt lat="47.84086" lon="-4.16958">
        <ele>3.5</ele>
        <time>2024-05-09T10:22:19Z</time>
      </trkpt>
      <trkpt lat="47.84077" lon="-4.16956">
        <ele>3.7</ele>
        <time>2024-05-09T10:22:25Z</time>
      </trkpt>
      <trkpt lat="47.84067" lon="-4.1695">
        <ele>3.9</ele>
        <time>2024-05-09T10:22:34Z</time>
      </trkpt>
      <trkpt lat="47.84068" lon="-4.16935">
        <ele>4</ele>
        <time>2024-05-09T10:22:38Z</time>
      </trkpt>
      <trkpt lat="47.84069" lon="-4.16919">
        <ele>4</ele>
        <time>2024-05-09T10:22:42Z</time>
      </trkpt>
      <trkpt lat="47.8407" lon="-4.16903">
        <ele>4.3</ele>
        <time>2024-05-09T10:22:46Z</time>
      </trkpt>
      <trkpt lat="47.84072" lon="-4.16888">
        <ele>4.6</ele>
        <time>2024-05-09T10:22:50Z</time>
      </trkpt>
      <trkpt lat="47.84071" lon="-4.16873">
        <ele>4.8</ele>
        <time>2024-05-09T10:22:55Z</time>
      </trkpt>
      <trkpt lat="47.84072" lon="-4.1686">
        <ele>5</ele>
        <time>2024-05-09T10:22:59Z</time>
      </trkpt>
      <trkpt lat="47.84069" lon="-4.16845">
        <ele>5</ele>
        <time>2024-05-09T10:23:04Z</time>
      </trkpt>
      <trkpt lat="47.84062" lon="-4.16834">
        <ele>5</ele>
        <time>2024-05-09T10:23:10Z</time>
      </trkpt>
      <trkpt lat="47.84052" lon="-4.16835">
        <ele>4.8</ele>
        <time>2024-05-09T10:23:29Z</time>
      </trkpt>
      <trkpt lat="47.84043" lon="-4.16838">
        <ele>4.2</ele>
        <time>2024-05-09T10:23:34Z</time>
      </trkpt>
      <trkpt lat="47.84033" lon="-4.16833">
        <ele>3.4</ele>
        <time>2024-05-09T10:23:39Z</time>
      </trkpt>
      <trkpt lat="47.84042" lon="-4.16835">
        <ele>4.1</ele>
        <time>2024-05-09T10:25:27Z</time>
      </trkpt>
      <trkpt lat="47.84033" lon="-4.16839">
        <ele>3.7</ele>
        <time>2024-05-09T10:26:07Z</time>
      </trkpt>
      <trkpt lat="47.84022" lon="-4.16837">
        <ele>3.1</ele>
        <time>2024-05-09T10:26:12Z</time>
      </trkpt>
      <trkpt lat="47.84012" lon="-4.16839">
        <ele>2.9</ele>
        <time>2024-05-09T10:26:17Z</time>
      </trkpt>
      <trkpt lat="47.84001" lon="-4.16845">
        <ele>2.9</ele>
        <time>2024-05-09T10:26:21Z</time>
      </trkpt>
      <trkpt lat="47.83992" lon="-4.16851">
        <ele>3.2</ele>
        <time>2024-05-09T10:26:24Z</time>
      </trkpt>
      <trkpt lat="47.83981" lon="-4.16858">
        <ele>3.7</ele>
        <time>2024-05-09T10:26:28Z</time>
      </trkpt>
      <trkpt lat="47.83971" lon="-4.16864">
        <ele>3.9</ele>
        <time>2024-05-09T10:26:32Z</time>
      </trkpt>
      <trkpt lat="47.83961" lon="-4.16871">
        <ele>3.5</ele>
        <time>2024-05-09T10:26:36Z</time>
      </trkpt>
      <trkpt lat="47.83952" lon="-4.16878">
        <ele>3.4</ele>
        <time>2024-05-09T10:26:41Z</time>
      </trkpt>
      <trkpt lat="47.83944" lon="-4.16886">
        <ele>3.7</ele>
        <time>2024-05-09T10:26:46Z</time>
      </trkpt>
      <trkpt lat="47.83952" lon="-4.16879">
        <ele>3.5</ele>
        <time>2024-05-09T10:27:43Z</time>
      </trkpt>
      <trkpt lat="47.83959" lon="-4.1689">
        <ele>4</ele>
        <time>2024-05-09T10:27:55Z</time>
      </trkpt>
      <trkpt lat="47.83959" lon="-4.16876">
        <ele>3.5</ele>
        <time>2024-05-09T10:28:06Z</time>
      </trkpt>
      <trkpt lat="47.8395" lon="-4.16883">
        <ele>3.7</ele>
        <time>2024-05-09T10:29:31Z</time>
      </trkpt>
      <trkpt lat="47.83942" lon="-4.16889">
        <ele>3.8</ele>
        <time>2024-05-09T10:29:44Z</time>
      </trkpt>
      <trkpt lat="47.83949" lon="-4.16879">
        <ele>3.4</ele>
        <time>2024-05-09T10:35:26Z</time>
      </trkpt>
      <trkpt lat="47.83959" lon="-4.16871">
        <ele>3.4</ele>
        <time>2024-05-09T10:35:31Z</time>
      </trkpt>
      <trkpt lat="47.8397" lon="-4.16864">
        <ele>3.8</ele>
        <time>2024-05-09T10:35:35Z</time>
      </trkpt>
      <trkpt lat="47.83978" lon="-4.16858">
        <ele>3.6</ele>
        <time>2024-05-09T10:35:38Z</time>
      </trkpt>
      <trkpt lat="47.83987" lon="-4.16853">
        <ele>3.3</ele>
        <time>2024-05-09T10:35:41Z</time>
      </trkpt>
      <trkpt lat="47.83997" lon="-4.16846">
        <ele>2.9</ele>
        <time>2024-05-09T10:35:45Z</time>
      </trkpt>
      <trkpt lat="47.84007" lon="-4.16841">
        <ele>2.8</ele>
        <time>2024-05-09T10:35:49Z</time>
      </trkpt>
      <trkpt lat="47.84016" lon="-4.16838">
        <ele>2.9</ele>
        <time>2024-05-09T10:35:52Z</time>
      </trkpt>
      <trkpt lat="47.84026" lon="-4.16835">
        <ele>3</ele>
        <time>2024-05-09T10:35:55Z</time>
      </trkpt>
      <trkpt lat="47.84035" lon="-4.16834">
        <ele>3.6</ele>
        <time>2024-05-09T10:35:58Z</time>
      </trkpt>
      <trkpt lat="47.84044" lon="-4.16834">
        <ele>4.2</ele>
        <time>2024-05-09T10:36:01Z</time>
      </trkpt>
      <trkpt lat="47.84054" lon="-4.16833">
        <ele>4.9</ele>
        <time>2024-05-09T10:36:04Z</time>
      </trkpt>
      <trkpt lat="47.84065" lon="-4.16832">
        <ele>4.7</ele>
        <time>2024-05-09T10:36:07Z</time>
      </trkpt>
      <trkpt lat="47.84075" lon="-4.16831">
        <ele>4.6</ele>
        <time>2024-05-09T10:36:10Z</time>
      </trkpt>
      <trkpt lat="47.84086" lon="-4.16828">
        <ele>4.3</ele>
        <time>2024-05-09T10:36:13Z</time>
      </trkpt>
      <trkpt lat="47.84096" lon="-4.16823">
        <ele>4</ele>
        <time>2024-05-09T10:36:16Z</time>
      </trkpt>
      <trkpt lat="47.84106" lon="-4.16817">
        <ele>4.1</ele>
        <time>2024-05-09T10:36:19Z</time>
      </trkpt>
      <trkpt lat="47.84116" lon="-4.16809">
        <ele>4.3</ele>
        <time>2024-05-09T10:36:22Z</time>
      </trkpt>
      <trkpt lat="47.84125" lon="-4.16802">
        <ele>4.1</ele>
        <time>2024-05-09T10:36:25Z</time>
      </trkpt>
      <trkpt lat="47.84134" lon="-4.16794">
        <ele>3.6</ele>
        <time>2024-05-09T10:36:28Z</time>
      </trkpt>
      <trkpt lat="47.84144" lon="-4.16787">
        <ele>3.4</ele>
        <time>2024-05-09T10:36:31Z</time>
      </trkpt>
      <trkpt lat="47.84154" lon="-4.16782">
        <ele>3.8</ele>
        <time>2024-05-09T10:36:34Z</time>
      </trkpt>
      <trkpt lat="47.84164" lon="-4.16777">
        <ele>4.6</ele>
        <time>2024-05-09T10:36:37Z</time>
      </trkpt>
      <trkpt lat="47.84173" lon="-4.16773">
        <ele>4.3</ele>
        <time>2024-05-09T10:36:40Z</time>
      </trkpt>
      <trkpt lat="47.84182" lon="-4.16767">
        <ele>3.9</ele>
        <time>2024-05-09T10:36:43Z</time>
      </trkpt>
      <trkpt lat="47.84192" lon="-4.16761">
        <ele>3.7</ele>
        <time>2024-05-09T10:36:46Z</time>
      </trkpt>
      <trkpt lat="47.84203" lon="-4.16756">
        <ele>3.9</ele>
        <time>2024-05-09T10:36:50Z</time>
      </trkpt>
      <trkpt lat="47.84215" lon="-4.16753">
        <ele>4.5</ele>
        <time>2024-05-09T10:36:54Z</time>
      </trkpt>
      <trkpt lat="47.84225" lon="-4.16751">
        <ele>4.9</ele>
        <time>2024-05-09T10:36:57Z</time>
      </trkpt>
      <trkpt lat="47.84236" lon="-4.16751">
        <ele>4.5</ele>
        <time>2024-05-09T10:37:00Z</time>
      </trkpt>
      <trkpt lat="47.84247" lon="-4.16752">
        <ele>4.1</ele>
        <time>2024-05-09T10:37:03Z</time>
      </trkpt>
      <trkpt lat="47.84257" lon="-4.16754">
        <ele>4</ele>
        <time>2024-05-09T10:37:06Z</time>
      </trkpt>
      <trkpt lat="47.84266" lon="-4.16758">
        <ele>4</ele>
        <time>2024-05-09T10:37:09Z</time>
      </trkpt>
      <trkpt lat="47.84277" lon="-4.16757">
        <ele>4</ele>
        <time>2024-05-09T10:37:13Z</time>
      </trkpt>
      <trkpt lat="47.8428" lon="-4.16741">
        <ele>4.3</ele>
        <time>2024-05-09T10:37:17Z</time>
      </trkpt>
      <trkpt lat="47.84279" lon="-4.16727">
        <ele>4.8</ele>
        <time>2024-05-09T10:37:20Z</time>
      </trkpt>
      <trkpt lat="47.84277" lon="-4.16712">
        <ele>5</ele>
        <time>2024-05-09T10:37:24Z</time>
      </trkpt>
      <trkpt lat="47.84277" lon="-4.16697">
        <ele>4.9</ele>
        <time>2024-05-09T10:37:30Z</time>
      </trkpt>
      <trkpt lat="47.84285" lon="-4.16688">
        <ele>4.4</ele>
        <time>2024-05-09T10:37:37Z</time>
      </trkpt>
      <trkpt lat="47.84294" lon="-4.16685">
        <ele>4.4</ele>
        <time>2024-05-09T10:37:48Z</time>
      </trkpt>
      <trkpt lat="47.84302" lon="-4.16679">
        <ele>4.3</ele>
        <time>2024-05-09T10:37:57Z</time>
      </trkpt>
      <trkpt lat="47.84311" lon="-4.16677">
        <ele>4.4</ele>
        <time>2024-05-09T10:38:04Z</time>
      </trkpt>
      <trkpt lat="47.8432" lon="-4.16683">
        <ele>4.5</ele>
        <time>2024-05-09T10:38:18Z</time>
      </trkpt>
      <trkpt lat="47.84319" lon="-4.16696">
        <ele>4.5</ele>
        <time>2024-05-09T10:38:38Z</time>
      </trkpt>
      <trkpt lat="47.84314" lon="-4.16708">
        <ele>4.4</ele>
        <time>2024-05-09T10:38:46Z</time>
      </trkpt>
      <trkpt lat="47.84318" lon="-4.1672">
        <ele>4</ele>
        <time>2024-05-09T10:39:08Z</time>
      </trkpt>
      <trkpt lat="47.84328" lon="-4.16721">
        <ele>4</ele>
        <time>2024-05-09T10:39:13Z</time>
      </trkpt>
      <trkpt lat="47.84337" lon="-4.16722">
        <ele>4</ele>
        <time>2024-05-09T10:39:16Z</time>
      </trkpt>
      <trkpt lat="47.84348" lon="-4.16723">
        <ele>4</ele>
        <time>2024-05-09T10:39:19Z</time>
      </trkpt>
      <trkpt lat="47.84357" lon="-4.16725">
        <ele>4</ele>
        <time>2024-05-09T10:39:22Z</time>
      </trkpt>
      <trkpt lat="47.84366" lon="-4.16726">
        <ele>4</ele>
        <time>2024-05-09T10:39:25Z</time>
      </trkpt>
      <trkpt lat="47.84375" lon="-4.16729">
        <ele>4</ele>
        <time>2024-05-09T10:39:28Z</time>
      </trkpt>
      <trkpt lat="47.84385" lon="-4.16735">
        <ele>4</ele>
        <time>2024-05-09T10:39:32Z</time>
      </trkpt>
      <trkpt lat="47.84395" lon="-4.16743">
        <ele>4</ele>
        <time>2024-05-09T10:39:36Z</time>
      </trkpt>
      <trkpt lat="47.84405" lon="-4.16748">
        <ele>4</ele>
        <time>2024-05-09T10:39:40Z</time>
      </trkpt>
      <trkpt lat="47.84414" lon="-4.16755">
        <ele>4</ele>
        <time>2024-05-09T10:39:44Z</time>
      </trkpt>
      <trkpt lat="47.84422" lon="-4.16763">
        <ele>4</ele>
        <time>2024-05-09T10:39:47Z</time>
      </trkpt>
      <trkpt lat="47.84429" lon="-4.16771">
        <ele>4</ele>
        <time>2024-05-09T10:39:50Z</time>
      </trkpt>
      <trkpt lat="47.84436" lon="-4.1678">
        <ele>4</ele>
        <time>2024-05-09T10:39:53Z</time>
      </trkpt>
      <trkpt lat="47.84444" lon="-4.16787">
        <ele>4</ele>
        <time>2024-05-09T10:39:56Z</time>
      </trkpt>
      <trkpt lat="47.84453" lon="-4.16794">
        <ele>4.1</ele>
        <time>2024-05-09T10:40:00Z</time>
      </trkpt>
      <trkpt lat="47.84462" lon="-4.16801">
        <ele>4.1</ele>
        <time>2024-05-09T10:40:04Z</time>
      </trkpt>
      <trkpt lat="47.84473" lon="-4.16809">
        <ele>4</ele>
        <time>2024-05-09T10:40:08Z</time>
      </trkpt>
      <trkpt lat="47.84481" lon="-4.16815">
        <ele>4.2</ele>
        <time>2024-05-09T10:40:11Z</time>
      </trkpt>
      <trkpt lat="47.8449" lon="-4.16822">
        <ele>4.3</ele>
        <time>2024-05-09T10:40:14Z</time>
      </trkpt>
      <trkpt lat="47.845" lon="-4.16829">
        <ele>4.2</ele>
        <time>2024-05-09T10:40:18Z</time>
      </trkpt>
      <trkpt lat="47.8451" lon="-4.16836">
        <ele>4.4</ele>
        <time>2024-05-09T10:40:22Z</time>
      </trkpt>
      <trkpt lat="47.84519" lon="-4.1684">
        <ele>4.8</ele>
        <time>2024-05-09T10:40:25Z</time>
      </trkpt>
      <trkpt lat="47.8453" lon="-4.16845">
        <ele>5</ele>
        <time>2024-05-09T10:40:29Z</time>
      </trkpt>
      <trkpt lat="47.84541" lon="-4.1685">
        <ele>5</ele>
        <time>2024-05-09T10:40:33Z</time>
      </trkpt>
      <trkpt lat="47.84551" lon="-4.16846">
        <ele>5</ele>
        <time>2024-05-09T10:40:37Z</time>
      </trkpt>
      <trkpt lat="47.84557" lon="-4.16835">
        <ele>5</ele>
        <time>2024-05-09T10:40:40Z</time>
      </trkpt>
      <trkpt lat="47.84555" lon="-4.16821">
        <ele>4.6</ele>
        <time>2024-05-09T10:40:43Z</time>
      </trkpt>
      <trkpt lat="47.84551" lon="-4.16807">
        <ele>4.2</ele>
        <time>2024-05-09T10:40:46Z</time>
      </trkpt>
      <trkpt lat="47.84547" lon="-4.16794">
        <ele>4.3</ele>
        <time>2024-05-09T10:40:49Z</time>
      </trkpt>
      <trkpt lat="47.84542" lon="-4.16779">
        <ele>4.5</ele>
        <time>2024-05-09T10:40:53Z</time>
      </trkpt>
      <trkpt lat="47.84537" lon="-4.16765">
        <ele>4.8</ele>
        <time>2024-05-09T10:40:58Z</time>
      </trkpt>
      <trkpt lat="47.84533" lon="-4.1675">
        <ele>5</ele>
        <time>2024-05-09T10:41:03Z</time>
      </trkpt>
      <trkpt lat="47.8453" lon="-4.16737">
        <ele>5</ele>
        <time>2024-05-09T10:41:07Z</time>
      </trkpt>
      <trkpt lat="47.8453" lon="-4.16723">
        <ele>5</ele>
        <time>2024-05-09T10:41:11Z</time>
      </trkpt>
      <trkpt lat="47.84539" lon="-4.16712">
        <ele>5</ele>
        <time>2024-05-09T10:41:16Z</time>
      </trkpt>
      <trkpt lat="47.84541" lon="-4.16699">
        <ele>5</ele>
        <time>2024-05-09T10:41:21Z</time>
      </trkpt>
      <trkpt lat="47.84545" lon="-4.16687">
        <ele>5</ele>
        <time>2024-05-09T10:41:27Z</time>
      </trkpt>
      <trkpt lat="47.84544" lon="-4.16671">
        <ele>5</ele>
        <time>2024-05-09T10:41:31Z</time>
      </trkpt>
      <trkpt lat="47.84551" lon="-4.1666">
        <ele>5</ele>
        <time>2024-05-09T10:41:34Z</time>
      </trkpt>
      <trkpt lat="47.84561" lon="-4.16651">
        <ele>5</ele>
        <time>2024-05-09T10:41:37Z</time>
      </trkpt>
      <trkpt lat="47.84569" lon="-4.16644">
        <ele>5</ele>
        <time>2024-05-09T10:41:40Z</time>
      </trkpt>
      <trkpt lat="47.84579" lon="-4.16636">
        <ele>5</ele>
        <time>2024-05-09T10:41:44Z</time>
      </trkpt>
      <trkpt lat="47.84589" lon="-4.16628">
        <ele>5</ele>
        <time>2024-05-09T10:41:48Z</time>
      </trkpt>
      <trkpt lat="47.84599" lon="-4.16618">
        <ele>5</ele>
        <time>2024-05-09T10:41:52Z</time>
      </trkpt>
      <trkpt lat="47.84608" lon="-4.16611">
        <ele>5</ele>
        <time>2024-05-09T10:41:55Z</time>
      </trkpt>
      <trkpt lat="47.84618" lon="-4.16604">
        <ele>5</ele>
        <time>2024-05-09T10:41:59Z</time>
      </trkpt>
      <trkpt lat="47.84626" lon="-4.16597">
        <ele>5</ele>
        <time>2024-05-09T10:42:03Z</time>
      </trkpt>
      <trkpt lat="47.84636" lon="-4.16589">
        <ele>5</ele>
        <time>2024-05-09T10:42:07Z</time>
      </trkpt>
      <trkpt lat="47.84644" lon="-4.16582">
        <ele>5</ele>
        <time>2024-05-09T10:42:11Z</time>
      </trkpt>
      <trkpt lat="47.84653" lon="-4.16572">
        <ele>5</ele>
        <time>2024-05-09T10:42:16Z</time>
      </trkpt>
      <trkpt lat="47.84661" lon="-4.16565">
        <ele>5</ele>
        <time>2024-05-09T10:42:21Z</time>
      </trkpt>
      <trkpt lat="47.8467" lon="-4.16559">
        <ele>5</ele>
        <time>2024-05-09T10:42:28Z</time>
      </trkpt>
      <trkpt lat="47.84679" lon="-4.16552">
        <ele>5</ele>
        <time>2024-05-09T10:42:34Z</time>
      </trkpt>
      <trkpt lat="47.84687" lon="-4.16545">
        <ele>5</ele>
        <time>2024-05-09T10:42:38Z</time>
      </trkpt>
      <trkpt lat="47.84697" lon="-4.16537">
        <ele>5</ele>
        <time>2024-05-09T10:42:42Z</time>
      </trkpt>
      <trkpt lat="47.84706" lon="-4.16528">
        <ele>5</ele>
        <time>2024-05-09T10:42:46Z</time>
      </trkpt>
      <trkpt lat="47.84715" lon="-4.16519">
        <ele>5</ele>
        <time>2024-05-09T10:42:50Z</time>
      </trkpt>
      <trkpt lat="47.84725" lon="-4.16512">
        <ele>5</ele>
        <time>2024-05-09T10:42:54Z</time>
      </trkpt>
      <trkpt lat="47.84736" lon="-4.16504">
        <ele>5</ele>
        <time>2024-05-09T10:42:58Z</time>
      </trkpt>
      <trkpt lat="47.84746" lon="-4.16495">
        <ele>5</ele>
        <time>2024-05-09T10:43:02Z</time>
      </trkpt>
      <trkpt lat="47.84754" lon="-4.16488">
        <ele>5</ele>
        <time>2024-05-09T10:43:05Z</time>
      </trkpt>
      <trkpt lat="47.84762" lon="-4.16482">
        <ele>5</ele>
        <time>2024-05-09T10:43:08Z</time>
      </trkpt>
      <trkpt lat="47.84771" lon="-4.16474">
        <ele>5</ele>
        <time>2024-05-09T10:43:11Z</time>
      </trkpt>
      <trkpt lat="47.84779" lon="-4.16467">
        <ele>5</ele>
        <time>2024-05-09T10:43:14Z</time>
      </trkpt>
      <trkpt lat="47.84789" lon="-4.16458">
        <ele>5</ele>
        <time>2024-05-09T10:43:18Z</time>
      </trkpt>
      <trkpt lat="47.84798" lon="-4.16448">
        <ele>5</ele>
        <time>2024-05-09T10:43:22Z</time>
      </trkpt>
      <trkpt lat="47.84806" lon="-4.16439">
        <ele>5</ele>
        <time>2024-05-09T10:43:26Z</time>
      </trkpt>
      <trkpt lat="47.84814" lon="-4.16428">
        <ele>5</ele>
        <time>2024-05-09T10:43:30Z</time>
      </trkpt>
      <trkpt lat="47.84822" lon="-4.16419">
        <ele>5</ele>
        <time>2024-05-09T10:43:33Z</time>
      </trkpt>
      <trkpt lat="47.84829" lon="-4.16408">
        <ele>5</ele>
        <time>2024-05-09T10:43:36Z</time>
      </trkpt>
      <trkpt lat="47.84837" lon="-4.16398">
        <ele>5</ele>
        <time>2024-05-09T10:43:39Z</time>
      </trkpt>
      <trkpt lat="47.84844" lon="-4.16388">
        <ele>5</ele>
        <time>2024-05-09T10:43:42Z</time>
      </trkpt>
      <trkpt lat="47.8485" lon="-4.16378">
        <ele>5</ele>
        <time>2024-05-09T10:43:45Z</time>
      </trkpt>
      <trkpt lat="47.84857" lon="-4.16367">
        <ele>5</ele>
        <time>2024-05-09T10:43:48Z</time>
      </trkpt>
      <trkpt lat="47.84864" lon="-4.16357">
        <ele>5</ele>
        <time>2024-05-09T10:43:51Z</time>
      </trkpt>
      <trkpt lat="47.84871" lon="-4.16346">
        <ele>5</ele>
        <time>2024-05-09T10:43:54Z</time>
      </trkpt>
      <trkpt lat="47.84878" lon="-4.16336">
        <ele>5</ele>
        <time>2024-05-09T10:43:57Z</time>
      </trkpt>
      <trkpt lat="47.84886" lon="-4.16326">
        <ele>5.2</ele>
        <time>2024-05-09T10:44:00Z</time>
      </trkpt>
      <trkpt lat="47.84894" lon="-4.16316">
        <ele>5.5</ele>
        <time>2024-05-09T10:44:03Z</time>
      </trkpt>
      <trkpt lat="47.84901" lon="-4.16305">
        <ele>5.6</ele>
        <time>2024-05-09T10:44:06Z</time>
      </trkpt>
      <trkpt lat="47.84908" lon="-4.16293">
        <ele>5.5</ele>
        <time>2024-05-09T10:44:09Z</time>
      </trkpt>
      <trkpt lat="47.84916" lon="-4.16282">
        <ele>5.8</ele>
        <time>2024-05-09T10:44:12Z</time>
      </trkpt>
      <trkpt lat="47.84923" lon="-4.16271">
        <ele>5.6</ele>
        <time>2024-05-09T10:44:15Z</time>
      </trkpt>
      <trkpt lat="47.84931" lon="-4.1626">
        <ele>5.5</ele>
        <time>2024-05-09T10:44:18Z</time>
      </trkpt>
      <trkpt lat="47.84938" lon="-4.16249">
        <ele>5.7</ele>
        <time>2024-05-09T10:44:21Z</time>
      </trkpt>
      <trkpt lat="47.84945" lon="-4.16237">
        <ele>5.5</ele>
        <time>2024-05-09T10:44:24Z</time>
      </trkpt>
      <trkpt lat="47.84952" lon="-4.16224">
        <ele>5</ele>
        <time>2024-05-09T10:44:27Z</time>
      </trkpt>
      <trkpt lat="47.84958" lon="-4.16211">
        <ele>5.2</ele>
        <time>2024-05-09T10:44:30Z</time>
      </trkpt>
      <trkpt lat="47.84964" lon="-4.16197">
        <ele>5.6</ele>
        <time>2024-05-09T10:44:33Z</time>
      </trkpt>
      <trkpt lat="47.8497" lon="-4.16185">
        <ele>5.9</ele>
        <time>2024-05-09T10:44:36Z</time>
      </trkpt>
      <trkpt lat="47.84977" lon="-4.16171">
        <ele>5.8</ele>
        <time>2024-05-09T10:44:39Z</time>
      </trkpt>
      <trkpt lat="47.84983" lon="-4.16157">
        <ele>5.7</ele>
        <time>2024-05-09T10:44:42Z</time>
      </trkpt>
      <trkpt lat="47.84988" lon="-4.16145">
        <ele>5.9</ele>
        <time>2024-05-09T10:44:45Z</time>
      </trkpt>
      <trkpt lat="47.84994" lon="-4.16131">
        <ele>5.9</ele>
        <time>2024-05-09T10:44:48Z</time>
      </trkpt>
      <trkpt lat="47.84998" lon="-4.16119">
        <ele>5.9</ele>
        <time>2024-05-09T10:44:51Z</time>
      </trkpt>
      <trkpt lat="47.85003" lon="-4.16106">
        <ele>5.9</ele>
        <time>2024-05-09T10:44:54Z</time>
      </trkpt>
      <trkpt lat="47.85009" lon="-4.16093">
        <ele>5.9</ele>
        <time>2024-05-09T10:44:57Z</time>
      </trkpt>
      <trkpt lat="47.85015" lon="-4.16081">
        <ele>6</ele>
        <time>2024-05-09T10:45:00Z</time>
      </trkpt>
      <trkpt lat="47.8502" lon="-4.16068">
        <ele>5.9</ele>
        <time>2024-05-09T10:45:03Z</time>
      </trkpt>
      <trkpt lat="47.85026" lon="-4.16055">
        <ele>5.9</ele>
        <time>2024-05-09T10:45:06Z</time>
      </trkpt>
      <trkpt lat="47.85031" lon="-4.16042">
        <ele>5.5</ele>
        <time>2024-05-09T10:45:09Z</time>
      </trkpt>
      <trkpt lat="47.85036" lon="-4.16029">
        <ele>5</ele>
        <time>2024-05-09T10:45:12Z</time>
      </trkpt>
      <trkpt lat="47.85041" lon="-4.16014">
        <ele>5.2</ele>
        <time>2024-05-09T10:45:15Z</time>
      </trkpt>
      <trkpt lat="47.85047" lon="-4.16">
        <ele>5.7</ele>
        <time>2024-05-09T10:45:18Z</time>
      </trkpt>
      <trkpt lat="47.85052" lon="-4.15987">
        <ele>5.9</ele>
        <time>2024-05-09T10:45:21Z</time>
      </trkpt>
      <trkpt lat="47.85057" lon="-4.15974">
        <ele>6</ele>
        <time>2024-05-09T10:45:24Z</time>
      </trkpt>
      <trkpt lat="47.85062" lon="-4.1596">
        <ele>6</ele>
        <time>2024-05-09T10:45:27Z</time>
      </trkpt>
      <trkpt lat="47.85066" lon="-4.15945">
        <ele>6</ele>
        <time>2024-05-09T10:45:30Z</time>
      </trkpt>
      <trkpt lat="47.8507" lon="-4.15931">
        <ele>5.8</ele>
        <time>2024-05-09T10:45:33Z</time>
      </trkpt>
      <trkpt lat="47.85074" lon="-4.15918">
        <ele>5.7</ele>
        <time>2024-05-09T10:45:36Z</time>
      </trkpt>
      <trkpt lat="47.8508" lon="-4.15904">
        <ele>5.9</ele>
        <time>2024-05-09T10:45:39Z</time>
      </trkpt>
      <trkpt lat="47.85084" lon="-4.15888">
        <ele>6</ele>
        <time>2024-05-09T10:45:42Z</time>
      </trkpt>
      <trkpt lat="47.85088" lon="-4.15873">
        <ele>5.8</ele>
        <time>2024-05-09T10:45:45Z</time>
      </trkpt>
      <trkpt lat="47.85092" lon="-4.15859">
        <ele>5.6</ele>
        <time>2024-05-09T10:45:48Z</time>
      </trkpt>
      <trkpt lat="47.85095" lon="-4.15845">
        <ele>5.2</ele>
        <time>2024-05-09T10:45:51Z</time>
      </trkpt>
      <trkpt lat="47.85099" lon="-4.1583">
        <ele>4.9</ele>
        <time>2024-05-09T10:45:54Z</time>
      </trkpt>
      <trkpt lat="47.85103" lon="-4.15814">
        <ele>4.8</ele>
        <time>2024-05-09T10:45:57Z</time>
      </trkpt>
      <trkpt lat="47.85106" lon="-4.15799">
        <ele>4.8</ele>
        <time>2024-05-09T10:46:00Z</time>
      </trkpt>
      <trkpt lat="47.85109" lon="-4.15784">
        <ele>4.9</ele>
        <time>2024-05-09T10:46:03Z</time>
      </trkpt>
      <trkpt lat="47.85113" lon="-4.15771">
        <ele>5</ele>
        <time>2024-05-09T10:46:06Z</time>
      </trkpt>
      <trkpt lat="47.85116" lon="-4.15758">
        <ele>5</ele>
        <time>2024-05-09T10:46:09Z</time>
      </trkpt>
      <trkpt lat="47.85121" lon="-4.15745">
        <ele>4.9</ele>
        <time>2024-05-09T10:46:12Z</time>
      </trkpt>
      <trkpt lat="47.85127" lon="-4.15732">
        <ele>4.7</ele>
        <time>2024-05-09T10:46:15Z</time>
      </trkpt>
      <trkpt lat="47.85133" lon="-4.1572">
        <ele>4.8</ele>
        <time>2024-05-09T10:46:18Z</time>
      </trkpt>
      <trkpt lat="47.8514" lon="-4.15709">
        <ele>5</ele>
        <time>2024-05-09T10:46:22Z</time>
      </trkpt>
      <trkpt lat="47.85146" lon="-4.15699">
        <ele>5</ele>
        <time>2024-05-09T10:46:26Z</time>
      </trkpt>
      <trkpt lat="47.85151" lon="-4.15686">
        <ele>4.7</ele>
        <time>2024-05-09T10:46:30Z</time>
      </trkpt>
      <trkpt lat="47.85157" lon="-4.15673">
        <ele>4.4</ele>
        <time>2024-05-09T10:46:34Z</time>
      </trkpt>
      <trkpt lat="47.85164" lon="-4.15662">
        <ele>4.5</ele>
        <time>2024-05-09T10:46:38Z</time>
      </trkpt>
      <trkpt lat="47.85171" lon="-4.15654">
        <ele>4.1</ele>
        <time>2024-05-09T10:46:41Z</time>
      </trkpt>
      <trkpt lat="47.8518" lon="-4.15645">
        <ele>4.1</ele>
        <time>2024-05-09T10:46:44Z</time>
      </trkpt>
      <trkpt lat="47.85188" lon="-4.15636">
        <ele>4.5</ele>
        <time>2024-05-09T10:46:47Z</time>
      </trkpt>
      <trkpt lat="47.85196" lon="-4.15627">
        <ele>4.6</ele>
        <time>2024-05-09T10:46:50Z</time>
      </trkpt>
      <trkpt lat="47.85204" lon="-4.15618">
        <ele>4.4</ele>
        <time>2024-05-09T10:46:53Z</time>
      </trkpt>
      <trkpt lat="47.85212" lon="-4.15607">
        <ele>4.4</ele>
        <time>2024-05-09T10:46:56Z</time>
      </trkpt>
      <trkpt lat="47.85221" lon="-4.15595">
        <ele>4.3</ele>
        <time>2024-05-09T10:46:59Z</time>
      </trkpt>
      <trkpt lat="47.85229" lon="-4.15584">
        <ele>4.5</ele>
        <time>2024-05-09T10:47:02Z</time>
      </trkpt>
      <trkpt lat="47.85236" lon="-4.15573">
        <ele>4.6</ele>
        <time>2024-05-09T10:47:05Z</time>
      </trkpt>
      <trkpt lat="47.85244" lon="-4.15562">
        <ele>5.2</ele>
        <time>2024-05-09T10:47:08Z</time>
      </trkpt>
      <trkpt lat="47.8525" lon="-4.15551">
        <ele>5.5</ele>
        <time>2024-05-09T10:47:11Z</time>
      </trkpt>
      <trkpt lat="47.85257" lon="-4.15541">
        <ele>4.8</ele>
        <time>2024-05-09T10:47:14Z</time>
      </trkpt>
      <trkpt lat="47.85264" lon="-4.15531">
        <ele>4.7</ele>
        <time>2024-05-09T10:47:17Z</time>
      </trkpt>
      <trkpt lat="47.8527" lon="-4.15521">
        <ele>5</ele>
        <time>2024-05-09T10:47:20Z</time>
      </trkpt>
      <trkpt lat="47.85277" lon="-4.15512">
        <ele>5.3</ele>
        <time>2024-05-09T10:47:23Z</time>
      </trkpt>
      <trkpt lat="47.85283" lon="-4.15502">
        <ele>5.1</ele>
        <time>2024-05-09T10:47:26Z</time>
      </trkpt>
      <trkpt lat="47.8529" lon="-4.15491">
        <ele>4.6</ele>
        <time>2024-05-09T10:47:29Z</time>
      </trkpt>
      <trkpt lat="47.85296" lon="-4.15481">
        <ele>4.7</ele>
        <time>2024-05-09T10:47:32Z</time>
      </trkpt>
      <trkpt lat="47.85303" lon="-4.15471">
        <ele>5.5</ele>
        <time>2024-05-09T10:47:35Z</time>
      </trkpt>
      <trkpt lat="47.85309" lon="-4.1546">
        <ele>5.2</ele>
        <time>2024-05-09T10:47:38Z</time>
      </trkpt>
      <trkpt lat="47.85316" lon="-4.15448">
        <ele>4.9</ele>
        <time>2024-05-09T10:47:41Z</time>
      </trkpt>
      <trkpt lat="47.85323" lon="-4.15438">
        <ele>5.1</ele>
        <time>2024-05-09T10:47:44Z</time>
      </trkpt>
      <trkpt lat="47.8533" lon="-4.15428">
        <ele>5.6</ele>
        <time>2024-05-09T10:47:47Z</time>
      </trkpt>
      <trkpt lat="47.85336" lon="-4.15418">
        <ele>6</ele>
        <time>2024-05-09T10:47:50Z</time>
      </trkpt>
      <trkpt lat="47.85341" lon="-4.15405">
        <ele>5.1</ele>
        <time>2024-05-09T10:47:53Z</time>
      </trkpt>
      <trkpt lat="47.85348" lon="-4.15394">
        <ele>4.9</ele>
        <time>2024-05-09T10:47:56Z</time>
      </trkpt>
      <trkpt lat="47.85354" lon="-4.15382">
        <ele>5</ele>
        <time>2024-05-09T10:47:59Z</time>
      </trkpt>
      <trkpt lat="47.85361" lon="-4.1537">
        <ele>5.3</ele>
        <time>2024-05-09T10:48:02Z</time>
      </trkpt>
      <trkpt lat="47.85367" lon="-4.15359">
        <ele>5.1</ele>
        <time>2024-05-09T10:48:05Z</time>
      </trkpt>
      <trkpt lat="47.85374" lon="-4.15348">
        <ele>4.9</ele>
        <time>2024-05-09T10:48:08Z</time>
      </trkpt>
      <trkpt lat="47.8538" lon="-4.15336">
        <ele>5.1</ele>
        <time>2024-05-09T10:48:11Z</time>
      </trkpt>
      <trkpt lat="47.85386" lon="-4.15324">
        <ele>5.3</ele>
        <time>2024-05-09T10:48:14Z</time>
      </trkpt>
      <trkpt lat="47.85392" lon="-4.15313">
        <ele>5.3</ele>
        <time>2024-05-09T10:48:17Z</time>
      </trkpt>
      <trkpt lat="47.85398" lon="-4.15301">
        <ele>5.1</ele>
        <time>2024-05-09T10:48:20Z</time>
      </trkpt>
      <trkpt lat="47.85403" lon="-4.1529">
        <ele>5</ele>
        <time>2024-05-09T10:48:23Z</time>
      </trkpt>
      <trkpt lat="47.8541" lon="-4.15276">
        <ele>5.8</ele>
        <time>2024-05-09T10:48:27Z</time>
      </trkpt>
      <trkpt lat="47.85416" lon="-4.15265">
        <ele>6</ele>
        <time>2024-05-09T10:48:30Z</time>
      </trkpt>
      <trkpt lat="47.85423" lon="-4.15252">
        <ele>5.3</ele>
        <time>2024-05-09T10:48:34Z</time>
      </trkpt>
      <trkpt lat="47.85429" lon="-4.15239">
        <ele>5</ele>
        <time>2024-05-09T10:48:38Z</time>
      </trkpt>
      <trkpt lat="47.85435" lon="-4.15226">
        <ele>5.3</ele>
        <time>2024-05-09T10:48:42Z</time>
      </trkpt>
      <trkpt lat="47.85441" lon="-4.15214">
        <ele>5.9</ele>
        <time>2024-05-09T10:48:46Z</time>
      </trkpt>
      <trkpt lat="47.85446" lon="-4.15202">
        <ele>5.5</ele>
        <time>2024-05-09T10:48:49Z</time>
      </trkpt>
      <trkpt lat="47.85452" lon="-4.15189">
        <ele>5.1</ele>
        <time>2024-05-09T10:48:52Z</time>
      </trkpt>
      <trkpt lat="47.85459" lon="-4.15177">
        <ele>5.2</ele>
        <time>2024-05-09T10:48:55Z</time>
      </trkpt>
      <trkpt lat="47.85464" lon="-4.15166">
        <ele>5.9</ele>
        <time>2024-05-09T10:48:58Z</time>
      </trkpt>
      <trkpt lat="47.8547" lon="-4.15155">
        <ele>5.5</ele>
        <time>2024-05-09T10:49:02Z</time>
      </trkpt>
      <trkpt lat="47.85478" lon="-4.15148">
        <ele>5.1</ele>
        <time>2024-05-09T10:49:16Z</time>
      </trkpt>
      <trkpt lat="47.85481" lon="-4.15135">
        <ele>4.4</ele>
        <time>2024-05-09T10:51:08Z</time>
      </trkpt>
      <trkpt lat="47.85476" lon="-4.15122">
        <ele>3.2</ele>
        <time>2024-05-09T10:51:19Z</time>
      </trkpt>
      <trkpt lat="47.85475" lon="-4.15109">
        <ele>2.3</ele>
        <time>2024-05-09T10:51:39Z</time>
      </trkpt>
      <trkpt lat="47.8548" lon="-4.15093">
        <ele>2.5</ele>
        <time>2024-05-09T10:51:43Z</time>
      </trkpt>
      <trkpt lat="47.85485" lon="-4.15081">
        <ele>2.4</ele>
        <time>2024-05-09T10:51:46Z</time>
      </trkpt>
      <trkpt lat="47.85492" lon="-4.1507">
        <ele>2.2</ele>
        <time>2024-05-09T10:51:50Z</time>
      </trkpt>
      <trkpt lat="47.85496" lon="-4.15055">
        <ele>1.9</ele>
        <time>2024-05-09T10:51:55Z</time>
      </trkpt>
      <trkpt lat="47.855" lon="-4.15042">
        <ele>2</ele>
        <time>2024-05-09T10:51:59Z</time>
      </trkpt>
      <trkpt lat="47.85505" lon="-4.15031">
        <ele>2.2</ele>
        <time>2024-05-09T10:52:03Z</time>
      </trkpt>
      <trkpt lat="47.85511" lon="-4.15018">
        <ele>2.4</ele>
        <time>2024-05-09T10:52:07Z</time>
      </trkpt>
      <trkpt lat="47.85516" lon="-4.15006">
        <ele>2.6</ele>
        <time>2024-05-09T10:52:11Z</time>
      </trkpt>
      <trkpt lat="47.85522" lon="-4.14995">
        <ele>2.6</ele>
        <time>2024-05-09T10:52:15Z</time>
      </trkpt>
      <trkpt lat="47.85528" lon="-4.14982">
        <ele>2.4</ele>
        <time>2024-05-09T10:52:19Z</time>
      </trkpt>
      <trkpt lat="47.85533" lon="-4.14969">
        <ele>2.4</ele>
        <time>2024-05-09T10:52:23Z</time>
      </trkpt>
      <trkpt lat="47.85538" lon="-4.14956">
        <ele>2.5</ele>
        <time>2024-05-09T10:52:27Z</time>
      </trkpt>
      <trkpt lat="47.85544" lon="-4.14943">
        <ele>2.5</ele>
        <time>2024-05-09T10:52:31Z</time>
      </trkpt>
      <trkpt lat="47.8555" lon="-4.1493">
        <ele>2.3</ele>
        <time>2024-05-09T10:52:35Z</time>
      </trkpt>
      <trkpt lat="47.85555" lon="-4.14918">
        <ele>2</ele>
        <time>2024-05-09T10:52:39Z</time>
      </trkpt>
      <trkpt lat="47.8556" lon="-4.14904">
        <ele>2.3</ele>
        <time>2024-05-09T10:52:43Z</time>
      </trkpt>
      <trkpt lat="47.85566" lon="-4.1489">
        <ele>2.4</ele>
        <time>2024-05-09T10:52:47Z</time>
      </trkpt>
      <trkpt lat="47.8557" lon="-4.14877">
        <ele>2.3</ele>
        <time>2024-05-09T10:52:51Z</time>
      </trkpt>
      <trkpt lat="47.85574" lon="-4.14862">
        <ele>2</ele>
        <time>2024-05-09T10:52:55Z</time>
      </trkpt>
      <trkpt lat="47.85579" lon="-4.14848">
        <ele>1.9</ele>
        <time>2024-05-09T10:52:59Z</time>
      </trkpt>
      <trkpt lat="47.85584" lon="-4.14835">
        <ele>2</ele>
        <time>2024-05-09T10:53:03Z</time>
      </trkpt>
      <trkpt lat="47.8559" lon="-4.14821">
        <ele>2.2</ele>
        <time>2024-05-09T10:53:07Z</time>
      </trkpt>
      <trkpt lat="47.85597" lon="-4.14807">
        <ele>2.5</ele>
        <time>2024-05-09T10:53:11Z</time>
      </trkpt>
      <trkpt lat="47.85601" lon="-4.14791">
        <ele>2.1</ele>
        <time>2024-05-09T10:53:15Z</time>
      </trkpt>
      <trkpt lat="47.85606" lon="-4.14777">
        <ele>1.8</ele>
        <time>2024-05-09T10:53:19Z</time>
      </trkpt>
      <trkpt lat="47.85611" lon="-4.14762">
        <ele>2</ele>
        <time>2024-05-09T10:53:23Z</time>
      </trkpt>
      <trkpt lat="47.85616" lon="-4.14748">
        <ele>2.1</ele>
        <time>2024-05-09T10:53:27Z</time>
      </trkpt>
      <trkpt lat="47.85622" lon="-4.14733">
        <ele>1.8</ele>
        <time>2024-05-09T10:53:31Z</time>
      </trkpt>
      <trkpt lat="47.85628" lon="-4.14719">
        <ele>1.6</ele>
        <time>2024-05-09T10:53:35Z</time>
      </trkpt>
      <trkpt lat="47.85634" lon="-4.14705">
        <ele>1.8</ele>
        <time>2024-05-09T10:53:39Z</time>
      </trkpt>
      <trkpt lat="47.85639" lon="-4.14691">
        <ele>1.9</ele>
        <time>2024-05-09T10:53:43Z</time>
      </trkpt>
      <trkpt lat="47.85645" lon="-4.14676">
        <ele>1.6</ele>
        <time>2024-05-09T10:53:47Z</time>
      </trkpt>
      <trkpt lat="47.85651" lon="-4.14661">
        <ele>1.4</ele>
        <time>2024-05-09T10:53:51Z</time>
      </trkpt>
      <trkpt lat="47.85656" lon="-4.14646">
        <ele>1.6</ele>
        <time>2024-05-09T10:53:55Z</time>
      </trkpt>
      <trkpt lat="47.85662" lon="-4.14631">
        <ele>1.8</ele>
        <time>2024-05-09T10:53:59Z</time>
      </trkpt>
      <trkpt lat="47.85669" lon="-4.14617">
        <ele>2.1</ele>
        <time>2024-05-09T10:54:03Z</time>
      </trkpt>
      <trkpt lat="47.85675" lon="-4.14603">
        <ele>2</ele>
        <time>2024-05-09T10:54:07Z</time>
      </trkpt>
      <trkpt lat="47.85683" lon="-4.1459">
        <ele>1.8</ele>
        <time>2024-05-09T10:54:11Z</time>
      </trkpt>
      <trkpt lat="47.85689" lon="-4.14576">
        <ele>1.8</ele>
        <time>2024-05-09T10:54:15Z</time>
      </trkpt>
      <trkpt lat="47.85696" lon="-4.14561">
        <ele>2.1</ele>
        <time>2024-05-09T10:54:19Z</time>
      </trkpt>
      <trkpt lat="47.85703" lon="-4.14548">
        <ele>2</ele>
        <time>2024-05-09T10:54:23Z</time>
      </trkpt>
      <trkpt lat="47.85708" lon="-4.14535">
        <ele>1.7</ele>
        <time>2024-05-09T10:54:26Z</time>
      </trkpt>
      <trkpt lat="47.85714" lon="-4.14521">
        <ele>1.7</ele>
        <time>2024-05-09T10:54:30Z</time>
      </trkpt>
      <trkpt lat="47.85719" lon="-4.14506">
        <ele>1.9</ele>
        <time>2024-05-09T10:54:34Z</time>
      </trkpt>
      <trkpt lat="47.85725" lon="-4.14492">
        <ele>1.8</ele>
        <time>2024-05-09T10:54:38Z</time>
      </trkpt>
      <trkpt lat="47.85731" lon="-4.14476">
        <ele>1.4</ele>
        <time>2024-05-09T10:54:42Z</time>
      </trkpt>
      <trkpt lat="47.85736" lon="-4.14462">
        <ele>1.5</ele>
        <time>2024-05-09T10:54:45Z</time>
      </trkpt>
      <trkpt lat="47.85741" lon="-4.14449">
        <ele>1.7</ele>
        <time>2024-05-09T10:54:48Z</time>
      </trkpt>
      <trkpt lat="47.85745" lon="-4.14436">
        <ele>1.6</ele>
        <time>2024-05-09T10:54:51Z</time>
      </trkpt>
      <trkpt lat="47.8575" lon="-4.14425">
        <ele>1.3</ele>
        <time>2024-05-09T10:54:54Z</time>
      </trkpt>
      <trkpt lat="47.85756" lon="-4.14413">
        <ele>1.2</ele>
        <time>2024-05-09T10:54:57Z</time>
      </trkpt>
      <trkpt lat="47.85762" lon="-4.144">
        <ele>1.4</ele>
        <time>2024-05-09T10:55:00Z</time>
      </trkpt>
      <trkpt lat="47.85767" lon="-4.14387">
        <ele>1.6</ele>
        <time>2024-05-09T10:55:03Z</time>
      </trkpt>
      <trkpt lat="47.85772" lon="-4.14374">
        <ele>1.4</ele>
        <time>2024-05-09T10:55:06Z</time>
      </trkpt>
      <trkpt lat="47.85778" lon="-4.14362">
        <ele>1</ele>
        <time>2024-05-09T10:55:09Z</time>
      </trkpt>
      <trkpt lat="47.85783" lon="-4.1435">
        <ele>1.3</ele>
        <time>2024-05-09T10:55:12Z</time>
      </trkpt>
      <trkpt lat="47.85788" lon="-4.14337">
        <ele>1.4</ele>
        <time>2024-05-09T10:55:15Z</time>
      </trkpt>
      <trkpt lat="47.85793" lon="-4.14325">
        <ele>1.4</ele>
        <time>2024-05-09T10:55:18Z</time>
      </trkpt>
      <trkpt lat="47.85799" lon="-4.14312">
        <ele>1.2</ele>
        <time>2024-05-09T10:55:21Z</time>
      </trkpt>
      <trkpt lat="47.85804" lon="-4.14298">
        <ele>1</ele>
        <time>2024-05-09T10:55:24Z</time>
      </trkpt>
      <trkpt lat="47.85809" lon="-4.14285">
        <ele>1.2</ele>
        <time>2024-05-09T10:55:27Z</time>
      </trkpt>
      <trkpt lat="47.85814" lon="-4.14272">
        <ele>1.2</ele>
        <time>2024-05-09T10:55:30Z</time>
      </trkpt>
      <trkpt lat="47.85818" lon="-4.14258">
        <ele>1.1</ele>
        <time>2024-05-09T10:55:33Z</time>
      </trkpt>
      <trkpt lat="47.85824" lon="-4.14246">
        <ele>1</ele>
        <time>2024-05-09T10:55:36Z</time>
      </trkpt>
      <trkpt lat="47.85829" lon="-4.14233">
        <ele>1</ele>
        <time>2024-05-09T10:55:39Z</time>
      </trkpt>
      <trkpt lat="47.85834" lon="-4.14219">
        <ele>1</ele>
        <time>2024-05-09T10:55:42Z</time>
      </trkpt>
      <trkpt lat="47.85839" lon="-4.14206">
        <ele>1.2</ele>
        <time>2024-05-09T10:55:45Z</time>
      </trkpt>
      <trkpt lat="47.85845" lon="-4.14192">
        <ele>1.4</ele>
        <time>2024-05-09T10:55:48Z</time>
      </trkpt>
      <trkpt lat="47.8585" lon="-4.14179">
        <ele>1.3</ele>
        <time>2024-05-09T10:55:51Z</time>
      </trkpt>
      <trkpt lat="47.85854" lon="-4.14166">
        <ele>1</ele>
        <time>2024-05-09T10:55:54Z</time>
      </trkpt>
      <trkpt lat="47.85859" lon="-4.14155">
        <ele>1</ele>
        <time>2024-05-09T10:55:57Z</time>
      </trkpt>
      <trkpt lat="47.85864" lon="-4.14142">
        <ele>1.1</ele>
        <time>2024-05-09T10:56:00Z</time>
      </trkpt>
      <trkpt lat="47.85869" lon="-4.14127">
        <ele>1.2</ele>
        <time>2024-05-09T10:56:04Z</time>
      </trkpt>
      <trkpt lat="47.85873" lon="-4.14114">
        <ele>1.1</ele>
        <time>2024-05-09T10:56:07Z</time>
      </trkpt>
      <trkpt lat="47.85878" lon="-4.14102">
        <ele>1</ele>
        <time>2024-05-09T10:56:10Z</time>
      </trkpt>
      <trkpt lat="47.85882" lon="-4.14089">
        <ele>1</ele>
        <time>2024-05-09T10:56:13Z</time>
      </trkpt>
      <trkpt lat="47.85887" lon="-4.14076">
        <ele>1</ele>
        <time>2024-05-09T10:56:16Z</time>
      </trkpt>
      <trkpt lat="47.85892" lon="-4.14063">
        <ele>1.1</ele>
        <time>2024-05-09T10:56:19Z</time>
      </trkpt>
      <trkpt lat="47.85897" lon="-4.1405">
        <ele>1.2</ele>
        <time>2024-05-09T10:56:22Z</time>
      </trkpt>
      <trkpt lat="47.85902" lon="-4.14037">
        <ele>1.1</ele>
        <time>2024-05-09T10:56:25Z</time>
      </trkpt>
      <trkpt lat="47.85906" lon="-4.14023">
        <ele>1</ele>
        <time>2024-05-09T10:56:28Z</time>
      </trkpt>
      <trkpt lat="47.8591" lon="-4.1401">
        <ele>1</ele>
        <time>2024-05-09T10:56:31Z</time>
      </trkpt>
      <trkpt lat="47.85914" lon="-4.13998">
        <ele>1</ele>
        <time>2024-05-09T10:56:34Z</time>
      </trkpt>
      <trkpt lat="47.85919" lon="-4.13984">
        <ele>1.6</ele>
        <time>2024-05-09T10:56:37Z</time>
      </trkpt>
      <trkpt lat="47.85922" lon="-4.13971">
        <ele>2</ele>
        <time>2024-05-09T10:56:40Z</time>
      </trkpt>
      <trkpt lat="47.85927" lon="-4.13958">
        <ele>1.5</ele>
        <time>2024-05-09T10:56:43Z</time>
      </trkpt>
      <trkpt lat="47.85931" lon="-4.13945">
        <ele>1</ele>
        <time>2024-05-09T10:56:46Z</time>
      </trkpt>
      <trkpt lat="47.85936" lon="-4.13932">
        <ele>1</ele>
        <time>2024-05-09T10:56:49Z</time>
      </trkpt>
      <trkpt lat="47.85941" lon="-4.13918">
        <ele>1</ele>
        <time>2024-05-09T10:56:52Z</time>
      </trkpt>
      <trkpt lat="47.85945" lon="-4.13905">
        <ele>1</ele>
        <time>2024-05-09T10:56:55Z</time>
      </trkpt>
      <trkpt lat="47.8595" lon="-4.13892">
        <ele>1</ele>
        <time>2024-05-09T10:56:58Z</time>
      </trkpt>
      <trkpt lat="47.85955" lon="-4.13878">
        <ele>1</ele>
        <time>2024-05-09T10:57:01Z</time>
      </trkpt>
      <trkpt lat="47.8596" lon="-4.13864">
        <ele>1</ele>
        <time>2024-05-09T10:57:04Z</time>
      </trkpt>
      <trkpt lat="47.85964" lon="-4.13851">
        <ele>1</ele>
        <time>2024-05-09T10:57:07Z</time>
      </trkpt>
      <trkpt lat="47.85969" lon="-4.13837">
        <ele>1</ele>
        <time>2024-05-09T10:57:10Z</time>
      </trkpt>
      <trkpt lat="47.85973" lon="-4.13823">
        <ele>1</ele>
        <time>2024-05-09T10:57:13Z</time>
      </trkpt>
      <trkpt lat="47.85977" lon="-4.1381">
        <ele>1</ele>
        <time>2024-05-09T10:57:16Z</time>
      </trkpt>
      <trkpt lat="47.85982" lon="-4.13797">
        <ele>1</ele>
        <time>2024-05-09T10:57:19Z</time>
      </trkpt>
      <trkpt lat="47.85987" lon="-4.13785">
        <ele>1</ele>
        <time>2024-05-09T10:57:22Z</time>
      </trkpt>
      <trkpt lat="47.85991" lon="-4.13772">
        <ele>1</ele>
        <time>2024-05-09T10:57:25Z</time>
      </trkpt>
      <trkpt lat="47.85997" lon="-4.13759">
        <ele>1</ele>
        <time>2024-05-09T10:57:28Z</time>
      </trkpt>
      <trkpt lat="47.86002" lon="-4.13746">
        <ele>1</ele>
        <time>2024-05-09T10:57:31Z</time>
      </trkpt>
      <trkpt lat="47.86006" lon="-4.13734">
        <ele>1.1</ele>
        <time>2024-05-09T10:57:34Z</time>
      </trkpt>
      <trkpt lat="47.8601" lon="-4.13721">
        <ele>1</ele>
        <time>2024-05-09T10:57:37Z</time>
      </trkpt>
      <trkpt lat="47.86015" lon="-4.13708">
        <ele>1</ele>
        <time>2024-05-09T10:57:40Z</time>
      </trkpt>
      <trkpt lat="47.8602" lon="-4.13696">
        <ele>1</ele>
        <time>2024-05-09T10:57:43Z</time>
      </trkpt>
      <trkpt lat="47.86024" lon="-4.13683">
        <ele>1</ele>
        <time>2024-05-09T10:57:46Z</time>
      </trkpt>
      <trkpt lat="47.86029" lon="-4.13671">
        <ele>1</ele>
        <time>2024-05-09T10:57:49Z</time>
      </trkpt>
      <trkpt lat="47.86034" lon="-4.13658">
        <ele>1</ele>
        <time>2024-05-09T10:57:52Z</time>
      </trkpt>
      <trkpt lat="47.86039" lon="-4.13646">
        <ele>1</ele>
        <time>2024-05-09T10:57:55Z</time>
      </trkpt>
      <trkpt lat="47.86045" lon="-4.13635">
        <ele>1</ele>
        <time>2024-05-09T10:57:58Z</time>
      </trkpt>
      <trkpt lat="47.86049" lon="-4.13622">
        <ele>1</ele>
        <time>2024-05-09T10:58:01Z</time>
      </trkpt>
      <trkpt lat="47.86053" lon="-4.13609">
        <ele>1</ele>
        <time>2024-05-09T10:58:04Z</time>
      </trkpt>
      <trkpt lat="47.86058" lon="-4.13597">
        <ele>1</ele>
        <time>2024-05-09T10:58:07Z</time>
      </trkpt>
      <trkpt lat="47.86063" lon="-4.13584">
        <ele>1</ele>
        <time>2024-05-09T10:58:10Z</time>
      </trkpt>
      <trkpt lat="47.86067" lon="-4.13568">
        <ele>1</ele>
        <time>2024-05-09T10:58:14Z</time>
      </trkpt>
      <trkpt lat="47.8607" lon="-4.13555">
        <ele>1</ele>
        <time>2024-05-09T10:58:17Z</time>
      </trkpt>
      <trkpt lat="47.86075" lon="-4.13543">
        <ele>1</ele>
        <time>2024-05-09T10:58:20Z</time>
      </trkpt>
      <trkpt lat="47.86079" lon="-4.1353">
        <ele>1</ele>
        <time>2024-05-09T10:58:23Z</time>
      </trkpt>
      <trkpt lat="47.86082" lon="-4.13517">
        <time>2024-05-09T10:58:26Z</time>
      </trkpt>
      <trkpt lat="47.86086" lon="-4.13504">
        <ele>1.2</ele>
        <time>2024-05-09T10:58:29Z</time>
      </trkpt>
      <trkpt lat="47.86089" lon="-4.13491">
        <ele>1</ele>
        <time>2024-05-09T10:58:32Z</time>
      </trkpt>
      <trkpt lat="47.86092" lon="-4.13479">
        <ele>1</ele>
        <time>2024-05-09T10:58:35Z</time>
      </trkpt>
      <trkpt lat="47.86095" lon="-4.13466">
        <ele>1</ele>
        <time>2024-05-09T10:58:38Z</time>
      </trkpt>
      <trkpt lat="47.86099" lon="-4.13454">
        <ele>1</ele>
        <time>2024-05-09T10:58:41Z</time>
      </trkpt>
      <trkpt lat="47.86103" lon="-4.13441">
        <time>2024-05-09T10:58:44Z</time>
      </trkpt>
      <trkpt lat="47.86108" lon="-4.13428">
        <time>2024-05-09T10:58:47Z</time>
      </trkpt>
      <trkpt lat="47.86111" lon="-4.13414">
        <time>2024-05-09T10:58:50Z</time>
      </trkpt>
      <trkpt lat="47.86115" lon="-4.134">
        <ele>1</ele>
        <time>2024-05-09T10:58:53Z</time>
      </trkpt>
      <trkpt lat="47.8612" lon="-4.13386">
        <ele>1</ele>
        <time>2024-05-09T10:58:56Z</time>
      </trkpt>
      <trkpt lat="47.86122" lon="-4.13372">
        <ele>1</ele>
        <time>2024-05-09T10:58:59Z</time>
      </trkpt>
      <trkpt lat="47.86126" lon="-4.13358">
        <time>2024-05-09T10:59:02Z</time>
      </trkpt>
      <trkpt lat="47.8613" lon="-4.13344">
        <time>2024-05-09T10:59:05Z</time>
      </trkpt>
      <trkpt lat="47.86134" lon="-4.1333">
        <time>2024-05-09T10:59:08Z</time>
      </trkpt>
      <trkpt lat="47.86139" lon="-4.13317">
        <ele>1</ele>
        <time>2024-05-09T10:59:11Z</time>
      </trkpt>
      <trkpt lat="47.86142" lon="-4.13303">
        <ele>1</ele>
        <time>2024-05-09T10:59:14Z</time>
      </trkpt>
      <trkpt lat="47.86145" lon="-4.13288">
        <ele>1</ele>
        <time>2024-05-09T10:59:17Z</time>
      </trkpt>
      <trkpt lat="47.86149" lon="-4.13274">
        <time>2024-05-09T10:59:20Z</time>
      </trkpt>
      <trkpt lat="47.86152" lon="-4.1326">
        <time>2024-05-09T10:59:23Z</time>
      </trkpt>
      <trkpt lat="47.86157" lon="-4.13244">
        <time>2024-05-09T10:59:27Z</time>
      </trkpt>
      <trkpt lat="47.8616" lon="-4.13231">
        <time>2024-05-09T10:59:30Z</time>
      </trkpt>
      <trkpt lat="47.86164" lon="-4.13217">
        <time>2024-05-09T10:59:33Z</time>
      </trkpt>
      <trkpt lat="47.86167" lon="-4.13204">
        <ele>1</ele>
        <time>2024-05-09T10:59:36Z</time>
      </trkpt>
      <trkpt lat="47.86171" lon="-4.1319">
        <time>2024-05-09T10:59:39Z</time>
      </trkpt>
      <trkpt lat="47.86175" lon="-4.13177">
        <time>2024-05-09T10:59:42Z</time>
      </trkpt>
      <trkpt lat="47.8618" lon="-4.13164">
        <time>2024-05-09T10:59:45Z</time>
      </trkpt>
      <trkpt lat="47.86183" lon="-4.13152">
        <time>2024-05-09T10:59:48Z</time>
      </trkpt>
      <trkpt lat="47.86187" lon="-4.13139">
        <time>2024-05-09T10:59:51Z</time>
      </trkpt>
      <trkpt lat="47.86192" lon="-4.13126">
        <time>2024-05-09T10:59:54Z</time>
      </trkpt>
      <trkpt lat="47.86196" lon="-4.13113">
        <ele>1</ele>
        <time>2024-05-09T10:59:57Z</time>
      </trkpt>
      <trkpt lat="47.862" lon="-4.13099">
        <time>2024-05-09T11:00:00Z</time>
      </trkpt>
      <trkpt lat="47.86203" lon="-4.13086">
        <time>2024-05-09T11:00:03Z</time>
      </trkpt>
      <trkpt lat="47.86207" lon="-4.13074">
        <time>2024-05-09T11:00:06Z</time>
      </trkpt>
      <trkpt lat="47.86212" lon="-4.1306">
        <time>2024-05-09T11:00:09Z</time>
      </trkpt>
      <trkpt lat="47.86215" lon="-4.13046">
        <time>2024-05-09T11:00:12Z</time>
      </trkpt>
      <trkpt lat="47.86219" lon="-4.13033">
        <time>2024-05-09T11:00:15Z</time>
      </trkpt>
      <trkpt lat="47.86223" lon="-4.1302">
        <time>2024-05-09T11:00:18Z</time>
      </trkpt>
      <trkpt lat="47.86227" lon="-4.13004">
        <time>2024-05-09T11:00:22Z</time>
      </trkpt>
      <trkpt lat="47.86231" lon="-4.12988">
        <time>2024-05-09T11:00:26Z</time>
      </trkpt>
      <trkpt lat="47.86235" lon="-4.12971">
        <time>2024-05-09T11:00:30Z</time>
      </trkpt>
      <trkpt lat="47.86238" lon="-4.12959">
        <time>2024-05-09T11:00:33Z</time>
      </trkpt>
      <trkpt lat="47.86242" lon="-4.12946">
        <time>2024-05-09T11:00:36Z</time>
      </trkpt>
      <trkpt lat="47.86244" lon="-4.12933">
        <time>2024-05-09T11:00:39Z</time>
      </trkpt>
      <trkpt lat="47.86246" lon="-4.12918">
        <time>2024-05-09T11:00:42Z</time>
      </trkpt>
      <trkpt lat="47.86248" lon="-4.12904">
        <time>2024-05-09T11:00:45Z</time>
      </trkpt>
      <trkpt lat="47.8625" lon="-4.1289">
        <time>2024-05-09T11:00:48Z</time>
      </trkpt>
      <trkpt lat="47.86253" lon="-4.12876">
        <time>2024-05-09T11:00:51Z</time>
      </trkpt>
      <trkpt lat="47.86257" lon="-4.12861">
        <time>2024-05-09T11:00:54Z</time>
      </trkpt>
      <trkpt lat="47.86261" lon="-4.12847">
        <time>2024-05-09T11:00:57Z</time>
      </trkpt>
      <trkpt lat="47.86265" lon="-4.12833">
        <time>2024-05-09T11:01:00Z</time>
      </trkpt>
      <trkpt lat="47.86269" lon="-4.12818">
        <time>2024-05-09T11:01:03Z</time>
      </trkpt>
      <trkpt lat="47.86273" lon="-4.12804">
        <time>2024-05-09T11:01:06Z</time>
      </trkpt>
      <trkpt lat="47.86277" lon="-4.12791">
        <time>2024-05-09T11:01:09Z</time>
      </trkpt>
      <trkpt lat="47.8628" lon="-4.12779">
        <time>2024-05-09T11:01:12Z</time>
      </trkpt>
      <trkpt lat="47.86284" lon="-4.12763">
        <time>2024-05-09T11:01:16Z</time>
      </trkpt>
      <trkpt lat="47.86288" lon="-4.12748">
        <time>2024-05-09T11:01:20Z</time>
      </trkpt>
      <trkpt lat="47.86293" lon="-4.12733">
        <time>2024-05-09T11:01:24Z</time>
      </trkpt>
      <trkpt lat="47.86295" lon="-4.12716">
        <time>2024-05-09T11:01:28Z</time>
      </trkpt>
      <trkpt lat="47.86297" lon="-4.12701">
        <time>2024-05-09T11:01:32Z</time>
      </trkpt>
      <trkpt lat="47.863" lon="-4.12686">
        <time>2024-05-09T11:01:36Z</time>
      </trkpt>
      <trkpt lat="47.86304" lon="-4.12671">
        <time>2024-05-09T11:01:40Z</time>
      </trkpt>
      <trkpt lat="47.86308" lon="-4.12657">
        <time>2024-05-09T11:01:44Z</time>
      </trkpt>
      <trkpt lat="47.86313" lon="-4.12642">
        <time>2024-05-09T11:01:48Z</time>
      </trkpt>
      <trkpt lat="47.86318" lon="-4.12628">
        <time>2024-05-09T11:01:52Z</time>
      </trkpt>
      <trkpt lat="47.86322" lon="-4.12613">
        <time>2024-05-09T11:01:56Z</time>
      </trkpt>
      <trkpt lat="47.86326" lon="-4.12598">
        <time>2024-05-09T11:02:00Z</time>
      </trkpt>
      <trkpt lat="47.8633" lon="-4.12583">
        <time>2024-05-09T11:02:04Z</time>
      </trkpt>
      <trkpt lat="47.86335" lon="-4.12567">
        <time>2024-05-09T11:02:08Z</time>
      </trkpt>
      <trkpt lat="47.86338" lon="-4.1255">
        <time>2024-05-09T11:02:12Z</time>
      </trkpt>
      <trkpt lat="47.86343" lon="-4.12534">
        <time>2024-05-09T11:02:16Z</time>
      </trkpt>
      <trkpt lat="47.86345" lon="-4.12517">
        <time>2024-05-09T11:02:20Z</time>
      </trkpt>
      <trkpt lat="47.86348" lon="-4.12501">
        <time>2024-05-09T11:02:24Z</time>
      </trkpt>
      <trkpt lat="47.86352" lon="-4.12484">
        <time>2024-05-09T11:02:28Z</time>
      </trkpt>
      <trkpt lat="47.86354" lon="-4.12467">
        <time>2024-05-09T11:02:32Z</time>
      </trkpt>
      <trkpt lat="47.86358" lon="-4.12451">
        <time>2024-05-09T11:02:36Z</time>
      </trkpt>
      <trkpt lat="47.86361" lon="-4.12433">
        <time>2024-05-09T11:02:40Z</time>
      </trkpt>
      <trkpt lat="47.86365" lon="-4.12417">
        <ele>1</ele>
        <time>2024-05-09T11:02:44Z</time>
      </trkpt>
      <trkpt lat="47.8637" lon="-4.12402">
        <time>2024-05-09T11:02:48Z</time>
      </trkpt>
      <trkpt lat="47.86374" lon="-4.12386">
        <ele>3</ele>
        <time>2024-05-09T11:02:52Z</time>
      </trkpt>
      <trkpt lat="47.86378" lon="-4.12369">
        <ele>3</ele>
        <time>2024-05-09T11:02:56Z</time>
      </trkpt>
      <trkpt lat="47.86383" lon="-4.12354">
        <ele>3</ele>
        <time>2024-05-09T11:03:00Z</time>
      </trkpt>
      <trkpt lat="47.86387" lon="-4.12338">
        <ele>3</ele>
        <time>2024-05-09T11:03:04Z</time>
      </trkpt>
      <trkpt lat="47.86392" lon="-4.12327">
        <ele>1</ele>
        <time>2024-05-09T11:03:18Z</time>
      </trkpt>
      <trkpt lat="47.86393" lon="-4.12313">
        <ele>1</ele>
        <time>2024-05-09T11:06:06Z</time>
      </trkpt>
      <trkpt lat="47.86397" lon="-4.12299">
        <ele>1</ele>
        <time>2024-05-09T11:06:14Z</time>
      </trkpt>
      <trkpt lat="47.86399" lon="-4.12285">
        <ele>1</ele>
        <time>2024-05-09T11:06:18Z</time>
      </trkpt>
      <trkpt lat="47.86402" lon="-4.12271">
        <time>2024-05-09T11:06:22Z</time>
      </trkpt>
      <trkpt lat="47.86404" lon="-4.12257">
        <time>2024-05-09T11:06:26Z</time>
      </trkpt>
      <trkpt lat="47.86408" lon="-4.12243">
        <time>2024-05-09T11:06:30Z</time>
      </trkpt>
      <trkpt lat="47.8641" lon="-4.12229">
        <time>2024-05-09T11:06:34Z</time>
      </trkpt>
      <trkpt lat="47.86413" lon="-4.12214">
        <time>2024-05-09T11:06:39Z</time>
      </trkpt>
      <trkpt lat="47.86413" lon="-4.12199">
        <time>2024-05-09T11:06:44Z</time>
      </trkpt>
      <trkpt lat="47.86417" lon="-4.12184">
        <ele>2</ele>
        <time>2024-05-09T11:06:49Z</time>
      </trkpt>
      <trkpt lat="47.86421" lon="-4.12169">
        <ele>2</ele>
        <time>2024-05-09T11:06:54Z</time>
      </trkpt>
      <trkpt lat="47.86423" lon="-4.12152">
        <ele>1.5</ele>
        <time>2024-05-09T11:06:59Z</time>
      </trkpt>
      <trkpt lat="47.86425" lon="-4.12137">
        <ele>1</ele>
        <time>2024-05-09T11:07:04Z</time>
      </trkpt>
      <trkpt lat="47.86426" lon="-4.12123">
        <ele>1</ele>
        <time>2024-05-09T11:07:08Z</time>
      </trkpt>
      <trkpt lat="47.86428" lon="-4.1211">
        <ele>1</ele>
        <time>2024-05-09T11:07:12Z</time>
      </trkpt>
      <trkpt lat="47.86433" lon="-4.12098">
        <ele>1</ele>
        <time>2024-05-09T11:07:19Z</time>
      </trkpt>
      <trkpt lat="47.86438" lon="-4.12087">
        <ele>1</ele>
        <time>2024-05-09T11:07:31Z</time>
      </trkpt>
      <trkpt lat="47.86442" lon="-4.12074">
        <ele>1</ele>
        <time>2024-05-09T11:07:40Z</time>
      </trkpt>
      <trkpt lat="47.86445" lon="-4.12061">
        <ele>1.1</ele>
        <time>2024-05-09T11:07:53Z</time>
      </trkpt>
      <trkpt lat="47.86449" lon="-4.12049">
        <ele>1.8</ele>
        <time>2024-05-09T11:08:06Z</time>
      </trkpt>
      <trkpt lat="47.86456" lon="-4.12038">
        <ele>2.7</ele>
        <time>2024-05-09T11:08:21Z</time>
      </trkpt>
      <trkpt lat="47.8646" lon="-4.12025">
        <ele>3.2</ele>
        <time>2024-05-09T11:08:33Z</time>
      </trkpt>
      <trkpt lat="47.86461" lon="-4.12012">
        <ele>3.6</ele>
        <time>2024-05-09T11:08:46Z</time>
      </trkpt>
      <trkpt lat="47.86458" lon="-4.11998">
        <ele>3.7</ele>
        <time>2024-05-09T11:08:59Z</time>
      </trkpt>
      <trkpt lat="47.86458" lon="-4.11985">
        <ele>4.9</ele>
        <time>2024-05-09T11:09:13Z</time>
      </trkpt>
      <trkpt lat="47.86457" lon="-4.1197">
        <ele>6</ele>
        <time>2024-05-09T11:09:28Z</time>
      </trkpt>
      <trkpt lat="47.86452" lon="-4.11959">
        <ele>6.1</ele>
        <time>2024-05-09T11:09:48Z</time>
      </trkpt>
      <trkpt lat="47.86447" lon="-4.11947">
        <ele>7</ele>
        <time>2024-05-09T11:10:03Z</time>
      </trkpt>
      <trkpt lat="47.86444" lon="-4.11934">
        <ele>7.2</ele>
        <time>2024-05-09T11:10:16Z</time>
      </trkpt>
      <trkpt lat="47.86441" lon="-4.11921">
        <ele>7.1</ele>
        <time>2024-05-09T11:10:27Z</time>
      </trkpt>
      <trkpt lat="47.86436" lon="-4.1191">
        <ele>6.6</ele>
        <time>2024-05-09T11:10:33Z</time>
      </trkpt>
      <trkpt lat="47.8643" lon="-4.11898">
        <ele>6.7</ele>
        <time>2024-05-09T11:10:38Z</time>
      </trkpt>
      <trkpt lat="47.86427" lon="-4.11885">
        <ele>7.1</ele>
        <time>2024-05-09T11:10:46Z</time>
      </trkpt>
      <trkpt lat="47.86423" lon="-4.11871">
        <ele>7.1</ele>
        <time>2024-05-09T11:10:55Z</time>
      </trkpt>
      <trkpt lat="47.86421" lon="-4.11858">
        <ele>7.2</ele>
        <time>2024-05-09T11:11:03Z</time>
      </trkpt>
      <trkpt lat="47.8642" lon="-4.11844">
        <ele>7.2</ele>
        <time>2024-05-09T11:11:12Z</time>
      </trkpt>
      <trkpt lat="47.86419" lon="-4.1183">
        <ele>6.9</ele>
        <time>2024-05-09T11:11:21Z</time>
      </trkpt>
      <trkpt lat="47.8642" lon="-4.11816">
        <ele>6.1</ele>
        <time>2024-05-09T11:11:32Z</time>
      </trkpt>
      <trkpt lat="47.86422" lon="-4.11801">
        <ele>5.7</ele>
        <time>2024-05-09T11:11:42Z</time>
      </trkpt>
      <trkpt lat="47.86423" lon="-4.11786">
        <ele>5.9</ele>
        <time>2024-05-09T11:11:52Z</time>
      </trkpt>
      <trkpt lat="47.86424" lon="-4.11772">
        <ele>6.1</ele>
        <time>2024-05-09T11:12:01Z</time>
      </trkpt>
      <trkpt lat="47.86424" lon="-4.11758">
        <ele>6</ele>
        <time>2024-05-09T11:12:09Z</time>
      </trkpt>
      <trkpt lat="47.86422" lon="-4.11743">
        <ele>6.6</ele>
        <time>2024-05-09T11:12:17Z</time>
      </trkpt>
      <trkpt lat="47.86418" lon="-4.11731">
        <ele>7.8</ele>
        <time>2024-05-09T11:12:25Z</time>
      </trkpt>
      <trkpt lat="47.86412" lon="-4.1172">
        <ele>8.1</ele>
        <time>2024-05-09T11:12:33Z</time>
      </trkpt>
      <trkpt lat="47.86404" lon="-4.11711">
        <ele>7.7</ele>
        <time>2024-05-09T11:12:42Z</time>
      </trkpt>
      <trkpt lat="47.86397" lon="-4.117">
        <ele>7.9</ele>
        <time>2024-05-09T11:12:51Z</time>
      </trkpt>
      <trkpt lat="47.8639" lon="-4.1169">
        <ele>8.4</ele>
        <time>2024-05-09T11:12:59Z</time>
      </trkpt>
      <trkpt lat="47.86383" lon="-4.1168">
        <ele>7.8</ele>
        <time>2024-05-09T11:13:07Z</time>
      </trkpt>
      <trkpt lat="47.86376" lon="-4.11671">
        <ele>7.2</ele>
        <time>2024-05-09T11:13:14Z</time>
      </trkpt>
      <trkpt lat="47.86369" lon="-4.1166">
        <ele>7.1</ele>
        <time>2024-05-09T11:13:22Z</time>
      </trkpt>
      <trkpt lat="47.86363" lon="-4.1165">
        <ele>7.6</ele>
        <time>2024-05-09T11:13:30Z</time>
      </trkpt>
      <trkpt lat="47.86358" lon="-4.11638">
        <ele>8.2</ele>
        <time>2024-05-09T11:13:38Z</time>
      </trkpt>
      <trkpt lat="47.86352" lon="-4.11628">
        <ele>7.5</ele>
        <time>2024-05-09T11:13:46Z</time>
      </trkpt>
      <trkpt lat="47.86344" lon="-4.1162">
        <ele>7</ele>
        <time>2024-05-09T11:13:54Z</time>
      </trkpt>
      <trkpt lat="47.86336" lon="-4.11611">
        <ele>7.2</ele>
        <time>2024-05-09T11:14:02Z</time>
      </trkpt>
      <trkpt lat="47.86328" lon="-4.11605">
        <ele>6.5</ele>
        <time>2024-05-09T11:14:10Z</time>
      </trkpt>
      <trkpt lat="47.8632" lon="-4.11597">
        <ele>5.8</ele>
        <time>2024-05-09T11:14:18Z</time>
      </trkpt>
      <trkpt lat="47.86313" lon="-4.11587">
        <ele>5.7</ele>
        <time>2024-05-09T11:14:27Z</time>
      </trkpt>
      <trkpt lat="47.86306" lon="-4.11577">
        <ele>5.7</ele>
        <time>2024-05-09T11:14:35Z</time>
      </trkpt>
      <trkpt lat="47.863" lon="-4.11566">
        <ele>5.9</ele>
        <time>2024-05-09T11:14:44Z</time>
      </trkpt>
      <trkpt lat="47.86293" lon="-4.11555">
        <ele>5.3</ele>
        <time>2024-05-09T11:14:53Z</time>
      </trkpt>
      <trkpt lat="47.86286" lon="-4.11546">
        <ele>5.4</ele>
        <time>2024-05-09T11:15:01Z</time>
      </trkpt>
      <trkpt lat="47.86279" lon="-4.11537">
        <ele>6.2</ele>
        <time>2024-05-09T11:15:20Z</time>
      </trkpt>
      <trkpt lat="47.86272" lon="-4.11526">
        <ele>7.3</ele>
        <time>2024-05-09T11:15:33Z</time>
      </trkpt>
      <trkpt lat="47.86273" lon="-4.11512">
        <ele>8</ele>
        <time>2024-05-09T11:15:43Z</time>
      </trkpt>
      <trkpt lat="47.86277" lon="-4.11499">
        <ele>9</ele>
        <time>2024-05-09T11:15:54Z</time>
      </trkpt>
      <trkpt lat="47.86271" lon="-4.11489">
        <ele>8.8</ele>
        <time>2024-05-09T11:16:15Z</time>
      </trkpt>
      <trkpt lat="47.86272" lon="-4.11474">
        <ele>9.5</ele>
        <time>2024-05-09T11:16:26Z</time>
      </trkpt>
      <trkpt lat="47.86269" lon="-4.11461">
        <ele>9</ele>
        <time>2024-05-09T11:16:36Z</time>
      </trkpt>
      <trkpt lat="47.86266" lon="-4.11447">
        <ele>8.3</ele>
        <time>2024-05-09T11:16:46Z</time>
      </trkpt>
      <trkpt lat="47.86263" lon="-4.11434">
        <ele>7.8</ele>
        <time>2024-05-09T11:16:55Z</time>
      </trkpt>
      <trkpt lat="47.86261" lon="-4.1142">
        <ele>7.5</ele>
        <time>2024-05-09T11:17:04Z</time>
      </trkpt>
      <trkpt lat="47.8626" lon="-4.11407">
        <ele>7.3</ele>
        <time>2024-05-09T11:17:13Z</time>
      </trkpt>
      <trkpt lat="47.86259" lon="-4.11393">
        <ele>7.3</ele>
        <time>2024-05-09T11:17:22Z</time>
      </trkpt>
      <trkpt lat="47.86261" lon="-4.1138">
        <ele>7.3</ele>
        <time>2024-05-09T11:17:32Z</time>
      </trkpt>
      <trkpt lat="47.86265" lon="-4.11368">
        <ele>7.1</ele>
        <time>2024-05-09T11:17:44Z</time>
      </trkpt>
      <trkpt lat="47.86271" lon="-4.11356">
        <ele>7</ele>
        <time>2024-05-09T11:17:56Z</time>
      </trkpt>
      <trkpt lat="47.86273" lon="-4.11342">
        <ele>7</ele>
        <time>2024-05-09T11:18:58Z</time>
      </trkpt>
      <trkpt lat="47.86278" lon="-4.1133">
        <ele>6.4</ele>
        <time>2024-05-09T11:19:53Z</time>
      </trkpt>
      <trkpt lat="47.86268" lon="-4.11328">
        <ele>6.1</ele>
        <time>2024-05-09T11:20:50Z</time>
      </trkpt>
      <trkpt lat="47.8626" lon="-4.11321">
        <ele>4.8</ele>
        <time>2024-05-09T11:20:59Z</time>
      </trkpt>
      <trkpt lat="47.86269" lon="-4.11326">
        <ele>5.7</ele>
        <time>2024-05-09T12:18:46Z</time>
      </trkpt>
      <trkpt lat="47.86275" lon="-4.11337">
        <ele>7</ele>
        <time>2024-05-09T12:19:50Z</time>
      </trkpt>
      <trkpt lat="47.8628" lon="-4.11348">
        <ele>7</ele>
        <time>2024-05-09T12:20:16Z</time>
      </trkpt>
      <trkpt lat="47.86289" lon="-4.11355">
        <ele>7.3</ele>
        <time>2024-05-09T12:20:23Z</time>
      </trkpt>
      <trkpt lat="47.863" lon="-4.1136">
        <ele>7.7</ele>
        <time>2024-05-09T12:20:28Z</time>
      </trkpt>
      <trkpt lat="47.8631" lon="-4.11363">
        <ele>8.1</ele>
        <time>2024-05-09T12:20:33Z</time>
      </trkpt>
      <trkpt lat="47.8632" lon="-4.11366">
        <ele>8.2</ele>
        <time>2024-05-09T12:20:37Z</time>
      </trkpt>
      <trkpt lat="47.86329" lon="-4.11366">
        <ele>8.2</ele>
        <time>2024-05-09T12:20:41Z</time>
      </trkpt>
      <trkpt lat="47.86339" lon="-4.11368">
        <ele>8.3</ele>
        <time>2024-05-09T12:20:45Z</time>
      </trkpt>
      <trkpt lat="47.86349" lon="-4.11372">
        <ele>8.4</ele>
        <time>2024-05-09T12:20:49Z</time>
      </trkpt>
      <trkpt lat="47.86359" lon="-4.11373">
        <ele>8.4</ele>
        <time>2024-05-09T12:20:53Z</time>
      </trkpt>
      <trkpt lat="47.8637" lon="-4.11378">
        <ele>8.7</ele>
        <time>2024-05-09T12:20:57Z</time>
      </trkpt>
      <trkpt lat="47.86379" lon="-4.11378">
        <ele>8.9</ele>
        <time>2024-05-09T12:21:00Z</time>
      </trkpt>
      <trkpt lat="47.86388" lon="-4.11378">
        <ele>9</ele>
        <time>2024-05-09T12:21:03Z</time>
      </trkpt>
      <trkpt lat="47.86398" lon="-4.11381">
        <ele>9.2</ele>
        <time>2024-05-09T12:21:06Z</time>
      </trkpt>
      <trkpt lat="47.86409" lon="-4.11382">
        <ele>9.5</ele>
        <time>2024-05-09T12:21:10Z</time>
      </trkpt>
      <trkpt lat="47.86419" lon="-4.11382">
        <ele>9.8</ele>
        <time>2024-05-09T12:21:15Z</time>
      </trkpt>
      <trkpt lat="47.8642" lon="-4.11396">
        <ele>10.3</ele>
        <time>2024-05-09T12:21:36Z</time>
      </trkpt>
      <trkpt lat="47.86416" lon="-4.11409">
        <ele>10.7</ele>
        <time>2024-05-09T12:21:42Z</time>
      </trkpt>
      <trkpt lat="47.86413" lon="-4.11423">
        <ele>11.2</ele>
        <time>2024-05-09T12:21:47Z</time>
      </trkpt>
      <trkpt lat="47.8641" lon="-4.11436">
        <ele>11.9</ele>
        <time>2024-05-09T12:21:52Z</time>
      </trkpt>
      <trkpt lat="47.86408" lon="-4.1145">
        <ele>12.3</ele>
        <time>2024-05-09T12:21:58Z</time>
      </trkpt>
      <trkpt lat="47.86406" lon="-4.11464">
        <ele>12.3</ele>
        <time>2024-05-09T12:22:04Z</time>
      </trkpt>
      <trkpt lat="47.86403" lon="-4.11478">
        <ele>12</ele>
        <time>2024-05-09T12:22:11Z</time>
      </trkpt>
      <trkpt lat="47.86404" lon="-4.11492">
        <ele>12.1</ele>
        <time>2024-05-09T12:23:41Z</time>
      </trkpt>
      <trkpt lat="47.864" lon="-4.11504">
        <ele>12.1</ele>
        <time>2024-05-09T12:23:52Z</time>
      </trkpt>
      <trkpt lat="47.86398" lon="-4.11491">
        <ele>11.7</ele>
        <time>2024-05-09T12:24:10Z</time>
      </trkpt>
      <trkpt lat="47.8641" lon="-4.11485">
        <ele>12.5</ele>
        <time>2024-05-09T12:27:07Z</time>
      </trkpt>
      <trkpt lat="47.86404" lon="-4.11475">
        <ele>12.1</ele>
        <time>2024-05-09T12:29:07Z</time>
      </trkpt>
      <trkpt lat="47.86408" lon="-4.11461">
        <ele>12.3</ele>
        <time>2024-05-09T12:29:41Z</time>
      </trkpt>
      <trkpt lat="47.86409" lon="-4.11446">
        <ele>12.3</ele>
        <time>2024-05-09T12:29:50Z</time>
      </trkpt>
      <trkpt lat="47.8641" lon="-4.11431">
        <ele>11.6</ele>
        <time>2024-05-09T12:29:58Z</time>
      </trkpt>
      <trkpt lat="47.86418" lon="-4.11418">
        <ele>11</ele>
        <time>2024-05-09T12:30:02Z</time>
      </trkpt>
      <trkpt lat="47.86423" lon="-4.11405">
        <ele>10.6</ele>
        <time>2024-05-09T12:30:05Z</time>
      </trkpt>
      <trkpt lat="47.86428" lon="-4.11393">
        <ele>10.2</ele>
        <time>2024-05-09T12:30:10Z</time>
      </trkpt>
      <trkpt lat="47.86437" lon="-4.11387">
        <ele>9.9</ele>
        <time>2024-05-09T12:30:49Z</time>
      </trkpt>
      <trkpt lat="47.86447" lon="-4.11388">
        <ele>10.1</ele>
        <time>2024-05-09T12:30:53Z</time>
      </trkpt>
      <trkpt lat="47.86458" lon="-4.11394">
        <ele>10.7</ele>
        <time>2024-05-09T12:30:57Z</time>
      </trkpt>
      <trkpt lat="47.86468" lon="-4.11401">
        <ele>11.3</ele>
        <time>2024-05-09T12:31:01Z</time>
      </trkpt>
      <trkpt lat="47.86478" lon="-4.1141">
        <ele>12</ele>
        <time>2024-05-09T12:31:05Z</time>
      </trkpt>
      <trkpt lat="47.86486" lon="-4.11418">
        <ele>12.5</ele>
        <time>2024-05-09T12:31:09Z</time>
      </trkpt>
      <trkpt lat="47.86494" lon="-4.11426">
        <ele>13</ele>
        <time>2024-05-09T12:31:13Z</time>
      </trkpt>
      <trkpt lat="47.86502" lon="-4.11432">
        <ele>13.6</ele>
        <time>2024-05-09T12:31:17Z</time>
      </trkpt>
      <trkpt lat="47.86512" lon="-4.11438">
        <ele>13.8</ele>
        <time>2024-05-09T12:31:22Z</time>
      </trkpt>
      <trkpt lat="47.8652" lon="-4.11443">
        <ele>13.9</ele>
        <time>2024-05-09T12:31:26Z</time>
      </trkpt>
      <trkpt lat="47.8653" lon="-4.11449">
        <ele>14.1</ele>
        <time>2024-05-09T12:31:30Z</time>
      </trkpt>
      <trkpt lat="47.8654" lon="-4.11453">
        <ele>14.4</ele>
        <time>2024-05-09T12:31:34Z</time>
      </trkpt>
      <trkpt lat="47.8655" lon="-4.11457">
        <ele>14.8</ele>
        <time>2024-05-09T12:31:38Z</time>
      </trkpt>
      <trkpt lat="47.8656" lon="-4.11462">
        <ele>15.1</ele>
        <time>2024-05-09T12:31:42Z</time>
      </trkpt>
      <trkpt lat="47.86571" lon="-4.11468">
        <ele>15.5</ele>
        <time>2024-05-09T12:31:46Z</time>
      </trkpt>
      <trkpt lat="47.86581" lon="-4.11473">
        <ele>15.9</ele>
        <time>2024-05-09T12:31:50Z</time>
      </trkpt>
      <trkpt lat="47.8659" lon="-4.11476">
        <ele>16</ele>
        <time>2024-05-09T12:31:53Z</time>
      </trkpt>
      <trkpt lat="47.86599" lon="-4.11478">
        <ele>16</ele>
        <time>2024-05-09T12:31:56Z</time>
      </trkpt>
      <trkpt lat="47.86608" lon="-4.1148">
        <ele>16</ele>
        <time>2024-05-09T12:31:59Z</time>
      </trkpt>
      <trkpt lat="47.86619" lon="-4.11483">
        <ele>16.1</ele>
        <time>2024-05-09T12:32:03Z</time>
      </trkpt>
      <trkpt lat="47.8663" lon="-4.11487">
        <ele>16.4</ele>
        <time>2024-05-09T12:32:07Z</time>
      </trkpt>
      <trkpt lat="47.86642" lon="-4.1149">
        <ele>16.7</ele>
        <time>2024-05-09T12:32:11Z</time>
      </trkpt>
      <trkpt lat="47.86653" lon="-4.11492">
        <ele>16.8</ele>
        <time>2024-05-09T12:32:14Z</time>
      </trkpt>
      <trkpt lat="47.86663" lon="-4.11493">
        <ele>17</ele>
        <time>2024-05-09T12:32:17Z</time>
      </trkpt>
      <trkpt lat="47.86672" lon="-4.11492">
        <ele>16.9</ele>
        <time>2024-05-09T12:32:20Z</time>
      </trkpt>
      <trkpt lat="47.86683" lon="-4.11493">
        <ele>16.8</ele>
        <time>2024-05-09T12:32:24Z</time>
      </trkpt>
      <trkpt lat="47.86695" lon="-4.11495">
        <ele>16.8</ele>
        <time>2024-05-09T12:32:28Z</time>
      </trkpt>
      <trkpt lat="47.86705" lon="-4.11498">
        <ele>16.5</ele>
        <time>2024-05-09T12:32:31Z</time>
      </trkpt>
      <trkpt lat="47.86714" lon="-4.11499">
        <ele>16.3</ele>
        <time>2024-05-09T12:32:34Z</time>
      </trkpt>
      <trkpt lat="47.86723" lon="-4.115">
        <ele>16</ele>
        <time>2024-05-09T12:32:37Z</time>
      </trkpt>
      <trkpt lat="47.86733" lon="-4.11501">
        <ele>16</ele>
        <time>2024-05-09T12:32:40Z</time>
      </trkpt>
      <trkpt lat="47.86743" lon="-4.11502">
        <ele>16</ele>
        <time>2024-05-09T12:32:43Z</time>
      </trkpt>
      <trkpt lat="47.86755" lon="-4.11503">
        <ele>15.7</ele>
        <time>2024-05-09T12:32:46Z</time>
      </trkpt>
      <trkpt lat="47.86766" lon="-4.11506">
        <ele>15.1</ele>
        <time>2024-05-09T12:32:49Z</time>
      </trkpt>
      <trkpt lat="47.86779" lon="-4.11511">
        <ele>14.7</ele>
        <time>2024-05-09T12:32:52Z</time>
      </trkpt>
      <trkpt lat="47.8679" lon="-4.1152">
        <ele>14.7</ele>
        <time>2024-05-09T12:32:55Z</time>
      </trkpt>
      <trkpt lat="47.86797" lon="-4.11534">
        <ele>14.6</ele>
        <time>2024-05-09T12:32:58Z</time>
      </trkpt>
      <trkpt lat="47.86802" lon="-4.11549">
        <ele>14.3</ele>
        <time>2024-05-09T12:33:01Z</time>
      </trkpt>
      <trkpt lat="47.86806" lon="-4.11564">
        <ele>14.3</ele>
        <time>2024-05-09T12:33:04Z</time>
      </trkpt>
      <trkpt lat="47.86809" lon="-4.11578">
        <ele>14.6</ele>
        <time>2024-05-09T12:33:07Z</time>
      </trkpt>
      <trkpt lat="47.86813" lon="-4.11592">
        <ele>14.6</ele>
        <time>2024-05-09T12:33:10Z</time>
      </trkpt>
      <trkpt lat="47.86817" lon="-4.11606">
        <ele>14.5</ele>
        <time>2024-05-09T12:33:13Z</time>
      </trkpt>
      <trkpt lat="47.86822" lon="-4.1162">
        <ele>14.4</ele>
        <time>2024-05-09T12:33:16Z</time>
      </trkpt>
      <trkpt lat="47.86828" lon="-4.11632">
        <ele>14.2</ele>
        <time>2024-05-09T12:33:19Z</time>
      </trkpt>
      <trkpt lat="47.86836" lon="-4.11644">
        <ele>14.3</ele>
        <time>2024-05-09T12:33:22Z</time>
      </trkpt>
      <trkpt lat="47.86846" lon="-4.11652">
        <ele>14.5</ele>
        <time>2024-05-09T12:33:25Z</time>
      </trkpt>
      <trkpt lat="47.86856" lon="-4.11661">
        <ele>14.8</ele>
        <time>2024-05-09T12:33:28Z</time>
      </trkpt>
      <trkpt lat="47.86865" lon="-4.11671">
        <ele>14.8</ele>
        <time>2024-05-09T12:33:31Z</time>
      </trkpt>
      <trkpt lat="47.86874" lon="-4.1168">
        <ele>14.3</ele>
        <time>2024-05-09T12:33:34Z</time>
      </trkpt>
      <trkpt lat="47.86884" lon="-4.11687">
        <ele>14</ele>
        <time>2024-05-09T12:33:37Z</time>
      </trkpt>
      <trkpt lat="47.86895" lon="-4.11694">
        <ele>13.6</ele>
        <time>2024-05-09T12:33:40Z</time>
      </trkpt>
      <trkpt lat="47.86907" lon="-4.11699">
        <ele>13</ele>
        <time>2024-05-09T12:33:43Z</time>
      </trkpt>
      <trkpt lat="47.86916" lon="-4.11702">
        <ele>12.6</ele>
        <time>2024-05-09T12:33:45Z</time>
      </trkpt>
      <trkpt lat="47.86927" lon="-4.11707">
        <ele>12.4</ele>
        <time>2024-05-09T12:33:47Z</time>
      </trkpt>
      <trkpt lat="47.86937" lon="-4.11711">
        <ele>12</ele>
        <time>2024-05-09T12:33:49Z</time>
      </trkpt>
      <trkpt lat="47.86946" lon="-4.11715">
        <ele>11.7</ele>
        <time>2024-05-09T12:33:51Z</time>
      </trkpt>
      <trkpt lat="47.86957" lon="-4.1172">
        <ele>11.5</ele>
        <time>2024-05-09T12:33:53Z</time>
      </trkpt>
      <trkpt lat="47.86968" lon="-4.11724">
        <ele>11.2</ele>
        <time>2024-05-09T12:33:55Z</time>
      </trkpt>
      <trkpt lat="47.86979" lon="-4.11729">
        <ele>11.1</ele>
        <time>2024-05-09T12:33:57Z</time>
      </trkpt>
      <trkpt lat="47.8699" lon="-4.11734">
        <ele>11.1</ele>
        <time>2024-05-09T12:33:59Z</time>
      </trkpt>
      <trkpt lat="47.87" lon="-4.11737">
        <ele>11.1</ele>
        <time>2024-05-09T12:34:01Z</time>
      </trkpt>
      <trkpt lat="47.87013" lon="-4.11742">
        <ele>12</ele>
        <time>2024-05-09T12:34:04Z</time>
      </trkpt>
      <trkpt lat="47.87024" lon="-4.11745">
        <ele>12.6</ele>
        <time>2024-05-09T12:34:07Z</time>
      </trkpt>
      <trkpt lat="47.87035" lon="-4.11748">
        <ele>12.9</ele>
        <time>2024-05-09T12:34:10Z</time>
      </trkpt>
      <trkpt lat="47.87045" lon="-4.11749">
        <ele>13</ele>
        <time>2024-05-09T12:34:13Z</time>
      </trkpt>
      <trkpt lat="47.87055" lon="-4.11753">
        <ele>13.1</ele>
        <time>2024-05-09T12:34:16Z</time>
      </trkpt>
      <trkpt lat="47.87066" lon="-4.11756">
        <ele>12.8</ele>
        <time>2024-05-09T12:34:19Z</time>
      </trkpt>
      <trkpt lat="47.87076" lon="-4.11758">
        <ele>12.5</ele>
        <time>2024-05-09T12:34:22Z</time>
      </trkpt>
      <trkpt lat="47.87086" lon="-4.11762">
        <ele>12.5</ele>
        <time>2024-05-09T12:34:25Z</time>
      </trkpt>
      <trkpt lat="47.87097" lon="-4.11766">
        <ele>12.8</ele>
        <time>2024-05-09T12:34:28Z</time>
      </trkpt>
      <trkpt lat="47.87107" lon="-4.11772">
        <ele>13</ele>
        <time>2024-05-09T12:34:31Z</time>
      </trkpt>
      <trkpt lat="47.87116" lon="-4.11776">
        <ele>13.4</ele>
        <time>2024-05-09T12:34:34Z</time>
      </trkpt>
      <trkpt lat="47.87126" lon="-4.11779">
        <ele>14.1</ele>
        <time>2024-05-09T12:34:37Z</time>
      </trkpt>
      <trkpt lat="47.87135" lon="-4.11782">
        <ele>14.7</ele>
        <time>2024-05-09T12:34:40Z</time>
      </trkpt>
      <trkpt lat="47.87144" lon="-4.11786">
        <ele>15</ele>
        <time>2024-05-09T12:34:43Z</time>
      </trkpt>
      <trkpt lat="47.87154" lon="-4.1179">
        <ele>15</ele>
        <time>2024-05-09T12:34:46Z</time>
      </trkpt>
      <trkpt lat="47.87163" lon="-4.11794">
        <ele>15</ele>
        <time>2024-05-09T12:34:49Z</time>
      </trkpt>
      <trkpt lat="47.87173" lon="-4.11797">
        <ele>14.9</ele>
        <time>2024-05-09T12:34:52Z</time>
      </trkpt>
      <trkpt lat="47.87184" lon="-4.11802">
        <ele>14.9</ele>
        <time>2024-05-09T12:34:55Z</time>
      </trkpt>
      <trkpt lat="47.87196" lon="-4.11807">
        <ele>15</ele>
        <time>2024-05-09T12:34:58Z</time>
      </trkpt>
      <trkpt lat="47.87209" lon="-4.11811">
        <ele>14.7</ele>
        <time>2024-05-09T12:35:01Z</time>
      </trkpt>
      <trkpt lat="47.87218" lon="-4.11814">
        <ele>14.4</ele>
        <time>2024-05-09T12:35:03Z</time>
      </trkpt>
      <trkpt lat="47.87232" lon="-4.11816">
        <ele>13.8</ele>
        <time>2024-05-09T12:35:06Z</time>
      </trkpt>
      <trkpt lat="47.87243" lon="-4.1182">
        <ele>13.4</ele>
        <time>2024-05-09T12:35:08Z</time>
      </trkpt>
      <trkpt lat="47.87253" lon="-4.11821">
        <ele>13.1</ele>
        <time>2024-05-09T12:35:10Z</time>
      </trkpt>
      <trkpt lat="47.87262" lon="-4.11823">
        <ele>13</ele>
        <time>2024-05-09T12:35:12Z</time>
      </trkpt>
      <trkpt lat="47.87273" lon="-4.11828">
        <ele>12.9</ele>
        <time>2024-05-09T12:35:14Z</time>
      </trkpt>
      <trkpt lat="47.87284" lon="-4.11837">
        <ele>13.1</ele>
        <time>2024-05-09T12:35:17Z</time>
      </trkpt>
      <trkpt lat="47.87294" lon="-4.11847">
        <ele>13.5</ele>
        <time>2024-05-09T12:35:20Z</time>
      </trkpt>
      <trkpt lat="47.87304" lon="-4.11855">
        <ele>13.8</ele>
        <time>2024-05-09T12:35:23Z</time>
      </trkpt>
      <trkpt lat="47.87314" lon="-4.11865">
        <ele>13.8</ele>
        <time>2024-05-09T12:35:26Z</time>
      </trkpt>
      <trkpt lat="47.87323" lon="-4.11876">
        <ele>13.9</ele>
        <time>2024-05-09T12:35:29Z</time>
      </trkpt>
      <trkpt lat="47.87332" lon="-4.1189">
        <ele>14.1</ele>
        <time>2024-05-09T12:35:32Z</time>
      </trkpt>
      <trkpt lat="47.87339" lon="-4.11904">
        <ele>13.6</ele>
        <time>2024-05-09T12:35:35Z</time>
      </trkpt>
      <trkpt lat="47.87345" lon="-4.1192">
        <ele>13.1</ele>
        <time>2024-05-09T12:35:38Z</time>
      </trkpt>
      <trkpt lat="47.87349" lon="-4.11937">
        <ele>12.4</ele>
        <time>2024-05-09T12:35:41Z</time>
      </trkpt>
      <trkpt lat="47.87351" lon="-4.11951">
        <ele>11.9</ele>
        <time>2024-05-09T12:35:43Z</time>
      </trkpt>
      <trkpt lat="47.87354" lon="-4.11964">
        <ele>11.2</ele>
        <time>2024-05-09T12:35:45Z</time>
      </trkpt>
      <trkpt lat="47.87358" lon="-4.11977">
        <ele>10.4</ele>
        <time>2024-05-09T12:35:47Z</time>
      </trkpt>
      <trkpt lat="47.87363" lon="-4.11995">
        <ele>9.8</ele>
        <time>2024-05-09T12:35:50Z</time>
      </trkpt>
      <trkpt lat="47.87366" lon="-4.12008">
        <ele>9.3</ele>
        <time>2024-05-09T12:35:53Z</time>
      </trkpt>
      <trkpt lat="47.87375" lon="-4.11999">
        <ele>8</ele>
        <time>2024-05-09T12:35:59Z</time>
      </trkpt>
      <trkpt lat="47.87378" lon="-4.11985">
        <ele>7.6</ele>
        <time>2024-05-09T12:36:02Z</time>
      </trkpt>
      <trkpt lat="47.87381" lon="-4.11971">
        <ele>7.1</ele>
        <time>2024-05-09T12:36:05Z</time>
      </trkpt>
      <trkpt lat="47.87386" lon="-4.11956">
        <ele>6.5</ele>
        <time>2024-05-09T12:36:09Z</time>
      </trkpt>
      <trkpt lat="47.87391" lon="-4.11943">
        <ele>6</ele>
        <time>2024-05-09T12:36:14Z</time>
      </trkpt>
      <trkpt lat="47.87397" lon="-4.11933">
        <ele>6</ele>
        <time>2024-05-09T12:38:00Z</time>
      </trkpt>
      <trkpt lat="47.874" lon="-4.11947">
        <ele>6</ele>
        <time>2024-05-09T12:39:37Z</time>
      </trkpt>
      <trkpt lat="47.874" lon="-4.11962">
        <ele>6</ele>
        <time>2024-05-09T12:40:49Z</time>
      </trkpt>
      <trkpt lat="47.87397" lon="-4.11975">
        <ele>6</ele>
        <time>2024-05-09T12:40:58Z</time>
      </trkpt>
      <trkpt lat="47.87394" lon="-4.11989">
        <ele>6</ele>
        <time>2024-05-09T12:41:56Z</time>
      </trkpt>
      <trkpt lat="47.87396" lon="-4.12003">
        <ele>5.9</ele>
        <time>2024-05-09T12:42:07Z</time>
      </trkpt>
      <trkpt lat="47.87397" lon="-4.12017">
        <ele>5.5</ele>
        <time>2024-05-09T12:42:17Z</time>
      </trkpt>
      <trkpt lat="47.874" lon="-4.12031">
        <ele>4.7</ele>
        <time>2024-05-09T12:42:27Z</time>
      </trkpt>
      <trkpt lat="47.87403" lon="-4.12044">
        <ele>4.6</ele>
        <time>2024-05-09T12:42:36Z</time>
      </trkpt>
      <trkpt lat="47.87406" lon="-4.12057">
        <ele>4.4</ele>
        <time>2024-05-09T12:42:46Z</time>
      </trkpt>
      <trkpt lat="47.87404" lon="-4.1207">
        <ele>5.6</ele>
        <time>2024-05-09T12:42:58Z</time>
      </trkpt>
      <trkpt lat="47.87398" lon="-4.12081">
        <ele>7</ele>
        <time>2024-05-09T12:43:09Z</time>
      </trkpt>
      <trkpt lat="47.87391" lon="-4.12092">
        <ele>7.8</ele>
        <time>2024-05-09T12:43:20Z</time>
      </trkpt>
      <trkpt lat="47.87385" lon="-4.12103">
        <ele>8.6</ele>
        <time>2024-05-09T12:43:32Z</time>
      </trkpt>
      <trkpt lat="47.87383" lon="-4.12117">
        <ele>9.4</ele>
        <time>2024-05-09T12:43:46Z</time>
      </trkpt>
      <trkpt lat="47.8738" lon="-4.1213">
        <ele>10.4</ele>
        <time>2024-05-09T12:43:58Z</time>
      </trkpt>
      <trkpt lat="47.8738" lon="-4.12145">
        <ele>11.1</ele>
        <time>2024-05-09T12:44:06Z</time>
      </trkpt>
      <trkpt lat="47.87378" lon="-4.12159">
        <ele>12.5</ele>
        <time>2024-05-09T12:44:16Z</time>
      </trkpt>
      <trkpt lat="47.87377" lon="-4.12173">
        <ele>13.4</ele>
        <time>2024-05-09T12:44:25Z</time>
      </trkpt>
      <trkpt lat="47.87384" lon="-4.12182">
        <ele>13</ele>
        <time>2024-05-09T12:50:33Z</time>
      </trkpt>
      <trkpt lat="47.87393" lon="-4.12189">
        <ele>12.9</ele>
        <time>2024-05-09T12:50:37Z</time>
      </trkpt>
      <trkpt lat="47.87401" lon="-4.12197">
        <ele>13.5</ele>
        <time>2024-05-09T12:50:41Z</time>
      </trkpt>
      <trkpt lat="47.8741" lon="-4.12208">
        <ele>13.5</ele>
        <time>2024-05-09T12:50:45Z</time>
      </trkpt>
      <trkpt lat="47.87419" lon="-4.12219">
        <ele>13.3</ele>
        <time>2024-05-09T12:50:49Z</time>
      </trkpt>
      <trkpt lat="47.87425" lon="-4.1221">
        <ele>13.9</ele>
        <time>2024-05-09T12:51:04Z</time>
      </trkpt>
      <trkpt lat="47.87417" lon="-4.12217">
        <ele>13.2</ele>
        <time>2024-05-09T12:52:46Z</time>
      </trkpt>
      <trkpt lat="47.87409" lon="-4.1221">
        <ele>13.5</ele>
        <time>2024-05-09T12:53:03Z</time>
      </trkpt>
      <trkpt lat="47.87402" lon="-4.12201">
        <ele>13.5</ele>
        <time>2024-05-09T12:53:15Z</time>
      </trkpt>
      <trkpt lat="47.87393" lon="-4.12206">
        <ele>13.4</ele>
        <time>2024-05-09T12:53:29Z</time>
      </trkpt>
      <trkpt lat="47.87386" lon="-4.12214">
        <ele>14</ele>
        <time>2024-05-09T12:53:37Z</time>
      </trkpt>
      <trkpt lat="47.8738" lon="-4.12225">
        <ele>15</ele>
        <time>2024-05-09T12:53:46Z</time>
      </trkpt>
      <trkpt lat="47.87373" lon="-4.12215">
        <ele>15.3</ele>
        <time>2024-05-09T12:54:08Z</time>
      </trkpt>
      <trkpt lat="47.87376" lon="-4.12202">
        <ele>14.3</ele>
        <time>2024-05-09T13:11:07Z</time>
      </trkpt>
      <trkpt lat="47.87383" lon="-4.12194">
        <ele>13.4</ele>
        <time>2024-05-09T13:11:22Z</time>
      </trkpt>
      <trkpt lat="47.87392" lon="-4.12188">
        <ele>12.9</ele>
        <time>2024-05-09T13:11:26Z</time>
      </trkpt>
      <trkpt lat="47.874" lon="-4.12196">
        <ele>13.4</ele>
        <time>2024-05-09T13:11:30Z</time>
      </trkpt>
      <trkpt lat="47.8741" lon="-4.12197">
        <ele>13.7</ele>
        <time>2024-05-09T13:11:36Z</time>
      </trkpt>
      <trkpt lat="47.8742" lon="-4.12195">
        <ele>14.1</ele>
        <time>2024-05-09T13:11:42Z</time>
      </trkpt>
      <trkpt lat="47.87431" lon="-4.12193">
        <ele>14.4</ele>
        <time>2024-05-09T13:11:47Z</time>
      </trkpt>
      <trkpt lat="47.87441" lon="-4.12189">
        <ele>14.7</ele>
        <time>2024-05-09T13:11:51Z</time>
      </trkpt>
      <trkpt lat="47.87452" lon="-4.12187">
        <ele>15.1</ele>
        <time>2024-05-09T13:11:55Z</time>
      </trkpt>
      <trkpt lat="47.87462" lon="-4.12184">
        <ele>15.5</ele>
        <time>2024-05-09T13:11:58Z</time>
      </trkpt>
      <trkpt lat="47.87471" lon="-4.12182">
        <ele>15.9</ele>
        <time>2024-05-09T13:12:01Z</time>
      </trkpt>
      <trkpt lat="47.87481" lon="-4.1218">
        <ele>16.2</ele>
        <time>2024-05-09T13:12:04Z</time>
      </trkpt>
      <trkpt lat="47.87491" lon="-4.12177">
        <ele>16.3</ele>
        <time>2024-05-09T13:12:07Z</time>
      </trkpt>
      <trkpt lat="47.87502" lon="-4.12175">
        <ele>16.3</ele>
        <time>2024-05-09T13:12:10Z</time>
      </trkpt>
      <trkpt lat="47.87513" lon="-4.12176">
        <ele>16.3</ele>
        <time>2024-05-09T13:12:13Z</time>
      </trkpt>
      <trkpt lat="47.87523" lon="-4.12181">
        <ele>16.5</ele>
        <time>2024-05-09T13:12:16Z</time>
      </trkpt>
      <trkpt lat="47.87532" lon="-4.12186">
        <ele>16.7</ele>
        <time>2024-05-09T13:12:19Z</time>
      </trkpt>
      <trkpt lat="47.87541" lon="-4.12192">
        <ele>16.9</ele>
        <time>2024-05-09T13:12:22Z</time>
      </trkpt>
      <trkpt lat="47.8755" lon="-4.122">
        <ele>17.2</ele>
        <time>2024-05-09T13:12:25Z</time>
      </trkpt>
      <trkpt lat="47.87558" lon="-4.12209">
        <ele>17.5</ele>
        <time>2024-05-09T13:12:28Z</time>
      </trkpt>
      <trkpt lat="47.87565" lon="-4.12217">
        <ele>17.5</ele>
        <time>2024-05-09T13:12:31Z</time>
      </trkpt>
      <trkpt lat="47.87574" lon="-4.12228">
        <ele>17.5</ele>
        <time>2024-05-09T13:12:35Z</time>
      </trkpt>
      <trkpt lat="47.87581" lon="-4.12236">
        <ele>17.5</ele>
        <time>2024-05-09T13:12:39Z</time>
      </trkpt>
      <trkpt lat="47.8759" lon="-4.12244">
        <ele>17.5</ele>
        <time>2024-05-09T13:12:43Z</time>
      </trkpt>
      <trkpt lat="47.87598" lon="-4.12253">
        <ele>17.5</ele>
        <time>2024-05-09T13:12:47Z</time>
      </trkpt>
      <trkpt lat="47.87608" lon="-4.12262">
        <ele>17.5</ele>
        <time>2024-05-09T13:12:52Z</time>
      </trkpt>
      <trkpt lat="47.87616" lon="-4.12271">
        <ele>17.5</ele>
        <time>2024-05-09T13:12:56Z</time>
      </trkpt>
      <trkpt lat="47.87624" lon="-4.12279">
        <ele>17.6</ele>
        <time>2024-05-09T13:13:00Z</time>
      </trkpt>
      <trkpt lat="47.87631" lon="-4.12288">
        <ele>17.5</ele>
        <time>2024-05-09T13:13:06Z</time>
      </trkpt>
      <trkpt lat="47.8764" lon="-4.12296">
        <ele>17.6</ele>
        <time>2024-05-09T13:13:55Z</time>
      </trkpt>
      <trkpt lat="47.87647" lon="-4.12305">
        <ele>17.4</ele>
        <time>2024-05-09T13:13:58Z</time>
      </trkpt>
      <trkpt lat="47.87653" lon="-4.12316">
        <ele>17.2</ele>
        <time>2024-05-09T13:14:01Z</time>
      </trkpt>
      <trkpt lat="47.87656" lon="-4.12332">
        <ele>17.3</ele>
        <time>2024-05-09T13:14:05Z</time>
      </trkpt>
      <trkpt lat="47.87656" lon="-4.12347">
        <ele>17.9</ele>
        <time>2024-05-09T13:14:09Z</time>
      </trkpt>
      <trkpt lat="47.87652" lon="-4.1236">
        <ele>18.5</ele>
        <time>2024-05-09T13:14:13Z</time>
      </trkpt>
      <trkpt lat="47.87649" lon="-4.12375">
        <ele>18.6</ele>
        <time>2024-05-09T13:14:18Z</time>
      </trkpt>
      <trkpt lat="47.87645" lon="-4.12387">
        <ele>18.8</ele>
        <time>2024-05-09T13:14:23Z</time>
      </trkpt>
      <trkpt lat="47.87639" lon="-4.12401">
        <ele>19</ele>
        <time>2024-05-09T13:14:28Z</time>
      </trkpt>
      <trkpt lat="47.87632" lon="-4.12413">
        <ele>19.2</ele>
        <time>2024-05-09T13:14:34Z</time>
      </trkpt>
      <trkpt lat="47.87628" lon="-4.12428">
        <ele>19.4</ele>
        <time>2024-05-09T13:14:38Z</time>
      </trkpt>
      <trkpt lat="47.87623" lon="-4.12441">
        <ele>19.6</ele>
        <time>2024-05-09T13:14:43Z</time>
      </trkpt>
      <trkpt lat="47.87619" lon="-4.12454">
        <ele>19.7</ele>
        <time>2024-05-09T13:14:48Z</time>
      </trkpt>
      <trkpt lat="47.87612" lon="-4.12467">
        <ele>20</ele>
        <time>2024-05-09T13:14:52Z</time>
      </trkpt>
      <trkpt lat="47.87606" lon="-4.12477">
        <ele>20</ele>
        <time>2024-05-09T13:14:55Z</time>
      </trkpt>
      <trkpt lat="47.87599" lon="-4.12487">
        <ele>20</ele>
        <time>2024-05-09T13:14:58Z</time>
      </trkpt>
      <trkpt lat="47.8759" lon="-4.12496">
        <ele>20</ele>
        <time>2024-05-09T13:15:01Z</time>
      </trkpt>
      <trkpt lat="47.87582" lon="-4.12504">
        <ele>20</ele>
        <time>2024-05-09T13:15:04Z</time>
      </trkpt>
      <trkpt lat="47.87574" lon="-4.12514">
        <ele>20</ele>
        <time>2024-05-09T13:15:07Z</time>
      </trkpt>
      <trkpt lat="47.87565" lon="-4.12525">
        <ele>20</ele>
        <time>2024-05-09T13:15:11Z</time>
      </trkpt>
      <trkpt lat="47.87558" lon="-4.12534">
        <ele>20</ele>
        <time>2024-05-09T13:15:14Z</time>
      </trkpt>
      <trkpt lat="47.87552" lon="-4.12545">
        <ele>19.9</ele>
        <time>2024-05-09T13:15:17Z</time>
      </trkpt>
      <trkpt lat="47.87545" lon="-4.12556">
        <ele>19.6</ele>
        <time>2024-05-09T13:15:20Z</time>
      </trkpt>
      <trkpt lat="47.87538" lon="-4.12566">
        <ele>19.4</ele>
        <time>2024-05-09T13:15:23Z</time>
      </trkpt>
      <trkpt lat="47.87529" lon="-4.12575">
        <ele>19.1</ele>
        <time>2024-05-09T13:15:26Z</time>
      </trkpt>
      <trkpt lat="47.87522" lon="-4.12584">
        <ele>19</ele>
        <time>2024-05-09T13:15:29Z</time>
      </trkpt>
      <trkpt lat="47.87515" lon="-4.12596">
        <ele>19.2</ele>
        <time>2024-05-09T13:15:33Z</time>
      </trkpt>
      <trkpt lat="47.87508" lon="-4.12606">
        <ele>19.2</ele>
        <time>2024-05-09T13:15:37Z</time>
      </trkpt>
      <trkpt lat="47.875" lon="-4.12617">
        <ele>19.2</ele>
        <time>2024-05-09T13:15:41Z</time>
      </trkpt>
      <trkpt lat="47.8749" lon="-4.12629">
        <ele>19.4</ele>
        <time>2024-05-09T13:15:45Z</time>
      </trkpt>
      <trkpt lat="47.87483" lon="-4.12639">
        <ele>19.4</ele>
        <time>2024-05-09T13:15:48Z</time>
      </trkpt>
      <trkpt lat="47.87474" lon="-4.12651">
        <ele>19.5</ele>
        <time>2024-05-09T13:15:51Z</time>
      </trkpt>
      <trkpt lat="47.87467" lon="-4.1266">
        <ele>19.6</ele>
        <time>2024-05-09T13:15:54Z</time>
      </trkpt>
      <trkpt lat="47.87458" lon="-4.12671">
        <ele>19.5</ele>
        <time>2024-05-09T13:15:58Z</time>
      </trkpt>
      <trkpt lat="47.8745" lon="-4.1268">
        <ele>19.2</ele>
        <time>2024-05-09T13:16:01Z</time>
      </trkpt>
      <trkpt lat="47.87444" lon="-4.12689">
        <ele>19</ele>
        <time>2024-05-09T13:16:04Z</time>
      </trkpt>
      <trkpt lat="47.87436" lon="-4.12699">
        <ele>18.8</ele>
        <time>2024-05-09T13:16:07Z</time>
      </trkpt>
      <trkpt lat="47.87429" lon="-4.12708">
        <ele>18.9</ele>
        <time>2024-05-09T13:16:10Z</time>
      </trkpt>
      <trkpt lat="47.8742" lon="-4.12718">
        <ele>19</ele>
        <time>2024-05-09T13:16:14Z</time>
      </trkpt>
      <trkpt lat="47.87413" lon="-4.12729">
        <ele>19.2</ele>
        <time>2024-05-09T13:16:18Z</time>
      </trkpt>
      <trkpt lat="47.87405" lon="-4.12739">
        <ele>19.3</ele>
        <time>2024-05-09T13:16:22Z</time>
      </trkpt>
      <trkpt lat="47.87396" lon="-4.1275">
        <ele>19.2</ele>
        <time>2024-05-09T13:16:26Z</time>
      </trkpt>
      <trkpt lat="47.87389" lon="-4.12759">
        <ele>19.3</ele>
        <time>2024-05-09T13:16:30Z</time>
      </trkpt>
      <trkpt lat="47.87385" lon="-4.12773">
        <ele>19.8</ele>
        <time>2024-05-09T13:16:36Z</time>
      </trkpt>
      <trkpt lat="47.8739" lon="-4.12788">
        <ele>20</ele>
        <time>2024-05-09T13:16:40Z</time>
      </trkpt>
      <trkpt lat="47.87394" lon="-4.12801">
        <ele>20.2</ele>
        <time>2024-05-09T13:16:43Z</time>
      </trkpt>
      <trkpt lat="47.874" lon="-4.12817">
        <ele>20.8</ele>
        <time>2024-05-09T13:16:47Z</time>
      </trkpt>
      <trkpt lat="47.87405" lon="-4.12829">
        <ele>21.4</ele>
        <time>2024-05-09T13:16:50Z</time>
      </trkpt>
      <trkpt lat="47.8741" lon="-4.1284">
        <ele>21.8</ele>
        <time>2024-05-09T13:16:53Z</time>
      </trkpt>
      <trkpt lat="47.87414" lon="-4.12852">
        <ele>21.9</ele>
        <time>2024-05-09T13:16:56Z</time>
      </trkpt>
      <trkpt lat="47.87418" lon="-4.12865">
        <ele>22</ele>
        <time>2024-05-09T13:17:00Z</time>
      </trkpt>
      <trkpt lat="47.87423" lon="-4.12878">
        <ele>22.1</ele>
        <time>2024-05-09T13:17:04Z</time>
      </trkpt>
      <trkpt lat="47.87428" lon="-4.12891">
        <ele>22.5</ele>
        <time>2024-05-09T13:17:08Z</time>
      </trkpt>
      <trkpt lat="47.87433" lon="-4.12904">
        <ele>22.8</ele>
        <time>2024-05-09T13:17:12Z</time>
      </trkpt>
      <trkpt lat="47.87438" lon="-4.12919">
        <ele>23</ele>
        <time>2024-05-09T13:17:17Z</time>
      </trkpt>
      <trkpt lat="47.87443" lon="-4.12933">
        <ele>23</ele>
        <time>2024-05-09T13:17:22Z</time>
      </trkpt>
      <trkpt lat="47.87449" lon="-4.12946">
        <ele>23.1</ele>
        <time>2024-05-09T13:17:27Z</time>
      </trkpt>
      <trkpt lat="47.87455" lon="-4.12955">
        <ele>23.2</ele>
        <time>2024-05-09T13:17:31Z</time>
      </trkpt>
      <trkpt lat="47.87464" lon="-4.12967">
        <ele>23.1</ele>
        <time>2024-05-09T13:17:35Z</time>
      </trkpt>
      <trkpt lat="47.87471" lon="-4.12975">
        <ele>23</ele>
        <time>2024-05-09T13:17:38Z</time>
      </trkpt>
      <trkpt lat="47.87479" lon="-4.12987">
        <ele>23</ele>
        <time>2024-05-09T13:17:42Z</time>
      </trkpt>
      <trkpt lat="47.87486" lon="-4.13">
        <ele>23</ele>
        <time>2024-05-09T13:17:46Z</time>
      </trkpt>
      <trkpt lat="47.87491" lon="-4.13016">
        <ele>23.2</ele>
        <time>2024-05-09T13:17:50Z</time>
      </trkpt>
      <trkpt lat="47.87496" lon="-4.13031">
        <ele>23.1</ele>
        <time>2024-05-09T13:17:54Z</time>
      </trkpt>
      <trkpt lat="47.87505" lon="-4.13043">
        <ele>23</ele>
        <time>2024-05-09T13:17:58Z</time>
      </trkpt>
      <trkpt lat="47.87512" lon="-4.13053">
        <ele>23</ele>
        <time>2024-05-09T13:18:01Z</time>
      </trkpt>
      <trkpt lat="47.87519" lon="-4.13062">
        <ele>23</ele>
        <time>2024-05-09T13:18:04Z</time>
      </trkpt>
      <trkpt lat="47.87526" lon="-4.13072">
        <ele>23</ele>
        <time>2024-05-09T13:18:07Z</time>
      </trkpt>
      <trkpt lat="47.87533" lon="-4.13081">
        <ele>22.8</ele>
        <time>2024-05-09T13:18:10Z</time>
      </trkpt>
      <trkpt lat="47.8754" lon="-4.1309">
        <ele>22.7</ele>
        <time>2024-05-09T13:18:13Z</time>
      </trkpt>
      <trkpt lat="47.87548" lon="-4.13101">
        <ele>22.7</ele>
        <time>2024-05-09T13:18:16Z</time>
      </trkpt>
      <trkpt lat="47.87555" lon="-4.1311">
        <ele>23</ele>
        <time>2024-05-09T13:18:19Z</time>
      </trkpt>
      <trkpt lat="47.87563" lon="-4.13121">
        <ele>22.7</ele>
        <time>2024-05-09T13:18:22Z</time>
      </trkpt>
      <trkpt lat="47.8757" lon="-4.1313">
        <ele>22.5</ele>
        <time>2024-05-09T13:18:25Z</time>
      </trkpt>
      <trkpt lat="47.87579" lon="-4.13141">
        <ele>22.2</ele>
        <time>2024-05-09T13:18:29Z</time>
      </trkpt>
      <trkpt lat="47.87588" lon="-4.13152">
        <ele>22.3</ele>
        <time>2024-05-09T13:18:32Z</time>
      </trkpt>
      <trkpt lat="47.87596" lon="-4.13163">
        <ele>22.4</ele>
        <time>2024-05-09T13:18:35Z</time>
      </trkpt>
      <trkpt lat="47.87603" lon="-4.13173">
        <ele>22.4</ele>
        <time>2024-05-09T13:18:38Z</time>
      </trkpt>
      <trkpt lat="47.87611" lon="-4.13183">
        <ele>22.6</ele>
        <time>2024-05-09T13:18:41Z</time>
      </trkpt>
      <trkpt lat="47.87619" lon="-4.13193">
        <ele>22.6</ele>
        <time>2024-05-09T13:18:44Z</time>
      </trkpt>
      <trkpt lat="47.87627" lon="-4.13202">
        <ele>22.6</ele>
        <time>2024-05-09T13:18:47Z</time>
      </trkpt>
      <trkpt lat="47.87635" lon="-4.13214">
        <ele>22.7</ele>
        <time>2024-05-09T13:18:50Z</time>
      </trkpt>
      <trkpt lat="47.87643" lon="-4.13225">
        <ele>22.9</ele>
        <time>2024-05-09T13:18:53Z</time>
      </trkpt>
      <trkpt lat="47.87652" lon="-4.13235">
        <ele>22.7</ele>
        <time>2024-05-09T13:18:56Z</time>
      </trkpt>
      <trkpt lat="47.8766" lon="-4.13246">
        <ele>22.9</ele>
        <time>2024-05-09T13:18:59Z</time>
      </trkpt>
      <trkpt lat="47.87668" lon="-4.13257">
        <ele>23.2</ele>
        <time>2024-05-09T13:19:02Z</time>
      </trkpt>
      <trkpt lat="47.87675" lon="-4.13268">
        <ele>23.5</ele>
        <time>2024-05-09T13:19:05Z</time>
      </trkpt>
      <trkpt lat="47.87683" lon="-4.13277">
        <ele>23.9</ele>
        <time>2024-05-09T13:19:08Z</time>
      </trkpt>
      <trkpt lat="47.87691" lon="-4.13285">
        <ele>24</ele>
        <time>2024-05-09T13:19:11Z</time>
      </trkpt>
      <trkpt lat="47.87699" lon="-4.13294">
        <ele>24</ele>
        <time>2024-05-09T13:19:14Z</time>
      </trkpt>
      <trkpt lat="47.87707" lon="-4.13303">
        <ele>24</ele>
        <time>2024-05-09T13:19:17Z</time>
      </trkpt>
      <trkpt lat="47.87715" lon="-4.13316">
        <ele>24.3</ele>
        <time>2024-05-09T13:19:21Z</time>
      </trkpt>
      <trkpt lat="47.87723" lon="-4.13327">
        <ele>24.8</ele>
        <time>2024-05-09T13:19:25Z</time>
      </trkpt>
      <trkpt lat="47.87731" lon="-4.13341">
        <ele>25.1</ele>
        <time>2024-05-09T13:19:29Z</time>
      </trkpt>
      <trkpt lat="47.87739" lon="-4.13352">
        <ele>25.4</ele>
        <time>2024-05-09T13:19:33Z</time>
      </trkpt>
      <trkpt lat="47.87745" lon="-4.13365">
        <ele>25.8</ele>
        <time>2024-05-09T13:19:37Z</time>
      </trkpt>
      <trkpt lat="47.87752" lon="-4.13376">
        <ele>26.1</ele>
        <time>2024-05-09T13:19:41Z</time>
      </trkpt>
      <trkpt lat="47.8776" lon="-4.13385">
        <ele>26.7</ele>
        <time>2024-05-09T13:19:45Z</time>
      </trkpt>
      <trkpt lat="47.87767" lon="-4.13395">
        <ele>27.1</ele>
        <time>2024-05-09T13:19:49Z</time>
      </trkpt>
      <trkpt lat="47.87776" lon="-4.13402">
        <ele>27.4</ele>
        <time>2024-05-09T13:19:53Z</time>
      </trkpt>
      <trkpt lat="47.87785" lon="-4.13407">
        <ele>27.5</ele>
        <time>2024-05-09T13:19:57Z</time>
      </trkpt>
      <trkpt lat="47.87795" lon="-4.13406">
        <ele>27.8</ele>
        <time>2024-05-09T13:20:01Z</time>
      </trkpt>
      <trkpt lat="47.87801" lon="-4.13395">
        <ele>28</ele>
        <time>2024-05-09T13:20:04Z</time>
      </trkpt>
      <trkpt lat="47.87804" lon="-4.13382">
        <ele>27.8</ele>
        <time>2024-05-09T13:20:07Z</time>
      </trkpt>
      <trkpt lat="47.87808" lon="-4.13368">
        <ele>27.4</ele>
        <time>2024-05-09T13:20:10Z</time>
      </trkpt>
      <trkpt lat="47.87814" lon="-4.13358">
        <ele>27.7</ele>
        <time>2024-05-09T13:20:46Z</time>
      </trkpt>
      <trkpt lat="47.87818" lon="-4.13341">
        <ele>28</ele>
        <time>2024-05-09T13:20:50Z</time>
      </trkpt>
      <trkpt lat="47.87822" lon="-4.13323">
        <ele>27.4</ele>
        <time>2024-05-09T13:20:53Z</time>
      </trkpt>
      <trkpt lat="47.87825" lon="-4.13304">
        <ele>26.3</ele>
        <time>2024-05-09T13:20:56Z</time>
      </trkpt>
      <trkpt lat="47.87827" lon="-4.1329">
        <ele>26.2</ele>
        <time>2024-05-09T13:20:58Z</time>
      </trkpt>
      <trkpt lat="47.87831" lon="-4.13271">
        <ele>26.1</ele>
        <time>2024-05-09T13:21:01Z</time>
      </trkpt>
      <trkpt lat="47.87834" lon="-4.13258">
        <ele>26</ele>
        <time>2024-05-09T13:21:03Z</time>
      </trkpt>
      <trkpt lat="47.87837" lon="-4.13244">
        <ele>26.2</ele>
        <time>2024-05-09T13:21:05Z</time>
      </trkpt>
      <trkpt lat="47.87841" lon="-4.13231">
        <ele>26.2</ele>
        <time>2024-05-09T13:21:07Z</time>
      </trkpt>
      <trkpt lat="47.87844" lon="-4.13217">
        <ele>25.8</ele>
        <time>2024-05-09T13:21:09Z</time>
      </trkpt>
      <trkpt lat="47.87849" lon="-4.13202">
        <ele>25.3</ele>
        <time>2024-05-09T13:21:11Z</time>
      </trkpt>
      <trkpt lat="47.87853" lon="-4.13188">
        <ele>24.9</ele>
        <time>2024-05-09T13:21:13Z</time>
      </trkpt>
      <trkpt lat="47.87857" lon="-4.13174">
        <ele>24.9</ele>
        <time>2024-05-09T13:21:15Z</time>
      </trkpt>
      <trkpt lat="47.87862" lon="-4.13159">
        <ele>24.7</ele>
        <time>2024-05-09T13:21:17Z</time>
      </trkpt>
      <trkpt lat="47.87867" lon="-4.13144">
        <ele>24</ele>
        <time>2024-05-09T13:21:19Z</time>
      </trkpt>
      <trkpt lat="47.87873" lon="-4.1313">
        <ele>23.2</ele>
        <time>2024-05-09T13:21:21Z</time>
      </trkpt>
      <trkpt lat="47.87879" lon="-4.13116">
        <ele>22.8</ele>
        <time>2024-05-09T13:21:23Z</time>
      </trkpt>
      <trkpt lat="47.87886" lon="-4.13098">
        <ele>22.9</ele>
        <time>2024-05-09T13:21:25Z</time>
      </trkpt>
      <trkpt lat="47.87892" lon="-4.13084">
        <ele>22.9</ele>
        <time>2024-05-09T13:21:27Z</time>
      </trkpt>
      <trkpt lat="47.87898" lon="-4.13069">
        <ele>22</ele>
        <time>2024-05-09T13:21:29Z</time>
      </trkpt>
      <trkpt lat="47.87905" lon="-4.13055">
        <ele>21.6</ele>
        <time>2024-05-09T13:21:31Z</time>
      </trkpt>
      <trkpt lat="47.87911" lon="-4.13042">
        <ele>21.7</ele>
        <time>2024-05-09T13:21:33Z</time>
      </trkpt>
      <trkpt lat="47.87919" lon="-4.13029">
        <ele>22.1</ele>
        <time>2024-05-09T13:21:35Z</time>
      </trkpt>
      <trkpt lat="47.87925" lon="-4.13017">
        <ele>22.2</ele>
        <time>2024-05-09T13:21:37Z</time>
      </trkpt>
      <trkpt lat="47.87933" lon="-4.13004">
        <ele>22.1</ele>
        <time>2024-05-09T13:21:39Z</time>
      </trkpt>
      <trkpt lat="47.87941" lon="-4.12993">
        <ele>22</ele>
        <time>2024-05-09T13:21:41Z</time>
      </trkpt>
      <trkpt lat="47.87949" lon="-4.12979">
        <ele>22</ele>
        <time>2024-05-09T13:21:43Z</time>
      </trkpt>
      <trkpt lat="47.87958" lon="-4.12965">
        <ele>21.9</ele>
        <time>2024-05-09T13:21:45Z</time>
      </trkpt>
      <trkpt lat="47.87967" lon="-4.12952">
        <ele>21.4</ele>
        <time>2024-05-09T13:21:47Z</time>
      </trkpt>
      <trkpt lat="47.87977" lon="-4.12939">
        <ele>21.4</ele>
        <time>2024-05-09T13:21:49Z</time>
      </trkpt>
      <trkpt lat="47.87986" lon="-4.12926">
        <ele>21.7</ele>
        <time>2024-05-09T13:21:51Z</time>
      </trkpt>
      <trkpt lat="47.87996" lon="-4.12911">
        <ele>21.1</ele>
        <time>2024-05-09T13:21:53Z</time>
      </trkpt>
      <trkpt lat="47.88004" lon="-4.12898">
        <ele>20.9</ele>
        <time>2024-05-09T13:21:55Z</time>
      </trkpt>
      <trkpt lat="47.88012" lon="-4.12887">
        <ele>20.6</ele>
        <time>2024-05-09T13:21:57Z</time>
      </trkpt>
      <trkpt lat="47.8802" lon="-4.12875">
        <ele>20.3</ele>
        <time>2024-05-09T13:21:59Z</time>
      </trkpt>
      <trkpt lat="47.88027" lon="-4.12864">
        <ele>20</ele>
        <time>2024-05-09T13:22:01Z</time>
      </trkpt>
      <trkpt lat="47.88036" lon="-4.12853">
        <ele>20</ele>
        <time>2024-05-09T13:22:03Z</time>
      </trkpt>
      <trkpt lat="47.88044" lon="-4.12841">
        <ele>20</ele>
        <time>2024-05-09T13:22:05Z</time>
      </trkpt>
      <trkpt lat="47.88053" lon="-4.12828">
        <ele>19.8</ele>
        <time>2024-05-09T13:22:07Z</time>
      </trkpt>
      <trkpt lat="47.88061" lon="-4.12815">
        <ele>19.5</ele>
        <time>2024-05-09T13:22:09Z</time>
      </trkpt>
      <trkpt lat="47.8807" lon="-4.12803">
        <ele>19.5</ele>
        <time>2024-05-09T13:22:11Z</time>
      </trkpt>
      <trkpt lat="47.88078" lon="-4.1279">
        <ele>19.4</ele>
        <time>2024-05-09T13:22:13Z</time>
      </trkpt>
      <trkpt lat="47.88085" lon="-4.12779">
        <ele>19.1</ele>
        <time>2024-05-09T13:22:15Z</time>
      </trkpt>
      <trkpt lat="47.88093" lon="-4.12767">
        <ele>19.2</ele>
        <time>2024-05-09T13:22:17Z</time>
      </trkpt>
      <trkpt lat="47.881" lon="-4.12755">
        <ele>19.1</ele>
        <time>2024-05-09T13:22:19Z</time>
      </trkpt>
      <trkpt lat="47.88108" lon="-4.12744">
        <ele>19</ele>
        <time>2024-05-09T13:22:21Z</time>
      </trkpt>
      <trkpt lat="47.88117" lon="-4.12729">
        <ele>19</ele>
        <time>2024-05-09T13:22:24Z</time>
      </trkpt>
      <trkpt lat="47.88119" lon="-4.12714">
        <ele>19</ele>
        <time>2024-05-09T13:22:26Z</time>
      </trkpt>
      <trkpt lat="47.88124" lon="-4.12702">
        <ele>19</ele>
        <time>2024-05-09T13:22:28Z</time>
      </trkpt>
      <trkpt lat="47.8813" lon="-4.12691">
        <ele>19</ele>
        <time>2024-05-09T13:22:30Z</time>
      </trkpt>
      <trkpt lat="47.88139" lon="-4.12678">
        <ele>19</ele>
        <time>2024-05-09T13:22:33Z</time>
      </trkpt>
      <trkpt lat="47.88149" lon="-4.12664">
        <ele>19.3</ele>
        <time>2024-05-09T13:22:36Z</time>
      </trkpt>
      <trkpt lat="47.88158" lon="-4.1265">
        <ele>19.3</ele>
        <time>2024-05-09T13:22:39Z</time>
      </trkpt>
      <trkpt lat="47.88166" lon="-4.12639">
        <ele>19</ele>
        <time>2024-05-09T13:22:42Z</time>
      </trkpt>
      <trkpt lat="47.88172" lon="-4.12627">
        <ele>19.5</ele>
        <time>2024-05-09T13:22:46Z</time>
      </trkpt>
      <trkpt lat="47.88179" lon="-4.12614">
        <ele>19.9</ele>
        <time>2024-05-09T13:22:50Z</time>
      </trkpt>
      <trkpt lat="47.88184" lon="-4.12601">
        <ele>19.9</ele>
        <time>2024-05-09T13:22:54Z</time>
      </trkpt>
      <trkpt lat="47.88192" lon="-4.12591">
        <ele>19.9</ele>
        <time>2024-05-09T13:22:57Z</time>
      </trkpt>
      <trkpt lat="47.88198" lon="-4.12581">
        <ele>20</ele>
        <time>2024-05-09T13:23:00Z</time>
      </trkpt>
      <trkpt lat="47.88205" lon="-4.1257">
        <ele>20.1</ele>
        <time>2024-05-09T13:23:03Z</time>
      </trkpt>
      <trkpt lat="47.88211" lon="-4.12557">
        <ele>20.2</ele>
        <time>2024-05-09T13:23:06Z</time>
      </trkpt>
      <trkpt lat="47.88218" lon="-4.12545">
        <ele>20.4</ele>
        <time>2024-05-09T13:23:09Z</time>
      </trkpt>
      <trkpt lat="47.88226" lon="-4.12532">
        <ele>20.3</ele>
        <time>2024-05-09T13:23:12Z</time>
      </trkpt>
      <trkpt lat="47.88233" lon="-4.12521">
        <ele>20.2</ele>
        <time>2024-05-09T13:23:15Z</time>
      </trkpt>
      <trkpt lat="47.8824" lon="-4.1251">
        <ele>20</ele>
        <time>2024-05-09T13:23:18Z</time>
      </trkpt>
      <trkpt lat="47.88248" lon="-4.12499">
        <ele>19.9</ele>
        <time>2024-05-09T13:23:21Z</time>
      </trkpt>
      <trkpt lat="47.88257" lon="-4.12486">
        <ele>19.9</ele>
        <time>2024-05-09T13:23:24Z</time>
      </trkpt>
      <trkpt lat="47.88263" lon="-4.12476">
        <ele>19.7</ele>
        <time>2024-05-09T13:23:27Z</time>
      </trkpt>
      <trkpt lat="47.88271" lon="-4.12467">
        <ele>19.4</ele>
        <time>2024-05-09T13:23:30Z</time>
      </trkpt>
      <trkpt lat="47.88279" lon="-4.12458">
        <ele>19.3</ele>
        <time>2024-05-09T13:23:33Z</time>
      </trkpt>
      <trkpt lat="47.88288" lon="-4.12449">
        <ele>20.1</ele>
        <time>2024-05-09T13:23:37Z</time>
      </trkpt>
      <trkpt lat="47.88295" lon="-4.12438">
        <ele>20.2</ele>
        <time>2024-05-09T13:23:41Z</time>
      </trkpt>
      <trkpt lat="47.88302" lon="-4.12427">
        <ele>19.4</ele>
        <time>2024-05-09T13:23:45Z</time>
      </trkpt>
      <trkpt lat="47.88307" lon="-4.12414">
        <ele>18</ele>
        <time>2024-05-09T13:23:50Z</time>
      </trkpt>
      <trkpt lat="47.88315" lon="-4.12403">
        <ele>17.6</ele>
        <time>2024-05-09T13:23:53Z</time>
      </trkpt>
      <trkpt lat="47.88326" lon="-4.12393">
        <ele>16.8</ele>
        <time>2024-05-09T13:23:56Z</time>
      </trkpt>
      <trkpt lat="47.88338" lon="-4.12394">
        <ele>16.7</ele>
        <time>2024-05-09T13:23:59Z</time>
      </trkpt>
      <trkpt lat="47.88345" lon="-4.12404">
        <ele>17.7</ele>
        <time>2024-05-09T13:24:01Z</time>
      </trkpt>
      <trkpt lat="47.8835" lon="-4.12417">
        <ele>19</ele>
        <time>2024-05-09T13:24:05Z</time>
      </trkpt>
      <trkpt lat="47.88354" lon="-4.12431">
        <ele>19.2</ele>
        <time>2024-05-09T13:24:09Z</time>
      </trkpt>
      <trkpt lat="47.8836" lon="-4.1244">
        <ele>18.8</ele>
        <time>2024-05-09T13:24:12Z</time>
      </trkpt>
      <trkpt lat="47.88369" lon="-4.12449">
        <ele>18.8</ele>
        <time>2024-05-09T13:24:16Z</time>
      </trkpt>
      <trkpt lat="47.88376" lon="-4.12458">
        <ele>18.9</ele>
        <time>2024-05-09T13:24:20Z</time>
      </trkpt>
      <trkpt lat="47.88384" lon="-4.12466">
        <ele>18.9</ele>
        <time>2024-05-09T13:24:24Z</time>
      </trkpt>
      <trkpt lat="47.88392" lon="-4.12476">
        <ele>18.8</ele>
        <time>2024-05-09T13:24:30Z</time>
      </trkpt>
      <trkpt lat="47.88401" lon="-4.12484">
        <ele>18.5</ele>
        <time>2024-05-09T13:25:35Z</time>
      </trkpt>
      <trkpt lat="47.88408" lon="-4.12496">
        <ele>19.1</ele>
        <time>2024-05-09T13:25:42Z</time>
      </trkpt>
      <trkpt lat="47.88414" lon="-4.12507">
        <ele>19.7</ele>
        <time>2024-05-09T13:25:46Z</time>
      </trkpt>
      <trkpt lat="47.88421" lon="-4.1252">
        <ele>19.9</ele>
        <time>2024-05-09T13:25:51Z</time>
      </trkpt>
      <trkpt lat="47.88427" lon="-4.1253">
        <ele>20.1</ele>
        <time>2024-05-09T13:25:54Z</time>
      </trkpt>
      <trkpt lat="47.88436" lon="-4.12542">
        <ele>20.5</ele>
        <time>2024-05-09T13:25:57Z</time>
      </trkpt>
      <trkpt lat="47.88444" lon="-4.12554">
        <ele>20.9</ele>
        <time>2024-05-09T13:26:01Z</time>
      </trkpt>
      <trkpt lat="47.88452" lon="-4.12565">
        <ele>20.9</ele>
        <time>2024-05-09T13:26:04Z</time>
      </trkpt>
      <trkpt lat="47.8846" lon="-4.12575">
        <ele>20.9</ele>
        <time>2024-05-09T13:26:07Z</time>
      </trkpt>
      <trkpt lat="47.88466" lon="-4.12586">
        <ele>21</ele>
        <time>2024-05-09T13:26:10Z</time>
      </trkpt>
      <trkpt lat="47.88472" lon="-4.12598">
        <ele>21.1</ele>
        <time>2024-05-09T13:26:13Z</time>
      </trkpt>
      <trkpt lat="47.88478" lon="-4.12609">
        <ele>21.1</ele>
        <time>2024-05-09T13:26:16Z</time>
      </trkpt>
      <trkpt lat="47.88486" lon="-4.12623">
        <ele>21.1</ele>
        <time>2024-05-09T13:26:20Z</time>
      </trkpt>
      <trkpt lat="47.88496" lon="-4.12636">
        <ele>21.2</ele>
        <time>2024-05-09T13:26:23Z</time>
      </trkpt>
      <trkpt lat="47.88503" lon="-4.12646">
        <ele>21.1</ele>
        <time>2024-05-09T13:26:25Z</time>
      </trkpt>
      <trkpt lat="47.8851" lon="-4.12656">
        <ele>20.7</ele>
        <time>2024-05-09T13:26:27Z</time>
      </trkpt>
      <trkpt lat="47.88518" lon="-4.12664">
        <ele>20.3</ele>
        <time>2024-05-09T13:26:29Z</time>
      </trkpt>
      <trkpt lat="47.88525" lon="-4.12674">
        <ele>20</ele>
        <time>2024-05-09T13:26:31Z</time>
      </trkpt>
      <trkpt lat="47.88533" lon="-4.12687">
        <ele>19.6</ele>
        <time>2024-05-09T13:26:34Z</time>
      </trkpt>
      <trkpt lat="47.8854" lon="-4.127">
        <ele>19</ele>
        <time>2024-05-09T13:26:37Z</time>
      </trkpt>
      <trkpt lat="47.88547" lon="-4.12714">
        <ele>18.7</ele>
        <time>2024-05-09T13:26:40Z</time>
      </trkpt>
      <trkpt lat="47.88552" lon="-4.12727">
        <ele>18.6</ele>
        <time>2024-05-09T13:26:43Z</time>
      </trkpt>
      <trkpt lat="47.88557" lon="-4.12739">
        <ele>18.4</ele>
        <time>2024-05-09T13:26:46Z</time>
      </trkpt>
      <trkpt lat="47.88562" lon="-4.12752">
        <ele>18</ele>
        <time>2024-05-09T13:26:50Z</time>
      </trkpt>
      <trkpt lat="47.88567" lon="-4.12766">
        <ele>18.2</ele>
        <time>2024-05-09T13:26:54Z</time>
      </trkpt>
      <trkpt lat="47.8857" lon="-4.12782">
        <ele>18.7</ele>
        <time>2024-05-09T13:26:59Z</time>
      </trkpt>
      <trkpt lat="47.88577" lon="-4.12797">
        <ele>18.4</ele>
        <time>2024-05-09T13:27:02Z</time>
      </trkpt>
      <trkpt lat="47.88582" lon="-4.12809">
        <ele>18</ele>
        <time>2024-05-09T13:27:04Z</time>
      </trkpt>
      <trkpt lat="47.88587" lon="-4.12822">
        <ele>16.7</ele>
        <time>2024-05-09T13:27:06Z</time>
      </trkpt>
      <trkpt lat="47.88591" lon="-4.12839">
        <ele>15.7</ele>
        <time>2024-05-09T13:27:09Z</time>
      </trkpt>
      <trkpt lat="47.88594" lon="-4.12852">
        <ele>15.5</ele>
        <time>2024-05-09T13:27:13Z</time>
      </trkpt>
      <trkpt lat="47.88602" lon="-4.12863">
        <ele>15.1</ele>
        <time>2024-05-09T13:27:16Z</time>
      </trkpt>
      <trkpt lat="47.8861" lon="-4.12873">
        <ele>15</ele>
        <time>2024-05-09T13:27:19Z</time>
      </trkpt>
      <trkpt lat="47.8862" lon="-4.12884">
        <ele>14.7</ele>
        <time>2024-05-09T13:27:22Z</time>
      </trkpt>
      <trkpt lat="47.88629" lon="-4.1289">
        <ele>14.2</ele>
        <time>2024-05-09T13:27:24Z</time>
      </trkpt>
      <trkpt lat="47.88638" lon="-4.12898">
        <ele>14.1</ele>
        <time>2024-05-09T13:27:26Z</time>
      </trkpt>
      <trkpt lat="47.88646" lon="-4.12905">
        <ele>14.1</ele>
        <time>2024-05-09T13:27:28Z</time>
      </trkpt>
      <trkpt lat="47.88657" lon="-4.12916">
        <ele>14.6</ele>
        <time>2024-05-09T13:27:31Z</time>
      </trkpt>
      <trkpt lat="47.8868" lon="-4.12942">
        <ele>13.8</ele>
        <time>2024-05-09T13:27:32Z</time>
      </trkpt>
      <trkpt lat="47.88686" lon="-4.12957">
        <ele>14.1</ele>
        <time>2024-05-09T13:27:34Z</time>
      </trkpt>
      <trkpt lat="47.88694" lon="-4.12975">
        <ele>14.1</ele>
        <time>2024-05-09T13:27:36Z</time>
      </trkpt>
      <trkpt lat="47.88698" lon="-4.12993">
        <ele>13.8</ele>
        <time>2024-05-09T13:27:38Z</time>
      </trkpt>
      <trkpt lat="47.88698" lon="-4.13011">
        <ele>14.6</ele>
        <time>2024-05-09T13:27:41Z</time>
      </trkpt>
      <trkpt lat="47.88698" lon="-4.13026">
        <ele>14.9</ele>
        <time>2024-05-09T13:27:44Z</time>
      </trkpt>
      <trkpt lat="47.88697" lon="-4.1304">
        <ele>14.8</ele>
        <time>2024-05-09T13:27:48Z</time>
      </trkpt>
      <trkpt lat="47.88697" lon="-4.13055">
        <ele>14.3</ele>
        <time>2024-05-09T13:27:53Z</time>
      </trkpt>
      <trkpt lat="47.88696" lon="-4.13071">
        <ele>14.1</ele>
        <time>2024-05-09T13:27:57Z</time>
      </trkpt>
      <trkpt lat="47.88693" lon="-4.13086">
        <ele>14.3</ele>
        <time>2024-05-09T13:28:00Z</time>
      </trkpt>
      <trkpt lat="47.88689" lon="-4.13101">
        <ele>14.4</ele>
        <time>2024-05-09T13:28:02Z</time>
      </trkpt>
      <trkpt lat="47.88684" lon="-4.13115">
        <ele>14.5</ele>
        <time>2024-05-09T13:28:04Z</time>
      </trkpt>
      <trkpt lat="47.8868" lon="-4.13127">
        <ele>13.9</ele>
        <time>2024-05-09T13:28:06Z</time>
      </trkpt>
      <trkpt lat="47.88675" lon="-4.1314">
        <ele>13.3</ele>
        <time>2024-05-09T13:28:08Z</time>
      </trkpt>
      <trkpt lat="47.88671" lon="-4.13155">
        <ele>12.5</ele>
        <time>2024-05-09T13:28:10Z</time>
      </trkpt>
      <trkpt lat="47.8867" lon="-4.13169">
        <ele>11.1</ele>
        <time>2024-05-09T13:28:12Z</time>
      </trkpt>
      <trkpt lat="47.88679" lon="-4.13182">
        <ele>9.2</ele>
        <time>2024-05-09T13:28:15Z</time>
      </trkpt>
      <trkpt lat="47.88692" lon="-4.1319">
        <ele>7.9</ele>
        <time>2024-05-09T13:28:17Z</time>
      </trkpt>
      <trkpt lat="47.88716" lon="-4.13189">
        <ele>7.1</ele>
        <time>2024-05-09T13:28:19Z</time>
      </trkpt>
      <trkpt lat="47.88726" lon="-4.13189">
        <ele>7.1</ele>
        <time>2024-05-09T13:28:21Z</time>
      </trkpt>
      <trkpt lat="47.88741" lon="-4.1319">
        <ele>7.6</ele>
        <time>2024-05-09T13:28:24Z</time>
      </trkpt>
      <trkpt lat="47.88751" lon="-4.13195">
        <ele>9</ele>
        <time>2024-05-09T13:28:27Z</time>
      </trkpt>
      <trkpt lat="47.8876" lon="-4.13202">
        <ele>9.3</ele>
        <time>2024-05-09T13:28:31Z</time>
      </trkpt>
      <trkpt lat="47.88768" lon="-4.1321">
        <ele>9.8</ele>
        <time>2024-05-09T13:28:37Z</time>
      </trkpt>
      <trkpt lat="47.88778" lon="-4.13212">
        <ele>9.3</ele>
        <time>2024-05-09T13:28:40Z</time>
      </trkpt>
      <trkpt lat="47.88791" lon="-4.13204">
        <ele>8.7</ele>
        <time>2024-05-09T13:28:43Z</time>
      </trkpt>
      <trkpt lat="47.88797" lon="-4.13193">
        <ele>7.9</ele>
        <time>2024-05-09T13:28:46Z</time>
      </trkpt>
      <trkpt lat="47.88807" lon="-4.13183">
        <ele>8.3</ele>
        <time>2024-05-09T13:28:49Z</time>
      </trkpt>
      <trkpt lat="47.88813" lon="-4.13171">
        <ele>8.2</ele>
        <time>2024-05-09T13:28:53Z</time>
      </trkpt>
      <trkpt lat="47.88821" lon="-4.1316">
        <ele>7.8</ele>
        <time>2024-05-09T13:28:56Z</time>
      </trkpt>
      <trkpt lat="47.88829" lon="-4.13144">
        <ele>7.5</ele>
        <time>2024-05-09T13:28:59Z</time>
      </trkpt>
      <trkpt lat="47.88834" lon="-4.1313">
        <ele>7.1</ele>
        <time>2024-05-09T13:29:01Z</time>
      </trkpt>
      <trkpt lat="47.88839" lon="-4.13117">
        <ele>6.3</ele>
        <time>2024-05-09T13:29:03Z</time>
      </trkpt>
      <trkpt lat="47.88845" lon="-4.13101">
        <ele>6.1</ele>
        <time>2024-05-09T13:29:06Z</time>
      </trkpt>
      <trkpt lat="47.88849" lon="-4.13089">
        <ele>6.2</ele>
        <time>2024-05-09T13:29:09Z</time>
      </trkpt>
      <trkpt lat="47.88856" lon="-4.13075">
        <ele>6.9</ele>
        <time>2024-05-09T13:29:12Z</time>
      </trkpt>
      <trkpt lat="47.88863" lon="-4.13063">
        <ele>7.4</ele>
        <time>2024-05-09T13:29:15Z</time>
      </trkpt>
      <trkpt lat="47.8887" lon="-4.13053">
        <ele>7.6</ele>
        <time>2024-05-09T13:29:18Z</time>
      </trkpt>
      <trkpt lat="47.88879" lon="-4.13045">
        <ele>7.7</ele>
        <time>2024-05-09T13:29:21Z</time>
      </trkpt>
      <trkpt lat="47.88886" lon="-4.13036">
        <ele>7.5</ele>
        <time>2024-05-09T13:29:26Z</time>
      </trkpt>
      <trkpt lat="47.88896" lon="-4.13031">
        <ele>7.5</ele>
        <time>2024-05-09T13:29:30Z</time>
      </trkpt>
      <trkpt lat="47.88908" lon="-4.13028">
        <ele>7.7</ele>
        <time>2024-05-09T13:29:34Z</time>
      </trkpt>
      <trkpt lat="47.88919" lon="-4.13028">
        <ele>8</ele>
        <time>2024-05-09T13:29:38Z</time>
      </trkpt>
      <trkpt lat="47.8893" lon="-4.13033">
        <ele>8.4</ele>
        <time>2024-05-09T13:29:42Z</time>
      </trkpt>
      <trkpt lat="47.88938" lon="-4.13041">
        <ele>9</ele>
        <time>2024-05-09T13:29:46Z</time>
      </trkpt>
      <trkpt lat="47.88947" lon="-4.13051">
        <ele>9.5</ele>
        <time>2024-05-09T13:29:50Z</time>
      </trkpt>
      <trkpt lat="47.88955" lon="-4.13064">
        <ele>9.7</ele>
        <time>2024-05-09T13:29:54Z</time>
      </trkpt>
      <trkpt lat="47.88961" lon="-4.13077">
        <ele>10</ele>
        <time>2024-05-09T13:29:58Z</time>
      </trkpt>
      <trkpt lat="47.88968" lon="-4.13091">
        <ele>10.4</ele>
        <time>2024-05-09T13:30:03Z</time>
      </trkpt>
      <trkpt lat="47.88975" lon="-4.13103">
        <ele>10.5</ele>
        <time>2024-05-09T13:30:07Z</time>
      </trkpt>
      <trkpt lat="47.88981" lon="-4.13117">
        <ele>10.6</ele>
        <time>2024-05-09T13:30:11Z</time>
      </trkpt>
      <trkpt lat="47.88988" lon="-4.13126">
        <ele>10.4</ele>
        <time>2024-05-09T13:30:14Z</time>
      </trkpt>
      <trkpt lat="47.88993" lon="-4.13139">
        <ele>10.5</ele>
        <time>2024-05-09T13:30:18Z</time>
      </trkpt>
      <trkpt lat="47.88998" lon="-4.13152">
        <ele>10.6</ele>
        <time>2024-05-09T13:30:23Z</time>
      </trkpt>
      <trkpt lat="47.89" lon="-4.13168">
        <ele>10.9</ele>
        <time>2024-05-09T13:30:27Z</time>
      </trkpt>
      <trkpt lat="47.89004" lon="-4.13182">
        <ele>10.2</ele>
        <time>2024-05-09T13:30:29Z</time>
      </trkpt>
      <trkpt lat="47.89008" lon="-4.13194">
        <ele>9.5</ele>
        <time>2024-05-09T13:30:31Z</time>
      </trkpt>
      <trkpt lat="47.89011" lon="-4.13209">
        <ele>9.4</ele>
        <time>2024-05-09T13:30:33Z</time>
      </trkpt>
      <trkpt lat="47.89013" lon="-4.13223">
        <ele>9.6</ele>
        <time>2024-05-09T13:30:37Z</time>
      </trkpt>
      <trkpt lat="47.8902" lon="-4.13236">
        <ele>9.4</ele>
        <time>2024-05-09T13:30:41Z</time>
      </trkpt>
      <trkpt lat="47.89018" lon="-4.13251">
        <ele>10.1</ele>
        <time>2024-05-09T13:30:47Z</time>
      </trkpt>
      <trkpt lat="47.89021" lon="-4.13266">
        <ele>10.7</ele>
        <time>2024-05-09T13:30:51Z</time>
      </trkpt>
      <trkpt lat="47.89029" lon="-4.13281">
        <ele>11</ele>
        <time>2024-05-09T13:30:54Z</time>
      </trkpt>
      <trkpt lat="47.89032" lon="-4.13298">
        <ele>11.3</ele>
        <time>2024-05-09T13:30:57Z</time>
      </trkpt>
      <trkpt lat="47.89032" lon="-4.13314">
        <ele>11.9</ele>
        <time>2024-05-09T13:31:00Z</time>
      </trkpt>
      <trkpt lat="47.89035" lon="-4.13332">
        <ele>12</ele>
        <time>2024-05-09T13:31:04Z</time>
      </trkpt>
      <trkpt lat="47.89036" lon="-4.1335">
        <ele>12</ele>
        <time>2024-05-09T13:31:07Z</time>
      </trkpt>
      <trkpt lat="47.89039" lon="-4.13369">
        <ele>11.7</ele>
        <time>2024-05-09T13:31:10Z</time>
      </trkpt>
      <trkpt lat="47.89037" lon="-4.13384">
        <ele>12.2</ele>
        <time>2024-05-09T13:31:13Z</time>
      </trkpt>
      <trkpt lat="47.89035" lon="-4.134">
        <ele>13</ele>
        <time>2024-05-09T13:31:16Z</time>
      </trkpt>
      <trkpt lat="47.89033" lon="-4.13416">
        <ele>13.6</ele>
        <time>2024-05-09T13:31:19Z</time>
      </trkpt>
      <trkpt lat="47.89033" lon="-4.1343">
        <ele>14.3</ele>
        <time>2024-05-09T13:31:22Z</time>
      </trkpt>
      <trkpt lat="47.89038" lon="-4.13444">
        <ele>14.2</ele>
        <time>2024-05-09T13:31:26Z</time>
      </trkpt>
      <trkpt lat="47.89047" lon="-4.13448">
        <ele>12.9</ele>
        <time>2024-05-09T13:31:29Z</time>
      </trkpt>
      <trkpt lat="47.89056" lon="-4.13438">
        <ele>10.4</ele>
        <time>2024-05-09T13:31:33Z</time>
      </trkpt>
      <trkpt lat="47.89062" lon="-4.13427">
        <ele>10.3</ele>
        <time>2024-05-09T13:31:36Z</time>
      </trkpt>
      <trkpt lat="47.89069" lon="-4.13414">
        <ele>10.2</ele>
        <time>2024-05-09T13:31:39Z</time>
      </trkpt>
      <trkpt lat="47.89074" lon="-4.13403">
        <ele>10.2</ele>
        <time>2024-05-09T13:31:41Z</time>
      </trkpt>
      <trkpt lat="47.89079" lon="-4.1339">
        <ele>9.7</ele>
        <time>2024-05-09T13:31:43Z</time>
      </trkpt>
      <trkpt lat="47.89086" lon="-4.13379">
        <ele>9.1</ele>
        <time>2024-05-09T13:31:46Z</time>
      </trkpt>
      <trkpt lat="47.89097" lon="-4.13372">
        <ele>9</ele>
        <time>2024-05-09T13:31:49Z</time>
      </trkpt>
      <trkpt lat="47.89106" lon="-4.13371">
        <ele>9.5</ele>
        <time>2024-05-09T13:31:52Z</time>
      </trkpt>
      <trkpt lat="47.89117" lon="-4.13374">
        <ele>9.4</ele>
        <time>2024-05-09T13:31:57Z</time>
      </trkpt>
      <trkpt lat="47.89125" lon="-4.13384">
        <ele>9.6</ele>
        <time>2024-05-09T13:32:01Z</time>
      </trkpt>
      <trkpt lat="47.89132" lon="-4.13397">
        <ele>10.1</ele>
        <time>2024-05-09T13:32:05Z</time>
      </trkpt>
      <trkpt lat="47.8914" lon="-4.13412">
        <ele>10.6</ele>
        <time>2024-05-09T13:32:09Z</time>
      </trkpt>
      <trkpt lat="47.89146" lon="-4.13425">
        <ele>10.3</ele>
        <time>2024-05-09T13:32:11Z</time>
      </trkpt>
      <trkpt lat="47.89152" lon="-4.13439">
        <ele>10</ele>
        <time>2024-05-09T13:32:13Z</time>
      </trkpt>
      <trkpt lat="47.89157" lon="-4.13452">
        <ele>9.8</ele>
        <time>2024-05-09T13:32:14Z</time>
      </trkpt>
      <trkpt lat="47.89163" lon="-4.1347">
        <ele>9.4</ele>
        <time>2024-05-09T13:32:17Z</time>
      </trkpt>
      <trkpt lat="47.89166" lon="-4.13483">
        <ele>9.4</ele>
        <time>2024-05-09T13:32:20Z</time>
      </trkpt>
      <trkpt lat="47.89169" lon="-4.13496">
        <ele>9.3</ele>
        <time>2024-05-09T13:32:23Z</time>
      </trkpt>
      <trkpt lat="47.8917" lon="-4.13511">
        <ele>9.8</ele>
        <time>2024-05-09T13:32:28Z</time>
      </trkpt>
      <trkpt lat="47.89175" lon="-4.13523">
        <ele>9.6</ele>
        <time>2024-05-09T13:32:31Z</time>
      </trkpt>
      <trkpt lat="47.8918" lon="-4.13534">
        <ele>9.4</ele>
        <time>2024-05-09T13:32:34Z</time>
      </trkpt>
      <trkpt lat="47.89183" lon="-4.13551">
        <ele>9.4</ele>
        <time>2024-05-09T13:32:38Z</time>
      </trkpt>
      <trkpt lat="47.89189" lon="-4.13566">
        <ele>8.8</ele>
        <time>2024-05-09T13:32:41Z</time>
      </trkpt>
      <trkpt lat="47.89194" lon="-4.13578">
        <ele>8</ele>
        <time>2024-05-09T13:32:43Z</time>
      </trkpt>
      <trkpt lat="47.89201" lon="-4.13589">
        <ele>6.7</ele>
        <time>2024-05-09T13:32:46Z</time>
      </trkpt>
      <trkpt lat="47.89203" lon="-4.13604">
        <ele>6.8</ele>
        <time>2024-05-09T13:32:52Z</time>
      </trkpt>
      <trkpt lat="47.89206" lon="-4.13617">
        <ele>6.8</ele>
        <time>2024-05-09T13:32:58Z</time>
      </trkpt>
      <trkpt lat="47.8921" lon="-4.13629">
        <ele>6.7</ele>
        <time>2024-05-09T13:33:08Z</time>
      </trkpt>
      <trkpt lat="47.89217" lon="-4.13639">
        <ele>6</ele>
        <time>2024-05-09T13:33:13Z</time>
      </trkpt>
      <trkpt lat="47.89225" lon="-4.13644">
        <ele>5.2</ele>
        <time>2024-05-09T13:33:16Z</time>
      </trkpt>
      <trkpt lat="47.89238" lon="-4.13649">
        <ele>5.1</ele>
        <time>2024-05-09T13:33:19Z</time>
      </trkpt>
      <trkpt lat="47.89248" lon="-4.13656">
        <ele>5.6</ele>
        <time>2024-05-09T13:33:22Z</time>
      </trkpt>
      <trkpt lat="47.89258" lon="-4.13661">
        <ele>6.2</ele>
        <time>2024-05-09T13:33:26Z</time>
      </trkpt>
      <trkpt lat="47.89269" lon="-4.13667">
        <ele>7</ele>
        <time>2024-05-09T13:33:30Z</time>
      </trkpt>
      <trkpt lat="47.8928" lon="-4.13672">
        <ele>7.7</ele>
        <time>2024-05-09T13:33:34Z</time>
      </trkpt>
      <trkpt lat="47.89291" lon="-4.13678">
        <ele>8.5</ele>
        <time>2024-05-09T13:33:38Z</time>
      </trkpt>
      <trkpt lat="47.893" lon="-4.13682">
        <ele>9</ele>
        <time>2024-05-09T13:33:41Z</time>
      </trkpt>
      <trkpt lat="47.89309" lon="-4.13691">
        <ele>9.7</ele>
        <time>2024-05-09T13:33:46Z</time>
      </trkpt>
      <trkpt lat="47.89318" lon="-4.13698">
        <ele>10.3</ele>
        <time>2024-05-09T13:33:52Z</time>
      </trkpt>
      <trkpt lat="47.89324" lon="-4.13709">
        <ele>11</ele>
        <time>2024-05-09T13:33:57Z</time>
      </trkpt>
      <trkpt lat="47.89329" lon="-4.13721">
        <ele>11.9</ele>
        <time>2024-05-09T13:34:02Z</time>
      </trkpt>
      <trkpt lat="47.89336" lon="-4.13734">
        <ele>12.7</ele>
        <time>2024-05-09T13:34:06Z</time>
      </trkpt>
      <trkpt lat="47.89342" lon="-4.13743">
        <ele>13.2</ele>
        <time>2024-05-09T13:34:09Z</time>
      </trkpt>
      <trkpt lat="47.89349" lon="-4.13755">
        <ele>13.6</ele>
        <time>2024-05-09T13:34:13Z</time>
      </trkpt>
      <trkpt lat="47.89356" lon="-4.13765">
        <ele>13.7</ele>
        <time>2024-05-09T13:34:16Z</time>
      </trkpt>
      <trkpt lat="47.89364" lon="-4.13778">
        <ele>13.8</ele>
        <time>2024-05-09T13:34:20Z</time>
      </trkpt>
      <trkpt lat="47.89371" lon="-4.13788">
        <ele>14.1</ele>
        <time>2024-05-09T13:34:24Z</time>
      </trkpt>
      <trkpt lat="47.8938" lon="-4.13797">
        <ele>14</ele>
        <time>2024-05-09T13:34:28Z</time>
      </trkpt>
      <trkpt lat="47.89388" lon="-4.13804">
        <ele>14</ele>
        <time>2024-05-09T13:34:33Z</time>
      </trkpt>
      <trkpt lat="47.89396" lon="-4.13814">
        <ele>13.9</ele>
        <time>2024-05-09T13:34:37Z</time>
      </trkpt>
      <trkpt lat="47.89407" lon="-4.13823">
        <ele>13.7</ele>
        <time>2024-05-09T13:34:41Z</time>
      </trkpt>
      <trkpt lat="47.89417" lon="-4.13829">
        <ele>13.5</ele>
        <time>2024-05-09T13:34:45Z</time>
      </trkpt>
      <trkpt lat="47.89428" lon="-4.13839">
        <ele>14</ele>
        <time>2024-05-09T13:34:49Z</time>
      </trkpt>
      <trkpt lat="47.89437" lon="-4.13849">
        <ele>14.4</ele>
        <time>2024-05-09T13:34:52Z</time>
      </trkpt>
      <trkpt lat="47.89446" lon="-4.13855">
        <ele>14.6</ele>
        <time>2024-05-09T13:34:55Z</time>
      </trkpt>
      <trkpt lat="47.89455" lon="-4.13862">
        <ele>15.1</ele>
        <time>2024-05-09T13:34:58Z</time>
      </trkpt>
      <trkpt lat="47.89465" lon="-4.1387">
        <ele>15.4</ele>
        <time>2024-05-09T13:35:01Z</time>
      </trkpt>
      <trkpt lat="47.89471" lon="-4.13884">
        <ele>15.9</ele>
        <time>2024-05-09T13:35:05Z</time>
      </trkpt>
      <trkpt lat="47.89474" lon="-4.13901">
        <ele>15.8</ele>
        <time>2024-05-09T13:35:08Z</time>
      </trkpt>
      <trkpt lat="47.89478" lon="-4.13918">
        <ele>15.5</ele>
        <time>2024-05-09T13:35:11Z</time>
      </trkpt>
      <trkpt lat="47.89482" lon="-4.13933">
        <ele>15.5</ele>
        <time>2024-05-09T13:35:14Z</time>
      </trkpt>
      <trkpt lat="47.89486" lon="-4.13947">
        <ele>16.1</ele>
        <time>2024-05-09T13:35:17Z</time>
      </trkpt>
      <trkpt lat="47.89493" lon="-4.1396">
        <ele>16.5</ele>
        <time>2024-05-09T13:35:21Z</time>
      </trkpt>
      <trkpt lat="47.89498" lon="-4.13971">
        <ele>17</ele>
        <time>2024-05-09T13:35:25Z</time>
      </trkpt>
      <trkpt lat="47.89505" lon="-4.13983">
        <ele>16.9</ele>
        <time>2024-05-09T13:35:29Z</time>
      </trkpt>
      <trkpt lat="47.89512" lon="-4.13992">
        <ele>16.9</ele>
        <time>2024-05-09T13:35:32Z</time>
      </trkpt>
      <trkpt lat="47.89518" lon="-4.14002">
        <ele>17.4</ele>
        <time>2024-05-09T13:35:35Z</time>
      </trkpt>
      <trkpt lat="47.89525" lon="-4.14014">
        <ele>17.6</ele>
        <time>2024-05-09T13:35:38Z</time>
      </trkpt>
      <trkpt lat="47.8953" lon="-4.14026">
        <ele>17.8</ele>
        <time>2024-05-09T13:35:41Z</time>
      </trkpt>
      <trkpt lat="47.89534" lon="-4.14041">
        <ele>17.7</ele>
        <time>2024-05-09T13:35:44Z</time>
      </trkpt>
      <trkpt lat="47.89538" lon="-4.14057">
        <ele>17.6</ele>
        <time>2024-05-09T13:35:47Z</time>
      </trkpt>
      <trkpt lat="47.89543" lon="-4.14073">
        <ele>17.5</ele>
        <time>2024-05-09T13:35:50Z</time>
      </trkpt>
      <trkpt lat="47.89548" lon="-4.14086">
        <ele>17.1</ele>
        <time>2024-05-09T13:35:53Z</time>
      </trkpt>
      <trkpt lat="47.8955" lon="-4.14103">
        <ele>15.9</ele>
        <time>2024-05-09T13:35:57Z</time>
      </trkpt>
      <trkpt lat="47.89549" lon="-4.14119">
        <ele>14.9</ele>
        <time>2024-05-09T13:36:00Z</time>
      </trkpt>
      <trkpt lat="47.89547" lon="-4.14135">
        <ele>13.9</ele>
        <time>2024-05-09T13:36:03Z</time>
      </trkpt>
      <trkpt lat="47.89543" lon="-4.14151">
        <ele>13</ele>
        <time>2024-05-09T13:36:06Z</time>
      </trkpt>
      <trkpt lat="47.89538" lon="-4.14168">
        <ele>11.9</ele>
        <time>2024-05-09T13:36:09Z</time>
      </trkpt>
      <trkpt lat="47.89533" lon="-4.14184">
        <ele>9.8</ele>
        <time>2024-05-09T13:36:12Z</time>
      </trkpt>
      <trkpt lat="47.89524" lon="-4.14195">
        <ele>8.9</ele>
        <time>2024-05-09T13:36:15Z</time>
      </trkpt>
      <trkpt lat="47.89514" lon="-4.14199">
        <ele>8.4</ele>
        <time>2024-05-09T13:36:19Z</time>
      </trkpt>
      <trkpt lat="47.89505" lon="-4.14202">
        <ele>7.8</ele>
        <time>2024-05-09T13:36:23Z</time>
      </trkpt>
      <trkpt lat="47.89495" lon="-4.14204">
        <ele>7.3</ele>
        <time>2024-05-09T13:36:26Z</time>
      </trkpt>
      <trkpt lat="47.89483" lon="-4.14206">
        <ele>6.8</ele>
        <time>2024-05-09T13:36:29Z</time>
      </trkpt>
      <trkpt lat="47.89471" lon="-4.14205">
        <ele>7.1</ele>
        <time>2024-05-09T13:36:32Z</time>
      </trkpt>
      <trkpt lat="47.89462" lon="-4.14205">
        <ele>7.4</ele>
        <time>2024-05-09T13:36:36Z</time>
      </trkpt>
      <trkpt lat="47.89452" lon="-4.14206">
        <ele>7.5</ele>
        <time>2024-05-09T13:36:40Z</time>
      </trkpt>
      <trkpt lat="47.89442" lon="-4.14209">
        <ele>7.5</ele>
        <time>2024-05-09T13:36:43Z</time>
      </trkpt>
      <trkpt lat="47.89432" lon="-4.1421">
        <ele>7.6</ele>
        <time>2024-05-09T13:36:46Z</time>
      </trkpt>
      <trkpt lat="47.89422" lon="-4.14214">
        <ele>7.4</ele>
        <time>2024-05-09T13:36:50Z</time>
      </trkpt>
      <trkpt lat="47.89412" lon="-4.14222">
        <ele>7</ele>
        <time>2024-05-09T13:36:55Z</time>
      </trkpt>
      <trkpt lat="47.89401" lon="-4.14228">
        <ele>6.3</ele>
        <time>2024-05-09T13:36:59Z</time>
      </trkpt>
      <trkpt lat="47.8939" lon="-4.14236">
        <ele>5.5</ele>
        <time>2024-05-09T13:37:02Z</time>
      </trkpt>
      <trkpt lat="47.8938" lon="-4.14242">
        <ele>5.1</ele>
        <time>2024-05-09T13:37:05Z</time>
      </trkpt>
      <trkpt lat="47.89369" lon="-4.1425">
        <ele>4.7</ele>
        <time>2024-05-09T13:37:07Z</time>
      </trkpt>
      <trkpt lat="47.89361" lon="-4.14261">
        <ele>3.8</ele>
        <time>2024-05-09T13:37:11Z</time>
      </trkpt>
      <trkpt lat="47.89354" lon="-4.14269">
        <ele>2.9</ele>
        <time>2024-05-09T13:37:43Z</time>
      </trkpt>
      <trkpt lat="47.89348" lon="-4.1428">
        <ele>2</ele>
        <time>2024-05-09T13:38:47Z</time>
      </trkpt>
      <trkpt lat="47.89344" lon="-4.14293">
        <ele>1.8</ele>
        <time>2024-05-09T13:38:51Z</time>
      </trkpt>
      <trkpt lat="47.89343" lon="-4.1431">
        <ele>1.8</ele>
        <time>2024-05-09T13:38:55Z</time>
      </trkpt>
      <trkpt lat="47.89341" lon="-4.14325">
        <ele>2.4</ele>
        <time>2024-05-09T13:38:59Z</time>
      </trkpt>
      <trkpt lat="47.89342" lon="-4.14339">
        <ele>3.5</ele>
        <time>2024-05-09T13:39:08Z</time>
      </trkpt>
      <trkpt lat="47.89347" lon="-4.14351">
        <ele>5.3</ele>
        <time>2024-05-09T13:39:18Z</time>
      </trkpt>
      <trkpt lat="47.8935" lon="-4.14363">
        <ele>7.2</ele>
        <time>2024-05-09T13:39:24Z</time>
      </trkpt>
      <trkpt lat="47.89359" lon="-4.14366">
        <ele>7.4</ele>
        <time>2024-05-09T13:39:32Z</time>
      </trkpt>
      <trkpt lat="47.89369" lon="-4.14363">
        <ele>7.1</ele>
        <time>2024-05-09T13:39:37Z</time>
      </trkpt>
      <trkpt lat="47.8938" lon="-4.14361">
        <ele>7</ele>
        <time>2024-05-09T13:39:41Z</time>
      </trkpt>
      <trkpt lat="47.89392" lon="-4.14363">
        <ele>7.2</ele>
        <time>2024-05-09T13:39:44Z</time>
      </trkpt>
      <trkpt lat="47.89405" lon="-4.14365">
        <ele>7.4</ele>
        <time>2024-05-09T13:39:47Z</time>
      </trkpt>
      <trkpt lat="47.89417" lon="-4.14368">
        <ele>7.5</ele>
        <time>2024-05-09T13:39:49Z</time>
      </trkpt>
      <trkpt lat="47.89431" lon="-4.14371">
        <ele>7.2</ele>
        <time>2024-05-09T13:39:52Z</time>
      </trkpt>
      <trkpt lat="47.8944" lon="-4.14373">
        <ele>7</ele>
        <time>2024-05-09T13:39:54Z</time>
      </trkpt>
      <trkpt lat="47.8945" lon="-4.14374">
        <ele>6.3</ele>
        <time>2024-05-09T13:39:56Z</time>
      </trkpt>
      <trkpt lat="47.89461" lon="-4.14373">
        <ele>5</ele>
        <time>2024-05-09T13:39:59Z</time>
      </trkpt>
      <trkpt lat="47.89473" lon="-4.14378">
        <ele>4.5</ele>
        <time>2024-05-09T13:40:03Z</time>
      </trkpt>
      <trkpt lat="47.89482" lon="-4.14382">
        <ele>5.2</ele>
        <time>2024-05-09T13:40:06Z</time>
      </trkpt>
      <trkpt lat="47.89491" lon="-4.14384">
        <ele>5.9</ele>
        <time>2024-05-09T13:40:09Z</time>
      </trkpt>
      <trkpt lat="47.89502" lon="-4.14387">
        <ele>6.7</ele>
        <time>2024-05-09T13:40:14Z</time>
      </trkpt>
      <trkpt lat="47.89511" lon="-4.14391">
        <ele>7.5</ele>
        <time>2024-05-09T13:40:17Z</time>
      </trkpt>
      <trkpt lat="47.89523" lon="-4.14396">
        <ele>8.3</ele>
        <time>2024-05-09T13:40:20Z</time>
      </trkpt>
      <trkpt lat="47.89533" lon="-4.14401">
        <ele>8.8</ele>
        <time>2024-05-09T13:40:23Z</time>
      </trkpt>
      <trkpt lat="47.89543" lon="-4.14408">
        <ele>9</ele>
        <time>2024-05-09T13:40:27Z</time>
      </trkpt>
      <trkpt lat="47.89551" lon="-4.14417">
        <ele>9.2</ele>
        <time>2024-05-09T13:40:30Z</time>
      </trkpt>
      <trkpt lat="47.89553" lon="-4.14431">
        <ele>9</ele>
        <time>2024-05-09T13:40:35Z</time>
      </trkpt>
      <trkpt lat="47.89553" lon="-4.14447">
        <ele>8.9</ele>
        <time>2024-05-09T13:40:41Z</time>
      </trkpt>
      <trkpt lat="47.89554" lon="-4.14463">
        <ele>8.3</ele>
        <time>2024-05-09T13:40:46Z</time>
      </trkpt>
      <trkpt lat="47.8955" lon="-4.14478">
        <ele>7.6</ele>
        <time>2024-05-09T13:40:50Z</time>
      </trkpt>
      <trkpt lat="47.89547" lon="-4.14493">
        <ele>6.8</ele>
        <time>2024-05-09T13:40:53Z</time>
      </trkpt>
      <trkpt lat="47.89544" lon="-4.14507">
        <ele>6</ele>
        <time>2024-05-09T13:40:57Z</time>
      </trkpt>
      <trkpt lat="47.8954" lon="-4.1452">
        <ele>5.5</ele>
        <time>2024-05-09T13:41:03Z</time>
      </trkpt>
      <trkpt lat="47.89532" lon="-4.14535">
        <ele>4.8</ele>
        <time>2024-05-09T13:41:07Z</time>
      </trkpt>
      <trkpt lat="47.89524" lon="-4.14548">
        <ele>3.5</ele>
        <time>2024-05-09T13:41:10Z</time>
      </trkpt>
      <trkpt lat="47.89518" lon="-4.1456">
        <ele>2.9</ele>
        <time>2024-05-09T13:41:14Z</time>
      </trkpt>
      <trkpt lat="47.89513" lon="-4.14571">
        <ele>3.3</ele>
        <time>2024-05-09T13:41:17Z</time>
      </trkpt>
      <trkpt lat="47.89508" lon="-4.14585">
        <ele>3.8</ele>
        <time>2024-05-09T13:41:20Z</time>
      </trkpt>
      <trkpt lat="47.89501" lon="-4.14602">
        <ele>3.6</ele>
        <time>2024-05-09T13:41:23Z</time>
      </trkpt>
      <trkpt lat="47.89495" lon="-4.14619">
        <ele>3.1</ele>
        <time>2024-05-09T13:41:26Z</time>
      </trkpt>
      <trkpt lat="47.89488" lon="-4.1463">
        <ele>3.6</ele>
        <time>2024-05-09T13:41:29Z</time>
      </trkpt>
      <trkpt lat="47.8948" lon="-4.14641">
        <ele>4.6</ele>
        <time>2024-05-09T13:41:32Z</time>
      </trkpt>
      <trkpt lat="47.89476" lon="-4.14655">
        <ele>4.8</ele>
        <time>2024-05-09T13:41:36Z</time>
      </trkpt>
      <trkpt lat="47.89472" lon="-4.14669">
        <ele>5</ele>
        <time>2024-05-09T13:41:40Z</time>
      </trkpt>
      <trkpt lat="47.89469" lon="-4.14684">
        <ele>4.9</ele>
        <time>2024-05-09T13:41:44Z</time>
      </trkpt>
      <trkpt lat="47.89465" lon="-4.14698">
        <ele>5</ele>
        <time>2024-05-09T13:41:47Z</time>
      </trkpt>
      <trkpt lat="47.89458" lon="-4.1471">
        <ele>5.7</ele>
        <time>2024-05-09T13:41:50Z</time>
      </trkpt>
      <trkpt lat="47.89457" lon="-4.14725">
        <ele>5.6</ele>
        <time>2024-05-09T13:41:53Z</time>
      </trkpt>
      <trkpt lat="47.89455" lon="-4.14742">
        <ele>5</ele>
        <time>2024-05-09T13:41:57Z</time>
      </trkpt>
      <trkpt lat="47.89455" lon="-4.14758">
        <ele>4.4</ele>
        <time>2024-05-09T13:42:01Z</time>
      </trkpt>
      <trkpt lat="47.89454" lon="-4.14775">
        <ele>3.8</ele>
        <time>2024-05-09T13:42:06Z</time>
      </trkpt>
      <trkpt lat="47.8945" lon="-4.14788">
        <ele>3.4</ele>
        <time>2024-05-09T13:42:10Z</time>
      </trkpt>
      <trkpt lat="47.89442" lon="-4.148">
        <ele>3.5</ele>
        <time>2024-05-09T13:42:14Z</time>
      </trkpt>
      <trkpt lat="47.89436" lon="-4.14813">
        <ele>3.6</ele>
        <time>2024-05-09T13:42:18Z</time>
      </trkpt>
      <trkpt lat="47.89432" lon="-4.14829">
        <ele>3.5</ele>
        <time>2024-05-09T13:42:23Z</time>
      </trkpt>
      <trkpt lat="47.89424" lon="-4.14843">
        <ele>3.6</ele>
        <time>2024-05-09T13:42:28Z</time>
      </trkpt>
      <trkpt lat="47.89418" lon="-4.14854">
        <ele>3.4</ele>
        <time>2024-05-09T13:42:31Z</time>
      </trkpt>
      <trkpt lat="47.89411" lon="-4.14864">
        <ele>3.6</ele>
        <time>2024-05-09T13:42:35Z</time>
      </trkpt>
      <trkpt lat="47.89403" lon="-4.14872">
        <ele>4.4</ele>
        <time>2024-05-09T13:42:40Z</time>
      </trkpt>
      <trkpt lat="47.89392" lon="-4.14879">
        <ele>5.8</ele>
        <time>2024-05-09T13:42:44Z</time>
      </trkpt>
      <trkpt lat="47.89383" lon="-4.14883">
        <ele>6.7</ele>
        <time>2024-05-09T13:42:47Z</time>
      </trkpt>
      <trkpt lat="47.89373" lon="-4.14888">
        <ele>7.1</ele>
        <time>2024-05-09T13:42:50Z</time>
      </trkpt>
      <trkpt lat="47.89364" lon="-4.14892">
        <ele>7.6</ele>
        <time>2024-05-09T13:42:53Z</time>
      </trkpt>
      <trkpt lat="47.89354" lon="-4.14898">
        <ele>7.8</ele>
        <time>2024-05-09T13:42:57Z</time>
      </trkpt>
      <trkpt lat="47.89345" lon="-4.14901">
        <ele>8.1</ele>
        <time>2024-05-09T13:43:00Z</time>
      </trkpt>
      <trkpt lat="47.89334" lon="-4.14904">
        <ele>8.3</ele>
        <time>2024-05-09T13:43:03Z</time>
      </trkpt>
      <trkpt lat="47.89325" lon="-4.14905">
        <ele>8.5</ele>
        <time>2024-05-09T13:43:06Z</time>
      </trkpt>
      <trkpt lat="47.89316" lon="-4.14906">
        <ele>8.8</ele>
        <time>2024-05-09T13:43:09Z</time>
      </trkpt>
      <trkpt lat="47.89303" lon="-4.14907">
        <ele>8.9</ele>
        <time>2024-05-09T13:43:13Z</time>
      </trkpt>
      <trkpt lat="47.89293" lon="-4.1491">
        <ele>8.2</ele>
        <time>2024-05-09T13:43:17Z</time>
      </trkpt>
      <trkpt lat="47.89282" lon="-4.14908">
        <ele>7.8</ele>
        <time>2024-05-09T13:43:22Z</time>
      </trkpt>
      <trkpt lat="47.89271" lon="-4.14906">
        <ele>7</ele>
        <time>2024-05-09T13:43:25Z</time>
      </trkpt>
      <trkpt lat="47.89261" lon="-4.14903">
        <ele>6.2</ele>
        <time>2024-05-09T13:43:27Z</time>
      </trkpt>
      <trkpt lat="47.8925" lon="-4.14898">
        <ele>5.7</ele>
        <time>2024-05-09T13:43:29Z</time>
      </trkpt>
      <trkpt lat="47.89238" lon="-4.14896">
        <ele>5.5</ele>
        <time>2024-05-09T13:43:32Z</time>
      </trkpt>
      <trkpt lat="47.89226" lon="-4.14899">
        <ele>4.4</ele>
        <time>2024-05-09T13:43:35Z</time>
      </trkpt>
      <trkpt lat="47.89217" lon="-4.14901">
        <ele>4.2</ele>
        <time>2024-05-09T13:43:38Z</time>
      </trkpt>
      <trkpt lat="47.89207" lon="-4.14901">
        <ele>5.2</ele>
        <time>2024-05-09T13:43:42Z</time>
      </trkpt>
      <trkpt lat="47.89197" lon="-4.14901">
        <ele>6</ele>
        <time>2024-05-09T13:43:45Z</time>
      </trkpt>
      <trkpt lat="47.89187" lon="-4.149">
        <ele>7.1</ele>
        <time>2024-05-09T13:43:49Z</time>
      </trkpt>
      <trkpt lat="47.89176" lon="-4.14898">
        <ele>8.3</ele>
        <time>2024-05-09T13:43:53Z</time>
      </trkpt>
      <trkpt lat="47.89167" lon="-4.14896">
        <ele>9.3</ele>
        <time>2024-05-09T13:43:57Z</time>
      </trkpt>
      <trkpt lat="47.89156" lon="-4.14891">
        <ele>9.4</ele>
        <time>2024-05-09T13:44:02Z</time>
      </trkpt>
      <trkpt lat="47.89145" lon="-4.14886">
        <ele>9.3</ele>
        <time>2024-05-09T13:44:06Z</time>
      </trkpt>
      <trkpt lat="47.89131" lon="-4.14881">
        <ele>8.3</ele>
        <time>2024-05-09T13:44:09Z</time>
      </trkpt>
      <trkpt lat="47.89122" lon="-4.14878">
        <ele>7.2</ele>
        <time>2024-05-09T13:44:11Z</time>
      </trkpt>
      <trkpt lat="47.89109" lon="-4.14875">
        <ele>5.8</ele>
        <time>2024-05-09T13:44:13Z</time>
      </trkpt>
      <trkpt lat="47.891" lon="-4.14868">
        <ele>5.8</ele>
        <time>2024-05-09T13:44:15Z</time>
      </trkpt>
      <trkpt lat="47.89089" lon="-4.14861">
        <ele>6.2</ele>
        <time>2024-05-09T13:44:18Z</time>
      </trkpt>
      <trkpt lat="47.8908" lon="-4.14856">
        <ele>6</ele>
        <time>2024-05-09T13:44:22Z</time>
      </trkpt>
      <trkpt lat="47.89069" lon="-4.14849">
        <ele>5.8</ele>
        <time>2024-05-09T13:44:26Z</time>
      </trkpt>
      <trkpt lat="47.89061" lon="-4.14841">
        <ele>6.1</ele>
        <time>2024-05-09T13:44:30Z</time>
      </trkpt>
      <trkpt lat="47.89051" lon="-4.14836">
        <ele>6.6</ele>
        <time>2024-05-09T13:44:34Z</time>
      </trkpt>
      <trkpt lat="47.89041" lon="-4.1483">
        <ele>7.3</ele>
        <time>2024-05-09T13:44:38Z</time>
      </trkpt>
      <trkpt lat="47.89031" lon="-4.14825">
        <ele>7.6</ele>
        <time>2024-05-09T13:44:42Z</time>
      </trkpt>
      <trkpt lat="47.89022" lon="-4.14819">
        <ele>8.1</ele>
        <time>2024-05-09T13:44:45Z</time>
      </trkpt>
      <trkpt lat="47.89014" lon="-4.1481">
        <ele>9.1</ele>
        <time>2024-05-09T13:44:49Z</time>
      </trkpt>
      <trkpt lat="47.89005" lon="-4.14801">
        <ele>10</ele>
        <time>2024-05-09T13:44:53Z</time>
      </trkpt>
      <trkpt lat="47.88998" lon="-4.14792">
        <ele>10.4</ele>
        <time>2024-05-09T13:44:56Z</time>
      </trkpt>
      <trkpt lat="47.88991" lon="-4.1478">
        <ele>10.8</ele>
        <time>2024-05-09T13:44:59Z</time>
      </trkpt>
      <trkpt lat="47.88985" lon="-4.1477">
        <ele>11.4</ele>
        <time>2024-05-09T13:45:02Z</time>
      </trkpt>
      <trkpt lat="47.88978" lon="-4.14758">
        <ele>11.8</ele>
        <time>2024-05-09T13:45:05Z</time>
      </trkpt>
      <trkpt lat="47.88973" lon="-4.14747">
        <ele>12.1</ele>
        <time>2024-05-09T13:45:08Z</time>
      </trkpt>
      <trkpt lat="47.88968" lon="-4.14734">
        <ele>12.2</ele>
        <time>2024-05-09T13:45:11Z</time>
      </trkpt>
      <trkpt lat="47.88963" lon="-4.14721">
        <ele>12</ele>
        <time>2024-05-09T13:45:14Z</time>
      </trkpt>
      <trkpt lat="47.88959" lon="-4.14709">
        <ele>11.8</ele>
        <time>2024-05-09T13:45:17Z</time>
      </trkpt>
      <trkpt lat="47.88954" lon="-4.14696">
        <ele>11.7</ele>
        <time>2024-05-09T13:45:21Z</time>
      </trkpt>
      <trkpt lat="47.88948" lon="-4.14683">
        <ele>12</ele>
        <time>2024-05-09T13:45:25Z</time>
      </trkpt>
      <trkpt lat="47.88942" lon="-4.14672">
        <ele>12.5</ele>
        <time>2024-05-09T13:45:28Z</time>
      </trkpt>
      <trkpt lat="47.88935" lon="-4.14658">
        <ele>13</ele>
        <time>2024-05-09T13:45:32Z</time>
      </trkpt>
      <trkpt lat="47.8893" lon="-4.14647">
        <ele>13.4</ele>
        <time>2024-05-09T13:45:35Z</time>
      </trkpt>
      <trkpt lat="47.88925" lon="-4.14633">
        <ele>13.8</ele>
        <time>2024-05-09T13:45:39Z</time>
      </trkpt>
      <trkpt lat="47.88919" lon="-4.14619">
        <ele>13.9</ele>
        <time>2024-05-09T13:45:43Z</time>
      </trkpt>
      <trkpt lat="47.88912" lon="-4.14605">
        <ele>14.1</ele>
        <time>2024-05-09T13:45:47Z</time>
      </trkpt>
      <trkpt lat="47.88907" lon="-4.14593">
        <ele>14.4</ele>
        <time>2024-05-09T13:45:50Z</time>
      </trkpt>
      <trkpt lat="47.88901" lon="-4.14582">
        <ele>14.3</ele>
        <time>2024-05-09T13:45:53Z</time>
      </trkpt>
      <trkpt lat="47.88893" lon="-4.14572">
        <ele>14.2</ele>
        <time>2024-05-09T13:45:56Z</time>
      </trkpt>
      <trkpt lat="47.88887" lon="-4.14559">
        <ele>14.6</ele>
        <time>2024-05-09T13:45:59Z</time>
      </trkpt>
      <trkpt lat="47.88879" lon="-4.14549">
        <ele>15</ele>
        <time>2024-05-09T13:46:02Z</time>
      </trkpt>
      <trkpt lat="47.88871" lon="-4.14541">
        <ele>15.3</ele>
        <time>2024-05-09T13:46:05Z</time>
      </trkpt>
      <trkpt lat="47.88861" lon="-4.14533">
        <ele>15.5</ele>
        <time>2024-05-09T13:46:09Z</time>
      </trkpt>
      <trkpt lat="47.88852" lon="-4.14526">
        <ele>15.5</ele>
        <time>2024-05-09T13:46:13Z</time>
      </trkpt>
      <trkpt lat="47.88842" lon="-4.14522">
        <ele>15.3</ele>
        <time>2024-05-09T13:46:17Z</time>
      </trkpt>
      <trkpt lat="47.88834" lon="-4.14515">
        <ele>15.4</ele>
        <time>2024-05-09T13:46:21Z</time>
      </trkpt>
      <trkpt lat="47.88825" lon="-4.1451">
        <ele>15.2</ele>
        <time>2024-05-09T13:46:24Z</time>
      </trkpt>
      <trkpt lat="47.88813" lon="-4.14505">
        <ele>14.4</ele>
        <time>2024-05-09T13:46:27Z</time>
      </trkpt>
      <trkpt lat="47.88804" lon="-4.14498">
        <ele>14.3</ele>
        <time>2024-05-09T13:46:30Z</time>
      </trkpt>
      <trkpt lat="47.88796" lon="-4.14487">
        <ele>15.2</ele>
        <time>2024-05-09T13:46:34Z</time>
      </trkpt>
      <trkpt lat="47.88788" lon="-4.14476">
        <ele>15.7</ele>
        <time>2024-05-09T13:46:38Z</time>
      </trkpt>
      <trkpt lat="47.8878" lon="-4.14464">
        <ele>16</ele>
        <time>2024-05-09T13:46:42Z</time>
      </trkpt>
      <trkpt lat="47.88773" lon="-4.14455">
        <ele>16.6</ele>
        <time>2024-05-09T13:46:45Z</time>
      </trkpt>
      <trkpt lat="47.88765" lon="-4.14447">
        <ele>16.9</ele>
        <time>2024-05-09T13:46:48Z</time>
      </trkpt>
      <trkpt lat="47.88755" lon="-4.14439">
        <ele>17</ele>
        <time>2024-05-09T13:46:52Z</time>
      </trkpt>
      <trkpt lat="47.88746" lon="-4.14434">
        <ele>17.5</ele>
        <time>2024-05-09T13:46:55Z</time>
      </trkpt>
      <trkpt lat="47.88738" lon="-4.14428">
        <ele>17.9</ele>
        <time>2024-05-09T13:46:59Z</time>
      </trkpt>
      <trkpt lat="47.88731" lon="-4.14419">
        <ele>18.5</ele>
        <time>2024-05-09T13:47:03Z</time>
      </trkpt>
      <trkpt lat="47.88723" lon="-4.14411">
        <ele>18.5</ele>
        <time>2024-05-09T13:47:08Z</time>
      </trkpt>
      <trkpt lat="47.88713" lon="-4.14411">
        <ele>18.6</ele>
        <time>2024-05-09T13:47:12Z</time>
      </trkpt>
      <trkpt lat="47.88706" lon="-4.14424">
        <ele>18.2</ele>
        <time>2024-05-09T13:47:15Z</time>
      </trkpt>
      <trkpt lat="47.88699" lon="-4.14438">
        <ele>17.9</ele>
        <time>2024-05-09T13:47:18Z</time>
      </trkpt>
      <trkpt lat="47.88689" lon="-4.14444">
        <ele>18.2</ele>
        <time>2024-05-09T13:47:22Z</time>
      </trkpt>
      <trkpt lat="47.88679" lon="-4.14449">
        <ele>19.1</ele>
        <time>2024-05-09T13:47:26Z</time>
      </trkpt>
      <trkpt lat="47.8867" lon="-4.14453">
        <ele>19.8</ele>
        <time>2024-05-09T13:47:30Z</time>
      </trkpt>
      <trkpt lat="47.8866" lon="-4.14459">
        <ele>20.7</ele>
        <time>2024-05-09T13:47:35Z</time>
      </trkpt>
      <trkpt lat="47.88651" lon="-4.14462">
        <ele>21.1</ele>
        <time>2024-05-09T13:47:39Z</time>
      </trkpt>
      <trkpt lat="47.88642" lon="-4.14468">
        <ele>21.6</ele>
        <time>2024-05-09T13:47:42Z</time>
      </trkpt>
      <trkpt lat="47.88634" lon="-4.14475">
        <ele>21.9</ele>
        <time>2024-05-09T13:47:45Z</time>
      </trkpt>
      <trkpt lat="47.88626" lon="-4.14485">
        <ele>22</ele>
        <time>2024-05-09T13:47:48Z</time>
      </trkpt>
      <trkpt lat="47.88621" lon="-4.14496">
        <ele>22.2</ele>
        <time>2024-05-09T13:47:51Z</time>
      </trkpt>
      <trkpt lat="47.8862" lon="-4.14512">
        <ele>22.7</ele>
        <time>2024-05-09T13:47:55Z</time>
      </trkpt>
      <trkpt lat="47.88628" lon="-4.14523">
        <ele>23.4</ele>
        <time>2024-05-09T13:47:59Z</time>
      </trkpt>
      <trkpt lat="47.88637" lon="-4.14528">
        <ele>23.9</ele>
        <time>2024-05-09T13:48:03Z</time>
      </trkpt>
      <trkpt lat="47.88648" lon="-4.14531">
        <ele>24.3</ele>
        <time>2024-05-09T13:48:07Z</time>
      </trkpt>
      <trkpt lat="47.88659" lon="-4.14535">
        <ele>24.7</ele>
        <time>2024-05-09T13:48:11Z</time>
      </trkpt>
      <trkpt lat="47.8867" lon="-4.14536">
        <ele>24.9</ele>
        <time>2024-05-09T13:48:15Z</time>
      </trkpt>
      <trkpt lat="47.88679" lon="-4.14535">
        <ele>24.7</ele>
        <time>2024-05-09T13:48:19Z</time>
      </trkpt>
      <trkpt lat="47.88689" lon="-4.14537">
        <ele>24.5</ele>
        <time>2024-05-09T13:48:22Z</time>
      </trkpt>
      <trkpt lat="47.88697" lon="-4.14547">
        <ele>24.4</ele>
        <time>2024-05-09T13:48:25Z</time>
      </trkpt>
      <trkpt lat="47.88704" lon="-4.14563">
        <ele>24.1</ele>
        <time>2024-05-09T13:48:28Z</time>
      </trkpt>
      <trkpt lat="47.88705" lon="-4.14579">
        <ele>24.1</ele>
        <time>2024-05-09T13:48:31Z</time>
      </trkpt>
      <trkpt lat="47.88712" lon="-4.1459">
        <ele>24</ele>
        <time>2024-05-09T13:48:33Z</time>
      </trkpt>
      <trkpt lat="47.88717" lon="-4.14601">
        <ele>24</ele>
        <time>2024-05-09T13:48:36Z</time>
      </trkpt>
      <trkpt lat="47.88722" lon="-4.14614">
        <ele>24.1</ele>
        <time>2024-05-09T13:48:39Z</time>
      </trkpt>
      <trkpt lat="47.88726" lon="-4.14631">
        <ele>24.6</ele>
        <time>2024-05-09T13:48:43Z</time>
      </trkpt>
      <trkpt lat="47.8873" lon="-4.14645">
        <ele>25.1</ele>
        <time>2024-05-09T13:48:46Z</time>
      </trkpt>
      <trkpt lat="47.8873" lon="-4.14659">
        <ele>26</ele>
        <time>2024-05-09T13:48:49Z</time>
      </trkpt>
      <trkpt lat="47.8873" lon="-4.14675">
        <ele>26.5</ele>
        <time>2024-05-09T13:48:52Z</time>
      </trkpt>
      <trkpt lat="47.8873" lon="-4.14691">
        <ele>26.7</ele>
        <time>2024-05-09T13:48:55Z</time>
      </trkpt>
      <trkpt lat="47.88734" lon="-4.14709">
        <ele>26.9</ele>
        <time>2024-05-09T13:48:58Z</time>
      </trkpt>
      <trkpt lat="47.88739" lon="-4.14722">
        <ele>26.8</ele>
        <time>2024-05-09T13:49:00Z</time>
      </trkpt>
      <trkpt lat="47.88743" lon="-4.14734">
        <ele>26.8</ele>
        <time>2024-05-09T13:49:02Z</time>
      </trkpt>
      <trkpt lat="47.88748" lon="-4.1475">
        <ele>27.1</ele>
        <time>2024-05-09T13:49:05Z</time>
      </trkpt>
      <trkpt lat="47.88751" lon="-4.14764">
        <ele>27.5</ele>
        <time>2024-05-09T13:49:08Z</time>
      </trkpt>
      <trkpt lat="47.88751" lon="-4.14782">
        <ele>28.1</ele>
        <time>2024-05-09T13:49:12Z</time>
      </trkpt>
      <trkpt lat="47.88754" lon="-4.14799">
        <ele>28.6</ele>
        <time>2024-05-09T13:49:15Z</time>
      </trkpt>
      <trkpt lat="47.88754" lon="-4.14814">
        <ele>28.9</ele>
        <time>2024-05-09T13:49:18Z</time>
      </trkpt>
      <trkpt lat="47.88756" lon="-4.14828">
        <ele>29</ele>
        <time>2024-05-09T13:49:21Z</time>
      </trkpt>
      <trkpt lat="47.88758" lon="-4.14843">
        <ele>28.9</ele>
        <time>2024-05-09T13:49:24Z</time>
      </trkpt>
      <trkpt lat="47.88757" lon="-4.14859">
        <ele>28.8</ele>
        <time>2024-05-09T13:49:27Z</time>
      </trkpt>
      <trkpt lat="47.88756" lon="-4.14876">
        <ele>27.7</ele>
        <time>2024-05-09T13:49:30Z</time>
      </trkpt>
      <trkpt lat="47.8875" lon="-4.14891">
        <ele>26.7</ele>
        <time>2024-05-09T13:49:33Z</time>
      </trkpt>
      <trkpt lat="47.88738" lon="-4.14895">
        <ele>26</ele>
        <time>2024-05-09T13:49:36Z</time>
      </trkpt>
      <trkpt lat="47.88727" lon="-4.14884">
        <ele>26.5</ele>
        <time>2024-05-09T13:49:39Z</time>
      </trkpt>
      <trkpt lat="47.88716" lon="-4.14888">
        <ele>26</ele>
        <time>2024-05-09T13:49:43Z</time>
      </trkpt>
      <trkpt lat="47.88707" lon="-4.14893">
        <ele>26.1</ele>
        <time>2024-05-09T13:49:48Z</time>
      </trkpt>
      <trkpt lat="47.88702" lon="-4.14906">
        <ele>26.8</ele>
        <time>2024-05-09T13:49:55Z</time>
      </trkpt>
      <trkpt lat="47.88699" lon="-4.1492">
        <ele>27.5</ele>
        <time>2024-05-09T13:52:19Z</time>
      </trkpt>
      <trkpt lat="47.887" lon="-4.14936">
        <ele>27.4</ele>
        <time>2024-05-09T13:52:27Z</time>
      </trkpt>
      <trkpt lat="47.88697" lon="-4.14949">
        <ele>28</ele>
        <time>2024-05-09T13:52:32Z</time>
      </trkpt>
      <trkpt lat="47.8869" lon="-4.1496">
        <ele>29.3</ele>
        <time>2024-05-09T13:52:38Z</time>
      </trkpt>
      <trkpt lat="47.88682" lon="-4.14965">
        <ele>30</ele>
        <time>2024-05-09T13:52:43Z</time>
      </trkpt>
      <trkpt lat="47.88673" lon="-4.14969">
        <ele>30.6</ele>
        <time>2024-05-09T13:52:48Z</time>
      </trkpt>
      <trkpt lat="47.88663" lon="-4.14976">
        <ele>31.3</ele>
        <time>2024-05-09T13:52:53Z</time>
      </trkpt>
      <trkpt lat="47.88659" lon="-4.14989">
        <ele>31.9</ele>
        <time>2024-05-09T13:52:57Z</time>
      </trkpt>
      <trkpt lat="47.88657" lon="-4.15005">
        <ele>32.6</ele>
        <time>2024-05-09T13:53:02Z</time>
      </trkpt>
      <trkpt lat="47.88658" lon="-4.1502">
        <ele>33.5</ele>
        <time>2024-05-09T13:53:07Z</time>
      </trkpt>
      <trkpt lat="47.88654" lon="-4.15034">
        <ele>34.4</ele>
        <time>2024-05-09T13:53:12Z</time>
      </trkpt>
      <trkpt lat="47.88649" lon="-4.15046">
        <ele>35.3</ele>
        <time>2024-05-09T13:53:17Z</time>
      </trkpt>
      <trkpt lat="47.88644" lon="-4.15058">
        <ele>36</ele>
        <time>2024-05-09T13:53:22Z</time>
      </trkpt>
      <trkpt lat="47.8864" lon="-4.15071">
        <ele>36</ele>
        <time>2024-05-09T13:53:27Z</time>
      </trkpt>
      <trkpt lat="47.88636" lon="-4.15082">
        <ele>36</ele>
        <time>2024-05-09T13:53:32Z</time>
      </trkpt>
      <trkpt lat="47.88633" lon="-4.15095">
        <ele>36.3</ele>
        <time>2024-05-09T13:53:37Z</time>
      </trkpt>
      <trkpt lat="47.88629" lon="-4.15108">
        <ele>36.6</ele>
        <time>2024-05-09T13:53:42Z</time>
      </trkpt>
      <trkpt lat="47.88622" lon="-4.15116">
        <ele>36.5</ele>
        <time>2024-05-09T13:54:30Z</time>
      </trkpt>
      <trkpt lat="47.88614" lon="-4.15108">
        <ele>36.1</ele>
        <time>2024-05-09T14:00:14Z</time>
      </trkpt>
      <trkpt lat="47.88604" lon="-4.15103">
        <ele>35.7</ele>
        <time>2024-05-09T14:00:19Z</time>
      </trkpt>
      <trkpt lat="47.88593" lon="-4.15104">
        <ele>35.3</ele>
        <time>2024-05-09T14:00:23Z</time>
      </trkpt>
      <trkpt lat="47.88582" lon="-4.15108">
        <ele>35</ele>
        <time>2024-05-09T14:00:27Z</time>
      </trkpt>
      <trkpt lat="47.88572" lon="-4.15117">
        <ele>35.1</ele>
        <time>2024-05-09T14:00:31Z</time>
      </trkpt>
      <trkpt lat="47.88566" lon="-4.1513">
        <ele>35.2</ele>
        <time>2024-05-09T14:00:34Z</time>
      </trkpt>
      <trkpt lat="47.8856" lon="-4.15144">
        <ele>35.2</ele>
        <time>2024-05-09T14:00:37Z</time>
      </trkpt>
      <trkpt lat="47.88556" lon="-4.15159">
        <ele>35</ele>
        <time>2024-05-09T14:00:40Z</time>
      </trkpt>
      <trkpt lat="47.88552" lon="-4.15175">
        <ele>35.1</ele>
        <time>2024-05-09T14:00:43Z</time>
      </trkpt>
      <trkpt lat="47.88548" lon="-4.15193">
        <ele>35</ele>
        <time>2024-05-09T14:00:46Z</time>
      </trkpt>
      <trkpt lat="47.88544" lon="-4.1521">
        <ele>35.3</ele>
        <time>2024-05-09T14:00:49Z</time>
      </trkpt>
      <trkpt lat="47.8854" lon="-4.15226">
        <ele>35.4</ele>
        <time>2024-05-09T14:00:52Z</time>
      </trkpt>
      <trkpt lat="47.8854" lon="-4.15242">
        <ele>35.1</ele>
        <time>2024-05-09T14:00:55Z</time>
      </trkpt>
      <trkpt lat="47.88547" lon="-4.15253">
        <ele>35</ele>
        <time>2024-05-09T14:00:58Z</time>
      </trkpt>
      <trkpt lat="47.88558" lon="-4.15261">
        <ele>35</ele>
        <time>2024-05-09T14:01:01Z</time>
      </trkpt>
      <trkpt lat="47.88567" lon="-4.15266">
        <ele>35.2</ele>
        <time>2024-05-09T14:01:04Z</time>
      </trkpt>
      <trkpt lat="47.88578" lon="-4.15272">
        <ele>35.2</ele>
        <time>2024-05-09T14:01:07Z</time>
      </trkpt>
      <trkpt lat="47.88588" lon="-4.15278">
        <ele>35.2</ele>
        <time>2024-05-09T14:01:10Z</time>
      </trkpt>
      <trkpt lat="47.88599" lon="-4.15283">
        <ele>35.5</ele>
        <time>2024-05-09T14:01:13Z</time>
      </trkpt>
      <trkpt lat="47.8861" lon="-4.15288">
        <ele>35.6</ele>
        <time>2024-05-09T14:01:16Z</time>
      </trkpt>
      <trkpt lat="47.8862" lon="-4.15293">
        <ele>35.6</ele>
        <time>2024-05-09T14:01:19Z</time>
      </trkpt>
      <trkpt lat="47.88629" lon="-4.15297">
        <ele>35.7</ele>
        <time>2024-05-09T14:01:22Z</time>
      </trkpt>
      <trkpt lat="47.88637" lon="-4.15302">
        <ele>36</ele>
        <time>2024-05-09T14:01:25Z</time>
      </trkpt>
      <trkpt lat="47.88648" lon="-4.15307">
        <ele>36</ele>
        <time>2024-05-09T14:01:29Z</time>
      </trkpt>
      <trkpt lat="47.88658" lon="-4.15316">
        <ele>35.9</ele>
        <time>2024-05-09T14:01:33Z</time>
      </trkpt>
      <trkpt lat="47.88665" lon="-4.15327">
        <ele>36</ele>
        <time>2024-05-09T14:01:36Z</time>
      </trkpt>
      <trkpt lat="47.88671" lon="-4.15339">
        <ele>36</ele>
        <time>2024-05-09T14:01:39Z</time>
      </trkpt>
      <trkpt lat="47.88677" lon="-4.15355">
        <ele>36.3</ele>
        <time>2024-05-09T14:01:43Z</time>
      </trkpt>
      <trkpt lat="47.8868" lon="-4.15371">
        <ele>36.5</ele>
        <time>2024-05-09T14:01:47Z</time>
      </trkpt>
      <trkpt lat="47.88682" lon="-4.15385">
        <ele>36.6</ele>
        <time>2024-05-09T14:01:50Z</time>
      </trkpt>
      <trkpt lat="47.88685" lon="-4.15399">
        <ele>36.7</ele>
        <time>2024-05-09T14:01:53Z</time>
      </trkpt>
      <trkpt lat="47.88688" lon="-4.15413">
        <ele>36.8</ele>
        <time>2024-05-09T14:01:56Z</time>
      </trkpt>
      <trkpt lat="47.88692" lon="-4.15429">
        <ele>36.5</ele>
        <time>2024-05-09T14:02:00Z</time>
      </trkpt>
      <trkpt lat="47.88702" lon="-4.15437">
        <ele>36.3</ele>
        <time>2024-05-09T14:02:04Z</time>
      </trkpt>
      <trkpt lat="47.88712" lon="-4.15436">
        <ele>36.3</ele>
        <time>2024-05-09T14:02:07Z</time>
      </trkpt>
      <trkpt lat="47.88721" lon="-4.15435">
        <ele>36.3</ele>
        <time>2024-05-09T14:02:10Z</time>
      </trkpt>
      <trkpt lat="47.8873" lon="-4.15434">
        <ele>36.6</ele>
        <time>2024-05-09T14:02:13Z</time>
      </trkpt>
      <trkpt lat="47.88739" lon="-4.15433">
        <ele>36.8</ele>
        <time>2024-05-09T14:02:16Z</time>
      </trkpt>
      <trkpt lat="47.8875" lon="-4.15431">
        <ele>37</ele>
        <time>2024-05-09T14:02:20Z</time>
      </trkpt>
      <trkpt lat="47.8876" lon="-4.1543">
        <ele>36.7</ele>
        <time>2024-05-09T14:02:23Z</time>
      </trkpt>
      <trkpt lat="47.88769" lon="-4.15431">
        <ele>36.3</ele>
        <time>2024-05-09T14:02:26Z</time>
      </trkpt>
      <trkpt lat="47.88778" lon="-4.15437">
        <ele>36</ele>
        <time>2024-05-09T14:02:29Z</time>
      </trkpt>
      <trkpt lat="47.88785" lon="-4.15451">
        <ele>36.1</ele>
        <time>2024-05-09T14:02:33Z</time>
      </trkpt>
      <trkpt lat="47.88788" lon="-4.15463">
        <ele>36.2</ele>
        <time>2024-05-09T14:02:37Z</time>
      </trkpt>
      <trkpt lat="47.88786" lon="-4.1548">
        <ele>36.3</ele>
        <time>2024-05-09T14:02:44Z</time>
      </trkpt>
      <trkpt lat="47.88785" lon="-4.15495">
        <ele>36.3</ele>
        <time>2024-05-09T14:02:47Z</time>
      </trkpt>
      <trkpt lat="47.88785" lon="-4.1551">
        <ele>36.2</ele>
        <time>2024-05-09T14:02:50Z</time>
      </trkpt>
      <trkpt lat="47.88784" lon="-4.15524">
        <ele>36</ele>
        <time>2024-05-09T14:02:53Z</time>
      </trkpt>
      <trkpt lat="47.88783" lon="-4.15538">
        <ele>36</ele>
        <time>2024-05-09T14:02:59Z</time>
      </trkpt>
      <trkpt lat="47.88781" lon="-4.15552">
        <ele>36</ele>
        <time>2024-05-09T14:03:04Z</time>
      </trkpt>
      <trkpt lat="47.88781" lon="-4.15567">
        <ele>36</ele>
        <time>2024-05-09T14:03:07Z</time>
      </trkpt>
      <trkpt lat="47.88783" lon="-4.15584">
        <ele>36</ele>
        <time>2024-05-09T14:03:11Z</time>
      </trkpt>
      <trkpt lat="47.88784" lon="-4.15598">
        <ele>36</ele>
        <time>2024-05-09T14:03:16Z</time>
      </trkpt>
      <trkpt lat="47.88776" lon="-4.15609">
        <ele>36</ele>
        <time>2024-05-09T14:03:30Z</time>
      </trkpt>
      <trkpt lat="47.88768" lon="-4.15619">
        <ele>35.5</ele>
        <time>2024-05-09T14:03:35Z</time>
      </trkpt>
      <trkpt lat="47.88766" lon="-4.15635">
        <ele>35.1</ele>
        <time>2024-05-09T14:03:39Z</time>
      </trkpt>
      <trkpt lat="47.8876" lon="-4.15648">
        <ele>34.8</ele>
        <time>2024-05-09T14:03:43Z</time>
      </trkpt>
      <trkpt lat="47.88749" lon="-4.15646">
        <ele>34.7</ele>
        <time>2024-05-09T14:03:47Z</time>
      </trkpt>
      <trkpt lat="47.8874" lon="-4.15639">
        <ele>34.6</ele>
        <time>2024-05-09T14:03:52Z</time>
      </trkpt>
      <trkpt lat="47.8873" lon="-4.15641">
        <ele>34.3</ele>
        <time>2024-05-09T14:04:21Z</time>
      </trkpt>
      <trkpt lat="47.88723" lon="-4.15633">
        <ele>34.5</ele>
        <time>2024-05-09T14:04:37Z</time>
      </trkpt>
      <trkpt lat="47.8872" lon="-4.15619">
        <ele>35.3</ele>
        <time>2024-05-09T14:04:50Z</time>
      </trkpt>
      <trkpt lat="47.8873" lon="-4.1562">
        <ele>35.3</ele>
        <time>2024-05-09T14:06:22Z</time>
      </trkpt>
      <trkpt lat="47.88727" lon="-4.15607">
        <ele>35.9</ele>
        <time>2024-05-09T14:13:39Z</time>
      </trkpt>
      <trkpt lat="47.88718" lon="-4.15611">
        <ele>35.7</ele>
        <time>2024-05-09T14:23:54Z</time>
      </trkpt>
      <trkpt lat="47.8872" lon="-4.15626">
        <ele>34.9</ele>
        <time>2024-05-09T14:24:19Z</time>
      </trkpt>
      <trkpt lat="47.88726" lon="-4.15637">
        <ele>34.3</ele>
        <time>2024-05-09T14:24:30Z</time>
      </trkpt>
      <trkpt lat="47.88735" lon="-4.15637">
        <ele>34.5</ele>
        <time>2024-05-09T14:24:38Z</time>
      </trkpt>
      <trkpt lat="47.88746" lon="-4.1564">
        <ele>34.8</ele>
        <time>2024-05-09T14:24:44Z</time>
      </trkpt>
      <trkpt lat="47.88756" lon="-4.15645">
        <ele>34.8</ele>
        <time>2024-05-09T14:24:48Z</time>
      </trkpt>
      <trkpt lat="47.88767" lon="-4.15642">
        <ele>35</ele>
        <time>2024-05-09T14:24:52Z</time>
      </trkpt>
      <trkpt lat="47.88769" lon="-4.15628">
        <ele>35.3</ele>
        <time>2024-05-09T14:24:55Z</time>
      </trkpt>
      <trkpt lat="47.88772" lon="-4.15613">
        <ele>35.7</ele>
        <time>2024-05-09T14:24:59Z</time>
      </trkpt>
      <trkpt lat="47.88782" lon="-4.15608">
        <ele>36</ele>
        <time>2024-05-09T14:25:04Z</time>
      </trkpt>
      <trkpt lat="47.88786" lon="-4.15595">
        <ele>36</ele>
        <time>2024-05-09T14:25:14Z</time>
      </trkpt>
      <trkpt lat="47.8879" lon="-4.15608">
        <ele>36</ele>
        <time>2024-05-09T14:25:20Z</time>
      </trkpt>
      <trkpt lat="47.88799" lon="-4.15616">
        <ele>35.8</ele>
        <time>2024-05-09T14:25:24Z</time>
      </trkpt>
      <trkpt lat="47.88807" lon="-4.15622">
        <ele>35.6</ele>
        <time>2024-05-09T14:25:27Z</time>
      </trkpt>
      <trkpt lat="47.88815" lon="-4.1563">
        <ele>35.5</ele>
        <time>2024-05-09T14:25:30Z</time>
      </trkpt>
      <trkpt lat="47.88825" lon="-4.15639">
        <ele>35.7</ele>
        <time>2024-05-09T14:25:34Z</time>
      </trkpt>
      <trkpt lat="47.88836" lon="-4.15643">
        <ele>35.8</ele>
        <time>2024-05-09T14:25:38Z</time>
      </trkpt>
      <trkpt lat="47.88846" lon="-4.15648">
        <ele>35.4</ele>
        <time>2024-05-09T14:25:42Z</time>
      </trkpt>
      <trkpt lat="47.88852" lon="-4.15662">
        <ele>35.1</ele>
        <time>2024-05-09T14:25:47Z</time>
      </trkpt>
      <trkpt lat="47.88852" lon="-4.15679">
        <ele>35</ele>
        <time>2024-05-09T14:25:51Z</time>
      </trkpt>
      <trkpt lat="47.88853" lon="-4.15695">
        <ele>35</ele>
        <time>2024-05-09T14:25:55Z</time>
      </trkpt>
      <trkpt lat="47.88854" lon="-4.15709">
        <ele>35</ele>
        <time>2024-05-09T14:25:58Z</time>
      </trkpt>
      <trkpt lat="47.88855" lon="-4.15723">
        <ele>35</ele>
        <time>2024-05-09T14:26:01Z</time>
      </trkpt>
      <trkpt lat="47.88855" lon="-4.15741">
        <ele>34.3</ele>
        <time>2024-05-09T14:26:05Z</time>
      </trkpt>
      <trkpt lat="47.88853" lon="-4.15757">
        <ele>34</ele>
        <time>2024-05-09T14:26:08Z</time>
      </trkpt>
      <trkpt lat="47.8885" lon="-4.15777">
        <ele>34</ele>
        <time>2024-05-09T14:26:11Z</time>
      </trkpt>
      <trkpt lat="47.88847" lon="-4.15791">
        <ele>33.3</ele>
        <time>2024-05-09T14:26:13Z</time>
      </trkpt>
      <trkpt lat="47.88843" lon="-4.15809">
        <ele>32.2</ele>
        <time>2024-05-09T14:26:16Z</time>
      </trkpt>
      <trkpt lat="47.8884" lon="-4.15823">
        <ele>31.4</ele>
        <time>2024-05-09T14:26:19Z</time>
      </trkpt>
      <trkpt lat="47.88843" lon="-4.1584">
        <ele>30.5</ele>
        <time>2024-05-09T14:26:23Z</time>
      </trkpt>
      <trkpt lat="47.88843" lon="-4.15857">
        <ele>29.3</ele>
        <time>2024-05-09T14:26:26Z</time>
      </trkpt>
      <trkpt lat="47.8884" lon="-4.15875">
        <ele>28.5</ele>
        <time>2024-05-09T14:26:29Z</time>
      </trkpt>
      <trkpt lat="47.88836" lon="-4.15892">
        <ele>28</ele>
        <time>2024-05-09T14:26:32Z</time>
      </trkpt>
      <trkpt lat="47.88834" lon="-4.15905">
        <ele>28</ele>
        <time>2024-05-09T14:26:35Z</time>
      </trkpt>
      <trkpt lat="47.88828" lon="-4.15917">
        <ele>28.2</ele>
        <time>2024-05-09T14:26:39Z</time>
      </trkpt>
      <trkpt lat="47.88818" lon="-4.15925">
        <ele>28.4</ele>
        <time>2024-05-09T14:26:43Z</time>
      </trkpt>
      <trkpt lat="47.8881" lon="-4.15929">
        <ele>28.5</ele>
        <time>2024-05-09T14:26:46Z</time>
      </trkpt>
      <trkpt lat="47.888" lon="-4.15936">
        <ele>28.4</ele>
        <time>2024-05-09T14:26:50Z</time>
      </trkpt>
      <trkpt lat="47.88795" lon="-4.1595">
        <ele>28.4</ele>
        <time>2024-05-09T14:26:55Z</time>
      </trkpt>
      <trkpt lat="47.88804" lon="-4.15958">
        <ele>28.1</ele>
        <time>2024-05-09T14:26:58Z</time>
      </trkpt>
      <trkpt lat="47.88816" lon="-4.15963">
        <ele>27.8</ele>
        <time>2024-05-09T14:27:01Z</time>
      </trkpt>
      <trkpt lat="47.88828" lon="-4.15969">
        <ele>27.3</ele>
        <time>2024-05-09T14:27:04Z</time>
      </trkpt>
      <trkpt lat="47.88836" lon="-4.15977">
        <ele>26.9</ele>
        <time>2024-05-09T14:27:06Z</time>
      </trkpt>
      <trkpt lat="47.88844" lon="-4.15984">
        <ele>26.6</ele>
        <time>2024-05-09T14:27:08Z</time>
      </trkpt>
      <trkpt lat="47.88853" lon="-4.15992">
        <ele>26.3</ele>
        <time>2024-05-09T14:27:10Z</time>
      </trkpt>
      <trkpt lat="47.88862" lon="-4.15999">
        <ele>26</ele>
        <time>2024-05-09T14:27:12Z</time>
      </trkpt>
      <trkpt lat="47.88874" lon="-4.15998">
        <ele>25.5</ele>
        <time>2024-05-09T14:27:15Z</time>
      </trkpt>
      <trkpt lat="47.88887" lon="-4.16002">
        <ele>25.1</ele>
        <time>2024-05-09T14:27:18Z</time>
      </trkpt>
      <trkpt lat="47.88894" lon="-4.16009">
        <ele>24.8</ele>
        <time>2024-05-09T14:27:20Z</time>
      </trkpt>
      <trkpt lat="47.88904" lon="-4.16019">
        <ele>24.5</ele>
        <time>2024-05-09T14:27:23Z</time>
      </trkpt>
      <trkpt lat="47.88913" lon="-4.16027">
        <ele>24.1</ele>
        <time>2024-05-09T14:27:26Z</time>
      </trkpt>
      <trkpt lat="47.88924" lon="-4.16033">
        <ele>23.7</ele>
        <time>2024-05-09T14:27:29Z</time>
      </trkpt>
      <trkpt lat="47.88933" lon="-4.16038">
        <ele>23.4</ele>
        <time>2024-05-09T14:27:31Z</time>
      </trkpt>
      <trkpt lat="47.88945" lon="-4.16038">
        <ele>22.7</ele>
        <time>2024-05-09T14:27:33Z</time>
      </trkpt>
      <trkpt lat="47.8896" lon="-4.16041">
        <ele>21.6</ele>
        <time>2024-05-09T14:27:36Z</time>
      </trkpt>
      <trkpt lat="47.88971" lon="-4.16043">
        <ele>20.6</ele>
        <time>2024-05-09T14:27:38Z</time>
      </trkpt>
      <trkpt lat="47.88983" lon="-4.16044">
        <ele>19.7</ele>
        <time>2024-05-09T14:27:42Z</time>
      </trkpt>
      <trkpt lat="47.88992" lon="-4.16036">
        <ele>18.4</ele>
        <time>2024-05-09T14:27:45Z</time>
      </trkpt>
      <trkpt lat="47.88993" lon="-4.16021">
        <ele>18.2</ele>
        <time>2024-05-09T14:27:47Z</time>
      </trkpt>
      <trkpt lat="47.89001" lon="-4.16012">
        <ele>18.1</ele>
        <time>2024-05-09T14:27:50Z</time>
      </trkpt>
      <trkpt lat="47.8901" lon="-4.16007">
        <ele>16.9</ele>
        <time>2024-05-09T14:27:52Z</time>
      </trkpt>
      <trkpt lat="47.89018" lon="-4.16001">
        <ele>15.8</ele>
        <time>2024-05-09T14:27:54Z</time>
      </trkpt>
      <trkpt lat="47.89027" lon="-4.15996">
        <ele>15.2</ele>
        <time>2024-05-09T14:28:01Z</time>
      </trkpt>
      <trkpt lat="47.89036" lon="-4.15996">
        <ele>14.4</ele>
        <time>2024-05-09T14:28:08Z</time>
      </trkpt>
      <trkpt lat="47.89045" lon="-4.16">
        <ele>13.4</ele>
        <time>2024-05-09T14:29:32Z</time>
      </trkpt>
      <trkpt lat="47.89047" lon="-4.16015">
        <ele>13.3</ele>
        <time>2024-05-09T14:29:39Z</time>
      </trkpt>
      <trkpt lat="47.89046" lon="-4.16028">
        <ele>13.4</ele>
        <time>2024-05-09T14:29:48Z</time>
      </trkpt>
      <trkpt lat="47.89039" lon="-4.16038">
        <ele>14.5</ele>
        <time>2024-05-09T14:30:05Z</time>
      </trkpt>
      <trkpt lat="47.89031" lon="-4.16046">
        <ele>15.8</ele>
        <time>2024-05-09T14:30:15Z</time>
      </trkpt>
      <trkpt lat="47.89023" lon="-4.16053">
        <ele>17.2</ele>
        <time>2024-05-09T14:30:26Z</time>
      </trkpt>
      <trkpt lat="47.89017" lon="-4.16065">
        <ele>18.7</ele>
        <time>2024-05-09T14:30:33Z</time>
      </trkpt>
      <trkpt lat="47.89017" lon="-4.16079">
        <ele>20</ele>
        <time>2024-05-09T14:30:45Z</time>
      </trkpt>
      <trkpt lat="47.89021" lon="-4.16093">
        <ele>20.6</ele>
        <time>2024-05-09T14:30:51Z</time>
      </trkpt>
      <trkpt lat="47.89018" lon="-4.16107">
        <ele>21.5</ele>
        <time>2024-05-09T14:30:56Z</time>
      </trkpt>
      <trkpt lat="47.89016" lon="-4.1612">
        <ele>22</ele>
        <time>2024-05-09T14:31:02Z</time>
      </trkpt>
      <trkpt lat="47.89013" lon="-4.16134">
        <ele>22.4</ele>
        <time>2024-05-09T14:31:09Z</time>
      </trkpt>
      <trkpt lat="47.89008" lon="-4.16146">
        <ele>22.7</ele>
        <time>2024-05-09T14:31:14Z</time>
      </trkpt>
      <trkpt lat="47.89005" lon="-4.16162">
        <ele>22.8</ele>
        <time>2024-05-09T14:31:19Z</time>
      </trkpt>
      <trkpt lat="47.89002" lon="-4.16178">
        <ele>22.5</ele>
        <time>2024-05-09T14:31:24Z</time>
      </trkpt>
      <trkpt lat="47.89001" lon="-4.16193">
        <ele>22</ele>
        <time>2024-05-09T14:31:28Z</time>
      </trkpt>
      <trkpt lat="47.89001" lon="-4.16207">
        <ele>22</ele>
        <time>2024-05-09T14:31:31Z</time>
      </trkpt>
      <trkpt lat="47.89004" lon="-4.16223">
        <ele>21.8</ele>
        <time>2024-05-09T14:31:34Z</time>
      </trkpt>
      <trkpt lat="47.8901" lon="-4.16235">
        <ele>21.2</ele>
        <time>2024-05-09T14:31:36Z</time>
      </trkpt>
      <trkpt lat="47.89015" lon="-4.16247">
        <ele>20.6</ele>
        <time>2024-05-09T14:31:38Z</time>
      </trkpt>
      <trkpt lat="47.89019" lon="-4.16259">
        <ele>20.2</ele>
        <time>2024-05-09T14:31:40Z</time>
      </trkpt>
      <trkpt lat="47.89023" lon="-4.16273">
        <ele>20</ele>
        <time>2024-05-09T14:31:42Z</time>
      </trkpt>
      <trkpt lat="47.89029" lon="-4.16286">
        <ele>19.7</ele>
        <time>2024-05-09T14:31:44Z</time>
      </trkpt>
      <trkpt lat="47.89035" lon="-4.163">
        <ele>19</ele>
        <time>2024-05-09T14:31:46Z</time>
      </trkpt>
      <trkpt lat="47.89043" lon="-4.16312">
        <ele>18.2</ele>
        <time>2024-05-09T14:31:48Z</time>
      </trkpt>
      <trkpt lat="47.8905" lon="-4.16323">
        <ele>17.6</ele>
        <time>2024-05-09T14:31:50Z</time>
      </trkpt>
      <trkpt lat="47.89058" lon="-4.1633">
        <ele>17</ele>
        <time>2024-05-09T14:31:52Z</time>
      </trkpt>
      <trkpt lat="47.89068" lon="-4.1634">
        <ele>16.6</ele>
        <time>2024-05-09T14:31:55Z</time>
      </trkpt>
      <trkpt lat="47.89079" lon="-4.16348">
        <ele>16.2</ele>
        <time>2024-05-09T14:31:58Z</time>
      </trkpt>
      <trkpt lat="47.89083" lon="-4.16366">
        <ele>16.2</ele>
        <time>2024-05-09T14:32:01Z</time>
      </trkpt>
      <trkpt lat="47.89081" lon="-4.16384">
        <ele>16.8</ele>
        <time>2024-05-09T14:32:04Z</time>
      </trkpt>
      <trkpt lat="47.89083" lon="-4.16398">
        <ele>17</ele>
        <time>2024-05-09T14:32:08Z</time>
      </trkpt>
      <trkpt lat="47.89086" lon="-4.16413">
        <ele>16.9</ele>
        <time>2024-05-09T14:32:13Z</time>
      </trkpt>
      <trkpt lat="47.89088" lon="-4.16429">
        <ele>16.8</ele>
        <time>2024-05-09T14:32:17Z</time>
      </trkpt>
      <trkpt lat="47.89088" lon="-4.16449">
        <ele>16.7</ele>
        <time>2024-05-09T14:32:21Z</time>
      </trkpt>
      <trkpt lat="47.89086" lon="-4.16468">
        <ele>16.8</ele>
        <time>2024-05-09T14:32:24Z</time>
      </trkpt>
      <trkpt lat="47.89087" lon="-4.16486">
        <ele>17.3</ele>
        <time>2024-05-09T14:32:27Z</time>
      </trkpt>
      <trkpt lat="47.89092" lon="-4.165">
        <ele>17.3</ele>
        <time>2024-05-09T14:32:30Z</time>
      </trkpt>
      <trkpt lat="47.89098" lon="-4.16512">
        <ele>17.2</ele>
        <time>2024-05-09T14:32:33Z</time>
      </trkpt>
      <trkpt lat="47.89101" lon="-4.16527">
        <ele>17.3</ele>
        <time>2024-05-09T14:32:36Z</time>
      </trkpt>
      <trkpt lat="47.89102" lon="-4.16544">
        <ele>17.7</ele>
        <time>2024-05-09T14:32:40Z</time>
      </trkpt>
      <trkpt lat="47.89106" lon="-4.16557">
        <ele>18.1</ele>
        <time>2024-05-09T14:32:44Z</time>
      </trkpt>
      <trkpt lat="47.89113" lon="-4.16566">
        <ele>18.5</ele>
        <time>2024-05-09T14:32:48Z</time>
      </trkpt>
      <trkpt lat="47.89122" lon="-4.1657">
        <ele>19.1</ele>
        <time>2024-05-09T14:32:52Z</time>
      </trkpt>
      <trkpt lat="47.89132" lon="-4.16576">
        <ele>19.7</ele>
        <time>2024-05-09T14:32:57Z</time>
      </trkpt>
      <trkpt lat="47.89142" lon="-4.16581">
        <ele>20.1</ele>
        <time>2024-05-09T14:33:01Z</time>
      </trkpt>
      <trkpt lat="47.8915" lon="-4.16586">
        <ele>20.5</ele>
        <time>2024-05-09T14:33:05Z</time>
      </trkpt>
      <trkpt lat="47.89159" lon="-4.16591">
        <ele>20.8</ele>
        <time>2024-05-09T14:33:09Z</time>
      </trkpt>
      <trkpt lat="47.89168" lon="-4.16596">
        <ele>21</ele>
        <time>2024-05-09T14:33:13Z</time>
      </trkpt>
      <trkpt lat="47.89176" lon="-4.16603">
        <ele>21.3</ele>
        <time>2024-05-09T14:33:17Z</time>
      </trkpt>
      <trkpt lat="47.89186" lon="-4.1661">
        <ele>21.7</ele>
        <time>2024-05-09T14:33:21Z</time>
      </trkpt>
      <trkpt lat="47.89195" lon="-4.16618">
        <ele>22.2</ele>
        <time>2024-05-09T14:33:25Z</time>
      </trkpt>
      <trkpt lat="47.89203" lon="-4.16626">
        <ele>22.5</ele>
        <time>2024-05-09T14:33:29Z</time>
      </trkpt>
      <trkpt lat="47.89212" lon="-4.16633">
        <ele>22.8</ele>
        <time>2024-05-09T14:33:33Z</time>
      </trkpt>
      <trkpt lat="47.89221" lon="-4.1664">
        <ele>23</ele>
        <time>2024-05-09T14:33:38Z</time>
      </trkpt>
      <trkpt lat="47.89223" lon="-4.16653">
        <ele>23</ele>
        <time>2024-05-09T14:33:46Z</time>
      </trkpt>
      <trkpt lat="47.89226" lon="-4.16667">
        <ele>23</ele>
        <time>2024-05-09T14:36:13Z</time>
      </trkpt>
      <trkpt lat="47.89226" lon="-4.16682">
        <ele>23.5</ele>
        <time>2024-05-09T14:36:18Z</time>
      </trkpt>
      <trkpt lat="47.8923" lon="-4.16695">
        <ele>23.7</ele>
        <time>2024-05-09T14:36:22Z</time>
      </trkpt>
      <trkpt lat="47.89234" lon="-4.16708">
        <ele>23.6</ele>
        <time>2024-05-09T14:36:26Z</time>
      </trkpt>
      <trkpt lat="47.89239" lon="-4.16721">
        <ele>23.4</ele>
        <time>2024-05-09T14:36:29Z</time>
      </trkpt>
      <trkpt lat="47.89243" lon="-4.16734">
        <ele>23.4</ele>
        <time>2024-05-09T14:36:32Z</time>
      </trkpt>
      <trkpt lat="47.89249" lon="-4.16746">
        <ele>23.1</ele>
        <time>2024-05-09T14:36:35Z</time>
      </trkpt>
      <trkpt lat="47.89256" lon="-4.16755">
        <ele>22.8</ele>
        <time>2024-05-09T14:36:38Z</time>
      </trkpt>
      <trkpt lat="47.89264" lon="-4.16762">
        <ele>22.5</ele>
        <time>2024-05-09T14:36:41Z</time>
      </trkpt>
      <trkpt lat="47.89276" lon="-4.16768">
        <ele>22.1</ele>
        <time>2024-05-09T14:36:44Z</time>
      </trkpt>
      <trkpt lat="47.89286" lon="-4.16775">
        <ele>21.7</ele>
        <time>2024-05-09T14:36:47Z</time>
      </trkpt>
      <trkpt lat="47.89293" lon="-4.1679">
        <ele>21.7</ele>
        <time>2024-05-09T14:36:50Z</time>
      </trkpt>
      <trkpt lat="47.89298" lon="-4.16801">
        <ele>21.5</ele>
        <time>2024-05-09T14:36:53Z</time>
      </trkpt>
      <trkpt lat="47.89304" lon="-4.16814">
        <ele>20.8</ele>
        <time>2024-05-09T14:36:58Z</time>
      </trkpt>
      <trkpt lat="47.89305" lon="-4.1683">
        <ele>20.2</ele>
        <time>2024-05-09T14:37:03Z</time>
      </trkpt>
      <trkpt lat="47.89308" lon="-4.16844">
        <ele>19.5</ele>
        <time>2024-05-09T14:37:07Z</time>
      </trkpt>
      <trkpt lat="47.89312" lon="-4.16859">
        <ele>18.8</ele>
        <time>2024-05-09T14:37:11Z</time>
      </trkpt>
      <trkpt lat="47.89314" lon="-4.16875">
        <ele>18.2</ele>
        <time>2024-05-09T14:37:13Z</time>
      </trkpt>
      <trkpt lat="47.89314" lon="-4.1689">
        <ele>17.7</ele>
        <time>2024-05-09T14:37:15Z</time>
      </trkpt>
      <trkpt lat="47.89322" lon="-4.16908">
        <ele>16.7</ele>
        <time>2024-05-09T14:37:17Z</time>
      </trkpt>
      <trkpt lat="47.89331" lon="-4.1692">
        <ele>15.9</ele>
        <time>2024-05-09T14:37:20Z</time>
      </trkpt>
      <trkpt lat="47.89338" lon="-4.1693">
        <ele>15.3</ele>
        <time>2024-05-09T14:37:22Z</time>
      </trkpt>
      <trkpt lat="47.89344" lon="-4.16941">
        <ele>14.7</ele>
        <time>2024-05-09T14:37:24Z</time>
      </trkpt>
      <trkpt lat="47.8935" lon="-4.16956">
        <ele>14</ele>
        <time>2024-05-09T14:37:28Z</time>
      </trkpt>
      <trkpt lat="47.89352" lon="-4.1697">
        <ele>13.4</ele>
        <time>2024-05-09T14:37:34Z</time>
      </trkpt>
      <trkpt lat="47.89357" lon="-4.16982">
        <ele>13.4</ele>
        <time>2024-05-09T14:37:41Z</time>
      </trkpt>
      <trkpt lat="47.89367" lon="-4.16985">
        <ele>13.1</ele>
        <time>2024-05-09T14:37:47Z</time>
      </trkpt>
      <trkpt lat="47.89378" lon="-4.16989">
        <ele>12.8</ele>
        <time>2024-05-09T14:37:52Z</time>
      </trkpt>
      <trkpt lat="47.89387" lon="-4.16998">
        <ele>12.9</ele>
        <time>2024-05-09T14:37:56Z</time>
      </trkpt>
      <trkpt lat="47.89393" lon="-4.1701">
        <ele>13.1</ele>
        <time>2024-05-09T14:37:59Z</time>
      </trkpt>
      <trkpt lat="47.89399" lon="-4.17022">
        <ele>13</ele>
        <time>2024-05-09T14:38:02Z</time>
      </trkpt>
      <trkpt lat="47.89407" lon="-4.17033">
        <ele>12.7</ele>
        <time>2024-05-09T14:38:05Z</time>
      </trkpt>
      <trkpt lat="47.89415" lon="-4.17047">
        <ele>12.1</ele>
        <time>2024-05-09T14:38:09Z</time>
      </trkpt>
      <trkpt lat="47.89423" lon="-4.17058">
        <ele>11.5</ele>
        <time>2024-05-09T14:38:12Z</time>
      </trkpt>
      <trkpt lat="47.89431" lon="-4.17067">
        <ele>10.8</ele>
        <time>2024-05-09T14:38:15Z</time>
      </trkpt>
      <trkpt lat="47.89437" lon="-4.17077">
        <ele>10</ele>
        <time>2024-05-09T14:38:18Z</time>
      </trkpt>
      <trkpt lat="47.89442" lon="-4.17089">
        <ele>9.2</ele>
        <time>2024-05-09T14:38:22Z</time>
      </trkpt>
      <trkpt lat="47.89445" lon="-4.17102">
        <ele>8.9</ele>
        <time>2024-05-09T14:38:27Z</time>
      </trkpt>
      <trkpt lat="47.89444" lon="-4.17116">
        <ele>8.5</ele>
        <time>2024-05-09T14:38:40Z</time>
      </trkpt>
      <trkpt lat="47.89447" lon="-4.17128">
        <ele>6.9</ele>
        <time>2024-05-09T14:39:03Z</time>
      </trkpt>
      <trkpt lat="47.89442" lon="-4.17141">
        <ele>6.1</ele>
        <time>2024-05-09T14:39:13Z</time>
      </trkpt>
      <trkpt lat="47.89438" lon="-4.17153">
        <ele>5.6</ele>
        <time>2024-05-09T14:39:16Z</time>
      </trkpt>
      <trkpt lat="47.89433" lon="-4.17167">
        <ele>5.5</ele>
        <time>2024-05-09T14:39:19Z</time>
      </trkpt>
      <trkpt lat="47.89428" lon="-4.17181">
        <ele>5.9</ele>
        <time>2024-05-09T14:39:26Z</time>
      </trkpt>
      <trkpt lat="47.89425" lon="-4.17195">
        <ele>5.3</ele>
        <time>2024-05-09T14:39:31Z</time>
      </trkpt>
      <trkpt lat="47.89426" lon="-4.1721">
        <ele>5.2</ele>
        <time>2024-05-09T14:39:36Z</time>
      </trkpt>
      <trkpt lat="47.89429" lon="-4.17224">
        <ele>5.3</ele>
        <time>2024-05-09T14:39:42Z</time>
      </trkpt>
      <trkpt lat="47.89434" lon="-4.17235">
        <ele>5.6</ele>
        <time>2024-05-09T14:39:46Z</time>
      </trkpt>
      <trkpt lat="47.8944" lon="-4.17247">
        <ele>5.8</ele>
        <time>2024-05-09T14:39:50Z</time>
      </trkpt>
      <trkpt lat="47.89441" lon="-4.17263">
        <ele>5.4</ele>
        <time>2024-05-09T14:39:53Z</time>
      </trkpt>
      <trkpt lat="47.89441" lon="-4.17279">
        <ele>5.1</ele>
        <time>2024-05-09T14:39:56Z</time>
      </trkpt>
      <trkpt lat="47.89443" lon="-4.17292">
        <ele>5.6</ele>
        <time>2024-05-09T14:40:33Z</time>
      </trkpt>
      <trkpt lat="47.89449" lon="-4.17281">
        <ele>5.3</ele>
        <time>2024-05-09T14:44:58Z</time>
      </trkpt>
      <trkpt lat="47.89445" lon="-4.17294">
        <ele>5.6</ele>
        <time>2024-05-09T14:46:44Z</time>
      </trkpt>
      <trkpt lat="47.89445" lon="-4.17308">
        <ele>6.1</ele>
        <time>2024-05-09T14:48:37Z</time>
      </trkpt>
      <trkpt lat="47.89445" lon="-4.17324">
        <ele>6.6</ele>
        <time>2024-05-09T14:48:45Z</time>
      </trkpt>
      <trkpt lat="47.89446" lon="-4.17338">
        <ele>7.1</ele>
        <time>2024-05-09T14:52:46Z</time>
      </trkpt>
      <trkpt lat="47.89446" lon="-4.17352">
        <ele>7.6</ele>
        <time>2024-05-09T14:53:15Z</time>
      </trkpt>
      <trkpt lat="47.89447" lon="-4.17367">
        <ele>7.9</ele>
        <time>2024-05-09T14:53:20Z</time>
      </trkpt>
      <trkpt lat="47.89448" lon="-4.17383">
        <ele>8</ele>
        <time>2024-05-09T14:53:25Z</time>
      </trkpt>
      <trkpt lat="47.89448" lon="-4.17397">
        <ele>8.2</ele>
        <time>2024-05-09T14:53:29Z</time>
      </trkpt>
      <trkpt lat="47.89449" lon="-4.1741">
        <ele>8.5</ele>
        <time>2024-05-09T14:53:33Z</time>
      </trkpt>
      <trkpt lat="47.89449" lon="-4.17426">
        <ele>9</ele>
        <time>2024-05-09T14:53:38Z</time>
      </trkpt>
      <trkpt lat="47.8945" lon="-4.17441">
        <ele>9.5</ele>
        <time>2024-05-09T14:53:43Z</time>
      </trkpt>
      <trkpt lat="47.8945" lon="-4.17456">
        <ele>10</ele>
        <time>2024-05-09T14:53:48Z</time>
      </trkpt>
      <trkpt lat="47.8945" lon="-4.17469">
        <ele>10.5</ele>
        <time>2024-05-09T14:53:53Z</time>
      </trkpt>
      <trkpt lat="47.89451" lon="-4.17483">
        <ele>11</ele>
        <time>2024-05-09T14:53:58Z</time>
      </trkpt>
      <trkpt lat="47.89453" lon="-4.17497">
        <ele>11.5</ele>
        <time>2024-05-09T14:54:03Z</time>
      </trkpt>
      <trkpt lat="47.89458" lon="-4.1751">
        <ele>12.2</ele>
        <time>2024-05-09T14:54:08Z</time>
      </trkpt>
      <trkpt lat="47.89465" lon="-4.17519">
        <ele>13</ele>
        <time>2024-05-09T14:54:13Z</time>
      </trkpt>
      <trkpt lat="47.89475" lon="-4.17527">
        <ele>13.8</ele>
        <time>2024-05-09T14:54:18Z</time>
      </trkpt>
      <trkpt lat="47.89485" lon="-4.17535">
        <ele>14.2</ele>
        <time>2024-05-09T14:54:23Z</time>
      </trkpt>
      <trkpt lat="47.89494" lon="-4.17542">
        <ele>14.3</ele>
        <time>2024-05-09T14:54:28Z</time>
      </trkpt>
      <trkpt lat="47.89502" lon="-4.17548">
        <ele>14.5</ele>
        <time>2024-05-09T14:54:33Z</time>
      </trkpt>
      <trkpt lat="47.89511" lon="-4.17554">
        <ele>15.3</ele>
        <time>2024-05-09T14:54:38Z</time>
      </trkpt>
      <trkpt lat="47.89521" lon="-4.17559">
        <ele>15.9</ele>
        <time>2024-05-09T14:54:43Z</time>
      </trkpt>
      <trkpt lat="47.89531" lon="-4.17567">
        <ele>16.2</ele>
        <time>2024-05-09T14:54:48Z</time>
      </trkpt>
      <trkpt lat="47.89539" lon="-4.17574">
        <ele>16.8</ele>
        <time>2024-05-09T14:54:52Z</time>
      </trkpt>
      <trkpt lat="47.89549" lon="-4.17581">
        <ele>17.5</ele>
        <time>2024-05-09T14:54:57Z</time>
      </trkpt>
      <trkpt lat="47.89558" lon="-4.17585">
        <ele>18.3</ele>
        <time>2024-05-09T14:55:01Z</time>
      </trkpt>
      <trkpt lat="47.89567" lon="-4.17588">
        <ele>19.6</ele>
        <time>2024-05-09T14:55:05Z</time>
      </trkpt>
      <trkpt lat="47.89575" lon="-4.17597">
        <ele>20.8</ele>
        <time>2024-05-09T14:55:10Z</time>
      </trkpt>
      <trkpt lat="47.89584" lon="-4.17604">
        <ele>22</ele>
        <time>2024-05-09T14:55:14Z</time>
      </trkpt>
      <trkpt lat="47.89594" lon="-4.1761">
        <ele>22.8</ele>
        <time>2024-05-09T14:55:19Z</time>
      </trkpt>
      <trkpt lat="47.89604" lon="-4.17616">
        <ele>23.6</ele>
        <time>2024-05-09T14:55:24Z</time>
      </trkpt>
      <trkpt lat="47.89612" lon="-4.17622">
        <ele>24.5</ele>
        <time>2024-05-09T14:55:29Z</time>
      </trkpt>
      <trkpt lat="47.89621" lon="-4.17627">
        <ele>25.2</ele>
        <time>2024-05-09T14:55:34Z</time>
      </trkpt>
      <trkpt lat="47.89629" lon="-4.17633">
        <ele>25.7</ele>
        <time>2024-05-09T14:55:39Z</time>
      </trkpt>
      <trkpt lat="47.89638" lon="-4.17638">
        <ele>26</ele>
        <time>2024-05-09T14:55:44Z</time>
      </trkpt>
      <trkpt lat="47.89647" lon="-4.17643">
        <ele>26.8</ele>
        <time>2024-05-09T14:55:49Z</time>
      </trkpt>
      <trkpt lat="47.89656" lon="-4.17649">
        <ele>27.5</ele>
        <time>2024-05-09T14:55:54Z</time>
      </trkpt>
      <trkpt lat="47.89667" lon="-4.17655">
        <ele>28</ele>
        <time>2024-05-09T14:55:59Z</time>
      </trkpt>
      <trkpt lat="47.89677" lon="-4.17661">
        <ele>28.4</ele>
        <time>2024-05-09T14:56:03Z</time>
      </trkpt>
      <trkpt lat="47.89688" lon="-4.17666">
        <ele>28.8</ele>
        <time>2024-05-09T14:56:07Z</time>
      </trkpt>
      <trkpt lat="47.89699" lon="-4.1767">
        <ele>29</ele>
        <time>2024-05-09T14:56:11Z</time>
      </trkpt>
      <trkpt lat="47.8971" lon="-4.17674">
        <ele>29</ele>
        <time>2024-05-09T14:56:15Z</time>
      </trkpt>
      <trkpt lat="47.8972" lon="-4.17677">
        <ele>29</ele>
        <time>2024-05-09T14:56:19Z</time>
      </trkpt>
      <trkpt lat="47.89731" lon="-4.17679">
        <ele>29</ele>
        <time>2024-05-09T14:56:25Z</time>
      </trkpt>
      <trkpt lat="47.89741" lon="-4.17683">
        <ele>29</ele>
        <time>2024-05-09T14:56:30Z</time>
      </trkpt>
      <trkpt lat="47.89752" lon="-4.17687">
        <ele>29</ele>
        <time>2024-05-09T14:56:34Z</time>
      </trkpt>
      <trkpt lat="47.89762" lon="-4.1769">
        <ele>28.9</ele>
        <time>2024-05-09T14:56:37Z</time>
      </trkpt>
      <trkpt lat="47.89771" lon="-4.17693">
        <ele>29</ele>
        <time>2024-05-09T14:56:40Z</time>
      </trkpt>
      <trkpt lat="47.8978" lon="-4.17696">
        <ele>29</ele>
        <time>2024-05-09T14:56:43Z</time>
      </trkpt>
      <trkpt lat="47.89792" lon="-4.17699">
        <ele>29.1</ele>
        <time>2024-05-09T14:56:47Z</time>
      </trkpt>
      <trkpt lat="47.89801" lon="-4.17701">
        <ele>29</ele>
        <time>2024-05-09T14:56:50Z</time>
      </trkpt>
      <trkpt lat="47.89811" lon="-4.17704">
        <ele>29.1</ele>
        <time>2024-05-09T14:56:53Z</time>
      </trkpt>
      <trkpt lat="47.89821" lon="-4.17706">
        <ele>29.2</ele>
        <time>2024-05-09T14:56:56Z</time>
      </trkpt>
      <trkpt lat="47.89832" lon="-4.1771">
        <ele>29.5</ele>
        <time>2024-05-09T14:56:59Z</time>
      </trkpt>
      <trkpt lat="47.89841" lon="-4.17712">
        <ele>29.5</ele>
        <time>2024-05-09T14:57:02Z</time>
      </trkpt>
      <trkpt lat="47.89852" lon="-4.17714">
        <ele>29.2</ele>
        <time>2024-05-09T14:57:05Z</time>
      </trkpt>
      <trkpt lat="47.89864" lon="-4.17718">
        <ele>29</ele>
        <time>2024-05-09T14:57:08Z</time>
      </trkpt>
      <trkpt lat="47.89875" lon="-4.17723">
        <ele>29</ele>
        <time>2024-05-09T14:57:11Z</time>
      </trkpt>
      <trkpt lat="47.89885" lon="-4.17729">
        <ele>29.2</ele>
        <time>2024-05-09T14:57:14Z</time>
      </trkpt>
      <trkpt lat="47.89896" lon="-4.17733">
        <ele>29.1</ele>
        <time>2024-05-09T14:57:17Z</time>
      </trkpt>
      <trkpt lat="47.89906" lon="-4.1774">
        <ele>28.7</ele>
        <time>2024-05-09T14:57:20Z</time>
      </trkpt>
      <trkpt lat="47.89915" lon="-4.17748">
        <ele>28.1</ele>
        <time>2024-05-09T14:57:23Z</time>
      </trkpt>
      <trkpt lat="47.89925" lon="-4.17757">
        <ele>28.3</ele>
        <time>2024-05-09T14:57:26Z</time>
      </trkpt>
      <trkpt lat="47.89936" lon="-4.17767">
        <ele>28.4</ele>
        <time>2024-05-09T14:57:29Z</time>
      </trkpt>
      <trkpt lat="47.89947" lon="-4.17777">
        <ele>27.6</ele>
        <time>2024-05-09T14:57:32Z</time>
      </trkpt>
      <trkpt lat="47.89958" lon="-4.17788">
        <ele>26.8</ele>
        <time>2024-05-09T14:57:35Z</time>
      </trkpt>
      <trkpt lat="47.89968" lon="-4.17799">
        <ele>26.6</ele>
        <time>2024-05-09T14:57:38Z</time>
      </trkpt>
      <trkpt lat="47.89977" lon="-4.1781">
        <ele>27.3</ele>
        <time>2024-05-09T14:57:41Z</time>
      </trkpt>
      <trkpt lat="47.89984" lon="-4.17821">
        <ele>27.7</ele>
        <time>2024-05-09T14:57:44Z</time>
      </trkpt>
      <trkpt lat="47.89991" lon="-4.17834">
        <ele>28</ele>
        <time>2024-05-09T14:57:48Z</time>
      </trkpt>
      <trkpt lat="47.89993" lon="-4.17848">
        <ele>28.7</ele>
        <time>2024-05-09T14:57:52Z</time>
      </trkpt>
      <trkpt lat="47.89995" lon="-4.17863">
        <ele>29.3</ele>
        <time>2024-05-09T14:57:56Z</time>
      </trkpt>
      <trkpt lat="47.89997" lon="-4.17877">
        <ele>29.7</ele>
        <time>2024-05-09T14:58:00Z</time>
      </trkpt>
      <trkpt lat="47.90003" lon="-4.17888">
        <ele>30.1</ele>
        <time>2024-05-09T14:58:05Z</time>
      </trkpt>
      <trkpt lat="47.90014" lon="-4.17889">
        <ele>30.5</ele>
        <time>2024-05-09T14:58:12Z</time>
      </trkpt>
      <trkpt lat="47.90025" lon="-4.17888">
        <ele>30.8</ele>
        <time>2024-05-09T14:58:17Z</time>
      </trkpt>
      <trkpt lat="47.90034" lon="-4.17887">
        <ele>31.4</ele>
        <time>2024-05-09T14:58:21Z</time>
      </trkpt>
      <trkpt lat="47.90043" lon="-4.17887">
        <ele>32.1</ele>
        <time>2024-05-09T14:58:25Z</time>
      </trkpt>
      <trkpt lat="47.90054" lon="-4.17888">
        <ele>32.9</ele>
        <time>2024-05-09T14:58:30Z</time>
      </trkpt>
      <trkpt lat="47.90064" lon="-4.17889">
        <ele>33.3</ele>
        <time>2024-05-09T14:58:36Z</time>
      </trkpt>
      <trkpt lat="47.90073" lon="-4.17889">
        <ele>33.6</ele>
        <time>2024-05-09T14:58:41Z</time>
      </trkpt>
      <trkpt lat="47.90083" lon="-4.17891">
        <ele>34.1</ele>
        <time>2024-05-09T14:58:45Z</time>
      </trkpt>
      <trkpt lat="47.90092" lon="-4.17894">
        <ele>34.5</ele>
        <time>2024-05-09T14:58:49Z</time>
      </trkpt>
      <trkpt lat="47.90102" lon="-4.17897">
        <ele>35</ele>
        <time>2024-05-09T14:58:54Z</time>
      </trkpt>
      <trkpt lat="47.90109" lon="-4.1791">
        <ele>35.7</ele>
        <time>2024-05-09T14:58:59Z</time>
      </trkpt>
      <trkpt lat="47.9011" lon="-4.17925">
        <ele>35.9</ele>
        <time>2024-05-09T14:59:03Z</time>
      </trkpt>
      <trkpt lat="47.9011" lon="-4.17941">
        <ele>35.9</ele>
        <time>2024-05-09T14:59:08Z</time>
      </trkpt>
      <trkpt lat="47.90109" lon="-4.17954">
        <ele>35.9</ele>
        <time>2024-05-09T14:59:12Z</time>
      </trkpt>
      <trkpt lat="47.90108" lon="-4.17969">
        <ele>35.9</ele>
        <time>2024-05-09T14:59:16Z</time>
      </trkpt>
      <trkpt lat="47.90107" lon="-4.17986">
        <ele>35.9</ele>
        <time>2024-05-09T14:59:21Z</time>
      </trkpt>
      <trkpt lat="47.90107" lon="-4.18001">
        <ele>36</ele>
        <time>2024-05-09T14:59:25Z</time>
      </trkpt>
      <trkpt lat="47.90109" lon="-4.18016">
        <ele>36</ele>
        <time>2024-05-09T14:59:29Z</time>
      </trkpt>
      <trkpt lat="47.90111" lon="-4.18032">
        <ele>36.1</ele>
        <time>2024-05-09T14:59:33Z</time>
      </trkpt>
      <trkpt lat="47.90112" lon="-4.18048">
        <ele>36.8</ele>
        <time>2024-05-09T14:59:37Z</time>
      </trkpt>
      <trkpt lat="47.90114" lon="-4.18064">
        <ele>37</ele>
        <time>2024-05-09T14:59:41Z</time>
      </trkpt>
      <trkpt lat="47.90116" lon="-4.18077">
        <ele>37</ele>
        <time>2024-05-09T14:59:46Z</time>
      </trkpt>
      <trkpt lat="47.90121" lon="-4.18089">
        <ele>37.1</ele>
        <time>2024-05-09T15:00:32Z</time>
      </trkpt>
      <trkpt lat="47.90129" lon="-4.18082">
        <ele>37</ele>
        <time>2024-05-09T15:00:46Z</time>
      </trkpt>
      <trkpt lat="47.90139" lon="-4.18074">
        <ele>37</ele>
        <time>2024-05-09T15:00:51Z</time>
      </trkpt>
      <trkpt lat="47.90148" lon="-4.18067">
        <ele>37.1</ele>
        <time>2024-05-09T15:00:54Z</time>
      </trkpt>
      <trkpt lat="47.90158" lon="-4.18059">
        <ele>37.1</ele>
        <time>2024-05-09T15:00:57Z</time>
      </trkpt>
      <trkpt lat="47.90167" lon="-4.18053">
        <ele>37</ele>
        <time>2024-05-09T15:01:00Z</time>
      </trkpt>
      <trkpt lat="47.90178" lon="-4.18047">
        <ele>37</ele>
        <time>2024-05-09T15:01:03Z</time>
      </trkpt>
      <trkpt lat="47.9019" lon="-4.18039">
        <ele>37</ele>
        <time>2024-05-09T15:01:06Z</time>
      </trkpt>
      <trkpt lat="47.90203" lon="-4.18033">
        <ele>36.7</ele>
        <time>2024-05-09T15:01:09Z</time>
      </trkpt>
      <trkpt lat="47.90212" lon="-4.18028">
        <ele>36.4</ele>
        <time>2024-05-09T15:01:11Z</time>
      </trkpt>
      <trkpt lat="47.9022" lon="-4.18023">
        <ele>36.1</ele>
        <time>2024-05-09T15:01:13Z</time>
      </trkpt>
      <trkpt lat="47.9023" lon="-4.18018">
        <ele>35.7</ele>
        <time>2024-05-09T15:01:15Z</time>
      </trkpt>
      <trkpt lat="47.90241" lon="-4.18013">
        <ele>35.3</ele>
        <time>2024-05-09T15:01:17Z</time>
      </trkpt>
      <trkpt lat="47.90253" lon="-4.18007">
        <ele>34.8</ele>
        <time>2024-05-09T15:01:19Z</time>
      </trkpt>
      <trkpt lat="47.90265" lon="-4.18001">
        <ele>33.9</ele>
        <time>2024-05-09T15:01:21Z</time>
      </trkpt>
      <trkpt lat="47.90278" lon="-4.17994">
        <ele>33.2</ele>
        <time>2024-05-09T15:01:23Z</time>
      </trkpt>
      <trkpt lat="47.90291" lon="-4.17985">
        <ele>32.1</ele>
        <time>2024-05-09T15:01:25Z</time>
      </trkpt>
      <trkpt lat="47.90306" lon="-4.1798">
        <ele>30.7</ele>
        <time>2024-05-09T15:01:27Z</time>
      </trkpt>
      <trkpt lat="47.90321" lon="-4.1797">
        <ele>29.4</ele>
        <time>2024-05-09T15:01:29Z</time>
      </trkpt>
      <trkpt lat="47.90336" lon="-4.17961">
        <ele>28.1</ele>
        <time>2024-05-09T15:01:31Z</time>
      </trkpt>
      <trkpt lat="47.90351" lon="-4.17953">
        <ele>26.8</ele>
        <time>2024-05-09T15:01:33Z</time>
      </trkpt>
      <trkpt lat="47.90365" lon="-4.17946">
        <ele>25.6</ele>
        <time>2024-05-09T15:01:35Z</time>
      </trkpt>
      <trkpt lat="47.90374" lon="-4.17942">
        <ele>25.2</ele>
        <time>2024-05-09T15:01:36Z</time>
      </trkpt>
      <trkpt lat="47.90383" lon="-4.17935">
        <ele>25</ele>
        <time>2024-05-09T15:01:37Z</time>
      </trkpt>
      <trkpt lat="47.90392" lon="-4.17931">
        <ele>24.6</ele>
        <time>2024-05-09T15:01:38Z</time>
      </trkpt>
      <trkpt lat="47.90409" lon="-4.17924">
        <ele>23.6</ele>
        <time>2024-05-09T15:01:40Z</time>
      </trkpt>
      <trkpt lat="47.90418" lon="-4.17922">
        <ele>23.2</ele>
        <time>2024-05-09T15:01:41Z</time>
      </trkpt>
      <trkpt lat="47.90435" lon="-4.17917">
        <ele>24</ele>
        <time>2024-05-09T15:01:43Z</time>
      </trkpt>
      <trkpt lat="47.90452" lon="-4.17913">
        <ele>24</ele>
        <time>2024-05-09T15:01:45Z</time>
      </trkpt>
      <trkpt lat="47.90468" lon="-4.17908">
        <ele>24.1</ele>
        <time>2024-05-09T15:01:47Z</time>
      </trkpt>
      <trkpt lat="47.90483" lon="-4.17906">
        <ele>24.6</ele>
        <time>2024-05-09T15:01:49Z</time>
      </trkpt>
      <trkpt lat="47.90496" lon="-4.17904">
        <ele>25.3</ele>
        <time>2024-05-09T15:01:51Z</time>
      </trkpt>
      <trkpt lat="47.9051" lon="-4.17904">
        <ele>25.1</ele>
        <time>2024-05-09T15:01:53Z</time>
      </trkpt>
      <trkpt lat="47.90525" lon="-4.17904">
        <ele>24.8</ele>
        <time>2024-05-09T15:01:55Z</time>
      </trkpt>
      <trkpt lat="47.90538" lon="-4.17903">
        <ele>24.4</ele>
        <time>2024-05-09T15:01:57Z</time>
      </trkpt>
      <trkpt lat="47.90551" lon="-4.17903">
        <ele>23.7</ele>
        <time>2024-05-09T15:01:59Z</time>
      </trkpt>
      <trkpt lat="47.90561" lon="-4.17902">
        <ele>23.1</ele>
        <time>2024-05-09T15:02:01Z</time>
      </trkpt>
      <trkpt lat="47.90575" lon="-4.17903">
        <ele>21.4</ele>
        <time>2024-05-09T15:02:03Z</time>
      </trkpt>
      <trkpt lat="47.90588" lon="-4.17895">
        <ele>21.4</ele>
        <time>2024-05-09T15:02:05Z</time>
      </trkpt>
      <trkpt lat="47.90603" lon="-4.17893">
        <ele>20.2</ele>
        <time>2024-05-09T15:02:07Z</time>
      </trkpt>
      <trkpt lat="47.90615" lon="-4.1789">
        <ele>19.5</ele>
        <time>2024-05-09T15:02:09Z</time>
      </trkpt>
      <trkpt lat="47.90625" lon="-4.17888">
        <ele>19.1</ele>
        <time>2024-05-09T15:02:11Z</time>
      </trkpt>
      <trkpt lat="47.90636" lon="-4.17884">
        <ele>19</ele>
        <time>2024-05-09T15:02:14Z</time>
      </trkpt>
      <trkpt lat="47.90647" lon="-4.17879">
        <ele>18.1</ele>
        <time>2024-05-09T15:02:16Z</time>
      </trkpt>
      <trkpt lat="47.90657" lon="-4.17875">
        <ele>16.8</ele>
        <time>2024-05-09T15:02:18Z</time>
      </trkpt>
      <trkpt lat="47.90671" lon="-4.17875">
        <ele>14.1</ele>
        <time>2024-05-09T15:02:21Z</time>
      </trkpt>
      <trkpt lat="47.9068" lon="-4.17875">
        <ele>12.2</ele>
        <time>2024-05-09T15:02:24Z</time>
      </trkpt>
      <trkpt lat="47.90673" lon="-4.1789">
        <ele>11.8</ele>
        <time>2024-05-09T15:04:18Z</time>
      </trkpt>
      <trkpt lat="47.90665" lon="-4.179">
        <ele>11.6</ele>
        <time>2024-05-09T15:04:19Z</time>
      </trkpt>
      <trkpt lat="47.90658" lon="-4.1791">
        <ele>11.4</ele>
        <time>2024-05-09T15:04:21Z</time>
      </trkpt>
      <trkpt lat="47.90651" lon="-4.17929">
        <ele>10.4</ele>
        <time>2024-05-09T15:04:23Z</time>
      </trkpt>
      <trkpt lat="47.90651" lon="-4.17945">
        <ele>8.6</ele>
        <time>2024-05-09T15:04:25Z</time>
      </trkpt>
      <trkpt lat="47.90651" lon="-4.17959">
        <ele>9</ele>
        <time>2024-05-09T15:04:27Z</time>
      </trkpt>
      <trkpt lat="47.90648" lon="-4.17972">
        <ele>9.3</ele>
        <time>2024-05-09T15:04:29Z</time>
      </trkpt>
      <trkpt lat="47.9064" lon="-4.17981">
        <ele>10.4</ele>
        <time>2024-05-09T15:04:32Z</time>
      </trkpt>
      <trkpt lat="47.90631" lon="-4.17992">
        <ele>11.5</ele>
        <time>2024-05-09T15:04:35Z</time>
      </trkpt>
      <trkpt lat="47.90622" lon="-4.17998">
        <ele>11.6</ele>
        <time>2024-05-09T15:04:38Z</time>
      </trkpt>
      <trkpt lat="47.90614" lon="-4.18004">
        <ele>11.9</ele>
        <time>2024-05-09T15:04:41Z</time>
      </trkpt>
      <trkpt lat="47.90606" lon="-4.18011">
        <ele>12.5</ele>
        <time>2024-05-09T15:04:44Z</time>
      </trkpt>
      <trkpt lat="47.906" lon="-4.18024">
        <ele>13.5</ele>
        <time>2024-05-09T15:04:48Z</time>
      </trkpt>
      <trkpt lat="47.90599" lon="-4.1804">
        <ele>14</ele>
        <time>2024-05-09T15:04:53Z</time>
      </trkpt>
      <trkpt lat="47.90601" lon="-4.18057">
        <ele>14.9</ele>
        <time>2024-05-09T15:04:58Z</time>
      </trkpt>
      <trkpt lat="47.90608" lon="-4.18068">
        <ele>15.9</ele>
        <time>2024-05-09T15:05:04Z</time>
      </trkpt>
      <trkpt lat="47.90617" lon="-4.1807">
        <ele>17.1</ele>
        <time>2024-05-09T15:05:11Z</time>
      </trkpt>
      <trkpt lat="47.90626" lon="-4.18068">
        <ele>18.1</ele>
        <time>2024-05-09T15:05:20Z</time>
      </trkpt>
      <trkpt lat="47.90637" lon="-4.18067">
        <ele>19.2</ele>
        <time>2024-05-09T15:05:27Z</time>
      </trkpt>
      <trkpt lat="47.90647" lon="-4.18072">
        <ele>20.1</ele>
        <time>2024-05-09T15:05:32Z</time>
      </trkpt>
      <trkpt lat="47.90657" lon="-4.18073">
        <ele>20.7</ele>
        <time>2024-05-09T15:05:36Z</time>
      </trkpt>
      <trkpt lat="47.90667" lon="-4.18071">
        <ele>21.2</ele>
        <time>2024-05-09T15:05:41Z</time>
      </trkpt>
      <trkpt lat="47.90678" lon="-4.18074">
        <ele>21.8</ele>
        <time>2024-05-09T15:05:46Z</time>
      </trkpt>
      <trkpt lat="47.90689" lon="-4.18077">
        <ele>22.4</ele>
        <time>2024-05-09T15:05:50Z</time>
      </trkpt>
      <trkpt lat="47.90699" lon="-4.1808">
        <ele>22.9</ele>
        <time>2024-05-09T15:05:54Z</time>
      </trkpt>
      <trkpt lat="47.9071" lon="-4.18083">
        <ele>23.5</ele>
        <time>2024-05-09T15:05:59Z</time>
      </trkpt>
      <trkpt lat="47.9072" lon="-4.18089">
        <ele>24.5</ele>
        <time>2024-05-09T15:06:03Z</time>
      </trkpt>
      <trkpt lat="47.90731" lon="-4.18093">
        <ele>25.6</ele>
        <time>2024-05-09T15:06:07Z</time>
      </trkpt>
      <trkpt lat="47.9074" lon="-4.18093">
        <ele>26.3</ele>
        <time>2024-05-09T15:06:11Z</time>
      </trkpt>
      <trkpt lat="47.9075" lon="-4.18089">
        <ele>26.6</ele>
        <time>2024-05-09T15:06:15Z</time>
      </trkpt>
      <trkpt lat="47.9076" lon="-4.18087">
        <ele>27.1</ele>
        <time>2024-05-09T15:06:22Z</time>
      </trkpt>
      <trkpt lat="47.9077" lon="-4.18091">
        <ele>28.1</ele>
        <time>2024-05-09T15:06:28Z</time>
      </trkpt>
      <trkpt lat="47.9078" lon="-4.18097">
        <ele>29.3</ele>
        <time>2024-05-09T15:06:34Z</time>
      </trkpt>
      <trkpt lat="47.90789" lon="-4.18095">
        <ele>30.4</ele>
        <time>2024-05-09T15:06:39Z</time>
      </trkpt>
      <trkpt lat="47.90798" lon="-4.18088">
        <ele>31.2</ele>
        <time>2024-05-09T15:06:46Z</time>
      </trkpt>
      <trkpt lat="47.90803" lon="-4.18077">
        <ele>31.2</ele>
        <time>2024-05-09T15:06:50Z</time>
      </trkpt>
      <trkpt lat="47.9081" lon="-4.18068">
        <ele>31.4</ele>
        <time>2024-05-09T15:06:55Z</time>
      </trkpt>
      <trkpt lat="47.9082" lon="-4.18067">
        <ele>32.4</ele>
        <time>2024-05-09T15:07:00Z</time>
      </trkpt>
      <trkpt lat="47.9083" lon="-4.18074">
        <ele>34</ele>
        <time>2024-05-09T15:07:07Z</time>
      </trkpt>
      <trkpt lat="47.9084" lon="-4.18078">
        <ele>34.8</ele>
        <time>2024-05-09T15:07:13Z</time>
      </trkpt>
      <trkpt lat="47.90851" lon="-4.18079">
        <ele>35.3</ele>
        <time>2024-05-09T15:07:18Z</time>
      </trkpt>
      <trkpt lat="47.90861" lon="-4.18082">
        <ele>35.9</ele>
        <time>2024-05-09T15:07:25Z</time>
      </trkpt>
      <trkpt lat="47.90871" lon="-4.18084">
        <ele>36.1</ele>
        <time>2024-05-09T15:07:30Z</time>
      </trkpt>
      <trkpt lat="47.9088" lon="-4.18086">
        <ele>36.2</ele>
        <time>2024-05-09T15:07:34Z</time>
      </trkpt>
      <trkpt lat="47.9089" lon="-4.18092">
        <ele>36.5</ele>
        <time>2024-05-09T15:07:40Z</time>
      </trkpt>
      <trkpt lat="47.90899" lon="-4.18104">
        <ele>36.8</ele>
        <time>2024-05-09T15:07:44Z</time>
      </trkpt>
      <trkpt lat="47.90906" lon="-4.18113">
        <ele>36.9</ele>
        <time>2024-05-09T15:07:47Z</time>
      </trkpt>
      <trkpt lat="47.90908" lon="-4.18126">
        <ele>37.2</ele>
        <time>2024-05-09T15:07:50Z</time>
      </trkpt>
      <trkpt lat="47.90911" lon="-4.18142">
        <ele>37.5</ele>
        <time>2024-05-09T15:07:54Z</time>
      </trkpt>
      <trkpt lat="47.90916" lon="-4.18156">
        <ele>37.7</ele>
        <time>2024-05-09T15:07:58Z</time>
      </trkpt>
      <trkpt lat="47.9092" lon="-4.18169">
        <ele>37.6</ele>
        <time>2024-05-09T15:08:02Z</time>
      </trkpt>
      <trkpt lat="47.90923" lon="-4.18182">
        <ele>37.8</ele>
        <time>2024-05-09T15:08:06Z</time>
      </trkpt>
      <trkpt lat="47.90924" lon="-4.18198">
        <ele>38.4</ele>
        <time>2024-05-09T15:08:10Z</time>
      </trkpt>
      <trkpt lat="47.90927" lon="-4.18212">
        <ele>38.9</ele>
        <time>2024-05-09T15:08:14Z</time>
      </trkpt>
      <trkpt lat="47.90928" lon="-4.18226">
        <ele>39.5</ele>
        <time>2024-05-09T15:08:18Z</time>
      </trkpt>
      <trkpt lat="47.90936" lon="-4.18239">
        <ele>39.3</ele>
        <time>2024-05-09T15:08:22Z</time>
      </trkpt>
      <trkpt lat="47.90944" lon="-4.18248">
        <ele>38.9</ele>
        <time>2024-05-09T15:08:25Z</time>
      </trkpt>
      <trkpt lat="47.90953" lon="-4.18255">
        <ele>38.9</ele>
        <time>2024-05-09T15:08:29Z</time>
      </trkpt>
      <trkpt lat="47.90963" lon="-4.18263">
        <ele>39.1</ele>
        <time>2024-05-09T15:08:33Z</time>
      </trkpt>
      <trkpt lat="47.90972" lon="-4.18273">
        <ele>39.6</ele>
        <time>2024-05-09T15:08:37Z</time>
      </trkpt>
      <trkpt lat="47.90981" lon="-4.18281">
        <ele>40.4</ele>
        <time>2024-05-09T15:08:41Z</time>
      </trkpt>
      <trkpt lat="47.90989" lon="-4.18288">
        <ele>41</ele>
        <time>2024-05-09T15:08:44Z</time>
      </trkpt>
      <trkpt lat="47.90998" lon="-4.18296">
        <ele>41.6</ele>
        <time>2024-05-09T15:08:48Z</time>
      </trkpt>
      <trkpt lat="47.91006" lon="-4.18302">
        <ele>41.9</ele>
        <time>2024-05-09T15:08:52Z</time>
      </trkpt>
      <trkpt lat="47.91014" lon="-4.18308">
        <ele>42.1</ele>
        <time>2024-05-09T15:08:55Z</time>
      </trkpt>
      <trkpt lat="47.91024" lon="-4.18315">
        <ele>42.3</ele>
        <time>2024-05-09T15:08:59Z</time>
      </trkpt>
      <trkpt lat="47.91034" lon="-4.18323">
        <ele>42.9</ele>
        <time>2024-05-09T15:09:04Z</time>
      </trkpt>
      <trkpt lat="47.91044" lon="-4.18329">
        <ele>43.4</ele>
        <time>2024-05-09T15:09:08Z</time>
      </trkpt>
      <trkpt lat="47.91053" lon="-4.18334">
        <ele>43.9</ele>
        <time>2024-05-09T15:09:12Z</time>
      </trkpt>
      <trkpt lat="47.91063" lon="-4.18337">
        <ele>44.4</ele>
        <time>2024-05-09T15:09:16Z</time>
      </trkpt>
      <trkpt lat="47.91072" lon="-4.18341">
        <ele>44.9</ele>
        <time>2024-05-09T15:09:19Z</time>
      </trkpt>
      <trkpt lat="47.91083" lon="-4.18344">
        <ele>45.4</ele>
        <time>2024-05-09T15:09:23Z</time>
      </trkpt>
      <trkpt lat="47.91094" lon="-4.18346">
        <ele>45.5</ele>
        <time>2024-05-09T15:09:27Z</time>
      </trkpt>
      <trkpt lat="47.91105" lon="-4.1835">
        <ele>45.6</ele>
        <time>2024-05-09T15:09:31Z</time>
      </trkpt>
      <trkpt lat="47.91116" lon="-4.18352">
        <ele>45.7</ele>
        <time>2024-05-09T15:09:35Z</time>
      </trkpt>
      <trkpt lat="47.91126" lon="-4.18355">
        <ele>45.8</ele>
        <time>2024-05-09T15:09:40Z</time>
      </trkpt>
      <trkpt lat="47.91136" lon="-4.18359">
        <ele>45.9</ele>
        <time>2024-05-09T15:09:45Z</time>
      </trkpt>
      <trkpt lat="47.91147" lon="-4.18363">
        <ele>46</ele>
        <time>2024-05-09T15:09:50Z</time>
      </trkpt>
      <trkpt lat="47.91157" lon="-4.18365">
        <ele>46</ele>
        <time>2024-05-09T15:09:53Z</time>
      </trkpt>
      <trkpt lat="47.91166" lon="-4.18366">
        <ele>46</ele>
        <time>2024-05-09T15:09:56Z</time>
      </trkpt>
      <trkpt lat="47.91176" lon="-4.18369">
        <ele>45.8</ele>
        <time>2024-05-09T15:09:59Z</time>
      </trkpt>
      <trkpt lat="47.91185" lon="-4.18374">
        <ele>45.6</ele>
        <time>2024-05-09T15:10:04Z</time>
      </trkpt>
      <trkpt lat="47.91195" lon="-4.18377">
        <ele>45.6</ele>
        <time>2024-05-09T15:10:08Z</time>
      </trkpt>
      <trkpt lat="47.91205" lon="-4.18379">
        <ele>45.7</ele>
        <time>2024-05-09T15:10:11Z</time>
      </trkpt>
      <trkpt lat="47.91215" lon="-4.18382">
        <ele>45.8</ele>
        <time>2024-05-09T15:10:14Z</time>
      </trkpt>
      <trkpt lat="47.91226" lon="-4.18385">
        <ele>45.8</ele>
        <time>2024-05-09T15:10:17Z</time>
      </trkpt>
      <trkpt lat="47.91236" lon="-4.18387">
        <ele>45.9</ele>
        <time>2024-05-09T15:10:20Z</time>
      </trkpt>
      <trkpt lat="47.91248" lon="-4.18387">
        <ele>45.9</ele>
        <time>2024-05-09T15:10:23Z</time>
      </trkpt>
      <trkpt lat="47.91259" lon="-4.18387">
        <ele>46.2</ele>
        <time>2024-05-09T15:10:26Z</time>
      </trkpt>
      <trkpt lat="47.91268" lon="-4.18383">
        <ele>46.5</ele>
        <time>2024-05-09T15:10:29Z</time>
      </trkpt>
      <trkpt lat="47.91277" lon="-4.18377">
        <ele>46.5</ele>
        <time>2024-05-09T15:10:32Z</time>
      </trkpt>
      <trkpt lat="47.91286" lon="-4.18373">
        <ele>46.6</ele>
        <time>2024-05-09T15:10:37Z</time>
      </trkpt>
      <trkpt lat="47.91296" lon="-4.18374">
        <ele>46.8</ele>
        <time>2024-05-09T15:10:42Z</time>
      </trkpt>
      <trkpt lat="47.91307" lon="-4.18376">
        <ele>47</ele>
        <time>2024-05-09T15:10:48Z</time>
      </trkpt>
      <trkpt lat="47.91317" lon="-4.1838">
        <ele>46.6</ele>
        <time>2024-05-09T15:10:52Z</time>
      </trkpt>
      <trkpt lat="47.91325" lon="-4.18387">
        <ele>46.3</ele>
        <time>2024-05-09T15:10:57Z</time>
      </trkpt>
      <trkpt lat="47.91335" lon="-4.18394">
        <ele>46.2</ele>
        <time>2024-05-09T15:11:03Z</time>
      </trkpt>
      <trkpt lat="47.91341" lon="-4.18403">
        <ele>46.5</ele>
        <time>2024-05-09T15:19:19Z</time>
      </trkpt>
      <trkpt lat="47.91338" lon="-4.18416">
        <ele>47</ele>
        <time>2024-05-09T15:19:27Z</time>
      </trkpt>
      <trkpt lat="47.91332" lon="-4.18429">
        <ele>47</ele>
        <time>2024-05-09T15:19:33Z</time>
      </trkpt>
      <trkpt lat="47.91327" lon="-4.18441">
        <ele>47.2</ele>
        <time>2024-05-09T15:19:37Z</time>
      </trkpt>
      <trkpt lat="47.91323" lon="-4.18454">
        <ele>47.4</ele>
        <time>2024-05-09T15:19:42Z</time>
      </trkpt>
      <trkpt lat="47.91318" lon="-4.18467">
        <ele>47.6</ele>
        <time>2024-05-09T15:19:47Z</time>
      </trkpt>
      <trkpt lat="47.91314" lon="-4.18483">
        <ele>47.8</ele>
        <time>2024-05-09T15:19:52Z</time>
      </trkpt>
      <trkpt lat="47.91311" lon="-4.18497">
        <ele>48</ele>
        <time>2024-05-09T15:19:56Z</time>
      </trkpt>
      <trkpt lat="47.91307" lon="-4.18509">
        <ele>48</ele>
        <time>2024-05-09T15:20:00Z</time>
      </trkpt>
      <trkpt lat="47.91299" lon="-4.18522">
        <ele>48</ele>
        <time>2024-05-09T15:20:04Z</time>
      </trkpt>
      <trkpt lat="47.91292" lon="-4.18537">
        <ele>48</ele>
        <time>2024-05-09T15:20:08Z</time>
      </trkpt>
      <trkpt lat="47.91286" lon="-4.18549">
        <ele>47.7</ele>
        <time>2024-05-09T15:20:11Z</time>
      </trkpt>
      <trkpt lat="47.91281" lon="-4.18562">
        <ele>47.4</ele>
        <time>2024-05-09T15:20:14Z</time>
      </trkpt>
      <trkpt lat="47.91274" lon="-4.18573">
        <ele>47.5</ele>
        <time>2024-05-09T15:20:17Z</time>
      </trkpt>
      <trkpt lat="47.91268" lon="-4.18586">
        <ele>47.7</ele>
        <time>2024-05-09T15:20:20Z</time>
      </trkpt>
      <trkpt lat="47.91263" lon="-4.18601">
        <ele>47.5</ele>
        <time>2024-05-09T15:20:23Z</time>
      </trkpt>
      <trkpt lat="47.9126" lon="-4.18615">
        <ele>47.2</ele>
        <time>2024-05-09T15:20:27Z</time>
      </trkpt>
      <trkpt lat="47.91255" lon="-4.1863">
        <ele>46.5</ele>
        <time>2024-05-09T15:20:32Z</time>
      </trkpt>
      <trkpt lat="47.91251" lon="-4.18642">
        <ele>46</ele>
        <time>2024-05-09T15:20:35Z</time>
      </trkpt>
      <trkpt lat="47.91245" lon="-4.18657">
        <ele>46</ele>
        <time>2024-05-09T15:20:38Z</time>
      </trkpt>
      <trkpt lat="47.91239" lon="-4.18673">
        <ele>45.8</ele>
        <time>2024-05-09T15:20:41Z</time>
      </trkpt>
      <trkpt lat="47.91233" lon="-4.18691">
        <ele>45.1</ele>
        <time>2024-05-09T15:20:44Z</time>
      </trkpt>
      <trkpt lat="47.91228" lon="-4.18706">
        <ele>45</ele>
        <time>2024-05-09T15:20:47Z</time>
      </trkpt>
      <trkpt lat="47.91223" lon="-4.18725">
        <ele>45</ele>
        <time>2024-05-09T15:20:50Z</time>
      </trkpt>
      <trkpt lat="47.91219" lon="-4.18737">
        <ele>45</ele>
        <time>2024-05-09T15:20:52Z</time>
      </trkpt>
      <trkpt lat="47.91214" lon="-4.18751">
        <ele>45</ele>
        <time>2024-05-09T15:20:54Z</time>
      </trkpt>
      <trkpt lat="47.9121" lon="-4.18763">
        <ele>45</ele>
        <time>2024-05-09T15:20:56Z</time>
      </trkpt>
      <trkpt lat="47.91205" lon="-4.18778">
        <ele>45</ele>
        <time>2024-05-09T15:20:58Z</time>
      </trkpt>
      <trkpt lat="47.912" lon="-4.1879">
        <ele>45</ele>
        <time>2024-05-09T15:21:00Z</time>
      </trkpt>
      <trkpt lat="47.91195" lon="-4.18806">
        <ele>45</ele>
        <time>2024-05-09T15:21:03Z</time>
      </trkpt>
      <trkpt lat="47.91189" lon="-4.18821">
        <ele>45</ele>
        <time>2024-05-09T15:21:05Z</time>
      </trkpt>
      <trkpt lat="47.91186" lon="-4.18835">
        <ele>45</ele>
        <time>2024-05-09T15:21:07Z</time>
      </trkpt>
      <trkpt lat="47.91181" lon="-4.18849">
        <ele>44.7</ele>
        <time>2024-05-09T15:21:09Z</time>
      </trkpt>
      <trkpt lat="47.91176" lon="-4.18865">
        <ele>44.6</ele>
        <time>2024-05-09T15:21:11Z</time>
      </trkpt>
      <trkpt lat="47.91172" lon="-4.18879">
        <ele>44.3</ele>
        <time>2024-05-09T15:21:13Z</time>
      </trkpt>
      <trkpt lat="47.91167" lon="-4.18893">
        <ele>44</ele>
        <time>2024-05-09T15:21:15Z</time>
      </trkpt>
      <trkpt lat="47.91163" lon="-4.18912">
        <ele>44</ele>
        <time>2024-05-09T15:21:18Z</time>
      </trkpt>
      <trkpt lat="47.91159" lon="-4.18928">
        <ele>43.6</ele>
        <time>2024-05-09T15:21:20Z</time>
      </trkpt>
      <trkpt lat="47.91155" lon="-4.18945">
        <ele>43</ele>
        <time>2024-05-09T15:21:22Z</time>
      </trkpt>
      <trkpt lat="47.9115" lon="-4.18962">
        <ele>42.6</ele>
        <time>2024-05-09T15:21:24Z</time>
      </trkpt>
      <trkpt lat="47.91147" lon="-4.1898">
        <ele>42.2</ele>
        <time>2024-05-09T15:21:26Z</time>
      </trkpt>
      <trkpt lat="47.91142" lon="-4.18995">
        <ele>42</ele>
        <time>2024-05-09T15:21:28Z</time>
      </trkpt>
      <trkpt lat="47.91136" lon="-4.19012">
        <ele>41.6</ele>
        <time>2024-05-09T15:21:30Z</time>
      </trkpt>
      <trkpt lat="47.91129" lon="-4.19027">
        <ele>41</ele>
        <time>2024-05-09T15:21:32Z</time>
      </trkpt>
      <trkpt lat="47.91118" lon="-4.19036">
        <ele>41.2</ele>
        <time>2024-05-09T15:21:34Z</time>
      </trkpt>
      <trkpt lat="47.91109" lon="-4.19041">
        <ele>41.5</ele>
        <time>2024-05-09T15:21:36Z</time>
      </trkpt>
      <trkpt lat="47.91099" lon="-4.19046">
        <ele>41.8</ele>
        <time>2024-05-09T15:21:38Z</time>
      </trkpt>
      <trkpt lat="47.9109" lon="-4.19052">
        <ele>42</ele>
        <time>2024-05-09T15:21:40Z</time>
      </trkpt>
      <trkpt lat="47.9108" lon="-4.19058">
        <ele>42.2</ele>
        <time>2024-05-09T15:21:42Z</time>
      </trkpt>
      <trkpt lat="47.9107" lon="-4.19064">
        <ele>42.6</ele>
        <time>2024-05-09T15:21:44Z</time>
      </trkpt>
      <trkpt lat="47.91062" lon="-4.19069">
        <ele>42.9</ele>
        <time>2024-05-09T15:21:46Z</time>
      </trkpt>
      <trkpt lat="47.91053" lon="-4.19074">
        <ele>42.9</ele>
        <time>2024-05-09T15:21:48Z</time>
      </trkpt>
      <trkpt lat="47.91045" lon="-4.19081">
        <ele>42.6</ele>
        <time>2024-05-09T15:21:50Z</time>
      </trkpt>
      <trkpt lat="47.91035" lon="-4.19085">
        <ele>42.4</ele>
        <time>2024-05-09T15:21:52Z</time>
      </trkpt>
      <trkpt lat="47.91023" lon="-4.19093">
        <ele>42.6</ele>
        <time>2024-05-09T15:21:55Z</time>
      </trkpt>
      <trkpt lat="47.9101" lon="-4.19098">
        <ele>42.7</ele>
        <time>2024-05-09T15:21:58Z</time>
      </trkpt>
      <trkpt lat="47.91001" lon="-4.19103">
        <ele>43.2</ele>
        <time>2024-05-09T15:22:00Z</time>
      </trkpt>
      <trkpt lat="47.90988" lon="-4.19108">
        <ele>43.2</ele>
        <time>2024-05-09T15:22:03Z</time>
      </trkpt>
      <trkpt lat="47.90976" lon="-4.19114">
        <ele>43.3</ele>
        <time>2024-05-09T15:22:06Z</time>
      </trkpt>
      <trkpt lat="47.90965" lon="-4.19118">
        <ele>43</ele>
        <time>2024-05-09T15:22:09Z</time>
      </trkpt>
      <trkpt lat="47.90954" lon="-4.19124">
        <ele>42.6</ele>
        <time>2024-05-09T15:22:13Z</time>
      </trkpt>
      <trkpt lat="47.90946" lon="-4.19131">
        <ele>42.5</ele>
        <time>2024-05-09T15:22:17Z</time>
      </trkpt>
      <trkpt lat="47.90942" lon="-4.19146">
        <ele>42.5</ele>
        <time>2024-05-09T15:22:22Z</time>
      </trkpt>
      <trkpt lat="47.9094" lon="-4.19162">
        <ele>42.5</ele>
        <time>2024-05-09T15:22:27Z</time>
      </trkpt>
      <trkpt lat="47.90933" lon="-4.19175">
        <ele>42.3</ele>
        <time>2024-05-09T15:22:30Z</time>
      </trkpt>
      <trkpt lat="47.90924" lon="-4.19182">
        <ele>41.9</ele>
        <time>2024-05-09T15:22:32Z</time>
      </trkpt>
      <trkpt lat="47.90914" lon="-4.1919">
        <ele>41.4</ele>
        <time>2024-05-09T15:22:34Z</time>
      </trkpt>
      <trkpt lat="47.90903" lon="-4.19198">
        <ele>40.9</ele>
        <time>2024-05-09T15:22:36Z</time>
      </trkpt>
      <trkpt lat="47.90892" lon="-4.19206">
        <ele>40.2</ele>
        <time>2024-05-09T15:22:38Z</time>
      </trkpt>
      <trkpt lat="47.90882" lon="-4.19216">
        <ele>39.9</ele>
        <time>2024-05-09T15:22:41Z</time>
      </trkpt>
      <trkpt lat="47.90879" lon="-4.19232">
        <ele>40.5</ele>
        <time>2024-05-09T15:22:46Z</time>
      </trkpt>
      <trkpt lat="47.90886" lon="-4.19244">
        <ele>41.6</ele>
        <time>2024-05-09T15:22:51Z</time>
      </trkpt>
      <trkpt lat="47.90894" lon="-4.19254">
        <ele>42.4</ele>
        <time>2024-05-09T15:22:55Z</time>
      </trkpt>
      <trkpt lat="47.90901" lon="-4.19264">
        <ele>42.6</ele>
        <time>2024-05-09T15:22:59Z</time>
      </trkpt>
      <trkpt lat="47.90907" lon="-4.19278">
        <ele>42</ele>
        <time>2024-05-09T15:23:03Z</time>
      </trkpt>
      <trkpt lat="47.90914" lon="-4.19288">
        <ele>42.3</ele>
        <time>2024-05-09T15:23:08Z</time>
      </trkpt>
      <trkpt lat="47.90925" lon="-4.19296">
        <ele>42.4</ele>
        <time>2024-05-09T15:23:12Z</time>
      </trkpt>
      <trkpt lat="47.90927" lon="-4.19311">
        <ele>42.5</ele>
        <time>2024-05-09T15:23:15Z</time>
      </trkpt>
      <trkpt lat="47.90926" lon="-4.19327">
        <ele>42.1</ele>
        <time>2024-05-09T15:23:18Z</time>
      </trkpt>
      <trkpt lat="47.9093" lon="-4.19345">
        <ele>42</ele>
        <time>2024-05-09T15:23:21Z</time>
      </trkpt>
      <trkpt lat="47.90935" lon="-4.19363">
        <ele>42</ele>
        <time>2024-05-09T15:23:24Z</time>
      </trkpt>
      <trkpt lat="47.90939" lon="-4.19381">
        <ele>42.1</ele>
        <time>2024-05-09T15:23:27Z</time>
      </trkpt>
      <trkpt lat="47.90942" lon="-4.194">
        <ele>42.1</ele>
        <time>2024-05-09T15:23:30Z</time>
      </trkpt>
      <trkpt lat="47.90946" lon="-4.19416">
        <ele>42.1</ele>
        <time>2024-05-09T15:23:33Z</time>
      </trkpt>
      <trkpt lat="47.90951" lon="-4.19434">
        <ele>42.1</ele>
        <time>2024-05-09T15:23:36Z</time>
      </trkpt>
      <trkpt lat="47.90955" lon="-4.19452">
        <ele>41.9</ele>
        <time>2024-05-09T15:23:39Z</time>
      </trkpt>
      <trkpt lat="47.90959" lon="-4.19471">
        <ele>41.5</ele>
        <time>2024-05-09T15:23:42Z</time>
      </trkpt>
      <trkpt lat="47.90963" lon="-4.19483">
        <ele>41.2</ele>
        <time>2024-05-09T15:23:44Z</time>
      </trkpt>
      <trkpt lat="47.90966" lon="-4.19496">
        <ele>41</ele>
        <time>2024-05-09T15:23:46Z</time>
      </trkpt>
      <trkpt lat="47.9097" lon="-4.19511">
        <ele>40.6</ele>
        <time>2024-05-09T15:23:48Z</time>
      </trkpt>
      <trkpt lat="47.90973" lon="-4.19524">
        <ele>40.2</ele>
        <time>2024-05-09T15:23:50Z</time>
      </trkpt>
      <trkpt lat="47.90977" lon="-4.19538">
        <ele>40.1</ele>
        <time>2024-05-09T15:23:52Z</time>
      </trkpt>
      <trkpt lat="47.9098" lon="-4.19552">
        <ele>40</ele>
        <time>2024-05-09T15:23:54Z</time>
      </trkpt>
      <trkpt lat="47.90984" lon="-4.19565">
        <ele>39.6</ele>
        <time>2024-05-09T15:23:56Z</time>
      </trkpt>
      <trkpt lat="47.90988" lon="-4.19579">
        <ele>39.1</ele>
        <time>2024-05-09T15:23:58Z</time>
      </trkpt>
      <trkpt lat="47.90992" lon="-4.19594">
        <ele>38.7</ele>
        <time>2024-05-09T15:24:00Z</time>
      </trkpt>
      <trkpt lat="47.90995" lon="-4.19609">
        <ele>38.2</ele>
        <time>2024-05-09T15:24:02Z</time>
      </trkpt>
      <trkpt lat="47.90998" lon="-4.19624">
        <ele>38.1</ele>
        <time>2024-05-09T15:24:04Z</time>
      </trkpt>
      <trkpt lat="47.91002" lon="-4.19638">
        <ele>38</ele>
        <time>2024-05-09T15:24:06Z</time>
      </trkpt>
      <trkpt lat="47.91007" lon="-4.19655">
        <ele>38</ele>
        <time>2024-05-09T15:24:08Z</time>
      </trkpt>
      <trkpt lat="47.91012" lon="-4.1967">
        <ele>37.9</ele>
        <time>2024-05-09T15:24:10Z</time>
      </trkpt>
      <trkpt lat="47.91016" lon="-4.19684">
        <ele>37.7</ele>
        <time>2024-05-09T15:24:12Z</time>
      </trkpt>
      <trkpt lat="47.9102" lon="-4.19698">
        <ele>37.3</ele>
        <time>2024-05-09T15:24:14Z</time>
      </trkpt>
      <trkpt lat="47.91026" lon="-4.19711">
        <ele>37.1</ele>
        <time>2024-05-09T15:24:16Z</time>
      </trkpt>
      <trkpt lat="47.91034" lon="-4.19719">
        <ele>37</ele>
        <time>2024-05-09T15:24:18Z</time>
      </trkpt>
      <trkpt lat="47.91042" lon="-4.19729">
        <ele>36.9</ele>
        <time>2024-05-09T15:24:20Z</time>
      </trkpt>
      <trkpt lat="47.9105" lon="-4.19739">
        <ele>36.5</ele>
        <time>2024-05-09T15:24:22Z</time>
      </trkpt>
      <trkpt lat="47.91059" lon="-4.19747">
        <ele>36.2</ele>
        <time>2024-05-09T15:24:24Z</time>
      </trkpt>
      <trkpt lat="47.91068" lon="-4.19757">
        <ele>36.3</ele>
        <time>2024-05-09T15:24:26Z</time>
      </trkpt>
      <trkpt lat="47.91075" lon="-4.19765">
        <ele>36.3</ele>
        <time>2024-05-09T15:24:28Z</time>
      </trkpt>
      <trkpt lat="47.91085" lon="-4.19777">
        <ele>36</ele>
        <time>2024-05-09T15:24:31Z</time>
      </trkpt>
      <trkpt lat="47.91094" lon="-4.1979">
        <ele>35.7</ele>
        <time>2024-05-09T15:24:34Z</time>
      </trkpt>
      <trkpt lat="47.91106" lon="-4.19794">
        <ele>35.9</ele>
        <time>2024-05-09T15:24:37Z</time>
      </trkpt>
      <trkpt lat="47.91116" lon="-4.19792">
        <ele>36</ele>
        <time>2024-05-09T15:24:40Z</time>
      </trkpt>
      <trkpt lat="47.91123" lon="-4.19784">
        <ele>36</ele>
        <time>2024-05-09T15:24:43Z</time>
      </trkpt>
      <trkpt lat="47.91126" lon="-4.19771">
        <ele>36</ele>
        <time>2024-05-09T15:24:46Z</time>
      </trkpt>
      <trkpt lat="47.9113" lon="-4.19757">
        <ele>36</ele>
        <time>2024-05-09T15:24:49Z</time>
      </trkpt>
      <trkpt lat="47.91135" lon="-4.19744">
        <ele>36.3</ele>
        <time>2024-05-09T15:24:52Z</time>
      </trkpt>
      <trkpt lat="47.91139" lon="-4.19731">
        <ele>36.7</ele>
        <time>2024-05-09T15:24:55Z</time>
      </trkpt>
      <trkpt lat="47.91146" lon="-4.19718">
        <ele>37.1</ele>
        <time>2024-05-09T15:24:59Z</time>
      </trkpt>
      <trkpt lat="47.91154" lon="-4.19705">
        <ele>37.3</ele>
        <time>2024-05-09T15:25:03Z</time>
      </trkpt>
      <trkpt lat="47.9116" lon="-4.19693">
        <ele>37.2</ele>
        <time>2024-05-09T15:25:07Z</time>
      </trkpt>
      <trkpt lat="47.91169" lon="-4.19686">
        <ele>37</ele>
        <time>2024-05-09T15:25:13Z</time>
      </trkpt>
      <trkpt lat="47.91179" lon="-4.1969">
        <ele>37</ele>
        <time>2024-05-09T15:25:19Z</time>
      </trkpt>
      <trkpt lat="47.91179" lon="-4.19704">
        <ele>37</ele>
        <time>2024-05-09T15:25:24Z</time>
      </trkpt>
      <trkpt lat="47.91175" lon="-4.19718">
        <ele>37</ele>
        <time>2024-05-09T15:25:40Z</time>
      </trkpt>
      <trkpt lat="47.9117" lon="-4.19733">
        <ele>37</ele>
        <time>2024-05-09T15:25:45Z</time>
      </trkpt>
      <trkpt lat="47.91167" lon="-4.19747">
        <ele>37</ele>
        <time>2024-05-09T15:25:48Z</time>
      </trkpt>
      <trkpt lat="47.91165" lon="-4.19762">
        <ele>36.5</ele>
        <time>2024-05-09T15:25:51Z</time>
      </trkpt>
      <trkpt lat="47.91163" lon="-4.19776">
        <ele>36</ele>
        <time>2024-05-09T15:25:54Z</time>
      </trkpt>
      <trkpt lat="47.9116" lon="-4.1979">
        <ele>36</ele>
        <time>2024-05-09T15:25:57Z</time>
      </trkpt>
      <trkpt lat="47.91156" lon="-4.19803">
        <ele>36</ele>
        <time>2024-05-09T15:26:00Z</time>
      </trkpt>
      <trkpt lat="47.91153" lon="-4.19819">
        <ele>36</ele>
        <time>2024-05-09T15:26:03Z</time>
      </trkpt>
      <trkpt lat="47.91149" lon="-4.19834">
        <ele>36</ele>
        <time>2024-05-09T15:26:06Z</time>
      </trkpt>
      <trkpt lat="47.91144" lon="-4.19853">
        <ele>36</ele>
        <time>2024-05-09T15:26:09Z</time>
      </trkpt>
      <trkpt lat="47.91139" lon="-4.19871">
        <ele>36</ele>
        <time>2024-05-09T15:26:12Z</time>
      </trkpt>
      <trkpt lat="47.91135" lon="-4.19888">
        <ele>36</ele>
        <time>2024-05-09T15:26:15Z</time>
      </trkpt>
      <trkpt lat="47.9113" lon="-4.19906">
        <ele>36</ele>
        <time>2024-05-09T15:26:18Z</time>
      </trkpt>
      <trkpt lat="47.91125" lon="-4.19924">
        <ele>35.6</ele>
        <time>2024-05-09T15:26:21Z</time>
      </trkpt>
      <trkpt lat="47.91121" lon="-4.19942">
        <ele>34.8</ele>
        <time>2024-05-09T15:26:24Z</time>
      </trkpt>
      <trkpt lat="47.91117" lon="-4.19956">
        <ele>35</ele>
        <time>2024-05-09T15:26:27Z</time>
      </trkpt>
      <trkpt lat="47.91113" lon="-4.1997">
        <ele>35.7</ele>
        <time>2024-05-09T15:26:30Z</time>
      </trkpt>
      <trkpt lat="47.91109" lon="-4.19983">
        <ele>35.1</ele>
        <time>2024-05-09T15:26:33Z</time>
      </trkpt>
      <trkpt lat="47.91104" lon="-4.19996">
        <ele>34.2</ele>
        <time>2024-05-09T15:26:36Z</time>
      </trkpt>
      <trkpt lat="47.91098" lon="-4.20009">
        <ele>33.8</ele>
        <time>2024-05-09T15:26:39Z</time>
      </trkpt>
      <trkpt lat="47.91093" lon="-4.20024">
        <ele>33.7</ele>
        <time>2024-05-09T15:26:43Z</time>
      </trkpt>
      <trkpt lat="47.91088" lon="-4.20038">
        <ele>34.1</ele>
        <time>2024-05-09T15:26:46Z</time>
      </trkpt>
      <trkpt lat="47.91081" lon="-4.20052">
        <ele>35</ele>
        <time>2024-05-09T15:26:49Z</time>
      </trkpt>
      <trkpt lat="47.91074" lon="-4.20066">
        <ele>34.8</ele>
        <time>2024-05-09T15:26:52Z</time>
      </trkpt>
      <trkpt lat="47.91066" lon="-4.2008">
        <ele>34.4</ele>
        <time>2024-05-09T15:26:55Z</time>
      </trkpt>
      <trkpt lat="47.91058" lon="-4.20093">
        <ele>34.5</ele>
        <time>2024-05-09T15:26:57Z</time>
      </trkpt>
      <trkpt lat="47.91049" lon="-4.20105">
        <ele>34.6</ele>
        <time>2024-05-09T15:27:00Z</time>
      </trkpt>
      <trkpt lat="47.9104" lon="-4.20116">
        <ele>34.3</ele>
        <time>2024-05-09T15:27:03Z</time>
      </trkpt>
      <trkpt lat="47.9103" lon="-4.20128">
        <ele>33.8</ele>
        <time>2024-05-09T15:27:06Z</time>
      </trkpt>
      <trkpt lat="47.91021" lon="-4.20139">
        <ele>33.2</ele>
        <time>2024-05-09T15:27:09Z</time>
      </trkpt>
      <trkpt lat="47.91012" lon="-4.20147">
        <ele>33.3</ele>
        <time>2024-05-09T15:27:11Z</time>
      </trkpt>
      <trkpt lat="47.91003" lon="-4.20153">
        <ele>33.4</ele>
        <time>2024-05-09T15:27:13Z</time>
      </trkpt>
      <trkpt lat="47.90992" lon="-4.20162">
        <ele>33.2</ele>
        <time>2024-05-09T15:27:16Z</time>
      </trkpt>
      <trkpt lat="47.90981" lon="-4.2017">
        <ele>32.9</ele>
        <time>2024-05-09T15:27:19Z</time>
      </trkpt>
      <trkpt lat="47.90971" lon="-4.20178">
        <ele>32.6</ele>
        <time>2024-05-09T15:27:22Z</time>
      </trkpt>
      <trkpt lat="47.90962" lon="-4.20184">
        <ele>32.5</ele>
        <time>2024-05-09T15:27:25Z</time>
      </trkpt>
      <trkpt lat="47.90951" lon="-4.20188">
        <ele>32.6</ele>
        <time>2024-05-09T15:27:28Z</time>
      </trkpt>
      <trkpt lat="47.90939" lon="-4.20192">
        <ele>32.8</ele>
        <time>2024-05-09T15:27:31Z</time>
      </trkpt>
      <trkpt lat="47.90927" lon="-4.20195">
        <ele>32.4</ele>
        <time>2024-05-09T15:27:34Z</time>
      </trkpt>
      <trkpt lat="47.90916" lon="-4.20196">
        <ele>32.1</ele>
        <time>2024-05-09T15:27:37Z</time>
      </trkpt>
      <trkpt lat="47.90906" lon="-4.20199">
        <ele>31.8</ele>
        <time>2024-05-09T15:27:40Z</time>
      </trkpt>
      <trkpt lat="47.90897" lon="-4.20203">
        <ele>31.6</ele>
        <time>2024-05-09T15:27:43Z</time>
      </trkpt>
      <trkpt lat="47.90885" lon="-4.20206">
        <ele>31.4</ele>
        <time>2024-05-09T15:27:47Z</time>
      </trkpt>
      <trkpt lat="47.90876" lon="-4.20208">
        <ele>31.5</ele>
        <time>2024-05-09T15:27:49Z</time>
      </trkpt>
      <trkpt lat="47.90863" lon="-4.20209">
        <ele>31.5</ele>
        <time>2024-05-09T15:27:52Z</time>
      </trkpt>
      <trkpt lat="47.90851" lon="-4.2021">
        <ele>31.4</ele>
        <time>2024-05-09T15:27:55Z</time>
      </trkpt>
      <trkpt lat="47.90838" lon="-4.2021">
        <ele>31.1</ele>
        <time>2024-05-09T15:27:58Z</time>
      </trkpt>
      <trkpt lat="47.90826" lon="-4.20211">
        <ele>31</ele>
        <time>2024-05-09T15:28:01Z</time>
      </trkpt>
      <trkpt lat="47.90814" lon="-4.2021">
        <ele>31</ele>
        <time>2024-05-09T15:28:04Z</time>
      </trkpt>
      <trkpt lat="47.90802" lon="-4.2021">
        <ele>31</ele>
        <time>2024-05-09T15:28:07Z</time>
      </trkpt>
      <trkpt lat="47.9079" lon="-4.20209">
        <ele>31</ele>
        <time>2024-05-09T15:28:10Z</time>
      </trkpt>
      <trkpt lat="47.9078" lon="-4.20208">
        <ele>31</ele>
        <time>2024-05-09T15:28:13Z</time>
      </trkpt>
      <trkpt lat="47.9077" lon="-4.20208">
        <ele>30.7</ele>
        <time>2024-05-09T15:28:16Z</time>
      </trkpt>
      <trkpt lat="47.90759" lon="-4.2021">
        <ele>30.3</ele>
        <time>2024-05-09T15:28:19Z</time>
      </trkpt>
      <trkpt lat="47.90746" lon="-4.2021">
        <ele>29.9</ele>
        <time>2024-05-09T15:28:22Z</time>
      </trkpt>
      <trkpt lat="47.90734" lon="-4.20209">
        <ele>29.7</ele>
        <time>2024-05-09T15:28:25Z</time>
      </trkpt>
      <trkpt lat="47.90721" lon="-4.20208">
        <ele>29.5</ele>
        <time>2024-05-09T15:28:28Z</time>
      </trkpt>
      <trkpt lat="47.9071" lon="-4.20207">
        <ele>29.2</ele>
        <time>2024-05-09T15:28:31Z</time>
      </trkpt>
      <trkpt lat="47.90701" lon="-4.20204">
        <ele>29.1</ele>
        <time>2024-05-09T15:28:34Z</time>
      </trkpt>
      <trkpt lat="47.90689" lon="-4.20205">
        <ele>28.7</ele>
        <time>2024-05-09T15:28:37Z</time>
      </trkpt>
      <trkpt lat="47.90679" lon="-4.20209">
        <ele>27.9</ele>
        <time>2024-05-09T15:28:40Z</time>
      </trkpt>
      <trkpt lat="47.90667" lon="-4.20212">
        <ele>27.1</ele>
        <time>2024-05-09T15:28:43Z</time>
      </trkpt>
      <trkpt lat="47.90657" lon="-4.20213">
        <ele>26.9</ele>
        <time>2024-05-09T15:28:45Z</time>
      </trkpt>
      <trkpt lat="47.90648" lon="-4.20212">
        <ele>26.8</ele>
        <time>2024-05-09T15:28:47Z</time>
      </trkpt>
      <trkpt lat="47.90635" lon="-4.20213">
        <ele>26.4</ele>
        <time>2024-05-09T15:28:50Z</time>
      </trkpt>
      <trkpt lat="47.90622" lon="-4.20216">
        <ele>25.9</ele>
        <time>2024-05-09T15:28:54Z</time>
      </trkpt>
      <trkpt lat="47.90609" lon="-4.2022">
        <ele>25.7</ele>
        <time>2024-05-09T15:28:57Z</time>
      </trkpt>
      <trkpt lat="47.90599" lon="-4.20222">
        <ele>26</ele>
        <time>2024-05-09T15:28:59Z</time>
      </trkpt>
      <trkpt lat="47.90585" lon="-4.20226">
        <ele>26.7</ele>
        <time>2024-05-09T15:29:01Z</time>
      </trkpt>
      <trkpt lat="47.90571" lon="-4.20225">
        <ele>25.6</ele>
        <time>2024-05-09T15:29:04Z</time>
      </trkpt>
      <trkpt lat="47.90562" lon="-4.20234">
        <ele>25.9</ele>
        <time>2024-05-09T15:29:06Z</time>
      </trkpt>
      <trkpt lat="47.90552" lon="-4.20242">
        <ele>25.9</ele>
        <time>2024-05-09T15:29:08Z</time>
      </trkpt>
      <trkpt lat="47.90543" lon="-4.20244">
        <ele>25.4</ele>
        <time>2024-05-09T15:29:10Z</time>
      </trkpt>
      <trkpt lat="47.90534" lon="-4.20255">
        <ele>26.2</ele>
        <time>2024-05-09T15:29:12Z</time>
      </trkpt>
      <trkpt lat="47.90522" lon="-4.20257">
        <ele>25.6</ele>
        <time>2024-05-09T15:29:14Z</time>
      </trkpt>
      <trkpt lat="47.90513" lon="-4.2026">
        <ele>25.2</ele>
        <time>2024-05-09T15:29:16Z</time>
      </trkpt>
      <trkpt lat="47.90503" lon="-4.20267">
        <ele>25.1</ele>
        <time>2024-05-09T15:29:18Z</time>
      </trkpt>
      <trkpt lat="47.90495" lon="-4.20277">
        <ele>25.4</ele>
        <time>2024-05-09T15:29:20Z</time>
      </trkpt>
      <trkpt lat="47.90485" lon="-4.20286">
        <ele>25</ele>
        <time>2024-05-09T15:29:22Z</time>
      </trkpt>
      <trkpt lat="47.90476" lon="-4.20294">
        <ele>24.6</ele>
        <time>2024-05-09T15:29:24Z</time>
      </trkpt>
      <trkpt lat="47.90466" lon="-4.20304">
        <ele>24.5</ele>
        <time>2024-05-09T15:29:26Z</time>
      </trkpt>
      <trkpt lat="47.90457" lon="-4.20314">
        <ele>24.6</ele>
        <time>2024-05-09T15:29:28Z</time>
      </trkpt>
      <trkpt lat="47.90448" lon="-4.20324">
        <ele>24.7</ele>
        <time>2024-05-09T15:29:30Z</time>
      </trkpt>
      <trkpt lat="47.90439" lon="-4.20335">
        <ele>24.3</ele>
        <time>2024-05-09T15:29:32Z</time>
      </trkpt>
      <trkpt lat="47.9043" lon="-4.20345">
        <ele>23.5</ele>
        <time>2024-05-09T15:29:34Z</time>
      </trkpt>
      <trkpt lat="47.9042" lon="-4.20356">
        <ele>23</ele>
        <time>2024-05-09T15:29:36Z</time>
      </trkpt>
      <trkpt lat="47.90412" lon="-4.20368">
        <ele>22.6</ele>
        <time>2024-05-09T15:29:38Z</time>
      </trkpt>
      <trkpt lat="47.90404" lon="-4.20381">
        <ele>22.1</ele>
        <time>2024-05-09T15:29:40Z</time>
      </trkpt>
      <trkpt lat="47.90395" lon="-4.20394">
        <ele>21.8</ele>
        <time>2024-05-09T15:29:42Z</time>
      </trkpt>
      <trkpt lat="47.90386" lon="-4.20406">
        <ele>21.3</ele>
        <time>2024-05-09T15:29:44Z</time>
      </trkpt>
      <trkpt lat="47.90376" lon="-4.20419">
        <ele>20.2</ele>
        <time>2024-05-09T15:29:46Z</time>
      </trkpt>
      <trkpt lat="47.90367" lon="-4.20432">
        <ele>19.2</ele>
        <time>2024-05-09T15:29:48Z</time>
      </trkpt>
      <trkpt lat="47.90359" lon="-4.20444">
        <ele>18.8</ele>
        <time>2024-05-09T15:29:50Z</time>
      </trkpt>
      <trkpt lat="47.90351" lon="-4.20453">
        <ele>18.9</ele>
        <time>2024-05-09T15:29:52Z</time>
      </trkpt>
      <trkpt lat="47.90343" lon="-4.20466">
        <ele>19.3</ele>
        <time>2024-05-09T15:29:54Z</time>
      </trkpt>
      <trkpt lat="47.90335" lon="-4.20478">
        <ele>19.7</ele>
        <time>2024-05-09T15:29:56Z</time>
      </trkpt>
      <trkpt lat="47.90327" lon="-4.2049">
        <ele>20.2</ele>
        <time>2024-05-09T15:29:58Z</time>
      </trkpt>
      <trkpt lat="47.9032" lon="-4.20503">
        <ele>20.8</ele>
        <time>2024-05-09T15:30:00Z</time>
      </trkpt>
      <trkpt lat="47.90313" lon="-4.20516">
        <ele>21.4</ele>
        <time>2024-05-09T15:30:02Z</time>
      </trkpt>
      <trkpt lat="47.90304" lon="-4.20527">
        <ele>21.6</ele>
        <time>2024-05-09T15:30:04Z</time>
      </trkpt>
      <trkpt lat="47.9029" lon="-4.20539">
        <ele>20.8</ele>
        <time>2024-05-09T15:30:07Z</time>
      </trkpt>
      <trkpt lat="47.90281" lon="-4.20549">
        <ele>20.6</ele>
        <time>2024-05-09T15:30:09Z</time>
      </trkpt>
      <trkpt lat="47.90272" lon="-4.20561">
        <ele>20.5</ele>
        <time>2024-05-09T15:30:11Z</time>
      </trkpt>
      <trkpt lat="47.90263" lon="-4.20577">
        <ele>20.2</ele>
        <time>2024-05-09T15:30:13Z</time>
      </trkpt>
      <trkpt lat="47.90253" lon="-4.20589">
        <ele>19.3</ele>
        <time>2024-05-09T15:30:15Z</time>
      </trkpt>
      <trkpt lat="47.90245" lon="-4.20603">
        <ele>19.3</ele>
        <time>2024-05-09T15:30:17Z</time>
      </trkpt>
      <trkpt lat="47.90236" lon="-4.20612">
        <ele>18.5</ele>
        <time>2024-05-09T15:30:19Z</time>
      </trkpt>
      <trkpt lat="47.90227" lon="-4.2062">
        <ele>17.8</ele>
        <time>2024-05-09T15:30:21Z</time>
      </trkpt>
      <trkpt lat="47.90218" lon="-4.20636">
        <ele>18.1</ele>
        <time>2024-05-09T15:30:23Z</time>
      </trkpt>
      <trkpt lat="47.9021" lon="-4.20647">
        <ele>17.8</ele>
        <time>2024-05-09T15:30:25Z</time>
      </trkpt>
      <trkpt lat="47.90198" lon="-4.20656">
        <ele>16.8</ele>
        <time>2024-05-09T15:30:27Z</time>
      </trkpt>
      <trkpt lat="47.90188" lon="-4.20668">
        <ele>16.4</ele>
        <time>2024-05-09T15:30:29Z</time>
      </trkpt>
      <trkpt lat="47.90179" lon="-4.20679">
        <ele>16.1</ele>
        <time>2024-05-09T15:30:31Z</time>
      </trkpt>
      <trkpt lat="47.90169" lon="-4.20691">
        <ele>16.1</ele>
        <time>2024-05-09T15:30:33Z</time>
      </trkpt>
      <trkpt lat="47.90161" lon="-4.20701">
        <ele>16.1</ele>
        <time>2024-05-09T15:30:35Z</time>
      </trkpt>
      <trkpt lat="47.90153" lon="-4.20711">
        <ele>16.3</ele>
        <time>2024-05-09T15:30:37Z</time>
      </trkpt>
      <trkpt lat="47.90145" lon="-4.20722">
        <ele>16.6</ele>
        <time>2024-05-09T15:30:39Z</time>
      </trkpt>
      <trkpt lat="47.90136" lon="-4.20729">
        <ele>16</ele>
        <time>2024-05-09T15:30:41Z</time>
      </trkpt>
      <trkpt lat="47.90128" lon="-4.20741">
        <ele>15.7</ele>
        <time>2024-05-09T15:30:43Z</time>
      </trkpt>
      <trkpt lat="47.90118" lon="-4.20751">
        <ele>15.5</ele>
        <time>2024-05-09T15:30:45Z</time>
      </trkpt>
      <trkpt lat="47.90107" lon="-4.2076">
        <ele>15.5</ele>
        <time>2024-05-09T15:30:47Z</time>
      </trkpt>
      <trkpt lat="47.90098" lon="-4.20769">
        <ele>15.5</ele>
        <time>2024-05-09T15:30:49Z</time>
      </trkpt>
      <trkpt lat="47.90088" lon="-4.20779">
        <ele>15.4</ele>
        <time>2024-05-09T15:30:51Z</time>
      </trkpt>
      <trkpt lat="47.90077" lon="-4.20788">
        <ele>15</ele>
        <time>2024-05-09T15:30:53Z</time>
      </trkpt>
      <trkpt lat="47.90069" lon="-4.20793">
        <ele>14.8</ele>
        <time>2024-05-09T15:30:55Z</time>
      </trkpt>
      <trkpt lat="47.90057" lon="-4.20804">
        <ele>14.9</ele>
        <time>2024-05-09T15:30:58Z</time>
      </trkpt>
      <trkpt lat="47.90047" lon="-4.20815">
        <ele>14.9</ele>
        <time>2024-05-09T15:31:01Z</time>
      </trkpt>
      <trkpt lat="47.90038" lon="-4.20824">
        <ele>14.6</ele>
        <time>2024-05-09T15:31:04Z</time>
      </trkpt>
      <trkpt lat="47.9003" lon="-4.20832">
        <ele>14.1</ele>
        <time>2024-05-09T15:31:07Z</time>
      </trkpt>
      <trkpt lat="47.9002" lon="-4.20835">
        <ele>13.6</ele>
        <time>2024-05-09T15:31:10Z</time>
      </trkpt>
      <trkpt lat="47.9001" lon="-4.20841">
        <ele>13.3</ele>
        <time>2024-05-09T15:31:13Z</time>
      </trkpt>
      <trkpt lat="47.9" lon="-4.20845">
        <ele>12.8</ele>
        <time>2024-05-09T15:31:16Z</time>
      </trkpt>
      <trkpt lat="47.89989" lon="-4.20852">
        <ele>12.8</ele>
        <time>2024-05-09T15:31:19Z</time>
      </trkpt>
      <trkpt lat="47.89978" lon="-4.20858">
        <ele>12.4</ele>
        <time>2024-05-09T15:31:22Z</time>
      </trkpt>
      <trkpt lat="47.89969" lon="-4.20866">
        <ele>12.3</ele>
        <time>2024-05-09T15:31:25Z</time>
      </trkpt>
      <trkpt lat="47.8996" lon="-4.20873">
        <ele>12.4</ele>
        <time>2024-05-09T15:31:28Z</time>
      </trkpt>
      <trkpt lat="47.8995" lon="-4.20882">
        <ele>12.3</ele>
        <time>2024-05-09T15:31:32Z</time>
      </trkpt>
      <trkpt lat="47.89939" lon="-4.20889">
        <ele>11.8</ele>
        <time>2024-05-09T15:31:35Z</time>
      </trkpt>
      <trkpt lat="47.89929" lon="-4.20893">
        <ele>11.7</ele>
        <time>2024-05-09T15:31:38Z</time>
      </trkpt>
      <trkpt lat="47.89917" lon="-4.20897">
        <ele>11.6</ele>
        <time>2024-05-09T15:31:41Z</time>
      </trkpt>
      <trkpt lat="47.89906" lon="-4.209">
        <ele>11.9</ele>
        <time>2024-05-09T15:31:44Z</time>
      </trkpt>
      <trkpt lat="47.89895" lon="-4.20905">
        <ele>12</ele>
        <time>2024-05-09T15:31:47Z</time>
      </trkpt>
      <trkpt lat="47.89884" lon="-4.20909">
        <ele>12.2</ele>
        <time>2024-05-09T15:31:50Z</time>
      </trkpt>
      <trkpt lat="47.89873" lon="-4.20913">
        <ele>12.6</ele>
        <time>2024-05-09T15:31:53Z</time>
      </trkpt>
      <trkpt lat="47.89862" lon="-4.20916">
        <ele>13</ele>
        <time>2024-05-09T15:31:56Z</time>
      </trkpt>
      <trkpt lat="47.89851" lon="-4.2092">
        <ele>13</ele>
        <time>2024-05-09T15:31:59Z</time>
      </trkpt>
      <trkpt lat="47.89841" lon="-4.20925">
        <ele>13</ele>
        <time>2024-05-09T15:32:02Z</time>
      </trkpt>
      <trkpt lat="47.89831" lon="-4.20932">
        <ele>12.9</ele>
        <time>2024-05-09T15:32:05Z</time>
      </trkpt>
      <trkpt lat="47.8982" lon="-4.20935">
        <ele>12.7</ele>
        <time>2024-05-09T15:32:08Z</time>
      </trkpt>
      <trkpt lat="47.8981" lon="-4.20938">
        <ele>12.4</ele>
        <time>2024-05-09T15:32:10Z</time>
      </trkpt>
      <trkpt lat="47.89798" lon="-4.20941">
        <ele>12.3</ele>
        <time>2024-05-09T15:32:13Z</time>
      </trkpt>
      <trkpt lat="47.89787" lon="-4.20944">
        <ele>12.7</ele>
        <time>2024-05-09T15:32:16Z</time>
      </trkpt>
      <trkpt lat="47.89777" lon="-4.20948">
        <ele>13</ele>
        <time>2024-05-09T15:32:19Z</time>
      </trkpt>
      <trkpt lat="47.89767" lon="-4.20952">
        <ele>13.2</ele>
        <time>2024-05-09T15:32:22Z</time>
      </trkpt>
      <trkpt lat="47.89758" lon="-4.20955">
        <ele>13.5</ele>
        <time>2024-05-09T15:32:25Z</time>
      </trkpt>
      <trkpt lat="47.89748" lon="-4.20957">
        <ele>14.1</ele>
        <time>2024-05-09T15:32:28Z</time>
      </trkpt>
      <trkpt lat="47.89736" lon="-4.20961">
        <ele>14.9</ele>
        <time>2024-05-09T15:32:31Z</time>
      </trkpt>
      <trkpt lat="47.89724" lon="-4.20963">
        <ele>15.6</ele>
        <time>2024-05-09T15:32:34Z</time>
      </trkpt>
      <trkpt lat="47.89711" lon="-4.20965">
        <ele>15.8</ele>
        <time>2024-05-09T15:32:37Z</time>
      </trkpt>
      <trkpt lat="47.897" lon="-4.20967">
        <ele>16</ele>
        <time>2024-05-09T15:32:40Z</time>
      </trkpt>
      <trkpt lat="47.89689" lon="-4.20971">
        <ele>15.8</ele>
        <time>2024-05-09T15:32:43Z</time>
      </trkpt>
      <trkpt lat="47.89676" lon="-4.20975">
        <ele>15.5</ele>
        <time>2024-05-09T15:32:46Z</time>
      </trkpt>
      <trkpt lat="47.89665" lon="-4.20977">
        <ele>15.3</ele>
        <time>2024-05-09T15:32:49Z</time>
      </trkpt>
      <trkpt lat="47.89652" lon="-4.20982">
        <ele>15.5</ele>
        <time>2024-05-09T15:32:52Z</time>
      </trkpt>
      <trkpt lat="47.89642" lon="-4.20987">
        <ele>15.6</ele>
        <time>2024-05-09T15:32:55Z</time>
      </trkpt>
      <trkpt lat="47.89632" lon="-4.20991">
        <ele>15.5</ele>
        <time>2024-05-09T15:32:58Z</time>
      </trkpt>
      <trkpt lat="47.89621" lon="-4.20996">
        <ele>15.3</ele>
        <time>2024-05-09T15:33:01Z</time>
      </trkpt>
      <trkpt lat="47.8961" lon="-4.21001">
        <ele>15</ele>
        <time>2024-05-09T15:33:04Z</time>
      </trkpt>
      <trkpt lat="47.89599" lon="-4.21007">
        <ele>15.5</ele>
        <time>2024-05-09T15:33:07Z</time>
      </trkpt>
      <trkpt lat="47.89588" lon="-4.21013">
        <ele>15.8</ele>
        <time>2024-05-09T15:33:10Z</time>
      </trkpt>
      <trkpt lat="47.89578" lon="-4.21017">
        <ele>16</ele>
        <time>2024-05-09T15:33:13Z</time>
      </trkpt>
      <trkpt lat="47.89567" lon="-4.2102">
        <ele>16</ele>
        <time>2024-05-09T15:33:16Z</time>
      </trkpt>
      <trkpt lat="47.89555" lon="-4.21022">
        <ele>16</ele>
        <time>2024-05-09T15:33:20Z</time>
      </trkpt>
      <trkpt lat="47.89544" lon="-4.21024">
        <ele>15.9</ele>
        <time>2024-05-09T15:33:23Z</time>
      </trkpt>
      <trkpt lat="47.89534" lon="-4.21024">
        <ele>15.9</ele>
        <time>2024-05-09T15:33:26Z</time>
      </trkpt>
      <trkpt lat="47.89522" lon="-4.21027">
        <ele>16</ele>
        <time>2024-05-09T15:33:29Z</time>
      </trkpt>
      <trkpt lat="47.89512" lon="-4.21028">
        <ele>16</ele>
        <time>2024-05-09T15:33:32Z</time>
      </trkpt>
      <trkpt lat="47.89502" lon="-4.21032">
        <ele>16.1</ele>
        <time>2024-05-09T15:33:35Z</time>
      </trkpt>
      <trkpt lat="47.89492" lon="-4.21035">
        <ele>16.4</ele>
        <time>2024-05-09T15:33:39Z</time>
      </trkpt>
      <trkpt lat="47.8948" lon="-4.2104">
        <ele>16.8</ele>
        <time>2024-05-09T15:33:43Z</time>
      </trkpt>
      <trkpt lat="47.8947" lon="-4.21044">
        <ele>17.2</ele>
        <time>2024-05-09T15:33:46Z</time>
      </trkpt>
      <trkpt lat="47.89458" lon="-4.21047">
        <ele>17.5</ele>
        <time>2024-05-09T15:33:49Z</time>
      </trkpt>
      <trkpt lat="47.89448" lon="-4.2105">
        <ele>17.8</ele>
        <time>2024-05-09T15:33:52Z</time>
      </trkpt>
      <trkpt lat="47.89437" lon="-4.21054">
        <ele>18.2</ele>
        <time>2024-05-09T15:33:55Z</time>
      </trkpt>
      <trkpt lat="47.89427" lon="-4.21057">
        <ele>18.7</ele>
        <time>2024-05-09T15:33:58Z</time>
      </trkpt>
      <trkpt lat="47.89417" lon="-4.2106">
        <ele>19.2</ele>
        <time>2024-05-09T15:34:01Z</time>
      </trkpt>
      <trkpt lat="47.89406" lon="-4.21063">
        <ele>19.7</ele>
        <time>2024-05-09T15:34:04Z</time>
      </trkpt>
      <trkpt lat="47.89394" lon="-4.21067">
        <ele>20.2</ele>
        <time>2024-05-09T15:34:07Z</time>
      </trkpt>
      <trkpt lat="47.89385" lon="-4.21069">
        <ele>20.5</ele>
        <time>2024-05-09T15:34:10Z</time>
      </trkpt>
      <trkpt lat="47.89375" lon="-4.21072">
        <ele>20.6</ele>
        <time>2024-05-09T15:34:13Z</time>
      </trkpt>
      <trkpt lat="47.89363" lon="-4.21077">
        <ele>20.8</ele>
        <time>2024-05-09T15:34:16Z</time>
      </trkpt>
      <trkpt lat="47.89352" lon="-4.21077">
        <ele>20.8</ele>
        <time>2024-05-09T15:34:19Z</time>
      </trkpt>
      <trkpt lat="47.8934" lon="-4.21081">
        <ele>20.9</ele>
        <time>2024-05-09T15:34:22Z</time>
      </trkpt>
      <trkpt lat="47.8933" lon="-4.21087">
        <ele>21.1</ele>
        <time>2024-05-09T15:34:25Z</time>
      </trkpt>
      <trkpt lat="47.89321" lon="-4.21091">
        <ele>21.3</ele>
        <time>2024-05-09T15:34:28Z</time>
      </trkpt>
      <trkpt lat="47.8931" lon="-4.21094">
        <ele>21.4</ele>
        <time>2024-05-09T15:34:31Z</time>
      </trkpt>
      <trkpt lat="47.893" lon="-4.21098">
        <ele>21.5</ele>
        <time>2024-05-09T15:34:34Z</time>
      </trkpt>
      <trkpt lat="47.89287" lon="-4.21104">
        <ele>21.7</ele>
        <time>2024-05-09T15:34:37Z</time>
      </trkpt>
      <trkpt lat="47.89278" lon="-4.21109">
        <ele>21.9</ele>
        <time>2024-05-09T15:34:40Z</time>
      </trkpt>
      <trkpt lat="47.89267" lon="-4.21114">
        <ele>22.2</ele>
        <time>2024-05-09T15:34:43Z</time>
      </trkpt>
      <trkpt lat="47.89255" lon="-4.21118">
        <ele>22.5</ele>
        <time>2024-05-09T15:34:46Z</time>
      </trkpt>
      <trkpt lat="47.89245" lon="-4.21121">
        <ele>22.9</ele>
        <time>2024-05-09T15:34:49Z</time>
      </trkpt>
      <trkpt lat="47.89233" lon="-4.21125">
        <ele>23.6</ele>
        <time>2024-05-09T15:34:53Z</time>
      </trkpt>
      <trkpt lat="47.89223" lon="-4.2113">
        <ele>24</ele>
        <time>2024-05-09T15:34:56Z</time>
      </trkpt>
      <trkpt lat="47.89214" lon="-4.21134">
        <ele>24.3</ele>
        <time>2024-05-09T15:34:59Z</time>
      </trkpt>
      <trkpt lat="47.89203" lon="-4.21142">
        <ele>24.7</ele>
        <time>2024-05-09T15:35:03Z</time>
      </trkpt>
      <trkpt lat="47.89195" lon="-4.21148">
        <ele>25</ele>
        <time>2024-05-09T15:35:06Z</time>
      </trkpt>
      <trkpt lat="47.89184" lon="-4.21156">
        <ele>24.9</ele>
        <time>2024-05-09T15:35:10Z</time>
      </trkpt>
      <trkpt lat="47.89175" lon="-4.21162">
        <ele>24.5</ele>
        <time>2024-05-09T15:35:13Z</time>
      </trkpt>
      <trkpt lat="47.89166" lon="-4.21169">
        <ele>24.1</ele>
        <time>2024-05-09T15:35:16Z</time>
      </trkpt>
      <trkpt lat="47.89156" lon="-4.21177">
        <ele>24.2</ele>
        <time>2024-05-09T15:35:21Z</time>
      </trkpt>
      <trkpt lat="47.89147" lon="-4.21185">
        <ele>24.2</ele>
        <time>2024-05-09T15:35:25Z</time>
      </trkpt>
      <trkpt lat="47.89139" lon="-4.21194">
        <ele>24</ele>
        <time>2024-05-09T15:35:28Z</time>
      </trkpt>
      <trkpt lat="47.8913" lon="-4.21209">
        <ele>23.8</ele>
        <time>2024-05-09T15:35:31Z</time>
      </trkpt>
      <trkpt lat="47.89123" lon="-4.21218">
        <ele>23.7</ele>
        <time>2024-05-09T15:35:33Z</time>
      </trkpt>
      <trkpt lat="47.89114" lon="-4.21232">
        <ele>23.6</ele>
        <time>2024-05-09T15:35:36Z</time>
      </trkpt>
      <trkpt lat="47.89106" lon="-4.21246">
        <ele>23.9</ele>
        <time>2024-05-09T15:35:39Z</time>
      </trkpt>
      <trkpt lat="47.89098" lon="-4.21259">
        <ele>24.3</ele>
        <time>2024-05-09T15:35:42Z</time>
      </trkpt>
      <trkpt lat="47.89092" lon="-4.21271">
        <ele>24.8</ele>
        <time>2024-05-09T15:35:46Z</time>
      </trkpt>
      <trkpt lat="47.89084" lon="-4.21277">
        <ele>25</ele>
        <time>2024-05-09T15:36:05Z</time>
      </trkpt>
      <trkpt lat="47.89074" lon="-4.21277">
        <ele>25</ele>
        <time>2024-05-09T15:36:41Z</time>
      </trkpt>
      <trkpt lat="47.89066" lon="-4.21272">
        <ele>24.9</ele>
        <time>2024-05-09T15:36:44Z</time>
      </trkpt>
      <trkpt lat="47.89057" lon="-4.21265">
        <ele>25</ele>
        <time>2024-05-09T15:36:47Z</time>
      </trkpt>
      <trkpt lat="47.89047" lon="-4.21258">
        <ele>25</ele>
        <time>2024-05-09T15:36:50Z</time>
      </trkpt>
      <trkpt lat="47.89037" lon="-4.21252">
        <ele>25</ele>
        <time>2024-05-09T15:36:53Z</time>
      </trkpt>
      <trkpt lat="47.89028" lon="-4.21246">
        <ele>25.1</ele>
        <time>2024-05-09T15:36:56Z</time>
      </trkpt>
      <trkpt lat="47.89019" lon="-4.21241">
        <ele>25.3</ele>
        <time>2024-05-09T15:36:59Z</time>
      </trkpt>
      <trkpt lat="47.8901" lon="-4.21236">
        <ele>25.5</ele>
        <time>2024-05-09T15:37:02Z</time>
      </trkpt>
      <trkpt lat="47.89001" lon="-4.21231">
        <ele>25.7</ele>
        <time>2024-05-09T15:37:05Z</time>
      </trkpt>
      <trkpt lat="47.88989" lon="-4.21226">
        <ele>25.8</ele>
        <time>2024-05-09T15:37:09Z</time>
      </trkpt>
      <trkpt lat="47.88978" lon="-4.21222">
        <ele>26</ele>
        <time>2024-05-09T15:37:13Z</time>
      </trkpt>
      <trkpt lat="47.88969" lon="-4.2122">
        <ele>26.2</ele>
        <time>2024-05-09T15:37:16Z</time>
      </trkpt>
      <trkpt lat="47.8896" lon="-4.21217">
        <ele>26.6</ele>
        <time>2024-05-09T15:37:19Z</time>
      </trkpt>
      <trkpt lat="47.88951" lon="-4.21216">
        <ele>27</ele>
        <time>2024-05-09T15:37:22Z</time>
      </trkpt>
      <trkpt lat="47.88939" lon="-4.21215">
        <ele>27.4</ele>
        <time>2024-05-09T15:37:26Z</time>
      </trkpt>
      <trkpt lat="47.88928" lon="-4.21215">
        <ele>27.9</ele>
        <time>2024-05-09T15:37:30Z</time>
      </trkpt>
      <trkpt lat="47.88916" lon="-4.21215">
        <ele>28.2</ele>
        <time>2024-05-09T15:37:34Z</time>
      </trkpt>
      <trkpt lat="47.88907" lon="-4.21216">
        <ele>28.2</ele>
        <time>2024-05-09T15:37:37Z</time>
      </trkpt>
      <trkpt lat="47.88897" lon="-4.21216">
        <ele>28.2</ele>
        <time>2024-05-09T15:37:40Z</time>
      </trkpt>
      <trkpt lat="47.88888" lon="-4.21215">
        <ele>28.3</ele>
        <time>2024-05-09T15:37:43Z</time>
      </trkpt>
      <trkpt lat="47.88877" lon="-4.21216">
        <ele>28.6</ele>
        <time>2024-05-09T15:37:47Z</time>
      </trkpt>
      <trkpt lat="47.88866" lon="-4.21219">
        <ele>28.9</ele>
        <time>2024-05-09T15:37:51Z</time>
      </trkpt>
      <trkpt lat="47.88855" lon="-4.21222">
        <ele>29.3</ele>
        <time>2024-05-09T15:37:55Z</time>
      </trkpt>
      <trkpt lat="47.88846" lon="-4.21223">
        <ele>29.6</ele>
        <time>2024-05-09T15:37:58Z</time>
      </trkpt>
      <trkpt lat="47.88837" lon="-4.21226">
        <ele>30</ele>
        <time>2024-05-09T15:38:01Z</time>
      </trkpt>
      <trkpt lat="47.88825" lon="-4.21229">
        <ele>30.6</ele>
        <time>2024-05-09T15:38:05Z</time>
      </trkpt>
      <trkpt lat="47.88813" lon="-4.21231">
        <ele>31</ele>
        <time>2024-05-09T15:38:09Z</time>
      </trkpt>
      <trkpt lat="47.88804" lon="-4.21233">
        <ele>31.4</ele>
        <time>2024-05-09T15:38:12Z</time>
      </trkpt>
      <trkpt lat="47.88795" lon="-4.21234">
        <ele>31.6</ele>
        <time>2024-05-09T15:38:15Z</time>
      </trkpt>
      <trkpt lat="47.88786" lon="-4.21235">
        <ele>31.8</ele>
        <time>2024-05-09T15:38:18Z</time>
      </trkpt>
      <trkpt lat="47.88776" lon="-4.21237">
        <ele>32</ele>
        <time>2024-05-09T15:38:21Z</time>
      </trkpt>
      <trkpt lat="47.88766" lon="-4.21238">
        <ele>31.8</ele>
        <time>2024-05-09T15:38:24Z</time>
      </trkpt>
      <trkpt lat="47.88756" lon="-4.21238">
        <ele>31.7</ele>
        <time>2024-05-09T15:38:27Z</time>
      </trkpt>
      <trkpt lat="47.88745" lon="-4.21238">
        <ele>31.6</ele>
        <time>2024-05-09T15:38:30Z</time>
      </trkpt>
      <trkpt lat="47.88736" lon="-4.21239">
        <ele>31.6</ele>
        <time>2024-05-09T15:38:33Z</time>
      </trkpt>
      <trkpt lat="47.88731" lon="-4.21252">
        <ele>32.2</ele>
        <time>2024-05-09T15:38:38Z</time>
      </trkpt>
      <trkpt lat="47.88732" lon="-4.21266">
        <ele>33.1</ele>
        <time>2024-05-09T15:38:42Z</time>
      </trkpt>
      <trkpt lat="47.88734" lon="-4.2128">
        <ele>34</ele>
        <time>2024-05-09T15:38:46Z</time>
      </trkpt>
      <trkpt lat="47.88737" lon="-4.21297">
        <ele>34</ele>
        <time>2024-05-09T15:38:50Z</time>
      </trkpt>
      <trkpt lat="47.88738" lon="-4.21312">
        <ele>33.9</ele>
        <time>2024-05-09T15:38:53Z</time>
      </trkpt>
      <trkpt lat="47.8874" lon="-4.21326">
        <ele>33.7</ele>
        <time>2024-05-09T15:38:56Z</time>
      </trkpt>
      <trkpt lat="47.88741" lon="-4.21339">
        <ele>33.5</ele>
        <time>2024-05-09T15:38:59Z</time>
      </trkpt>
      <trkpt lat="47.88743" lon="-4.21355">
        <ele>33.2</ele>
        <time>2024-05-09T15:39:03Z</time>
      </trkpt>
      <trkpt lat="47.88749" lon="-4.21369">
        <ele>33</ele>
        <time>2024-05-09T15:39:07Z</time>
      </trkpt>
      <trkpt lat="47.88754" lon="-4.21381">
        <ele>33</ele>
        <time>2024-05-09T15:39:10Z</time>
      </trkpt>
      <trkpt lat="47.88757" lon="-4.21395">
        <ele>32.8</ele>
        <time>2024-05-09T15:39:13Z</time>
      </trkpt>
      <trkpt lat="47.88755" lon="-4.21412">
        <ele>32.2</ele>
        <time>2024-05-09T15:39:16Z</time>
      </trkpt>
      <trkpt lat="47.8875" lon="-4.21427">
        <ele>32</ele>
        <time>2024-05-09T15:39:19Z</time>
      </trkpt>
      <trkpt lat="47.88744" lon="-4.21444">
        <ele>32</ele>
        <time>2024-05-09T15:39:22Z</time>
      </trkpt>
      <trkpt lat="47.88737" lon="-4.21459">
        <ele>31.5</ele>
        <time>2024-05-09T15:39:25Z</time>
      </trkpt>
      <trkpt lat="47.88733" lon="-4.21477">
        <ele>31</ele>
        <time>2024-05-09T15:39:28Z</time>
      </trkpt>
      <trkpt lat="47.88731" lon="-4.21493">
        <ele>31</ele>
        <time>2024-05-09T15:39:31Z</time>
      </trkpt>
      <trkpt lat="47.88728" lon="-4.21512">
        <ele>30.6</ele>
        <time>2024-05-09T15:39:34Z</time>
      </trkpt>
      <trkpt lat="47.88724" lon="-4.21533">
        <ele>30</ele>
        <time>2024-05-09T15:39:37Z</time>
      </trkpt>
      <trkpt lat="47.88716" lon="-4.21545">
        <ele>30.2</ele>
        <time>2024-05-09T15:39:40Z</time>
      </trkpt>
      <trkpt lat="47.88706" lon="-4.21552">
        <ele>30.6</ele>
        <time>2024-05-09T15:39:43Z</time>
      </trkpt>
      <trkpt lat="47.88697" lon="-4.21556">
        <ele>30.9</ele>
        <time>2024-05-09T15:39:46Z</time>
      </trkpt>
      <trkpt lat="47.88687" lon="-4.21554">
        <ele>31</ele>
        <time>2024-05-09T15:39:51Z</time>
      </trkpt>
      <trkpt lat="47.88677" lon="-4.2155">
        <ele>31</ele>
        <time>2024-05-09T15:39:56Z</time>
      </trkpt>
    </trkseg>
  </trk>
</gpx>